<?xml version="1.0" encoding="UTF-8" standalone="no" ?>
<gpx xmlns="http://www.topografix.com/GPX/1/1" xmlns:xsi="http://www.w3.org/2001/XMLSchema-instance" xsi:schemaLocation="http://www.topografix.com/GPX/1/1 http://www.topografix.com/GPX/1/1/gpx.xsd" version="1.1" creator="VisuGPX - https://www.visugpx.com">
  <metadata>
    <name>Col petit saint bernard - Italie</name>
    <desc><![CDATA[Départ d'Aime]]></desc>
  </metadata>
  <trk>
    <name><![CDATA[22]]></name>
    <trkseg>
      <trkpt lat="45.55594" lon="6.66128">
        <ele>660.56298828125</ele>
        <time>2016-08-21T06:26:25Z</time>
      </trkpt>
      <trkpt lat="45.55594" lon="6.66128">
        <ele>660.56298828125</ele>
        <time>2016-08-21T06:26:26Z</time>
      </trkpt>
      <trkpt lat="45.55594" lon="6.66128">
        <ele>660.56298828125</ele>
        <time>2016-08-21T06:26:27Z</time>
      </trkpt>
      <trkpt lat="45.55593" lon="6.66128">
        <ele>660.56298828125</ele>
        <time>2016-08-21T06:26:32Z</time>
      </trkpt>
      <trkpt lat="45.55603" lon="6.66136">
        <ele>661.04370117188</ele>
        <time>2016-08-21T06:26:38Z</time>
      </trkpt>
      <trkpt lat="45.55617" lon="6.66134">
        <ele>660.08227539062</ele>
        <time>2016-08-21T06:26:42Z</time>
      </trkpt>
      <trkpt lat="45.55624" lon="6.66142">
        <ele>661.04370117188</ele>
        <time>2016-08-21T06:26:45Z</time>
      </trkpt>
      <trkpt lat="45.55644" lon="6.66177">
        <ele>660.56298828125</ele>
        <time>2016-08-21T06:26:52Z</time>
      </trkpt>
      <trkpt lat="45.55659" lon="6.66206">
        <ele>661.04370117188</ele>
        <time>2016-08-21T06:26:57Z</time>
      </trkpt>
      <trkpt lat="45.55675" lon="6.66264">
        <ele>661.5244140625</ele>
        <time>2016-08-21T06:27:06Z</time>
      </trkpt>
      <trkpt lat="45.55683" lon="6.66305">
        <ele>662.96630859375</ele>
        <time>2016-08-21T06:27:12Z</time>
      </trkpt>
      <trkpt lat="45.55684" lon="6.66311">
        <ele>662.96630859375</ele>
        <time>2016-08-21T06:27:13Z</time>
      </trkpt>
      <trkpt lat="45.55695" lon="6.66371">
        <ele>663.44702148438</ele>
        <time>2016-08-21T06:27:22Z</time>
      </trkpt>
      <trkpt lat="45.55698" lon="6.66383">
        <ele>662.96630859375</ele>
        <time>2016-08-21T06:27:24Z</time>
      </trkpt>
      <trkpt lat="45.55707" lon="6.66403">
        <ele>663.92749023438</ele>
        <time>2016-08-21T06:27:28Z</time>
      </trkpt>
      <trkpt lat="45.5573" lon="6.66448">
        <ele>664.88891601562</ele>
        <time>2016-08-21T06:27:36Z</time>
      </trkpt>
      <trkpt lat="45.55755" lon="6.66488">
        <ele>665.36962890625</ele>
        <time>2016-08-21T06:27:44Z</time>
      </trkpt>
      <trkpt lat="45.55758" lon="6.66493">
        <ele>666.33081054688</ele>
        <time>2016-08-21T06:27:45Z</time>
      </trkpt>
      <trkpt lat="45.55784" lon="6.66535">
        <ele>665.85034179688</ele>
        <time>2016-08-21T06:27:53Z</time>
      </trkpt>
      <trkpt lat="45.5581" lon="6.66574">
        <ele>666.8115234375</ele>
        <time>2016-08-21T06:28:01Z</time>
      </trkpt>
      <trkpt lat="45.55823" lon="6.66592">
        <ele>667.77270507812</ele>
        <time>2016-08-21T06:28:05Z</time>
      </trkpt>
      <trkpt lat="45.55835" lon="6.66603">
        <ele>667.77270507812</ele>
        <time>2016-08-21T06:28:08Z</time>
      </trkpt>
      <trkpt lat="45.55854" lon="6.66624">
        <ele>667.77270507812</ele>
        <time>2016-08-21T06:28:13Z</time>
      </trkpt>
      <trkpt lat="45.55881" lon="6.66652">
        <ele>668.25366210938</ele>
        <time>2016-08-21T06:28:20Z</time>
      </trkpt>
      <trkpt lat="45.55889" lon="6.66662">
        <ele>668.734375</ele>
        <time>2016-08-21T06:28:22Z</time>
      </trkpt>
      <trkpt lat="45.55905" lon="6.66698">
        <ele>668.734375</ele>
        <time>2016-08-21T06:28:28Z</time>
      </trkpt>
      <trkpt lat="45.55906" lon="6.66704">
        <ele>669.21508789062</ele>
        <time>2016-08-21T06:28:29Z</time>
      </trkpt>
      <trkpt lat="45.55912" lon="6.66754">
        <ele>669.21508789062</ele>
        <time>2016-08-21T06:28:36Z</time>
      </trkpt>
      <trkpt lat="45.55918" lon="6.66787">
        <ele>670.17626953125</ele>
        <time>2016-08-21T06:28:41Z</time>
      </trkpt>
      <trkpt lat="45.55931" lon="6.66842">
        <ele>670.17626953125</ele>
        <time>2016-08-21T06:28:49Z</time>
      </trkpt>
      <trkpt lat="45.55951" lon="6.66894">
        <ele>670.65698242188</ele>
        <time>2016-08-21T06:28:57Z</time>
      </trkpt>
      <trkpt lat="45.55954" lon="6.669">
        <ele>670.65698242188</ele>
        <time>2016-08-21T06:28:58Z</time>
      </trkpt>
      <trkpt lat="45.55983" lon="6.66965">
        <ele>673.06030273438</ele>
        <time>2016-08-21T06:29:09Z</time>
      </trkpt>
      <trkpt lat="45.56" lon="6.67015">
        <ele>673.541015625</ele>
        <time>2016-08-21T06:29:17Z</time>
      </trkpt>
      <trkpt lat="45.56018" lon="6.67062">
        <ele>673.541015625</ele>
        <time>2016-08-21T06:29:24Z</time>
      </trkpt>
      <trkpt lat="45.56025" lon="6.67077">
        <ele>673.541015625</ele>
        <time>2016-08-21T06:29:26Z</time>
      </trkpt>
      <trkpt lat="45.5604" lon="6.6712">
        <ele>673.06030273438</ele>
        <time>2016-08-21T06:29:31Z</time>
      </trkpt>
      <trkpt lat="45.56042" lon="6.67155">
        <ele>672.57958984375</ele>
        <time>2016-08-21T06:29:35Z</time>
      </trkpt>
      <trkpt lat="45.5604" lon="6.67163">
        <ele>673.06030273438</ele>
        <time>2016-08-21T06:29:36Z</time>
      </trkpt>
      <trkpt lat="45.56033" lon="6.67184">
        <ele>673.06030273438</ele>
        <time>2016-08-21T06:29:39Z</time>
      </trkpt>
      <trkpt lat="45.56028" lon="6.67211">
        <ele>673.06030273438</ele>
        <time>2016-08-21T06:29:43Z</time>
      </trkpt>
      <trkpt lat="45.56031" lon="6.67251">
        <ele>674.50219726562</ele>
        <time>2016-08-21T06:29:49Z</time>
      </trkpt>
      <trkpt lat="45.56036" lon="6.67291">
        <ele>674.50219726562</ele>
        <time>2016-08-21T06:29:55Z</time>
      </trkpt>
      <trkpt lat="45.56038" lon="6.67311">
        <ele>674.50219726562</ele>
        <time>2016-08-21T06:29:58Z</time>
      </trkpt>
      <trkpt lat="45.56043" lon="6.67338">
        <ele>674.98291015625</ele>
        <time>2016-08-21T06:30:02Z</time>
      </trkpt>
      <trkpt lat="45.56052" lon="6.67374">
        <ele>675.94409179688</ele>
        <time>2016-08-21T06:30:08Z</time>
      </trkpt>
      <trkpt lat="45.56072" lon="6.6743">
        <ele>676.90551757812</ele>
        <time>2016-08-21T06:30:17Z</time>
      </trkpt>
      <trkpt lat="45.56078" lon="6.67447">
        <ele>677.38623046875</ele>
        <time>2016-08-21T06:30:20Z</time>
      </trkpt>
      <trkpt lat="45.56086" lon="6.67471">
        <ele>676.90551757812</ele>
        <time>2016-08-21T06:30:24Z</time>
      </trkpt>
      <trkpt lat="45.56091" lon="6.67491">
        <ele>677.86669921875</ele>
        <time>2016-08-21T06:30:27Z</time>
      </trkpt>
      <trkpt lat="45.561" lon="6.67516">
        <ele>679.78930664062</ele>
        <time>2016-08-21T06:30:31Z</time>
      </trkpt>
      <trkpt lat="45.56124" lon="6.6756">
        <ele>679.30859375</ele>
        <time>2016-08-21T06:30:39Z</time>
      </trkpt>
      <trkpt lat="45.56147" lon="6.67596">
        <ele>680.27001953125</ele>
        <time>2016-08-21T06:30:46Z</time>
      </trkpt>
      <trkpt lat="45.56173" lon="6.67626">
        <ele>680.75073242188</ele>
        <time>2016-08-21T06:30:53Z</time>
      </trkpt>
      <trkpt lat="45.56207" lon="6.6766">
        <ele>681.7119140625</ele>
        <time>2016-08-21T06:31:01Z</time>
      </trkpt>
      <trkpt lat="45.56229" lon="6.67688">
        <ele>682.67333984375</ele>
        <time>2016-08-21T06:31:07Z</time>
      </trkpt>
      <trkpt lat="45.56249" lon="6.67735">
        <ele>683.63452148438</ele>
        <time>2016-08-21T06:31:15Z</time>
      </trkpt>
      <trkpt lat="45.56265" lon="6.67778">
        <ele>683.63452148438</ele>
        <time>2016-08-21T06:31:22Z</time>
      </trkpt>
      <trkpt lat="45.56277" lon="6.67812">
        <ele>685.55737304688</ele>
        <time>2016-08-21T06:31:28Z</time>
      </trkpt>
      <trkpt lat="45.56282" lon="6.67832">
        <ele>686.0380859375</ele>
        <time>2016-08-21T06:31:32Z</time>
      </trkpt>
      <trkpt lat="45.56285" lon="6.67858">
        <ele>687.96069335938</ele>
        <time>2016-08-21T06:31:38Z</time>
      </trkpt>
      <trkpt lat="45.56286" lon="6.67874">
        <ele>689.40258789062</ele>
        <time>2016-08-21T06:31:42Z</time>
      </trkpt>
      <trkpt lat="45.56292" lon="6.67901">
        <ele>690.84448242188</ele>
        <time>2016-08-21T06:31:49Z</time>
      </trkpt>
      <trkpt lat="45.56296" lon="6.67914">
        <ele>690.84448242188</ele>
        <time>2016-08-21T06:31:52Z</time>
      </trkpt>
      <trkpt lat="45.5631" lon="6.67956">
        <ele>691.80590820312</ele>
        <time>2016-08-21T06:31:59Z</time>
      </trkpt>
      <trkpt lat="45.56324" lon="6.67998">
        <ele>692.28662109375</ele>
        <time>2016-08-21T06:32:05Z</time>
      </trkpt>
      <trkpt lat="45.56331" lon="6.6803">
        <ele>691.3251953125</ele>
        <time>2016-08-21T06:32:09Z</time>
      </trkpt>
      <trkpt lat="45.56346" lon="6.68086">
        <ele>691.3251953125</ele>
        <time>2016-08-21T06:32:16Z</time>
      </trkpt>
      <trkpt lat="45.56354" lon="6.68124">
        <ele>692.28662109375</ele>
        <time>2016-08-21T06:32:21Z</time>
      </trkpt>
      <trkpt lat="45.56366" lon="6.68168">
        <ele>693.24780273438</ele>
        <time>2016-08-21T06:32:28Z</time>
      </trkpt>
      <trkpt lat="45.56373" lon="6.68208">
        <ele>694.20922851562</ele>
        <time>2016-08-21T06:32:34Z</time>
      </trkpt>
      <trkpt lat="45.56374" lon="6.68222">
        <ele>694.68969726562</ele>
        <time>2016-08-21T06:32:36Z</time>
      </trkpt>
      <trkpt lat="45.56372" lon="6.68247">
        <ele>694.20922851562</ele>
        <time>2016-08-21T06:32:40Z</time>
      </trkpt>
      <trkpt lat="45.56358" lon="6.68288">
        <ele>695.65112304688</ele>
        <time>2016-08-21T06:32:48Z</time>
      </trkpt>
      <trkpt lat="45.56357" lon="6.68293">
        <ele>695.65112304688</ele>
        <time>2016-08-21T06:32:49Z</time>
      </trkpt>
      <trkpt lat="45.56347" lon="6.68335">
        <ele>696.1318359375</ele>
        <time>2016-08-21T06:32:55Z</time>
      </trkpt>
      <trkpt lat="45.56344" lon="6.6835">
        <ele>695.65112304688</ele>
        <time>2016-08-21T06:32:57Z</time>
      </trkpt>
      <trkpt lat="45.56345" lon="6.68413">
        <ele>696.1318359375</ele>
        <time>2016-08-21T06:33:04Z</time>
      </trkpt>
      <trkpt lat="45.56338" lon="6.68452">
        <ele>696.61254882812</ele>
        <time>2016-08-21T06:33:08Z</time>
      </trkpt>
      <trkpt lat="45.56328" lon="6.68465">
        <ele>696.61254882812</ele>
        <time>2016-08-21T06:33:10Z</time>
      </trkpt>
      <trkpt lat="45.56303" lon="6.6849">
        <ele>695.65112304688</ele>
        <time>2016-08-21T06:33:15Z</time>
      </trkpt>
      <trkpt lat="45.56299" lon="6.68495">
        <ele>695.65112304688</ele>
        <time>2016-08-21T06:33:16Z</time>
      </trkpt>
      <trkpt lat="45.5629" lon="6.68508">
        <ele>695.17041015625</ele>
        <time>2016-08-21T06:33:18Z</time>
      </trkpt>
      <trkpt lat="45.56273" lon="6.68547">
        <ele>696.1318359375</ele>
        <time>2016-08-21T06:33:23Z</time>
      </trkpt>
      <trkpt lat="45.56262" lon="6.6858">
        <ele>695.65112304688</ele>
        <time>2016-08-21T06:33:27Z</time>
      </trkpt>
      <trkpt lat="45.56255" lon="6.68604">
        <ele>695.65112304688</ele>
        <time>2016-08-21T06:33:30Z</time>
      </trkpt>
      <trkpt lat="45.56243" lon="6.68635">
        <ele>696.61254882812</ele>
        <time>2016-08-21T06:33:34Z</time>
      </trkpt>
      <trkpt lat="45.56225" lon="6.68682">
        <ele>696.61254882812</ele>
        <time>2016-08-21T06:33:40Z</time>
      </trkpt>
      <trkpt lat="45.56221" lon="6.68689">
        <ele>696.1318359375</ele>
        <time>2016-08-21T06:33:41Z</time>
      </trkpt>
      <trkpt lat="45.56209" lon="6.68729">
        <ele>696.61254882812</ele>
        <time>2016-08-21T06:33:46Z</time>
      </trkpt>
      <trkpt lat="45.562" lon="6.6878">
        <ele>698.53491210938</ele>
        <time>2016-08-21T06:33:52Z</time>
      </trkpt>
      <trkpt lat="45.56199" lon="6.68788">
        <ele>697.57373046875</ele>
        <time>2016-08-21T06:33:53Z</time>
      </trkpt>
      <trkpt lat="45.56197" lon="6.68805">
        <ele>698.05444335938</ele>
        <time>2016-08-21T06:33:55Z</time>
      </trkpt>
      <trkpt lat="45.56187" lon="6.68844">
        <ele>699.015625</ele>
        <time>2016-08-21T06:34:00Z</time>
      </trkpt>
      <trkpt lat="45.56186" lon="6.68877">
        <ele>699.49633789062</ele>
        <time>2016-08-21T06:34:04Z</time>
      </trkpt>
      <trkpt lat="45.56195" lon="6.68941">
        <ele>700.4580078125</ele>
        <time>2016-08-21T06:34:12Z</time>
      </trkpt>
      <trkpt lat="45.562" lon="6.68964">
        <ele>700.4580078125</ele>
        <time>2016-08-21T06:34:15Z</time>
      </trkpt>
      <trkpt lat="45.56205" lon="6.69004">
        <ele>701.41918945312</ele>
        <time>2016-08-21T06:34:20Z</time>
      </trkpt>
      <trkpt lat="45.56215" lon="6.69042">
        <ele>700.9384765625</ele>
        <time>2016-08-21T06:34:25Z</time>
      </trkpt>
      <trkpt lat="45.56224" lon="6.69074">
        <ele>700.9384765625</ele>
        <time>2016-08-21T06:34:29Z</time>
      </trkpt>
      <trkpt lat="45.5625" lon="6.69125">
        <ele>702.38037109375</ele>
        <time>2016-08-21T06:34:36Z</time>
      </trkpt>
      <trkpt lat="45.56265" lon="6.69149">
        <ele>701.41918945312</ele>
        <time>2016-08-21T06:34:40Z</time>
      </trkpt>
      <trkpt lat="45.56275" lon="6.69169">
        <ele>701.41918945312</ele>
        <time>2016-08-21T06:34:43Z</time>
      </trkpt>
      <trkpt lat="45.56283" lon="6.69191">
        <ele>701.41918945312</ele>
        <time>2016-08-21T06:34:46Z</time>
      </trkpt>
      <trkpt lat="45.56293" lon="6.69212">
        <ele>701.41918945312</ele>
        <time>2016-08-21T06:34:49Z</time>
      </trkpt>
      <trkpt lat="45.56296" lon="6.69244">
        <ele>701.41918945312</ele>
        <time>2016-08-21T06:34:53Z</time>
      </trkpt>
      <trkpt lat="45.56306" lon="6.69275">
        <ele>701.89990234375</ele>
        <time>2016-08-21T06:34:57Z</time>
      </trkpt>
      <trkpt lat="45.56309" lon="6.69302">
        <ele>701.41918945312</ele>
        <time>2016-08-21T06:35:00Z</time>
      </trkpt>
      <trkpt lat="45.56309" lon="6.69364">
        <ele>701.41918945312</ele>
        <time>2016-08-21T06:35:07Z</time>
      </trkpt>
      <trkpt lat="45.56309" lon="6.69388">
        <ele>701.89990234375</ele>
        <time>2016-08-21T06:35:10Z</time>
      </trkpt>
      <trkpt lat="45.56315" lon="6.69425">
        <ele>701.89990234375</ele>
        <time>2016-08-21T06:35:15Z</time>
      </trkpt>
      <trkpt lat="45.56321" lon="6.69438">
        <ele>702.38037109375</ele>
        <time>2016-08-21T06:35:17Z</time>
      </trkpt>
      <trkpt lat="45.56331" lon="6.69476">
        <ele>702.86108398438</ele>
        <time>2016-08-21T06:35:22Z</time>
      </trkpt>
      <trkpt lat="45.56336" lon="6.69507">
        <ele>702.86108398438</ele>
        <time>2016-08-21T06:35:26Z</time>
      </trkpt>
      <trkpt lat="45.56348" lon="6.69568">
        <ele>703.82250976562</ele>
        <time>2016-08-21T06:35:34Z</time>
      </trkpt>
      <trkpt lat="45.5635" lon="6.69575">
        <ele>704.30322265625</ele>
        <time>2016-08-21T06:35:35Z</time>
      </trkpt>
      <trkpt lat="45.56351" lon="6.69598">
        <ele>704.30322265625</ele>
        <time>2016-08-21T06:35:38Z</time>
      </trkpt>
      <trkpt lat="45.56341" lon="6.69644">
        <ele>703.82250976562</ele>
        <time>2016-08-21T06:35:44Z</time>
      </trkpt>
      <trkpt lat="45.56332" lon="6.69684">
        <ele>704.78369140625</ele>
        <time>2016-08-21T06:35:49Z</time>
      </trkpt>
      <trkpt lat="45.56329" lon="6.69708">
        <ele>704.78369140625</ele>
        <time>2016-08-21T06:35:52Z</time>
      </trkpt>
      <trkpt lat="45.56327" lon="6.69733">
        <ele>704.78369140625</ele>
        <time>2016-08-21T06:35:55Z</time>
      </trkpt>
      <trkpt lat="45.56326" lon="6.6975">
        <ele>705.26440429688</ele>
        <time>2016-08-21T06:35:57Z</time>
      </trkpt>
      <trkpt lat="45.56333" lon="6.69799">
        <ele>705.7451171875</ele>
        <time>2016-08-21T06:36:03Z</time>
      </trkpt>
      <trkpt lat="45.56334" lon="6.69833">
        <ele>704.78369140625</ele>
        <time>2016-08-21T06:36:07Z</time>
      </trkpt>
      <trkpt lat="45.56337" lon="6.69848">
        <ele>704.30322265625</ele>
        <time>2016-08-21T06:36:09Z</time>
      </trkpt>
      <trkpt lat="45.56341" lon="6.69898">
        <ele>704.78369140625</ele>
        <time>2016-08-21T06:36:15Z</time>
      </trkpt>
      <trkpt lat="45.56348" lon="6.69967">
        <ele>703.82250976562</ele>
        <time>2016-08-21T06:36:23Z</time>
      </trkpt>
      <trkpt lat="45.56356" lon="6.70028">
        <ele>704.30322265625</ele>
        <time>2016-08-21T06:36:30Z</time>
      </trkpt>
      <trkpt lat="45.56369" lon="6.70095">
        <ele>704.78369140625</ele>
        <time>2016-08-21T06:36:38Z</time>
      </trkpt>
      <trkpt lat="45.56381" lon="6.70134">
        <ele>705.26440429688</ele>
        <time>2016-08-21T06:36:43Z</time>
      </trkpt>
      <trkpt lat="45.56388" lon="6.70185">
        <ele>704.78369140625</ele>
        <time>2016-08-21T06:36:49Z</time>
      </trkpt>
      <trkpt lat="45.56389" lon="6.70201">
        <ele>704.78369140625</ele>
        <time>2016-08-21T06:36:51Z</time>
      </trkpt>
      <trkpt lat="45.56392" lon="6.70236">
        <ele>706.2255859375</ele>
        <time>2016-08-21T06:36:56Z</time>
      </trkpt>
      <trkpt lat="45.56404" lon="6.70265">
        <ele>707.18701171875</ele>
        <time>2016-08-21T06:37:01Z</time>
      </trkpt>
      <trkpt lat="45.56426" lon="6.70299">
        <ele>708.1484375</ele>
        <time>2016-08-21T06:37:08Z</time>
      </trkpt>
      <trkpt lat="45.56447" lon="6.70323">
        <ele>710.07080078125</ele>
        <time>2016-08-21T06:37:13Z</time>
      </trkpt>
      <trkpt lat="45.56467" lon="6.7035">
        <ele>710.55151367188</ele>
        <time>2016-08-21T06:37:18Z</time>
      </trkpt>
      <trkpt lat="45.56494" lon="6.70388">
        <ele>710.55151367188</ele>
        <time>2016-08-21T06:37:25Z</time>
      </trkpt>
      <trkpt lat="45.56519" lon="6.70421">
        <ele>711.0322265625</ele>
        <time>2016-08-21T06:37:31Z</time>
      </trkpt>
      <trkpt lat="45.56544" lon="6.70449">
        <ele>711.51293945312</ele>
        <time>2016-08-21T06:37:37Z</time>
      </trkpt>
      <trkpt lat="45.56578" lon="6.70474">
        <ele>711.51293945312</ele>
        <time>2016-08-21T06:37:44Z</time>
      </trkpt>
      <trkpt lat="45.56626" lon="6.70506">
        <ele>711.99365234375</ele>
        <time>2016-08-21T06:37:54Z</time>
      </trkpt>
      <trkpt lat="45.56635" lon="6.70513">
        <ele>711.99365234375</ele>
        <time>2016-08-21T06:37:56Z</time>
      </trkpt>
      <trkpt lat="45.56658" lon="6.70537">
        <ele>712.47412109375</ele>
        <time>2016-08-21T06:38:01Z</time>
      </trkpt>
      <trkpt lat="45.56667" lon="6.70549">
        <ele>711.99365234375</ele>
        <time>2016-08-21T06:38:03Z</time>
      </trkpt>
      <trkpt lat="45.56677" lon="6.70569">
        <ele>712.47412109375</ele>
        <time>2016-08-21T06:38:06Z</time>
      </trkpt>
      <trkpt lat="45.56686" lon="6.706">
        <ele>712.47412109375</ele>
        <time>2016-08-21T06:38:10Z</time>
      </trkpt>
      <trkpt lat="45.56685" lon="6.7064">
        <ele>712.47412109375</ele>
        <time>2016-08-21T06:38:15Z</time>
      </trkpt>
      <trkpt lat="45.56682" lon="6.70664">
        <ele>712.47412109375</ele>
        <time>2016-08-21T06:38:18Z</time>
      </trkpt>
      <trkpt lat="45.56674" lon="6.70704">
        <ele>712.47412109375</ele>
        <time>2016-08-21T06:38:23Z</time>
      </trkpt>
      <trkpt lat="45.56656" lon="6.70726">
        <ele>712.95483398438</ele>
        <time>2016-08-21T06:38:27Z</time>
      </trkpt>
      <trkpt lat="45.56619" lon="6.70755">
        <ele>712.95483398438</ele>
        <time>2016-08-21T06:38:35Z</time>
      </trkpt>
      <trkpt lat="45.56609" lon="6.70762">
        <ele>714.39672851562</ele>
        <time>2016-08-21T06:38:37Z</time>
      </trkpt>
      <trkpt lat="45.56589" lon="6.70782">
        <ele>713.916015625</ele>
        <time>2016-08-21T06:38:42Z</time>
      </trkpt>
      <trkpt lat="45.56568" lon="6.70812">
        <ele>713.916015625</ele>
        <time>2016-08-21T06:38:47Z</time>
      </trkpt>
      <trkpt lat="45.56554" lon="6.70857">
        <ele>714.39672851562</ele>
        <time>2016-08-21T06:38:52Z</time>
      </trkpt>
      <trkpt lat="45.5655" lon="6.70875">
        <ele>713.916015625</ele>
        <time>2016-08-21T06:38:54Z</time>
      </trkpt>
      <trkpt lat="45.56548" lon="6.70909">
        <ele>714.39672851562</ele>
        <time>2016-08-21T06:38:58Z</time>
      </trkpt>
      <trkpt lat="45.56544" lon="6.70948">
        <ele>714.87744140625</ele>
        <time>2016-08-21T06:39:03Z</time>
      </trkpt>
      <trkpt lat="45.56545" lon="6.70972">
        <ele>714.39672851562</ele>
        <time>2016-08-21T06:39:06Z</time>
      </trkpt>
      <trkpt lat="45.56557" lon="6.71035">
        <ele>714.87744140625</ele>
        <time>2016-08-21T06:39:14Z</time>
      </trkpt>
      <trkpt lat="45.56562" lon="6.71082">
        <ele>716.31958007812</ele>
        <time>2016-08-21T06:39:20Z</time>
      </trkpt>
      <trkpt lat="45.5657" lon="6.7113">
        <ele>715.35815429688</ele>
        <time>2016-08-21T06:39:26Z</time>
      </trkpt>
      <trkpt lat="45.56591" lon="6.712">
        <ele>715.8388671875</ele>
        <time>2016-08-21T06:39:35Z</time>
      </trkpt>
      <trkpt lat="45.56608" lon="6.71234">
        <ele>715.8388671875</ele>
        <time>2016-08-21T06:39:40Z</time>
      </trkpt>
      <trkpt lat="45.56628" lon="6.71263">
        <ele>716.31958007812</ele>
        <time>2016-08-21T06:39:45Z</time>
      </trkpt>
      <trkpt lat="45.56638" lon="6.71271">
        <ele>716.80029296875</ele>
        <time>2016-08-21T06:39:47Z</time>
      </trkpt>
      <trkpt lat="45.56652" lon="6.71295">
        <ele>716.80029296875</ele>
        <time>2016-08-21T06:39:51Z</time>
      </trkpt>
      <trkpt lat="45.56654" lon="6.71302">
        <ele>717.28100585938</ele>
        <time>2016-08-21T06:39:52Z</time>
      </trkpt>
      <trkpt lat="45.56655" lon="6.71317">
        <ele>717.28100585938</ele>
        <time>2016-08-21T06:39:54Z</time>
      </trkpt>
      <trkpt lat="45.56646" lon="6.71348">
        <ele>717.76147460938</ele>
        <time>2016-08-21T06:39:59Z</time>
      </trkpt>
      <trkpt lat="45.56646" lon="6.71358">
        <ele>718.72290039062</ele>
        <time>2016-08-21T06:40:01Z</time>
      </trkpt>
      <trkpt lat="45.5665" lon="6.71392">
        <ele>719.20361328125</ele>
        <time>2016-08-21T06:40:07Z</time>
      </trkpt>
      <trkpt lat="45.56646" lon="6.71417">
        <ele>719.20361328125</ele>
        <time>2016-08-21T06:40:11Z</time>
      </trkpt>
      <trkpt lat="45.56648" lon="6.71431">
        <ele>719.68432617188</ele>
        <time>2016-08-21T06:40:13Z</time>
      </trkpt>
      <trkpt lat="45.56657" lon="6.71474">
        <ele>721.12622070312</ele>
        <time>2016-08-21T06:40:20Z</time>
      </trkpt>
      <trkpt lat="45.56665" lon="6.71508">
        <ele>722.08740234375</ele>
        <time>2016-08-21T06:40:26Z</time>
      </trkpt>
      <trkpt lat="45.56673" lon="6.71548">
        <ele>722.56811523438</ele>
        <time>2016-08-21T06:40:32Z</time>
      </trkpt>
      <trkpt lat="45.56676" lon="6.71562">
        <ele>723.048828125</ele>
        <time>2016-08-21T06:40:34Z</time>
      </trkpt>
      <trkpt lat="45.56682" lon="6.71595">
        <ele>721.60668945312</ele>
        <time>2016-08-21T06:40:38Z</time>
      </trkpt>
      <trkpt lat="45.56694" lon="6.71646">
        <ele>720.6455078125</ele>
        <time>2016-08-21T06:40:43Z</time>
      </trkpt>
      <trkpt lat="45.56726" lon="6.71694">
        <ele>720.16479492188</ele>
        <time>2016-08-21T06:40:49Z</time>
      </trkpt>
      <trkpt lat="45.5676" lon="6.71744">
        <ele>720.16479492188</ele>
        <time>2016-08-21T06:40:56Z</time>
      </trkpt>
      <trkpt lat="45.56769" lon="6.71757">
        <ele>720.16479492188</ele>
        <time>2016-08-21T06:40:58Z</time>
      </trkpt>
      <trkpt lat="45.56786" lon="6.71785">
        <ele>720.16479492188</ele>
        <time>2016-08-21T06:41:02Z</time>
      </trkpt>
      <trkpt lat="45.56795" lon="6.71808">
        <ele>720.6455078125</ele>
        <time>2016-08-21T06:41:05Z</time>
      </trkpt>
      <trkpt lat="45.56802" lon="6.7184">
        <ele>720.16479492188</ele>
        <time>2016-08-21T06:41:09Z</time>
      </trkpt>
      <trkpt lat="45.56803" lon="6.71858">
        <ele>720.6455078125</ele>
        <time>2016-08-21T06:41:11Z</time>
      </trkpt>
      <trkpt lat="45.56812" lon="6.71897">
        <ele>720.6455078125</ele>
        <time>2016-08-21T06:41:16Z</time>
      </trkpt>
      <trkpt lat="45.56817" lon="6.71929">
        <ele>720.6455078125</ele>
        <time>2016-08-21T06:41:20Z</time>
      </trkpt>
      <trkpt lat="45.56816" lon="6.71959">
        <ele>721.12622070312</ele>
        <time>2016-08-21T06:41:24Z</time>
      </trkpt>
      <trkpt lat="45.56817" lon="6.71982">
        <ele>721.12622070312</ele>
        <time>2016-08-21T06:41:27Z</time>
      </trkpt>
      <trkpt lat="45.56811" lon="6.7204">
        <ele>721.12622070312</ele>
        <time>2016-08-21T06:41:34Z</time>
      </trkpt>
      <trkpt lat="45.56805" lon="6.72091">
        <ele>721.60668945312</ele>
        <time>2016-08-21T06:41:40Z</time>
      </trkpt>
      <trkpt lat="45.56804" lon="6.721">
        <ele>721.12622070312</ele>
        <time>2016-08-21T06:41:41Z</time>
      </trkpt>
      <trkpt lat="45.56809" lon="6.72164">
        <ele>721.60668945312</ele>
        <time>2016-08-21T06:41:48Z</time>
      </trkpt>
      <trkpt lat="45.56818" lon="6.72225">
        <ele>721.60668945312</ele>
        <time>2016-08-21T06:41:55Z</time>
      </trkpt>
      <trkpt lat="45.56833" lon="6.72282">
        <ele>722.08740234375</ele>
        <time>2016-08-21T06:42:02Z</time>
      </trkpt>
      <trkpt lat="45.56845" lon="6.72314">
        <ele>722.08740234375</ele>
        <time>2016-08-21T06:42:06Z</time>
      </trkpt>
      <trkpt lat="45.56864" lon="6.72333">
        <ele>722.08740234375</ele>
        <time>2016-08-21T06:42:10Z</time>
      </trkpt>
      <trkpt lat="45.5691" lon="6.72358">
        <ele>722.56811523438</ele>
        <time>2016-08-21T06:42:18Z</time>
      </trkpt>
      <trkpt lat="45.56949" lon="6.72383">
        <ele>723.048828125</ele>
        <time>2016-08-21T06:42:25Z</time>
      </trkpt>
      <trkpt lat="45.56971" lon="6.72398">
        <ele>724.01000976562</ele>
        <time>2016-08-21T06:42:29Z</time>
      </trkpt>
      <trkpt lat="45.5701" lon="6.72436">
        <ele>724.49072265625</ele>
        <time>2016-08-21T06:42:37Z</time>
      </trkpt>
      <trkpt lat="45.57056" lon="6.72475">
        <ele>724.49072265625</ele>
        <time>2016-08-21T06:42:45Z</time>
      </trkpt>
      <trkpt lat="45.57061" lon="6.7248">
        <ele>724.49072265625</ele>
        <time>2016-08-21T06:42:46Z</time>
      </trkpt>
      <trkpt lat="45.57075" lon="6.72509">
        <ele>724.97143554688</ele>
        <time>2016-08-21T06:42:50Z</time>
      </trkpt>
      <trkpt lat="45.57086" lon="6.72529">
        <ele>725.45190429688</ele>
        <time>2016-08-21T06:42:53Z</time>
      </trkpt>
      <trkpt lat="45.57109" lon="6.72557">
        <ele>725.9326171875</ele>
        <time>2016-08-21T06:42:58Z</time>
      </trkpt>
      <trkpt lat="45.5712" lon="6.72565">
        <ele>725.9326171875</ele>
        <time>2016-08-21T06:43:00Z</time>
      </trkpt>
      <trkpt lat="45.57143" lon="6.72578">
        <ele>725.9326171875</ele>
        <time>2016-08-21T06:43:04Z</time>
      </trkpt>
      <trkpt lat="45.57162" lon="6.72601">
        <ele>726.41333007812</ele>
        <time>2016-08-21T06:43:08Z</time>
      </trkpt>
      <trkpt lat="45.57167" lon="6.72617">
        <ele>726.41333007812</ele>
        <time>2016-08-21T06:43:10Z</time>
      </trkpt>
      <trkpt lat="45.57182" lon="6.72655">
        <ele>726.89404296875</ele>
        <time>2016-08-21T06:43:15Z</time>
      </trkpt>
      <trkpt lat="45.5722" lon="6.72712">
        <ele>727.85522460938</ele>
        <time>2016-08-21T06:43:24Z</time>
      </trkpt>
      <trkpt lat="45.57248" lon="6.72764">
        <ele>727.85522460938</ele>
        <time>2016-08-21T06:43:31Z</time>
      </trkpt>
      <trkpt lat="45.57279" lon="6.72795">
        <ele>728.81665039062</ele>
        <time>2016-08-21T06:43:37Z</time>
      </trkpt>
      <trkpt lat="45.57321" lon="6.72816">
        <ele>728.81665039062</ele>
        <time>2016-08-21T06:43:44Z</time>
      </trkpt>
      <trkpt lat="45.57382" lon="6.72845">
        <ele>729.29711914062</ele>
        <time>2016-08-21T06:43:54Z</time>
      </trkpt>
      <trkpt lat="45.57389" lon="6.72848">
        <ele>729.29711914062</ele>
        <time>2016-08-21T06:43:55Z</time>
      </trkpt>
      <trkpt lat="45.57408" lon="6.72871">
        <ele>729.29711914062</ele>
        <time>2016-08-21T06:43:59Z</time>
      </trkpt>
      <trkpt lat="45.57415" lon="6.72906">
        <ele>729.77783203125</ele>
        <time>2016-08-21T06:44:03Z</time>
      </trkpt>
      <trkpt lat="45.57415" lon="6.72915">
        <ele>730.25854492188</ele>
        <time>2016-08-21T06:44:04Z</time>
      </trkpt>
      <trkpt lat="45.5741" lon="6.72967">
        <ele>731.70043945312</ele>
        <time>2016-08-21T06:44:10Z</time>
      </trkpt>
      <trkpt lat="45.5741" lon="6.73002">
        <ele>731.70043945312</ele>
        <time>2016-08-21T06:44:14Z</time>
      </trkpt>
      <trkpt lat="45.57424" lon="6.73075">
        <ele>731.70043945312</ele>
        <time>2016-08-21T06:44:22Z</time>
      </trkpt>
      <trkpt lat="45.57444" lon="6.73135">
        <ele>731.70043945312</ele>
        <time>2016-08-21T06:44:29Z</time>
      </trkpt>
      <trkpt lat="45.57464" lon="6.73171">
        <ele>731.70043945312</ele>
        <time>2016-08-21T06:44:34Z</time>
      </trkpt>
      <trkpt lat="45.57494" lon="6.73204">
        <ele>733.62329101562</ele>
        <time>2016-08-21T06:44:40Z</time>
      </trkpt>
      <trkpt lat="45.57526" lon="6.7323">
        <ele>732.662109375</ele>
        <time>2016-08-21T06:44:46Z</time>
      </trkpt>
      <trkpt lat="45.57566" lon="6.73262">
        <ele>733.142578125</ele>
        <time>2016-08-21T06:44:53Z</time>
      </trkpt>
      <trkpt lat="45.57592" lon="6.7329">
        <ele>733.62329101562</ele>
        <time>2016-08-21T06:44:58Z</time>
      </trkpt>
      <trkpt lat="45.57626" lon="6.73334">
        <ele>733.62329101562</ele>
        <time>2016-08-21T06:45:05Z</time>
      </trkpt>
      <trkpt lat="45.5763" lon="6.73341">
        <ele>733.62329101562</ele>
        <time>2016-08-21T06:45:06Z</time>
      </trkpt>
      <trkpt lat="45.5765" lon="6.73379">
        <ele>734.10400390625</ele>
        <time>2016-08-21T06:45:11Z</time>
      </trkpt>
      <trkpt lat="45.57655" lon="6.73386">
        <ele>734.10400390625</ele>
        <time>2016-08-21T06:45:12Z</time>
      </trkpt>
      <trkpt lat="45.57669" lon="6.73421">
        <ele>734.10400390625</ele>
        <time>2016-08-21T06:45:16Z</time>
      </trkpt>
      <trkpt lat="45.57667" lon="6.73429">
        <ele>734.10400390625</ele>
        <time>2016-08-21T06:45:17Z</time>
      </trkpt>
      <trkpt lat="45.57665" lon="6.73463">
        <ele>734.58471679688</ele>
        <time>2016-08-21T06:45:21Z</time>
      </trkpt>
      <trkpt lat="45.57673" lon="6.73503">
        <ele>736.02661132812</ele>
        <time>2016-08-21T06:45:26Z</time>
      </trkpt>
      <trkpt lat="45.57698" lon="6.73567">
        <ele>735.5458984375</ele>
        <time>2016-08-21T06:45:34Z</time>
      </trkpt>
      <trkpt lat="45.57701" lon="6.73576">
        <ele>736.02661132812</ele>
        <time>2016-08-21T06:45:35Z</time>
      </trkpt>
      <trkpt lat="45.57703" lon="6.7362">
        <ele>736.02661132812</ele>
        <time>2016-08-21T06:45:40Z</time>
      </trkpt>
      <trkpt lat="45.57698" lon="6.73668">
        <ele>736.98779296875</ele>
        <time>2016-08-21T06:45:45Z</time>
      </trkpt>
      <trkpt lat="45.57694" lon="6.73686">
        <ele>736.98779296875</ele>
        <time>2016-08-21T06:45:47Z</time>
      </trkpt>
      <trkpt lat="45.57678" lon="6.73711">
        <ele>737.46850585938</ele>
        <time>2016-08-21T06:45:51Z</time>
      </trkpt>
      <trkpt lat="45.57672" lon="6.73722">
        <ele>738.42993164062</ele>
        <time>2016-08-21T06:45:53Z</time>
      </trkpt>
      <trkpt lat="45.57672" lon="6.73755">
        <ele>739.39111328125</ele>
        <time>2016-08-21T06:45:57Z</time>
      </trkpt>
      <trkpt lat="45.5767" lon="6.73764">
        <ele>738.42993164062</ele>
        <time>2016-08-21T06:45:58Z</time>
      </trkpt>
      <trkpt lat="45.57656" lon="6.73815">
        <ele>738.42993164062</ele>
        <time>2016-08-21T06:46:03Z</time>
      </trkpt>
      <trkpt lat="45.57651" lon="6.73837">
        <ele>737.94921875</ele>
        <time>2016-08-21T06:46:05Z</time>
      </trkpt>
      <trkpt lat="45.5765" lon="6.73914">
        <ele>737.94921875</ele>
        <time>2016-08-21T06:46:12Z</time>
      </trkpt>
      <trkpt lat="45.57651" lon="6.73947">
        <ele>738.42993164062</ele>
        <time>2016-08-21T06:46:15Z</time>
      </trkpt>
      <trkpt lat="45.57666" lon="6.74007">
        <ele>739.87182617188</ele>
        <time>2016-08-21T06:46:21Z</time>
      </trkpt>
      <trkpt lat="45.5768" lon="6.74059">
        <ele>741.31372070312</ele>
        <time>2016-08-21T06:46:27Z</time>
      </trkpt>
      <trkpt lat="45.57695" lon="6.74087">
        <ele>741.31372070312</ele>
        <time>2016-08-21T06:46:31Z</time>
      </trkpt>
      <trkpt lat="45.5771" lon="6.74103">
        <ele>742.27514648438</ele>
        <time>2016-08-21T06:46:34Z</time>
      </trkpt>
      <trkpt lat="45.5774" lon="6.74118">
        <ele>743.236328125</ele>
        <time>2016-08-21T06:46:39Z</time>
      </trkpt>
      <trkpt lat="45.57752" lon="6.74122">
        <ele>744.67822265625</ele>
        <time>2016-08-21T06:46:41Z</time>
      </trkpt>
      <trkpt lat="45.57768" lon="6.7413">
        <ele>746.60107421875</ele>
        <time>2016-08-21T06:46:44Z</time>
      </trkpt>
      <trkpt lat="45.57793" lon="6.74144">
        <ele>745.15893554688</ele>
        <time>2016-08-21T06:46:48Z</time>
      </trkpt>
      <trkpt lat="45.578" lon="6.74148">
        <ele>744.67822265625</ele>
        <time>2016-08-21T06:46:49Z</time>
      </trkpt>
      <trkpt lat="45.57817" lon="6.74152">
        <ele>743.71704101562</ele>
        <time>2016-08-21T06:46:51Z</time>
      </trkpt>
      <trkpt lat="45.57833" lon="6.74147">
        <ele>743.236328125</ele>
        <time>2016-08-21T06:46:53Z</time>
      </trkpt>
      <trkpt lat="45.57893" lon="6.74124">
        <ele>742.755859375</ele>
        <time>2016-08-21T06:47:00Z</time>
      </trkpt>
      <trkpt lat="45.57901" lon="6.74121">
        <ele>742.755859375</ele>
        <time>2016-08-21T06:47:01Z</time>
      </trkpt>
      <trkpt lat="45.57939" lon="6.74103">
        <ele>742.755859375</ele>
        <time>2016-08-21T06:47:06Z</time>
      </trkpt>
      <trkpt lat="45.57984" lon="6.74103">
        <ele>743.236328125</ele>
        <time>2016-08-21T06:47:12Z</time>
      </trkpt>
      <trkpt lat="45.5804" lon="6.74119">
        <ele>745.15893554688</ele>
        <time>2016-08-21T06:47:20Z</time>
      </trkpt>
      <trkpt lat="45.5806" lon="6.74129">
        <ele>744.67822265625</ele>
        <time>2016-08-21T06:47:23Z</time>
      </trkpt>
      <trkpt lat="45.58082" lon="6.74155">
        <ele>745.15893554688</ele>
        <time>2016-08-21T06:47:27Z</time>
      </trkpt>
      <trkpt lat="45.58085" lon="6.74164">
        <ele>745.6396484375</ele>
        <time>2016-08-21T06:47:28Z</time>
      </trkpt>
      <trkpt lat="45.58093" lon="6.74183">
        <ele>745.6396484375</ele>
        <time>2016-08-21T06:47:30Z</time>
      </trkpt>
      <trkpt lat="45.58115" lon="6.7425">
        <ele>745.6396484375</ele>
        <time>2016-08-21T06:47:37Z</time>
      </trkpt>
      <trkpt lat="45.58119" lon="6.7428">
        <ele>746.60107421875</ele>
        <time>2016-08-21T06:47:40Z</time>
      </trkpt>
      <trkpt lat="45.58125" lon="6.74321">
        <ele>747.08154296875</ele>
        <time>2016-08-21T06:47:44Z</time>
      </trkpt>
      <trkpt lat="45.58153" lon="6.74387">
        <ele>746.12036132812</ele>
        <time>2016-08-21T06:47:51Z</time>
      </trkpt>
      <trkpt lat="45.58183" lon="6.7445">
        <ele>747.08154296875</ele>
        <time>2016-08-21T06:47:58Z</time>
      </trkpt>
      <trkpt lat="45.5819" lon="6.74492">
        <ele>748.04321289062</ele>
        <time>2016-08-21T06:48:02Z</time>
      </trkpt>
      <trkpt lat="45.58197" lon="6.74546">
        <ele>747.08154296875</ele>
        <time>2016-08-21T06:48:07Z</time>
      </trkpt>
      <trkpt lat="45.58213" lon="6.74594">
        <ele>748.04321289062</ele>
        <time>2016-08-21T06:48:12Z</time>
      </trkpt>
      <trkpt lat="45.5822" lon="6.74613">
        <ele>747.56225585938</ele>
        <time>2016-08-21T06:48:14Z</time>
      </trkpt>
      <trkpt lat="45.58224" lon="6.74634">
        <ele>748.52368164062</ele>
        <time>2016-08-21T06:48:16Z</time>
      </trkpt>
      <trkpt lat="45.58245" lon="6.74674">
        <ele>749.48510742188</ele>
        <time>2016-08-21T06:48:21Z</time>
      </trkpt>
      <trkpt lat="45.58252" lon="6.7468">
        <ele>749.9658203125</ele>
        <time>2016-08-21T06:48:22Z</time>
      </trkpt>
      <trkpt lat="45.58294" lon="6.74724">
        <ele>749.9658203125</ele>
        <time>2016-08-21T06:48:29Z</time>
      </trkpt>
      <trkpt lat="45.583" lon="6.74731">
        <ele>750.44653320312</ele>
        <time>2016-08-21T06:48:30Z</time>
      </trkpt>
      <trkpt lat="45.5834" lon="6.74758">
        <ele>750.92700195312</ele>
        <time>2016-08-21T06:48:36Z</time>
      </trkpt>
      <trkpt lat="45.5836" lon="6.74772">
        <ele>751.40771484375</ele>
        <time>2016-08-21T06:48:39Z</time>
      </trkpt>
      <trkpt lat="45.5839" lon="6.74783">
        <ele>750.92700195312</ele>
        <time>2016-08-21T06:48:43Z</time>
      </trkpt>
      <trkpt lat="45.58435" lon="6.74791">
        <ele>750.92700195312</ele>
        <time>2016-08-21T06:48:49Z</time>
      </trkpt>
      <trkpt lat="45.5848" lon="6.748">
        <ele>750.92700195312</ele>
        <time>2016-08-21T06:48:55Z</time>
      </trkpt>
      <trkpt lat="45.58487" lon="6.74802">
        <ele>751.88842773438</ele>
        <time>2016-08-21T06:48:56Z</time>
      </trkpt>
      <trkpt lat="45.58511" lon="6.74822">
        <ele>752.849609375</ele>
        <time>2016-08-21T06:49:00Z</time>
      </trkpt>
      <trkpt lat="45.58528" lon="6.74841">
        <ele>752.849609375</ele>
        <time>2016-08-21T06:49:03Z</time>
      </trkpt>
      <trkpt lat="45.58535" lon="6.74844">
        <ele>753.33032226562</ele>
        <time>2016-08-21T06:49:04Z</time>
      </trkpt>
      <trkpt lat="45.58563" lon="6.74855">
        <ele>753.33032226562</ele>
        <time>2016-08-21T06:49:08Z</time>
      </trkpt>
      <trkpt lat="45.58589" lon="6.74876">
        <ele>753.33032226562</ele>
        <time>2016-08-21T06:49:12Z</time>
      </trkpt>
      <trkpt lat="45.58616" lon="6.74894">
        <ele>753.33032226562</ele>
        <time>2016-08-21T06:49:16Z</time>
      </trkpt>
      <trkpt lat="45.58623" lon="6.74895">
        <ele>753.33032226562</ele>
        <time>2016-08-21T06:49:17Z</time>
      </trkpt>
      <trkpt lat="45.58653" lon="6.74898">
        <ele>753.33032226562</ele>
        <time>2016-08-21T06:49:21Z</time>
      </trkpt>
      <trkpt lat="45.58698" lon="6.74901">
        <ele>753.81103515625</ele>
        <time>2016-08-21T06:49:27Z</time>
      </trkpt>
      <trkpt lat="45.58735" lon="6.74902">
        <ele>754.77221679688</ele>
        <time>2016-08-21T06:49:32Z</time>
      </trkpt>
      <trkpt lat="45.58756" lon="6.74909">
        <ele>755.2529296875</ele>
        <time>2016-08-21T06:49:35Z</time>
      </trkpt>
      <trkpt lat="45.58785" lon="6.74914">
        <ele>755.2529296875</ele>
        <time>2016-08-21T06:49:39Z</time>
      </trkpt>
      <trkpt lat="45.58859" lon="6.74912">
        <ele>755.73364257812</ele>
        <time>2016-08-21T06:49:49Z</time>
      </trkpt>
      <trkpt lat="45.58866" lon="6.74912">
        <ele>755.2529296875</ele>
        <time>2016-08-21T06:49:50Z</time>
      </trkpt>
      <trkpt lat="45.58888" lon="6.74909">
        <ele>755.73364257812</ele>
        <time>2016-08-21T06:49:53Z</time>
      </trkpt>
      <trkpt lat="45.58923" lon="6.74913">
        <ele>756.21411132812</ele>
        <time>2016-08-21T06:49:58Z</time>
      </trkpt>
      <trkpt lat="45.5893" lon="6.74914">
        <ele>756.69482421875</ele>
        <time>2016-08-21T06:49:59Z</time>
      </trkpt>
      <trkpt lat="45.58962" lon="6.74927">
        <ele>756.69482421875</ele>
        <time>2016-08-21T06:50:04Z</time>
      </trkpt>
      <trkpt lat="45.58993" lon="6.74947">
        <ele>757.65625</ele>
        <time>2016-08-21T06:50:09Z</time>
      </trkpt>
      <trkpt lat="45.59033" lon="6.74962">
        <ele>757.65625</ele>
        <time>2016-08-21T06:50:15Z</time>
      </trkpt>
      <trkpt lat="45.59057" lon="6.74988">
        <ele>757.65625</ele>
        <time>2016-08-21T06:50:19Z</time>
      </trkpt>
      <trkpt lat="45.59085" lon="6.75003">
        <ele>757.65625</ele>
        <time>2016-08-21T06:50:23Z</time>
      </trkpt>
      <trkpt lat="45.59152" lon="6.75011">
        <ele>757.65625</ele>
        <time>2016-08-21T06:50:32Z</time>
      </trkpt>
      <trkpt lat="45.59185" lon="6.75031">
        <ele>758.13696289062</ele>
        <time>2016-08-21T06:50:37Z</time>
      </trkpt>
      <trkpt lat="45.5919" lon="6.75038">
        <ele>758.13696289062</ele>
        <time>2016-08-21T06:50:38Z</time>
      </trkpt>
      <trkpt lat="45.59228" lon="6.75084">
        <ele>758.61743164062</ele>
        <time>2016-08-21T06:50:45Z</time>
      </trkpt>
      <trkpt lat="45.59251" lon="6.75118">
        <ele>758.61743164062</ele>
        <time>2016-08-21T06:50:50Z</time>
      </trkpt>
      <trkpt lat="45.5926" lon="6.75134">
        <ele>759.57885742188</ele>
        <time>2016-08-21T06:50:52Z</time>
      </trkpt>
      <trkpt lat="45.59283" lon="6.75153">
        <ele>759.09814453125</ele>
        <time>2016-08-21T06:50:56Z</time>
      </trkpt>
      <trkpt lat="45.5929" lon="6.75155">
        <ele>759.09814453125</ele>
        <time>2016-08-21T06:50:57Z</time>
      </trkpt>
      <trkpt lat="45.59338" lon="6.75173">
        <ele>760.05932617188</ele>
        <time>2016-08-21T06:51:04Z</time>
      </trkpt>
      <trkpt lat="45.59368" lon="6.75188">
        <ele>761.50146484375</ele>
        <time>2016-08-21T06:51:08Z</time>
      </trkpt>
      <trkpt lat="45.5939" lon="6.75193">
        <ele>761.98217773438</ele>
        <time>2016-08-21T06:51:11Z</time>
      </trkpt>
      <trkpt lat="45.59418" lon="6.75213">
        <ele>762.46264648438</ele>
        <time>2016-08-21T06:51:15Z</time>
      </trkpt>
      <trkpt lat="45.59428" lon="6.7523">
        <ele>761.50146484375</ele>
        <time>2016-08-21T06:51:17Z</time>
      </trkpt>
      <trkpt lat="45.59441" lon="6.75258">
        <ele>762.46264648438</ele>
        <time>2016-08-21T06:51:20Z</time>
      </trkpt>
      <trkpt lat="45.59476" lon="6.753">
        <ele>762.46264648438</ele>
        <time>2016-08-21T06:51:26Z</time>
      </trkpt>
      <trkpt lat="45.59514" lon="6.75345">
        <ele>762.943359375</ele>
        <time>2016-08-21T06:51:33Z</time>
      </trkpt>
      <trkpt lat="45.59545" lon="6.75381">
        <ele>762.943359375</ele>
        <time>2016-08-21T06:51:39Z</time>
      </trkpt>
      <trkpt lat="45.59558" lon="6.7539">
        <ele>763.90454101562</ele>
        <time>2016-08-21T06:51:41Z</time>
      </trkpt>
      <trkpt lat="45.59578" lon="6.75415">
        <ele>765.34692382812</ele>
        <time>2016-08-21T06:51:45Z</time>
      </trkpt>
      <trkpt lat="45.59598" lon="6.75425">
        <ele>764.8662109375</ele>
        <time>2016-08-21T06:51:48Z</time>
      </trkpt>
      <trkpt lat="45.59605" lon="6.75428">
        <ele>764.8662109375</ele>
        <time>2016-08-21T06:51:49Z</time>
      </trkpt>
      <trkpt lat="45.59643" lon="6.75455">
        <ele>764.38549804688</ele>
        <time>2016-08-21T06:51:55Z</time>
      </trkpt>
      <trkpt lat="45.5965" lon="6.75459">
        <ele>764.8662109375</ele>
        <time>2016-08-21T06:51:56Z</time>
      </trkpt>
      <trkpt lat="45.59675" lon="6.75481">
        <ele>764.8662109375</ele>
        <time>2016-08-21T06:52:00Z</time>
      </trkpt>
      <trkpt lat="45.59694" lon="6.7549">
        <ele>765.34692382812</ele>
        <time>2016-08-21T06:52:03Z</time>
      </trkpt>
      <trkpt lat="45.59722" lon="6.755">
        <ele>766.30810546875</ele>
        <time>2016-08-21T06:52:07Z</time>
      </trkpt>
      <trkpt lat="45.59733" lon="6.75514">
        <ele>766.30810546875</ele>
        <time>2016-08-21T06:52:09Z</time>
      </trkpt>
      <trkpt lat="45.59743" lon="6.75529">
        <ele>765.82763671875</ele>
        <time>2016-08-21T06:52:11Z</time>
      </trkpt>
      <trkpt lat="45.5976" lon="6.75562">
        <ele>766.78881835938</ele>
        <time>2016-08-21T06:52:15Z</time>
      </trkpt>
      <trkpt lat="45.59779" lon="6.75602">
        <ele>766.30810546875</ele>
        <time>2016-08-21T06:52:20Z</time>
      </trkpt>
      <trkpt lat="45.59794" lon="6.75631">
        <ele>766.78881835938</ele>
        <time>2016-08-21T06:52:24Z</time>
      </trkpt>
      <trkpt lat="45.59799" lon="6.75676">
        <ele>767.26953125</ele>
        <time>2016-08-21T06:52:29Z</time>
      </trkpt>
      <trkpt lat="45.59803" lon="6.75712">
        <ele>767.75</ele>
        <time>2016-08-21T06:52:33Z</time>
      </trkpt>
      <trkpt lat="45.59807" lon="6.75728">
        <ele>768.71142578125</ele>
        <time>2016-08-21T06:52:35Z</time>
      </trkpt>
      <trkpt lat="45.59819" lon="6.75745">
        <ele>769.19213867188</ele>
        <time>2016-08-21T06:52:38Z</time>
      </trkpt>
      <trkpt lat="45.59831" lon="6.75773">
        <ele>769.6728515625</ele>
        <time>2016-08-21T06:52:42Z</time>
      </trkpt>
      <trkpt lat="45.59833" lon="6.75781">
        <ele>770.1533203125</ele>
        <time>2016-08-21T06:52:43Z</time>
      </trkpt>
      <trkpt lat="45.59847" lon="6.75805">
        <ele>771.11474609375</ele>
        <time>2016-08-21T06:52:47Z</time>
      </trkpt>
      <trkpt lat="45.59874" lon="6.75838">
        <ele>772.556640625</ele>
        <time>2016-08-21T06:52:53Z</time>
      </trkpt>
      <trkpt lat="45.59887" lon="6.75874">
        <ele>774.47924804688</ele>
        <time>2016-08-21T06:52:58Z</time>
      </trkpt>
      <trkpt lat="45.59904" lon="6.75889">
        <ele>774.47924804688</ele>
        <time>2016-08-21T06:53:02Z</time>
      </trkpt>
      <trkpt lat="45.5991" lon="6.75888">
        <ele>775.4404296875</ele>
        <time>2016-08-21T06:53:03Z</time>
      </trkpt>
      <trkpt lat="45.59945" lon="6.75901">
        <ele>774.9599609375</ele>
        <time>2016-08-21T06:53:08Z</time>
      </trkpt>
      <trkpt lat="45.59965" lon="6.75939">
        <ele>776.40185546875</ele>
        <time>2016-08-21T06:53:13Z</time>
      </trkpt>
      <trkpt lat="45.5998" lon="6.75951">
        <ele>776.40185546875</ele>
        <time>2016-08-21T06:53:16Z</time>
      </trkpt>
      <trkpt lat="45.59995" lon="6.75966">
        <ele>776.40185546875</ele>
        <time>2016-08-21T06:53:19Z</time>
      </trkpt>
      <trkpt lat="45.60038" lon="6.76018">
        <ele>776.88256835938</ele>
        <time>2016-08-21T06:53:27Z</time>
      </trkpt>
      <trkpt lat="45.60063" lon="6.76065">
        <ele>776.88256835938</ele>
        <time>2016-08-21T06:53:33Z</time>
      </trkpt>
      <trkpt lat="45.60067" lon="6.76074">
        <ele>777.36328125</ele>
        <time>2016-08-21T06:53:34Z</time>
      </trkpt>
      <trkpt lat="45.60071" lon="6.76114">
        <ele>777.36328125</ele>
        <time>2016-08-21T06:53:38Z</time>
      </trkpt>
      <trkpt lat="45.60072" lon="6.7616">
        <ele>777.84375</ele>
        <time>2016-08-21T06:53:43Z</time>
      </trkpt>
      <trkpt lat="45.60079" lon="6.76214">
        <ele>777.84375</ele>
        <time>2016-08-21T06:53:49Z</time>
      </trkpt>
      <trkpt lat="45.60086" lon="6.76242">
        <ele>778.32446289062</ele>
        <time>2016-08-21T06:53:52Z</time>
      </trkpt>
      <trkpt lat="45.60086" lon="6.76279">
        <ele>779.28564453125</ele>
        <time>2016-08-21T06:53:56Z</time>
      </trkpt>
      <trkpt lat="45.60083" lon="6.76296">
        <ele>778.32446289062</ele>
        <time>2016-08-21T06:53:58Z</time>
      </trkpt>
      <trkpt lat="45.60083" lon="6.76331">
        <ele>778.32446289062</ele>
        <time>2016-08-21T06:54:02Z</time>
      </trkpt>
      <trkpt lat="45.60086" lon="6.76346">
        <ele>777.36328125</ele>
        <time>2016-08-21T06:54:04Z</time>
      </trkpt>
      <trkpt lat="45.60085" lon="6.76386">
        <ele>778.80517578125</ele>
        <time>2016-08-21T06:54:09Z</time>
      </trkpt>
      <trkpt lat="45.60087" lon="6.76411">
        <ele>779.28564453125</ele>
        <time>2016-08-21T06:54:12Z</time>
      </trkpt>
      <trkpt lat="45.60091" lon="6.76432">
        <ele>780.24731445312</ele>
        <time>2016-08-21T06:54:15Z</time>
      </trkpt>
      <trkpt lat="45.60095" lon="6.76472">
        <ele>781.20874023438</ele>
        <time>2016-08-21T06:54:21Z</time>
      </trkpt>
      <trkpt lat="45.601" lon="6.76483">
        <ele>781.68920898438</ele>
        <time>2016-08-21T06:54:23Z</time>
      </trkpt>
      <trkpt lat="45.60129" lon="6.76531">
        <ele>783.61181640625</ele>
        <time>2016-08-21T06:54:33Z</time>
      </trkpt>
      <trkpt lat="45.60153" lon="6.76568">
        <ele>785.53442382812</ele>
        <time>2016-08-21T06:54:41Z</time>
      </trkpt>
      <trkpt lat="45.60165" lon="6.76601">
        <ele>786.01513671875</ele>
        <time>2016-08-21T06:54:46Z</time>
      </trkpt>
      <trkpt lat="45.60188" lon="6.76632">
        <ele>785.53442382812</ele>
        <time>2016-08-21T06:54:51Z</time>
      </trkpt>
      <trkpt lat="45.60195" lon="6.76636">
        <ele>784.5732421875</ele>
        <time>2016-08-21T06:54:52Z</time>
      </trkpt>
      <trkpt lat="45.60241" lon="6.76661">
        <ele>784.09252929688</ele>
        <time>2016-08-21T06:55:00Z</time>
      </trkpt>
      <trkpt lat="45.60272" lon="6.76686">
        <ele>784.09252929688</ele>
        <time>2016-08-21T06:55:06Z</time>
      </trkpt>
      <trkpt lat="45.60298" lon="6.76696">
        <ele>784.09252929688</ele>
        <time>2016-08-21T06:55:11Z</time>
      </trkpt>
      <trkpt lat="45.60304" lon="6.76698">
        <ele>785.05395507812</ele>
        <time>2016-08-21T06:55:13Z</time>
      </trkpt>
      <trkpt lat="45.60304" lon="6.76693">
        <ele>785.53442382812</ele>
        <time>2016-08-21T06:55:17Z</time>
      </trkpt>
      <trkpt lat="45.6029" lon="6.76683">
        <ele>786.97631835938</ele>
        <time>2016-08-21T06:55:21Z</time>
      </trkpt>
      <trkpt lat="45.60274" lon="6.76677">
        <ele>787.45703125</ele>
        <time>2016-08-21T06:55:26Z</time>
      </trkpt>
      <trkpt lat="45.60276" lon="6.76666">
        <ele>787.93774414062</ele>
        <time>2016-08-21T06:55:29Z</time>
      </trkpt>
      <trkpt lat="45.60278" lon="6.76662">
        <ele>787.93774414062</ele>
        <time>2016-08-21T06:55:30Z</time>
      </trkpt>
      <trkpt lat="45.60302" lon="6.76618">
        <ele>787.93774414062</ele>
        <time>2016-08-21T06:55:39Z</time>
      </trkpt>
      <trkpt lat="45.60315" lon="6.76597">
        <ele>788.41845703125</ele>
        <time>2016-08-21T06:55:44Z</time>
      </trkpt>
      <trkpt lat="45.6032" lon="6.76593">
        <ele>788.89916992188</ele>
        <time>2016-08-21T06:55:46Z</time>
      </trkpt>
      <trkpt lat="45.60335" lon="6.76602">
        <ele>790.34106445312</ele>
        <time>2016-08-21T06:55:52Z</time>
      </trkpt>
      <trkpt lat="45.6035" lon="6.76628">
        <ele>791.30224609375</ele>
        <time>2016-08-21T06:56:00Z</time>
      </trkpt>
      <trkpt lat="45.60355" lon="6.76636">
        <ele>792.263671875</ele>
        <time>2016-08-21T06:56:02Z</time>
      </trkpt>
      <trkpt lat="45.60381" lon="6.76675">
        <ele>794.66674804688</ele>
        <time>2016-08-21T06:56:12Z</time>
      </trkpt>
      <trkpt lat="45.60398" lon="6.76702">
        <ele>796.10913085938</ele>
        <time>2016-08-21T06:56:19Z</time>
      </trkpt>
      <trkpt lat="45.60409" lon="6.76732">
        <ele>796.10913085938</ele>
        <time>2016-08-21T06:56:26Z</time>
      </trkpt>
      <trkpt lat="45.6042" lon="6.76745">
        <ele>797.0703125</ele>
        <time>2016-08-21T06:56:30Z</time>
      </trkpt>
      <trkpt lat="45.60454" lon="6.76755">
        <ele>798.99291992188</ele>
        <time>2016-08-21T06:56:39Z</time>
      </trkpt>
      <trkpt lat="45.60488" lon="6.76767">
        <ele>800.43505859375</ele>
        <time>2016-08-21T06:56:48Z</time>
      </trkpt>
      <trkpt lat="45.60523" lon="6.7679">
        <ele>800.43505859375</ele>
        <time>2016-08-21T06:56:58Z</time>
      </trkpt>
      <trkpt lat="45.60553" lon="6.76816">
        <ele>801.39624023438</ele>
        <time>2016-08-21T06:57:06Z</time>
      </trkpt>
      <trkpt lat="45.60576" lon="6.76847">
        <ele>801.39624023438</ele>
        <time>2016-08-21T06:57:12Z</time>
      </trkpt>
      <trkpt lat="45.60598" lon="6.76886">
        <ele>800.91552734375</ele>
        <time>2016-08-21T06:57:18Z</time>
      </trkpt>
      <trkpt lat="45.60606" lon="6.76919">
        <ele>801.39624023438</ele>
        <time>2016-08-21T06:57:22Z</time>
      </trkpt>
      <trkpt lat="45.60605" lon="6.76927">
        <ele>801.39624023438</ele>
        <time>2016-08-21T06:57:23Z</time>
      </trkpt>
      <trkpt lat="45.60604" lon="6.76946">
        <ele>800.91552734375</ele>
        <time>2016-08-21T06:57:25Z</time>
      </trkpt>
      <trkpt lat="45.60607" lon="6.76992">
        <ele>800.43505859375</ele>
        <time>2016-08-21T06:57:30Z</time>
      </trkpt>
      <trkpt lat="45.60617" lon="6.7701">
        <ele>800.43505859375</ele>
        <time>2016-08-21T06:57:33Z</time>
      </trkpt>
      <trkpt lat="45.60631" lon="6.77028">
        <ele>799.4736328125</ele>
        <time>2016-08-21T06:57:37Z</time>
      </trkpt>
      <trkpt lat="45.60661" lon="6.77045">
        <ele>800.43505859375</ele>
        <time>2016-08-21T06:57:44Z</time>
      </trkpt>
      <trkpt lat="45.6069" lon="6.77056">
        <ele>801.876953125</ele>
        <time>2016-08-21T06:57:50Z</time>
      </trkpt>
      <trkpt lat="45.60721" lon="6.77069">
        <ele>802.83813476562</ele>
        <time>2016-08-21T06:57:56Z</time>
      </trkpt>
      <trkpt lat="45.60767" lon="6.77097">
        <ele>803.79956054688</ele>
        <time>2016-08-21T06:58:05Z</time>
      </trkpt>
      <trkpt lat="45.60806" lon="6.77118">
        <ele>803.79956054688</ele>
        <time>2016-08-21T06:58:12Z</time>
      </trkpt>
      <trkpt lat="45.60863" lon="6.77135">
        <ele>804.7607421875</ele>
        <time>2016-08-21T06:58:22Z</time>
      </trkpt>
      <trkpt lat="45.60908" lon="6.77146">
        <ele>806.20263671875</ele>
        <time>2016-08-21T06:58:30Z</time>
      </trkpt>
      <trkpt lat="45.60924" lon="6.7715">
        <ele>807.64477539062</ele>
        <time>2016-08-21T06:58:33Z</time>
      </trkpt>
      <trkpt lat="45.60961" lon="6.77164">
        <ele>809.5673828125</ele>
        <time>2016-08-21T06:58:41Z</time>
      </trkpt>
      <trkpt lat="45.60995" lon="6.7718">
        <ele>810.0478515625</ele>
        <time>2016-08-21T06:58:48Z</time>
      </trkpt>
      <trkpt lat="45.61041" lon="6.77203">
        <ele>810.0478515625</ele>
        <time>2016-08-21T06:58:56Z</time>
      </trkpt>
      <trkpt lat="45.61104" lon="6.77244">
        <ele>810.52856445312</ele>
        <time>2016-08-21T06:59:07Z</time>
      </trkpt>
      <trkpt lat="45.61145" lon="6.77284">
        <ele>810.0478515625</ele>
        <time>2016-08-21T06:59:15Z</time>
      </trkpt>
      <trkpt lat="45.61163" lon="6.77307">
        <ele>810.52856445312</ele>
        <time>2016-08-21T06:59:19Z</time>
      </trkpt>
      <trkpt lat="45.61185" lon="6.77318">
        <ele>809.5673828125</ele>
        <time>2016-08-21T06:59:23Z</time>
      </trkpt>
      <trkpt lat="45.61202" lon="6.77318">
        <ele>810.0478515625</ele>
        <time>2016-08-21T06:59:26Z</time>
      </trkpt>
      <trkpt lat="45.61226" lon="6.77312">
        <ele>809.5673828125</ele>
        <time>2016-08-21T06:59:30Z</time>
      </trkpt>
      <trkpt lat="45.6126" lon="6.77303">
        <ele>810.0478515625</ele>
        <time>2016-08-21T06:59:35Z</time>
      </trkpt>
      <trkpt lat="45.61271" lon="6.77301">
        <ele>810.52856445312</ele>
        <time>2016-08-21T06:59:37Z</time>
      </trkpt>
      <trkpt lat="45.61286" lon="6.77295">
        <ele>810.52856445312</ele>
        <time>2016-08-21T06:59:40Z</time>
      </trkpt>
      <trkpt lat="45.61309" lon="6.77294">
        <ele>811.970703125</ele>
        <time>2016-08-21T06:59:46Z</time>
      </trkpt>
      <trkpt lat="45.61333" lon="6.77292">
        <ele>813.89331054688</ele>
        <time>2016-08-21T06:59:53Z</time>
      </trkpt>
      <trkpt lat="45.61338" lon="6.77292">
        <ele>813.89331054688</ele>
        <time>2016-08-21T06:59:54Z</time>
      </trkpt>
      <trkpt lat="45.61358" lon="6.77301">
        <ele>815.33544921875</ele>
        <time>2016-08-21T06:59:59Z</time>
      </trkpt>
      <trkpt lat="45.61362" lon="6.77305">
        <ele>814.85473632812</ele>
        <time>2016-08-21T07:00:00Z</time>
      </trkpt>
      <trkpt lat="45.61386" lon="6.77321">
        <ele>815.33544921875</ele>
        <time>2016-08-21T07:00:05Z</time>
      </trkpt>
      <trkpt lat="45.61398" lon="6.77325">
        <ele>813.89331054688</ele>
        <time>2016-08-21T07:00:07Z</time>
      </trkpt>
      <trkpt lat="45.61433" lon="6.77349">
        <ele>813.89331054688</ele>
        <time>2016-08-21T07:00:13Z</time>
      </trkpt>
      <trkpt lat="45.61445" lon="6.77358">
        <ele>812.45141601562</ele>
        <time>2016-08-21T07:00:15Z</time>
      </trkpt>
      <trkpt lat="45.61472" lon="6.77365">
        <ele>811.970703125</ele>
        <time>2016-08-21T07:00:19Z</time>
      </trkpt>
      <trkpt lat="45.6153" lon="6.77361">
        <ele>811.970703125</ele>
        <time>2016-08-21T07:00:27Z</time>
      </trkpt>
      <trkpt lat="45.6155" lon="6.77355">
        <ele>810.52856445312</ele>
        <time>2016-08-21T07:00:31Z</time>
      </trkpt>
      <trkpt lat="45.61553" lon="6.77355">
        <ele>809.5673828125</ele>
        <time>2016-08-21T07:00:34Z</time>
      </trkpt>
      <trkpt lat="45.61553" lon="6.77354">
        <ele>810.52856445312</ele>
        <time>2016-08-21T07:00:40Z</time>
      </trkpt>
      <trkpt lat="45.61553" lon="6.77353">
        <ele>810.0478515625</ele>
        <time>2016-08-21T07:00:50Z</time>
      </trkpt>
      <trkpt lat="45.61553" lon="6.77353">
        <ele>810.0478515625</ele>
        <time>2016-08-21T07:00:58Z</time>
      </trkpt>
      <trkpt lat="45.61552" lon="6.77354">
        <ele>810.0478515625</ele>
        <time>2016-08-21T07:01:13Z</time>
      </trkpt>
      <trkpt lat="45.61553" lon="6.77353">
        <ele>810.52856445312</ele>
        <time>2016-08-21T07:01:28Z</time>
      </trkpt>
      <trkpt lat="45.61553" lon="6.77353">
        <ele>811.00927734375</ele>
        <time>2016-08-21T07:01:49Z</time>
      </trkpt>
      <trkpt lat="45.61554" lon="6.77354">
        <ele>811.48999023438</ele>
        <time>2016-08-21T07:01:55Z</time>
      </trkpt>
      <trkpt lat="45.61554" lon="6.77354">
        <ele>811.00927734375</ele>
        <time>2016-08-21T07:02:05Z</time>
      </trkpt>
      <trkpt lat="45.61555" lon="6.77354">
        <ele>811.00927734375</ele>
        <time>2016-08-21T07:02:14Z</time>
      </trkpt>
      <trkpt lat="45.61555" lon="6.77353">
        <ele>811.48999023438</ele>
        <time>2016-08-21T07:02:31Z</time>
      </trkpt>
      <trkpt lat="45.61555" lon="6.77353">
        <ele>810.52856445312</ele>
        <time>2016-08-21T07:02:43Z</time>
      </trkpt>
      <trkpt lat="45.61555" lon="6.77352">
        <ele>811.00927734375</ele>
        <time>2016-08-21T07:02:50Z</time>
      </trkpt>
      <trkpt lat="45.6157" lon="6.77347">
        <ele>811.48999023438</ele>
        <time>2016-08-21T07:02:56Z</time>
      </trkpt>
      <trkpt lat="45.61574" lon="6.77347">
        <ele>811.48999023438</ele>
        <time>2016-08-21T07:02:57Z</time>
      </trkpt>
      <trkpt lat="45.61607" lon="6.77341">
        <ele>811.970703125</ele>
        <time>2016-08-21T07:03:04Z</time>
      </trkpt>
      <trkpt lat="45.61629" lon="6.77338">
        <ele>811.48999023438</ele>
        <time>2016-08-21T07:03:08Z</time>
      </trkpt>
      <trkpt lat="45.61666" lon="6.7733">
        <ele>811.48999023438</ele>
        <time>2016-08-21T07:03:14Z</time>
      </trkpt>
      <trkpt lat="45.617" lon="6.77322">
        <ele>811.970703125</ele>
        <time>2016-08-21T07:03:19Z</time>
      </trkpt>
      <trkpt lat="45.6174" lon="6.77312">
        <ele>811.970703125</ele>
        <time>2016-08-21T07:03:25Z</time>
      </trkpt>
      <trkpt lat="45.61796" lon="6.77299">
        <ele>811.48999023438</ele>
        <time>2016-08-21T07:03:33Z</time>
      </trkpt>
      <trkpt lat="45.61857" lon="6.77285">
        <ele>811.48999023438</ele>
        <time>2016-08-21T07:03:42Z</time>
      </trkpt>
      <trkpt lat="45.61863" lon="6.77283">
        <ele>810.52856445312</ele>
        <time>2016-08-21T07:03:43Z</time>
      </trkpt>
      <trkpt lat="45.61882" lon="6.77283">
        <ele>811.48999023438</ele>
        <time>2016-08-21T07:03:46Z</time>
      </trkpt>
      <trkpt lat="45.61894" lon="6.77285">
        <ele>810.52856445312</ele>
        <time>2016-08-21T07:03:48Z</time>
      </trkpt>
      <trkpt lat="45.61913" lon="6.77271">
        <ele>811.970703125</ele>
        <time>2016-08-21T07:03:52Z</time>
      </trkpt>
      <trkpt lat="45.61926" lon="6.77252">
        <ele>811.48999023438</ele>
        <time>2016-08-21T07:03:55Z</time>
      </trkpt>
      <trkpt lat="45.61963" lon="6.77217">
        <ele>812.45141601562</ele>
        <time>2016-08-21T07:04:02Z</time>
      </trkpt>
      <trkpt lat="45.6199" lon="6.77199">
        <ele>813.41284179688</ele>
        <time>2016-08-21T07:04:07Z</time>
      </trkpt>
      <trkpt lat="45.62015" lon="6.77172">
        <ele>814.3740234375</ele>
        <time>2016-08-21T07:04:13Z</time>
      </trkpt>
      <trkpt lat="45.6203" lon="6.77145">
        <ele>815.33544921875</ele>
        <time>2016-08-21T07:04:19Z</time>
      </trkpt>
      <trkpt lat="45.62033" lon="6.77141">
        <ele>815.33544921875</ele>
        <time>2016-08-21T07:04:22Z</time>
      </trkpt>
      <trkpt lat="45.62032" lon="6.77141">
        <ele>814.85473632812</ele>
        <time>2016-08-21T07:04:33Z</time>
      </trkpt>
      <trkpt lat="45.62031" lon="6.77142">
        <ele>815.81616210938</ele>
        <time>2016-08-21T07:04:47Z</time>
      </trkpt>
      <trkpt lat="45.62039" lon="6.77139">
        <ele>814.85473632812</ele>
        <time>2016-08-21T07:04:51Z</time>
      </trkpt>
      <trkpt lat="45.62053" lon="6.77158">
        <ele>815.81616210938</ele>
        <time>2016-08-21T07:04:55Z</time>
      </trkpt>
      <trkpt lat="45.6208" lon="6.77226">
        <ele>815.33544921875</ele>
        <time>2016-08-21T07:05:03Z</time>
      </trkpt>
      <trkpt lat="45.62113" lon="6.77308">
        <ele>814.3740234375</ele>
        <time>2016-08-21T07:05:12Z</time>
      </trkpt>
      <trkpt lat="45.62141" lon="6.77379">
        <ele>813.41284179688</ele>
        <time>2016-08-21T07:05:19Z</time>
      </trkpt>
      <trkpt lat="45.6217" lon="6.77454">
        <ele>812.45141601562</ele>
        <time>2016-08-21T07:05:26Z</time>
      </trkpt>
      <trkpt lat="45.62207" lon="6.7754">
        <ele>811.48999023438</ele>
        <time>2016-08-21T07:05:34Z</time>
      </trkpt>
      <trkpt lat="45.62244" lon="6.77623">
        <ele>811.48999023438</ele>
        <time>2016-08-21T07:05:42Z</time>
      </trkpt>
      <trkpt lat="45.62271" lon="6.77682">
        <ele>811.970703125</ele>
        <time>2016-08-21T07:05:48Z</time>
      </trkpt>
      <trkpt lat="45.62304" lon="6.77757">
        <ele>812.93212890625</ele>
        <time>2016-08-21T07:05:56Z</time>
      </trkpt>
      <trkpt lat="45.62322" lon="6.77804">
        <ele>812.93212890625</ele>
        <time>2016-08-21T07:06:01Z</time>
      </trkpt>
      <trkpt lat="45.6233" lon="6.77845">
        <ele>813.89331054688</ele>
        <time>2016-08-21T07:06:05Z</time>
      </trkpt>
      <trkpt lat="45.62331" lon="6.77855">
        <ele>813.89331054688</ele>
        <time>2016-08-21T07:06:06Z</time>
      </trkpt>
      <trkpt lat="45.62329" lon="6.77939">
        <ele>814.85473632812</ele>
        <time>2016-08-21T07:06:14Z</time>
      </trkpt>
      <trkpt lat="45.62325" lon="6.78039">
        <ele>816.77734375</ele>
        <time>2016-08-21T07:06:24Z</time>
      </trkpt>
      <trkpt lat="45.62322" lon="6.78115">
        <ele>816.77734375</ele>
        <time>2016-08-21T07:06:32Z</time>
      </trkpt>
      <trkpt lat="45.62318" lon="6.78179">
        <ele>817.25805664062</ele>
        <time>2016-08-21T07:06:39Z</time>
      </trkpt>
      <trkpt lat="45.62311" lon="6.78254">
        <ele>818.21923828125</ele>
        <time>2016-08-21T07:06:47Z</time>
      </trkpt>
      <trkpt lat="45.62307" lon="6.78294">
        <ele>818.21923828125</ele>
        <time>2016-08-21T07:06:51Z</time>
      </trkpt>
      <trkpt lat="45.62291" lon="6.78386">
        <ele>819.1806640625</ele>
        <time>2016-08-21T07:07:00Z</time>
      </trkpt>
      <trkpt lat="45.62261" lon="6.78504">
        <ele>821.10327148438</ele>
        <time>2016-08-21T07:07:12Z</time>
      </trkpt>
      <trkpt lat="45.62235" lon="6.78587">
        <ele>821.10327148438</ele>
        <time>2016-08-21T07:07:21Z</time>
      </trkpt>
      <trkpt lat="45.62202" lon="6.78676">
        <ele>821.10327148438</ele>
        <time>2016-08-21T07:07:31Z</time>
      </trkpt>
      <trkpt lat="45.62173" lon="6.78755">
        <ele>821.58374023438</ele>
        <time>2016-08-21T07:07:40Z</time>
      </trkpt>
      <trkpt lat="45.62143" lon="6.78813">
        <ele>823.02587890625</ele>
        <time>2016-08-21T07:07:47Z</time>
      </trkpt>
      <trkpt lat="45.62121" lon="6.7884">
        <ele>820.62255859375</ele>
        <time>2016-08-21T07:07:51Z</time>
      </trkpt>
      <trkpt lat="45.62087" lon="6.78866">
        <ele>818.21923828125</ele>
        <time>2016-08-21T07:07:56Z</time>
      </trkpt>
      <trkpt lat="45.62048" lon="6.78884">
        <ele>817.73852539062</ele>
        <time>2016-08-21T07:08:01Z</time>
      </trkpt>
      <trkpt lat="45.62033" lon="6.789">
        <ele>817.25805664062</ele>
        <time>2016-08-21T07:08:04Z</time>
      </trkpt>
      <trkpt lat="45.62035" lon="6.78925">
        <ele>816.29663085938</ele>
        <time>2016-08-21T07:08:07Z</time>
      </trkpt>
      <trkpt lat="45.62056" lon="6.78985">
        <ele>817.25805664062</ele>
        <time>2016-08-21T07:08:15Z</time>
      </trkpt>
      <trkpt lat="45.62072" lon="6.79031">
        <ele>818.69995117188</ele>
        <time>2016-08-21T07:08:22Z</time>
      </trkpt>
      <trkpt lat="45.62088" lon="6.79078">
        <ele>819.66137695312</ele>
        <time>2016-08-21T07:08:29Z</time>
      </trkpt>
      <trkpt lat="45.62098" lon="6.79107">
        <ele>822.064453125</ele>
        <time>2016-08-21T07:08:34Z</time>
      </trkpt>
      <trkpt lat="45.62107" lon="6.79144">
        <ele>823.50659179688</ele>
        <time>2016-08-21T07:08:41Z</time>
      </trkpt>
      <trkpt lat="45.62109" lon="6.79182">
        <ele>825.42895507812</ele>
        <time>2016-08-21T07:08:49Z</time>
      </trkpt>
      <trkpt lat="45.62101" lon="6.79219">
        <ele>826.39038085938</ele>
        <time>2016-08-21T07:08:57Z</time>
      </trkpt>
      <trkpt lat="45.6209" lon="6.7926">
        <ele>828.7939453125</ele>
        <time>2016-08-21T07:09:06Z</time>
      </trkpt>
      <trkpt lat="45.62081" lon="6.79295">
        <ele>829.75512695312</ele>
        <time>2016-08-21T07:09:14Z</time>
      </trkpt>
      <trkpt lat="45.62072" lon="6.79325">
        <ele>833.11962890625</ele>
        <time>2016-08-21T07:09:21Z</time>
      </trkpt>
      <trkpt lat="45.62061" lon="6.79364">
        <ele>835.04248046875</ele>
        <time>2016-08-21T07:09:30Z</time>
      </trkpt>
      <trkpt lat="45.62047" lon="6.79412">
        <ele>836.00366210938</ele>
        <time>2016-08-21T07:09:41Z</time>
      </trkpt>
      <trkpt lat="45.62035" lon="6.79454">
        <ele>839.3681640625</ele>
        <time>2016-08-21T07:09:50Z</time>
      </trkpt>
      <trkpt lat="45.62033" lon="6.79459">
        <ele>839.3681640625</ele>
        <time>2016-08-21T07:09:51Z</time>
      </trkpt>
      <trkpt lat="45.62029" lon="6.79493">
        <ele>840.32958984375</ele>
        <time>2016-08-21T07:09:58Z</time>
      </trkpt>
      <trkpt lat="45.62037" lon="6.79521">
        <ele>841.771484375</ele>
        <time>2016-08-21T07:10:04Z</time>
      </trkpt>
      <trkpt lat="45.62051" lon="6.79535">
        <ele>843.21337890625</ele>
        <time>2016-08-21T07:10:09Z</time>
      </trkpt>
      <trkpt lat="45.62069" lon="6.79535">
        <ele>844.65551757812</ele>
        <time>2016-08-21T07:10:14Z</time>
      </trkpt>
      <trkpt lat="45.62101" lon="6.79528">
        <ele>845.13623046875</ele>
        <time>2016-08-21T07:10:23Z</time>
      </trkpt>
      <trkpt lat="45.62133" lon="6.79521">
        <ele>847.05883789062</ele>
        <time>2016-08-21T07:10:32Z</time>
      </trkpt>
      <trkpt lat="45.62165" lon="6.79518">
        <ele>848.9814453125</ele>
        <time>2016-08-21T07:10:41Z</time>
      </trkpt>
      <trkpt lat="45.622" lon="6.7951">
        <ele>850.42358398438</ele>
        <time>2016-08-21T07:10:51Z</time>
      </trkpt>
      <trkpt lat="45.62234" lon="6.79505">
        <ele>853.30737304688</ele>
        <time>2016-08-21T07:11:01Z</time>
      </trkpt>
      <trkpt lat="45.62265" lon="6.79499">
        <ele>855.71069335938</ele>
        <time>2016-08-21T07:11:10Z</time>
      </trkpt>
      <trkpt lat="45.62291" lon="6.79493">
        <ele>856.671875</ele>
        <time>2016-08-21T07:11:18Z</time>
      </trkpt>
      <trkpt lat="45.62322" lon="6.79488">
        <ele>859.0751953125</ele>
        <time>2016-08-21T07:11:27Z</time>
      </trkpt>
      <trkpt lat="45.62349" lon="6.79484">
        <ele>860.51733398438</ele>
        <time>2016-08-21T07:11:35Z</time>
      </trkpt>
      <trkpt lat="45.62375" lon="6.7948">
        <ele>860.998046875</ele>
        <time>2016-08-21T07:11:43Z</time>
      </trkpt>
      <trkpt lat="45.62395" lon="6.79474">
        <ele>862.92065429688</ele>
        <time>2016-08-21T07:11:49Z</time>
      </trkpt>
      <trkpt lat="45.62428" lon="6.79467">
        <ele>864.84326171875</ele>
        <time>2016-08-21T07:11:59Z</time>
      </trkpt>
      <trkpt lat="45.62452" lon="6.79465">
        <ele>866.28515625</ele>
        <time>2016-08-21T07:12:06Z</time>
      </trkpt>
      <trkpt lat="45.62472" lon="6.79461">
        <ele>867.24658203125</ele>
        <time>2016-08-21T07:12:12Z</time>
      </trkpt>
      <trkpt lat="45.62479" lon="6.79459">
        <ele>867.72705078125</ele>
        <time>2016-08-21T07:12:14Z</time>
      </trkpt>
      <trkpt lat="45.62495" lon="6.79453">
        <ele>867.24658203125</ele>
        <time>2016-08-21T07:12:19Z</time>
      </trkpt>
      <trkpt lat="45.62515" lon="6.79454">
        <ele>869.16918945312</ele>
        <time>2016-08-21T07:12:26Z</time>
      </trkpt>
      <trkpt lat="45.62518" lon="6.7946">
        <ele>870.13037109375</ele>
        <time>2016-08-21T07:12:28Z</time>
      </trkpt>
      <trkpt lat="45.62514" lon="6.79478">
        <ele>871.091796875</ele>
        <time>2016-08-21T07:12:32Z</time>
      </trkpt>
      <trkpt lat="45.62504" lon="6.79497">
        <ele>872.53369140625</ele>
        <time>2016-08-21T07:12:37Z</time>
      </trkpt>
      <trkpt lat="45.62491" lon="6.79522">
        <ele>873.4951171875</ele>
        <time>2016-08-21T07:12:43Z</time>
      </trkpt>
      <trkpt lat="45.62475" lon="6.79555">
        <ele>874.93701171875</ele>
        <time>2016-08-21T07:12:51Z</time>
      </trkpt>
      <trkpt lat="45.62459" lon="6.79587">
        <ele>876.37915039062</ele>
        <time>2016-08-21T07:12:59Z</time>
      </trkpt>
      <trkpt lat="45.62445" lon="6.79617">
        <ele>877.82104492188</ele>
        <time>2016-08-21T07:13:06Z</time>
      </trkpt>
      <trkpt lat="45.6243" lon="6.79647">
        <ele>879.26293945312</ele>
        <time>2016-08-21T07:13:13Z</time>
      </trkpt>
      <trkpt lat="45.62414" lon="6.79683">
        <ele>880.22436523438</ele>
        <time>2016-08-21T07:13:21Z</time>
      </trkpt>
      <trkpt lat="45.62397" lon="6.79723">
        <ele>881.66625976562</ele>
        <time>2016-08-21T07:13:30Z</time>
      </trkpt>
      <trkpt lat="45.62382" lon="6.79753">
        <ele>883.10815429688</ele>
        <time>2016-08-21T07:13:37Z</time>
      </trkpt>
      <trkpt lat="45.62366" lon="6.79788">
        <ele>884.55029296875</ele>
        <time>2016-08-21T07:13:45Z</time>
      </trkpt>
      <trkpt lat="45.62353" lon="6.79819">
        <ele>885.51147460938</ele>
        <time>2016-08-21T07:13:52Z</time>
      </trkpt>
      <trkpt lat="45.62338" lon="6.79849">
        <ele>886.47290039062</ele>
        <time>2016-08-21T07:13:59Z</time>
      </trkpt>
      <trkpt lat="45.62326" lon="6.7987">
        <ele>887.43408203125</ele>
        <time>2016-08-21T07:14:04Z</time>
      </trkpt>
      <trkpt lat="45.62315" lon="6.79901">
        <ele>888.3955078125</ele>
        <time>2016-08-21T07:14:11Z</time>
      </trkpt>
      <trkpt lat="45.623" lon="6.79933">
        <ele>889.83740234375</ele>
        <time>2016-08-21T07:14:18Z</time>
      </trkpt>
      <trkpt lat="45.62287" lon="6.79964">
        <ele>891.76000976562</ele>
        <time>2016-08-21T07:14:25Z</time>
      </trkpt>
      <trkpt lat="45.62271" lon="6.79987">
        <ele>891.76000976562</ele>
        <time>2016-08-21T07:14:31Z</time>
      </trkpt>
      <trkpt lat="45.62261" lon="6.80001">
        <ele>892.7216796875</ele>
        <time>2016-08-21T07:14:35Z</time>
      </trkpt>
      <trkpt lat="45.62247" lon="6.8002">
        <ele>892.7216796875</ele>
        <time>2016-08-21T07:14:40Z</time>
      </trkpt>
      <trkpt lat="45.62222" lon="6.80055">
        <ele>894.16357421875</ele>
        <time>2016-08-21T07:14:49Z</time>
      </trkpt>
      <trkpt lat="45.62197" lon="6.80102">
        <ele>895.60546875</ele>
        <time>2016-08-21T07:14:59Z</time>
      </trkpt>
      <trkpt lat="45.62181" lon="6.8014">
        <ele>896.56689453125</ele>
        <time>2016-08-21T07:15:07Z</time>
      </trkpt>
      <trkpt lat="45.62175" lon="6.80148">
        <ele>896.08618164062</ele>
        <time>2016-08-21T07:15:09Z</time>
      </trkpt>
      <trkpt lat="45.62171" lon="6.8017">
        <ele>898.0087890625</ele>
        <time>2016-08-21T07:15:13Z</time>
      </trkpt>
      <trkpt lat="45.62172" lon="6.80199">
        <ele>898.96997070312</ele>
        <time>2016-08-21T07:15:19Z</time>
      </trkpt>
      <trkpt lat="45.62166" lon="6.80216">
        <ele>900.412109375</ele>
        <time>2016-08-21T07:15:23Z</time>
      </trkpt>
      <trkpt lat="45.62152" lon="6.80255">
        <ele>901.37329101562</ele>
        <time>2016-08-21T07:15:32Z</time>
      </trkpt>
      <trkpt lat="45.62139" lon="6.80294">
        <ele>901.85400390625</ele>
        <time>2016-08-21T07:15:41Z</time>
      </trkpt>
      <trkpt lat="45.62128" lon="6.80333">
        <ele>903.77661132812</ele>
        <time>2016-08-21T07:15:49Z</time>
      </trkpt>
      <trkpt lat="45.62125" lon="6.80343">
        <ele>904.73779296875</ele>
        <time>2016-08-21T07:15:51Z</time>
      </trkpt>
      <trkpt lat="45.62111" lon="6.80386">
        <ele>906.66040039062</ele>
        <time>2016-08-21T07:16:00Z</time>
      </trkpt>
      <trkpt lat="45.62098" lon="6.80433">
        <ele>908.10278320312</ele>
        <time>2016-08-21T07:16:10Z</time>
      </trkpt>
      <trkpt lat="45.62091" lon="6.80472">
        <ele>908.10278320312</ele>
        <time>2016-08-21T07:16:18Z</time>
      </trkpt>
      <trkpt lat="45.6209" lon="6.8052">
        <ele>910.02514648438</ele>
        <time>2016-08-21T07:16:27Z</time>
      </trkpt>
      <trkpt lat="45.62092" lon="6.8056">
        <ele>911.46728515625</ele>
        <time>2016-08-21T07:16:35Z</time>
      </trkpt>
      <trkpt lat="45.62095" lon="6.80597">
        <ele>912.9091796875</ele>
        <time>2016-08-21T07:16:42Z</time>
      </trkpt>
      <trkpt lat="45.62098" lon="6.80654">
        <ele>914.83178710938</ele>
        <time>2016-08-21T07:16:53Z</time>
      </trkpt>
      <trkpt lat="45.62102" lon="6.80712">
        <ele>917.23510742188</ele>
        <time>2016-08-21T07:17:05Z</time>
      </trkpt>
      <trkpt lat="45.62106" lon="6.80766">
        <ele>919.15771484375</ele>
        <time>2016-08-21T07:17:16Z</time>
      </trkpt>
      <trkpt lat="45.62109" lon="6.80826">
        <ele>921.56079101562</ele>
        <time>2016-08-21T07:17:28Z</time>
      </trkpt>
      <trkpt lat="45.62112" lon="6.80886">
        <ele>923.96411132812</ele>
        <time>2016-08-21T07:17:40Z</time>
      </trkpt>
      <trkpt lat="45.62116" lon="6.80941">
        <ele>926.36767578125</ele>
        <time>2016-08-21T07:17:51Z</time>
      </trkpt>
      <trkpt lat="45.6212" lon="6.80998">
        <ele>928.29028320312</ele>
        <time>2016-08-21T07:18:02Z</time>
      </trkpt>
      <trkpt lat="45.62127" lon="6.81048">
        <ele>930.212890625</ele>
        <time>2016-08-21T07:18:12Z</time>
      </trkpt>
      <trkpt lat="45.6214" lon="6.81065">
        <ele>930.69360351562</ele>
        <time>2016-08-21T07:18:17Z</time>
      </trkpt>
      <trkpt lat="45.62157" lon="6.81069">
        <ele>930.69360351562</ele>
        <time>2016-08-21T07:18:22Z</time>
      </trkpt>
      <trkpt lat="45.62173" lon="6.81058">
        <ele>932.13549804688</ele>
        <time>2016-08-21T07:18:27Z</time>
      </trkpt>
      <trkpt lat="45.62185" lon="6.81033">
        <ele>933.0966796875</ele>
        <time>2016-08-21T07:18:33Z</time>
      </trkpt>
      <trkpt lat="45.62198" lon="6.80978">
        <ele>934.05810546875</ele>
        <time>2016-08-21T07:18:44Z</time>
      </trkpt>
      <trkpt lat="45.62209" lon="6.8093">
        <ele>936.46142578125</ele>
        <time>2016-08-21T07:18:54Z</time>
      </trkpt>
      <trkpt lat="45.62221" lon="6.80877">
        <ele>938.86474609375</ele>
        <time>2016-08-21T07:19:05Z</time>
      </trkpt>
      <trkpt lat="45.62235" lon="6.80815">
        <ele>940.78735351562</ele>
        <time>2016-08-21T07:19:18Z</time>
      </trkpt>
      <trkpt lat="45.62244" lon="6.80808">
        <ele>941.26806640625</ele>
        <time>2016-08-21T07:19:21Z</time>
      </trkpt>
      <trkpt lat="45.62255" lon="6.80816">
        <ele>941.74877929688</ele>
        <time>2016-08-21T07:19:25Z</time>
      </trkpt>
      <trkpt lat="45.62259" lon="6.80838">
        <ele>942.2294921875</ele>
        <time>2016-08-21T07:19:30Z</time>
      </trkpt>
      <trkpt lat="45.62265" lon="6.8088">
        <ele>943.67138671875</ele>
        <time>2016-08-21T07:19:39Z</time>
      </trkpt>
      <trkpt lat="45.62271" lon="6.80924">
        <ele>946.55541992188</ele>
        <time>2016-08-21T07:19:49Z</time>
      </trkpt>
      <trkpt lat="45.62275" lon="6.80965">
        <ele>948.95849609375</ele>
        <time>2016-08-21T07:19:58Z</time>
      </trkpt>
      <trkpt lat="45.6228" lon="6.8099">
        <ele>949.919921875</ele>
        <time>2016-08-21T07:20:04Z</time>
      </trkpt>
      <trkpt lat="45.62281" lon="6.81003">
        <ele>951.36181640625</ele>
        <time>2016-08-21T07:20:07Z</time>
      </trkpt>
      <trkpt lat="45.62286" lon="6.81039">
        <ele>952.8037109375</ele>
        <time>2016-08-21T07:20:15Z</time>
      </trkpt>
      <trkpt lat="45.6229" lon="6.81074">
        <ele>954.24584960938</ele>
        <time>2016-08-21T07:20:23Z</time>
      </trkpt>
      <trkpt lat="45.62297" lon="6.81099">
        <ele>954.72631835938</ele>
        <time>2016-08-21T07:20:29Z</time>
      </trkpt>
      <trkpt lat="45.62309" lon="6.81102">
        <ele>956.16845703125</ele>
        <time>2016-08-21T07:20:33Z</time>
      </trkpt>
      <trkpt lat="45.62319" lon="6.81091">
        <ele>957.1298828125</ele>
        <time>2016-08-21T07:20:37Z</time>
      </trkpt>
      <trkpt lat="45.62331" lon="6.81064">
        <ele>958.09130859375</ele>
        <time>2016-08-21T07:20:44Z</time>
      </trkpt>
      <trkpt lat="45.62343" lon="6.81035">
        <ele>960.49438476562</ele>
        <time>2016-08-21T07:20:51Z</time>
      </trkpt>
      <trkpt lat="45.62358" lon="6.80995">
        <ele>961.9365234375</ele>
        <time>2016-08-21T07:21:01Z</time>
      </trkpt>
      <trkpt lat="45.6237" lon="6.80968">
        <ele>963.37841796875</ele>
        <time>2016-08-21T07:21:08Z</time>
      </trkpt>
      <trkpt lat="45.62384" lon="6.80936">
        <ele>964.33959960938</ele>
        <time>2016-08-21T07:21:16Z</time>
      </trkpt>
      <trkpt lat="45.62389" lon="6.80924">
        <ele>965.78173828125</ele>
        <time>2016-08-21T07:21:19Z</time>
      </trkpt>
      <trkpt lat="45.62407" lon="6.80878">
        <ele>967.2236328125</ele>
        <time>2016-08-21T07:21:30Z</time>
      </trkpt>
      <trkpt lat="45.62421" lon="6.80847">
        <ele>969.626953125</ele>
        <time>2016-08-21T07:21:38Z</time>
      </trkpt>
      <trkpt lat="45.62441" lon="6.80806">
        <ele>972.0302734375</ele>
        <time>2016-08-21T07:21:49Z</time>
      </trkpt>
      <trkpt lat="45.62454" lon="6.80802">
        <ele>972.51098632812</ele>
        <time>2016-08-21T07:21:53Z</time>
      </trkpt>
      <trkpt lat="45.62463" lon="6.80812">
        <ele>972.99169921875</ele>
        <time>2016-08-21T07:21:57Z</time>
      </trkpt>
      <trkpt lat="45.62469" lon="6.80842">
        <ele>974.43359375</ele>
        <time>2016-08-21T07:22:04Z</time>
      </trkpt>
      <trkpt lat="45.62476" lon="6.8089">
        <ele>976.35620117188</ele>
        <time>2016-08-21T07:22:15Z</time>
      </trkpt>
      <trkpt lat="45.62484" lon="6.80939">
        <ele>978.27880859375</ele>
        <time>2016-08-21T07:22:26Z</time>
      </trkpt>
      <trkpt lat="45.62487" lon="6.80965">
        <ele>981.64331054688</ele>
        <time>2016-08-21T07:22:32Z</time>
      </trkpt>
      <trkpt lat="45.62488" lon="6.8097">
        <ele>981.16284179688</ele>
        <time>2016-08-21T07:22:33Z</time>
      </trkpt>
      <trkpt lat="45.62495" lon="6.81018">
        <ele>983.56591796875</ele>
        <time>2016-08-21T07:22:44Z</time>
      </trkpt>
      <trkpt lat="45.62501" lon="6.81053">
        <ele>984.04663085938</ele>
        <time>2016-08-21T07:22:52Z</time>
      </trkpt>
      <trkpt lat="45.62505" lon="6.81079">
        <ele>986.93041992188</ele>
        <time>2016-08-21T07:22:58Z</time>
      </trkpt>
      <trkpt lat="45.62505" lon="6.81083">
        <ele>986.93041992188</ele>
        <time>2016-08-21T07:22:59Z</time>
      </trkpt>
      <trkpt lat="45.6251" lon="6.81115">
        <ele>989.81469726562</ele>
        <time>2016-08-21T07:23:06Z</time>
      </trkpt>
      <trkpt lat="45.62517" lon="6.81153">
        <ele>991.25659179688</ele>
        <time>2016-08-21T07:23:15Z</time>
      </trkpt>
      <trkpt lat="45.62526" lon="6.8117">
        <ele>992.21801757812</ele>
        <time>2016-08-21T07:23:20Z</time>
      </trkpt>
      <trkpt lat="45.62538" lon="6.81169">
        <ele>993.17919921875</ele>
        <time>2016-08-21T07:23:24Z</time>
      </trkpt>
      <trkpt lat="45.62547" lon="6.81153">
        <ele>992.69873046875</ele>
        <time>2016-08-21T07:23:28Z</time>
      </trkpt>
      <trkpt lat="45.62561" lon="6.81109">
        <ele>993.17919921875</ele>
        <time>2016-08-21T07:23:37Z</time>
      </trkpt>
      <trkpt lat="45.62574" lon="6.8107">
        <ele>995.10180664062</ele>
        <time>2016-08-21T07:23:46Z</time>
      </trkpt>
      <trkpt lat="45.62587" lon="6.81032">
        <ele>996.06323242188</ele>
        <time>2016-08-21T07:23:55Z</time>
      </trkpt>
      <trkpt lat="45.62604" lon="6.80991">
        <ele>998.94702148438</ele>
        <time>2016-08-21T07:24:05Z</time>
      </trkpt>
      <trkpt lat="45.62627" lon="6.80951">
        <ele>1000.8696289062</ele>
        <time>2016-08-21T07:24:16Z</time>
      </trkpt>
      <trkpt lat="45.62654" lon="6.8091">
        <ele>1003.7536621094</ele>
        <time>2016-08-21T07:24:28Z</time>
      </trkpt>
      <trkpt lat="45.62668" lon="6.80906">
        <ele>1003.7536621094</ele>
        <time>2016-08-21T07:24:32Z</time>
      </trkpt>
      <trkpt lat="45.62679" lon="6.80919">
        <ele>1004.2346191406</ele>
        <time>2016-08-21T07:24:36Z</time>
      </trkpt>
      <trkpt lat="45.62681" lon="6.80944">
        <ele>1006.1569824219</ele>
        <time>2016-08-21T07:24:41Z</time>
      </trkpt>
      <trkpt lat="45.62679" lon="6.80992">
        <ele>1008.5603027344</ele>
        <time>2016-08-21T07:24:51Z</time>
      </trkpt>
      <trkpt lat="45.62677" lon="6.81047">
        <ele>1010.9636230469</ele>
        <time>2016-08-21T07:25:03Z</time>
      </trkpt>
      <trkpt lat="45.62678" lon="6.81087">
        <ele>1012.8862304688</ele>
        <time>2016-08-21T07:25:12Z</time>
      </trkpt>
      <trkpt lat="45.62685" lon="6.81136">
        <ele>1015.7702636719</ele>
        <time>2016-08-21T07:25:23Z</time>
      </trkpt>
      <trkpt lat="45.62688" lon="6.81178">
        <ele>1018.1733398438</ele>
        <time>2016-08-21T07:25:32Z</time>
      </trkpt>
      <trkpt lat="45.62682" lon="6.81224">
        <ele>1020.0961914062</ele>
        <time>2016-08-21T07:25:42Z</time>
      </trkpt>
      <trkpt lat="45.62673" lon="6.81243">
        <ele>1021.5380859375</ele>
        <time>2016-08-21T07:25:47Z</time>
      </trkpt>
      <trkpt lat="45.62652" lon="6.81261">
        <ele>1022.4995117188</ele>
        <time>2016-08-21T07:25:55Z</time>
      </trkpt>
      <trkpt lat="45.62631" lon="6.8128">
        <ele>1022.9802246094</ele>
        <time>2016-08-21T07:26:03Z</time>
      </trkpt>
      <trkpt lat="45.62603" lon="6.813">
        <ele>1025.3833007812</ele>
        <time>2016-08-21T07:26:13Z</time>
      </trkpt>
      <trkpt lat="45.62581" lon="6.81298">
        <ele>1027.3061523438</ele>
        <time>2016-08-21T07:26:20Z</time>
      </trkpt>
      <trkpt lat="45.62566" lon="6.81285">
        <ele>1028.2673339844</ele>
        <time>2016-08-21T07:26:26Z</time>
      </trkpt>
      <trkpt lat="45.62547" lon="6.81271">
        <ele>1029.7092285156</ele>
        <time>2016-08-21T07:26:33Z</time>
      </trkpt>
      <trkpt lat="45.6253" lon="6.81268">
        <ele>1031.1513671875</ele>
        <time>2016-08-21T07:26:39Z</time>
      </trkpt>
      <trkpt lat="45.62514" lon="6.81279">
        <ele>1031.6318359375</ele>
        <time>2016-08-21T07:26:45Z</time>
      </trkpt>
      <trkpt lat="45.62491" lon="6.81301">
        <ele>1032.5932617188</ele>
        <time>2016-08-21T07:26:54Z</time>
      </trkpt>
      <trkpt lat="45.62471" lon="6.81315">
        <ele>1034.5158691406</ele>
        <time>2016-08-21T07:27:01Z</time>
      </trkpt>
      <trkpt lat="45.62449" lon="6.81333">
        <ele>1035.9577636719</ele>
        <time>2016-08-21T07:27:09Z</time>
      </trkpt>
      <trkpt lat="45.62433" lon="6.81355">
        <ele>1036.9191894531</ele>
        <time>2016-08-21T07:27:16Z</time>
      </trkpt>
      <trkpt lat="45.62418" lon="6.81389">
        <ele>1038.361328125</ele>
        <time>2016-08-21T07:27:24Z</time>
      </trkpt>
      <trkpt lat="45.62403" lon="6.81414">
        <ele>1039.3225097656</ele>
        <time>2016-08-21T07:27:31Z</time>
      </trkpt>
      <trkpt lat="45.62387" lon="6.81429">
        <ele>1040.7644042969</ele>
        <time>2016-08-21T07:27:37Z</time>
      </trkpt>
      <trkpt lat="45.62366" lon="6.8144">
        <ele>1041.2451171875</ele>
        <time>2016-08-21T07:27:44Z</time>
      </trkpt>
      <trkpt lat="45.62343" lon="6.81449">
        <ele>1043.6484375</ele>
        <time>2016-08-21T07:27:51Z</time>
      </trkpt>
      <trkpt lat="45.62317" lon="6.81468">
        <ele>1044.6096191406</ele>
        <time>2016-08-21T07:28:00Z</time>
      </trkpt>
      <trkpt lat="45.62286" lon="6.81495">
        <ele>1046.5324707031</ele>
        <time>2016-08-21T07:28:11Z</time>
      </trkpt>
      <trkpt lat="45.62261" lon="6.81518">
        <ele>1047.4936523438</ele>
        <time>2016-08-21T07:28:20Z</time>
      </trkpt>
      <trkpt lat="45.62246" lon="6.81542">
        <ele>1049.4162597656</ele>
        <time>2016-08-21T07:28:27Z</time>
      </trkpt>
      <trkpt lat="45.62238" lon="6.81572">
        <ele>1051.3388671875</ele>
        <time>2016-08-21T07:28:34Z</time>
      </trkpt>
      <trkpt lat="45.62229" lon="6.81609">
        <ele>1052.3002929688</ele>
        <time>2016-08-21T07:28:42Z</time>
      </trkpt>
      <trkpt lat="45.62216" lon="6.81631">
        <ele>1054.2231445312</ele>
        <time>2016-08-21T07:28:48Z</time>
      </trkpt>
      <trkpt lat="45.62181" lon="6.81661">
        <ele>1056.6262207031</ele>
        <time>2016-08-21T07:29:00Z</time>
      </trkpt>
      <trkpt lat="45.62162" lon="6.8168">
        <ele>1057.5876464844</ele>
        <time>2016-08-21T07:29:07Z</time>
      </trkpt>
      <trkpt lat="45.62141" lon="6.81705">
        <ele>1058.068359375</ele>
        <time>2016-08-21T07:29:15Z</time>
      </trkpt>
      <trkpt lat="45.62117" lon="6.81745">
        <ele>1059.9907226562</ele>
        <time>2016-08-21T07:29:26Z</time>
      </trkpt>
      <trkpt lat="45.621" lon="6.81785">
        <ele>1061.4328613281</ele>
        <time>2016-08-21T07:29:35Z</time>
      </trkpt>
      <trkpt lat="45.6209" lon="6.81816">
        <ele>1063.35546875</ele>
        <time>2016-08-21T07:29:42Z</time>
      </trkpt>
      <trkpt lat="45.62083" lon="6.81845">
        <ele>1063.8359375</ele>
        <time>2016-08-21T07:29:48Z</time>
      </trkpt>
      <trkpt lat="45.62079" lon="6.81865">
        <ele>1063.8359375</ele>
        <time>2016-08-21T07:29:52Z</time>
      </trkpt>
      <trkpt lat="45.62072" lon="6.81908">
        <ele>1065.7587890625</ele>
        <time>2016-08-21T07:30:00Z</time>
      </trkpt>
      <trkpt lat="45.6206" lon="6.81952">
        <ele>1067.6811523438</ele>
        <time>2016-08-21T07:30:09Z</time>
      </trkpt>
      <trkpt lat="45.62048" lon="6.81976">
        <ele>1069.1235351562</ele>
        <time>2016-08-21T07:30:15Z</time>
      </trkpt>
      <trkpt lat="45.62027" lon="6.82015">
        <ele>1070.5654296875</ele>
        <time>2016-08-21T07:30:25Z</time>
      </trkpt>
      <trkpt lat="45.62009" lon="6.8205">
        <ele>1072.96875</ele>
        <time>2016-08-21T07:30:34Z</time>
      </trkpt>
      <trkpt lat="45.61999" lon="6.82067">
        <ele>1073.9299316406</ele>
        <time>2016-08-21T07:30:39Z</time>
      </trkpt>
      <trkpt lat="45.61987" lon="6.82088">
        <ele>1075.3718261719</ele>
        <time>2016-08-21T07:30:45Z</time>
      </trkpt>
      <trkpt lat="45.61972" lon="6.82116">
        <ele>1075.8525390625</ele>
        <time>2016-08-21T07:30:53Z</time>
      </trkpt>
      <trkpt lat="45.61959" lon="6.8214">
        <ele>1077.7751464844</ele>
        <time>2016-08-21T07:31:00Z</time>
      </trkpt>
      <trkpt lat="45.61949" lon="6.82157">
        <ele>1078.255859375</ele>
        <time>2016-08-21T07:31:05Z</time>
      </trkpt>
      <trkpt lat="45.61933" lon="6.82188">
        <ele>1078.7365722656</ele>
        <time>2016-08-21T07:31:14Z</time>
      </trkpt>
      <trkpt lat="45.61921" lon="6.82216">
        <ele>1080.6591796875</ele>
        <time>2016-08-21T07:31:21Z</time>
      </trkpt>
      <trkpt lat="45.61914" lon="6.82236">
        <ele>1081.6203613281</ele>
        <time>2016-08-21T07:31:26Z</time>
      </trkpt>
      <trkpt lat="45.61905" lon="6.8226">
        <ele>1083.54296875</ele>
        <time>2016-08-21T07:31:32Z</time>
      </trkpt>
      <trkpt lat="45.61894" lon="6.82295">
        <ele>1084.5046386719</ele>
        <time>2016-08-21T07:31:40Z</time>
      </trkpt>
      <trkpt lat="45.6189" lon="6.82312">
        <ele>1085.9465332031</ele>
        <time>2016-08-21T07:31:44Z</time>
      </trkpt>
      <trkpt lat="45.619" lon="6.82324">
        <ele>1087.3884277344</ele>
        <time>2016-08-21T07:31:49Z</time>
      </trkpt>
      <trkpt lat="45.6191" lon="6.82312">
        <ele>1087.3884277344</ele>
        <time>2016-08-21T07:31:53Z</time>
      </trkpt>
      <trkpt lat="45.61911" lon="6.82307">
        <ele>1087.869140625</ele>
        <time>2016-08-21T07:31:54Z</time>
      </trkpt>
      <trkpt lat="45.61923" lon="6.82275">
        <ele>1088.8305664062</ele>
        <time>2016-08-21T07:32:01Z</time>
      </trkpt>
      <trkpt lat="45.61935" lon="6.8225">
        <ele>1090.2724609375</ele>
        <time>2016-08-21T07:32:07Z</time>
      </trkpt>
      <trkpt lat="45.61954" lon="6.82227">
        <ele>1091.2336425781</ele>
        <time>2016-08-21T07:32:14Z</time>
      </trkpt>
      <trkpt lat="45.6198" lon="6.82204">
        <ele>1093.15625</ele>
        <time>2016-08-21T07:32:23Z</time>
      </trkpt>
      <trkpt lat="45.61993" lon="6.82188">
        <ele>1095.0788574219</ele>
        <time>2016-08-21T07:32:28Z</time>
      </trkpt>
      <trkpt lat="45.62013" lon="6.82155">
        <ele>1095.5595703125</ele>
        <time>2016-08-21T07:32:37Z</time>
      </trkpt>
      <trkpt lat="45.62017" lon="6.82147">
        <ele>1096.0402832031</ele>
        <time>2016-08-21T07:32:39Z</time>
      </trkpt>
      <trkpt lat="45.62039" lon="6.82115">
        <ele>1097.4821777344</ele>
        <time>2016-08-21T07:32:48Z</time>
      </trkpt>
      <trkpt lat="45.62067" lon="6.82088">
        <ele>1098.443359375</ele>
        <time>2016-08-21T07:32:58Z</time>
      </trkpt>
      <trkpt lat="45.62096" lon="6.82054">
        <ele>1100.8469238281</ele>
        <time>2016-08-21T07:33:09Z</time>
      </trkpt>
      <trkpt lat="45.62115" lon="6.82027">
        <ele>1103.2502441406</ele>
        <time>2016-08-21T07:33:17Z</time>
      </trkpt>
      <trkpt lat="45.62139" lon="6.81994">
        <ele>1105.1728515625</ele>
        <time>2016-08-21T07:33:27Z</time>
      </trkpt>
      <trkpt lat="45.62161" lon="6.81966">
        <ele>1106.6147460938</ele>
        <time>2016-08-21T07:33:36Z</time>
      </trkpt>
      <trkpt lat="45.62181" lon="6.81941">
        <ele>1108.5373535156</ele>
        <time>2016-08-21T07:33:44Z</time>
      </trkpt>
      <trkpt lat="45.62205" lon="6.81911">
        <ele>1109.9792480469</ele>
        <time>2016-08-21T07:33:54Z</time>
      </trkpt>
      <trkpt lat="45.62227" lon="6.819">
        <ele>1110.4599609375</ele>
        <time>2016-08-21T07:34:01Z</time>
      </trkpt>
      <trkpt lat="45.62259" lon="6.81891">
        <ele>1111.4213867188</ele>
        <time>2016-08-21T07:34:11Z</time>
      </trkpt>
      <trkpt lat="45.62279" lon="6.81876">
        <ele>1112.3825683594</ele>
        <time>2016-08-21T07:34:18Z</time>
      </trkpt>
      <trkpt lat="45.62297" lon="6.81854">
        <ele>1113.3439941406</ele>
        <time>2016-08-21T07:34:25Z</time>
      </trkpt>
      <trkpt lat="45.62322" lon="6.81815">
        <ele>1116.7087402344</ele>
        <time>2016-08-21T07:34:35Z</time>
      </trkpt>
      <trkpt lat="45.62345" lon="6.81786">
        <ele>1119.5927734375</ele>
        <time>2016-08-21T07:34:44Z</time>
      </trkpt>
      <trkpt lat="45.62367" lon="6.81773">
        <ele>1121.0346679688</ele>
        <time>2016-08-21T07:34:51Z</time>
      </trkpt>
      <trkpt lat="45.62399" lon="6.81762">
        <ele>1122.4765625</ele>
        <time>2016-08-21T07:35:01Z</time>
      </trkpt>
      <trkpt lat="45.62432" lon="6.8175">
        <ele>1124.3991699219</ele>
        <time>2016-08-21T07:35:11Z</time>
      </trkpt>
      <trkpt lat="45.62458" lon="6.81741">
        <ele>1126.3217773438</ele>
        <time>2016-08-21T07:35:19Z</time>
      </trkpt>
      <trkpt lat="45.62486" lon="6.8174">
        <ele>1127.283203125</ele>
        <time>2016-08-21T07:35:27Z</time>
      </trkpt>
      <trkpt lat="45.62524" lon="6.81739">
        <ele>1128.7250976562</ele>
        <time>2016-08-21T07:35:38Z</time>
      </trkpt>
      <trkpt lat="45.62556" lon="6.81737">
        <ele>1130.6477050781</ele>
        <time>2016-08-21T07:35:47Z</time>
      </trkpt>
      <trkpt lat="45.62585" lon="6.81721">
        <ele>1133.0510253906</ele>
        <time>2016-08-21T07:35:56Z</time>
      </trkpt>
      <trkpt lat="45.62588" lon="6.81719">
        <ele>1133.0510253906</ele>
        <time>2016-08-21T07:35:57Z</time>
      </trkpt>
      <trkpt lat="45.6262" lon="6.81689">
        <ele>1135.4543457031</ele>
        <time>2016-08-21T07:36:08Z</time>
      </trkpt>
      <trkpt lat="45.6265" lon="6.81655">
        <ele>1138.8190917969</ele>
        <time>2016-08-21T07:36:19Z</time>
      </trkpt>
      <trkpt lat="45.62682" lon="6.8161">
        <ele>1140.2609863281</ele>
        <time>2016-08-21T07:36:32Z</time>
      </trkpt>
      <trkpt lat="45.62696" lon="6.81589">
        <ele>1141.2221679688</ele>
        <time>2016-08-21T07:36:38Z</time>
      </trkpt>
      <trkpt lat="45.62706" lon="6.81594">
        <ele>1141.7028808594</ele>
        <time>2016-08-21T07:36:42Z</time>
      </trkpt>
      <trkpt lat="45.62702" lon="6.81608">
        <ele>1141.7028808594</ele>
        <time>2016-08-21T07:36:45Z</time>
      </trkpt>
      <trkpt lat="45.62683" lon="6.8165">
        <ele>1144.1062011719</ele>
        <time>2016-08-21T07:36:55Z</time>
      </trkpt>
      <trkpt lat="45.62657" lon="6.81703">
        <ele>1146.5095214844</ele>
        <time>2016-08-21T07:37:08Z</time>
      </trkpt>
      <trkpt lat="45.62635" lon="6.81738">
        <ele>1147.9514160156</ele>
        <time>2016-08-21T07:37:18Z</time>
      </trkpt>
      <trkpt lat="45.62616" lon="6.81765">
        <ele>1149.8742675781</ele>
        <time>2016-08-21T07:37:26Z</time>
      </trkpt>
      <trkpt lat="45.62598" lon="6.81794">
        <ele>1150.8354492188</ele>
        <time>2016-08-21T07:37:34Z</time>
      </trkpt>
      <trkpt lat="45.62577" lon="6.81808">
        <ele>1152.27734375</ele>
        <time>2016-08-21T07:37:41Z</time>
      </trkpt>
      <trkpt lat="45.6255" lon="6.81814">
        <ele>1154.2001953125</ele>
        <time>2016-08-21T07:37:49Z</time>
      </trkpt>
      <trkpt lat="45.62525" lon="6.81823">
        <ele>1155.1613769531</ele>
        <time>2016-08-21T07:37:57Z</time>
      </trkpt>
      <trkpt lat="45.62494" lon="6.81848">
        <ele>1158.5258789062</ele>
        <time>2016-08-21T07:38:07Z</time>
      </trkpt>
      <trkpt lat="45.62491" lon="6.81851">
        <ele>1158.0454101562</ele>
        <time>2016-08-21T07:38:08Z</time>
      </trkpt>
      <trkpt lat="45.62476" lon="6.81864">
        <ele>1159.4873046875</ele>
        <time>2016-08-21T07:38:13Z</time>
      </trkpt>
      <trkpt lat="45.62456" lon="6.8188">
        <ele>1160.9291992188</ele>
        <time>2016-08-21T07:38:20Z</time>
      </trkpt>
      <trkpt lat="45.62433" lon="6.81899">
        <ele>1162.37109375</ele>
        <time>2016-08-21T07:38:28Z</time>
      </trkpt>
      <trkpt lat="45.62398" lon="6.81925">
        <ele>1164.2939453125</ele>
        <time>2016-08-21T07:38:40Z</time>
      </trkpt>
      <trkpt lat="45.62372" lon="6.81949">
        <ele>1166.697265625</ele>
        <time>2016-08-21T07:38:49Z</time>
      </trkpt>
      <trkpt lat="45.62346" lon="6.81982">
        <ele>1168.1391601562</ele>
        <time>2016-08-21T07:38:59Z</time>
      </trkpt>
      <trkpt lat="45.62323" lon="6.82022">
        <ele>1170.5424804688</ele>
        <time>2016-08-21T07:39:10Z</time>
      </trkpt>
      <trkpt lat="45.6231" lon="6.82047">
        <ele>1171.984375</ele>
        <time>2016-08-21T07:39:17Z</time>
      </trkpt>
      <trkpt lat="45.62296" lon="6.82068">
        <ele>1172.4650878906</ele>
        <time>2016-08-21T07:39:23Z</time>
      </trkpt>
      <trkpt lat="45.62273" lon="6.82082">
        <ele>1174.3876953125</ele>
        <time>2016-08-21T07:39:30Z</time>
      </trkpt>
      <trkpt lat="45.62251" lon="6.82093">
        <ele>1174.8684082031</ele>
        <time>2016-08-21T07:39:37Z</time>
      </trkpt>
      <trkpt lat="45.62228" lon="6.82116">
        <ele>1176.791015625</ele>
        <time>2016-08-21T07:39:45Z</time>
      </trkpt>
      <trkpt lat="45.62211" lon="6.82145">
        <ele>1178.2329101562</ele>
        <time>2016-08-21T07:39:53Z</time>
      </trkpt>
      <trkpt lat="45.62198" lon="6.82185">
        <ele>1179.6748046875</ele>
        <time>2016-08-21T07:40:02Z</time>
      </trkpt>
      <trkpt lat="45.62187" lon="6.82224">
        <ele>1181.1171875</ele>
        <time>2016-08-21T07:40:10Z</time>
      </trkpt>
      <trkpt lat="45.62172" lon="6.82253">
        <ele>1182.5590820312</ele>
        <time>2016-08-21T07:40:17Z</time>
      </trkpt>
      <trkpt lat="45.62151" lon="6.82277">
        <ele>1183.0395507812</ele>
        <time>2016-08-21T07:40:25Z</time>
      </trkpt>
      <trkpt lat="45.62136" lon="6.82288">
        <ele>1184.0009765625</ele>
        <time>2016-08-21T07:40:30Z</time>
      </trkpt>
      <trkpt lat="45.62118" lon="6.82315">
        <ele>1185.9235839844</ele>
        <time>2016-08-21T07:40:38Z</time>
      </trkpt>
      <trkpt lat="45.62105" lon="6.82349">
        <ele>1187.8461914062</ele>
        <time>2016-08-21T07:40:46Z</time>
      </trkpt>
      <trkpt lat="45.62094" lon="6.82381">
        <ele>1190.7299804688</ele>
        <time>2016-08-21T07:40:54Z</time>
      </trkpt>
      <trkpt lat="45.62082" lon="6.82421">
        <ele>1192.6528320312</ele>
        <time>2016-08-21T07:41:03Z</time>
      </trkpt>
      <trkpt lat="45.62069" lon="6.82459">
        <ele>1194.5751953125</ele>
        <time>2016-08-21T07:41:11Z</time>
      </trkpt>
      <trkpt lat="45.62047" lon="6.82505">
        <ele>1196.017578125</ele>
        <time>2016-08-21T07:41:22Z</time>
      </trkpt>
      <trkpt lat="45.62028" lon="6.82535">
        <ele>1197.4594726562</ele>
        <time>2016-08-21T07:41:30Z</time>
      </trkpt>
      <trkpt lat="45.62027" lon="6.8254">
        <ele>1197.9401855469</ele>
        <time>2016-08-21T07:41:31Z</time>
      </trkpt>
      <trkpt lat="45.62036" lon="6.82555">
        <ele>1198.4206542969</ele>
        <time>2016-08-21T07:41:35Z</time>
      </trkpt>
      <trkpt lat="45.62046" lon="6.82552">
        <ele>1199.3820800781</ele>
        <time>2016-08-21T07:41:38Z</time>
      </trkpt>
      <trkpt lat="45.62051" lon="6.82543">
        <ele>1199.8627929688</ele>
        <time>2016-08-21T07:41:40Z</time>
      </trkpt>
      <trkpt lat="45.62053" lon="6.82538">
        <ele>1199.3820800781</ele>
        <time>2016-08-21T07:41:41Z</time>
      </trkpt>
      <trkpt lat="45.62078" lon="6.82486">
        <ele>1200.8239746094</ele>
        <time>2016-08-21T07:41:52Z</time>
      </trkpt>
      <trkpt lat="45.62082" lon="6.82476">
        <ele>1200.8239746094</ele>
        <time>2016-08-21T07:41:54Z</time>
      </trkpt>
      <trkpt lat="45.62099" lon="6.82425">
        <ele>1201.7854003906</ele>
        <time>2016-08-21T07:42:04Z</time>
      </trkpt>
      <trkpt lat="45.62115" lon="6.82398">
        <ele>1203.7080078125</ele>
        <time>2016-08-21T07:42:11Z</time>
      </trkpt>
      <trkpt lat="45.62141" lon="6.82369">
        <ele>1204.1887207031</ele>
        <time>2016-08-21T07:42:20Z</time>
      </trkpt>
      <trkpt lat="45.62161" lon="6.82346">
        <ele>1206.1110839844</ele>
        <time>2016-08-21T07:42:27Z</time>
      </trkpt>
      <trkpt lat="45.62177" lon="6.82326">
        <ele>1207.5532226562</ele>
        <time>2016-08-21T07:42:33Z</time>
      </trkpt>
      <trkpt lat="45.62198" lon="6.82299">
        <ele>1209.9562988281</ele>
        <time>2016-08-21T07:42:41Z</time>
      </trkpt>
      <trkpt lat="45.62226" lon="6.82274">
        <ele>1212.3598632812</ele>
        <time>2016-08-21T07:42:50Z</time>
      </trkpt>
      <trkpt lat="45.62257" lon="6.82249">
        <ele>1214.7631835938</ele>
        <time>2016-08-21T07:43:00Z</time>
      </trkpt>
      <trkpt lat="45.62281" lon="6.82234">
        <ele>1215.2438964844</ele>
        <time>2016-08-21T07:43:07Z</time>
      </trkpt>
      <trkpt lat="45.62309" lon="6.82204">
        <ele>1216.6857910156</ele>
        <time>2016-08-21T07:43:16Z</time>
      </trkpt>
      <trkpt lat="45.62336" lon="6.82173">
        <ele>1217.6469726562</ele>
        <time>2016-08-21T07:43:26Z</time>
      </trkpt>
      <trkpt lat="45.62359" lon="6.82155">
        <ele>1220.0502929688</ele>
        <time>2016-08-21T07:43:34Z</time>
      </trkpt>
      <trkpt lat="45.62391" lon="6.82134">
        <ele>1221.9729003906</ele>
        <time>2016-08-21T07:43:44Z</time>
      </trkpt>
      <trkpt lat="45.62416" lon="6.82114">
        <ele>1223.4150390625</ele>
        <time>2016-08-21T07:43:52Z</time>
      </trkpt>
      <trkpt lat="45.62438" lon="6.82104">
        <ele>1224.8569335938</ele>
        <time>2016-08-21T07:43:59Z</time>
      </trkpt>
      <trkpt lat="45.62466" lon="6.82099">
        <ele>1226.298828125</ele>
        <time>2016-08-21T07:44:07Z</time>
      </trkpt>
      <trkpt lat="45.62487" lon="6.82096">
        <ele>1227.2602539062</ele>
        <time>2016-08-21T07:44:13Z</time>
      </trkpt>
      <trkpt lat="45.62508" lon="6.82094">
        <ele>1229.6635742188</ele>
        <time>2016-08-21T07:44:19Z</time>
      </trkpt>
      <trkpt lat="45.62535" lon="6.82087">
        <ele>1231.5861816406</ele>
        <time>2016-08-21T07:44:27Z</time>
      </trkpt>
      <trkpt lat="45.62556" lon="6.82087">
        <ele>1232.0668945312</ele>
        <time>2016-08-21T07:44:33Z</time>
      </trkpt>
      <trkpt lat="45.62585" lon="6.82083">
        <ele>1233.9895019531</ele>
        <time>2016-08-21T07:44:41Z</time>
      </trkpt>
      <trkpt lat="45.626" lon="6.82081">
        <ele>1235.912109375</ele>
        <time>2016-08-21T07:44:45Z</time>
      </trkpt>
      <trkpt lat="45.62632" lon="6.8208">
        <ele>1237.3540039062</ele>
        <time>2016-08-21T07:44:54Z</time>
      </trkpt>
      <trkpt lat="45.62641" lon="6.82076">
        <ele>1238.7961425781</ele>
        <time>2016-08-21T07:44:57Z</time>
      </trkpt>
      <trkpt lat="45.62669" lon="6.82055">
        <ele>1240.7185058594</ele>
        <time>2016-08-21T07:45:06Z</time>
      </trkpt>
      <trkpt lat="45.62692" lon="6.82029">
        <ele>1241.6799316406</ele>
        <time>2016-08-21T07:45:14Z</time>
      </trkpt>
      <trkpt lat="45.62713" lon="6.82015">
        <ele>1243.6025390625</ele>
        <time>2016-08-21T07:45:20Z</time>
      </trkpt>
      <trkpt lat="45.62734" lon="6.82021">
        <ele>1244.0834960938</ele>
        <time>2016-08-21T07:45:26Z</time>
      </trkpt>
      <trkpt lat="45.62749" lon="6.8203">
        <ele>1244.5639648438</ele>
        <time>2016-08-21T07:45:31Z</time>
      </trkpt>
      <trkpt lat="45.62771" lon="6.82026">
        <ele>1245.525390625</ele>
        <time>2016-08-21T07:45:37Z</time>
      </trkpt>
      <trkpt lat="45.62785" lon="6.82026">
        <ele>1247.4479980469</ele>
        <time>2016-08-21T07:45:42Z</time>
      </trkpt>
      <trkpt lat="45.62803" lon="6.82024">
        <ele>1247.4479980469</ele>
        <time>2016-08-21T07:45:47Z</time>
      </trkpt>
      <trkpt lat="45.62827" lon="6.82016">
        <ele>1248.8898925781</ele>
        <time>2016-08-21T07:45:54Z</time>
      </trkpt>
      <trkpt lat="45.62857" lon="6.81999">
        <ele>1250.33203125</ele>
        <time>2016-08-21T07:46:03Z</time>
      </trkpt>
      <trkpt lat="45.62865" lon="6.81995">
        <ele>1250.8125</ele>
        <time>2016-08-21T07:46:06Z</time>
      </trkpt>
      <trkpt lat="45.62871" lon="6.82008">
        <ele>1251.2932128906</ele>
        <time>2016-08-21T07:46:10Z</time>
      </trkpt>
      <trkpt lat="45.62862" lon="6.8202">
        <ele>1252.2543945312</ele>
        <time>2016-08-21T07:46:14Z</time>
      </trkpt>
      <trkpt lat="45.62838" lon="6.82032">
        <ele>1253.6965332031</ele>
        <time>2016-08-21T07:46:22Z</time>
      </trkpt>
      <trkpt lat="45.62818" lon="6.82039">
        <ele>1255.1384277344</ele>
        <time>2016-08-21T07:46:29Z</time>
      </trkpt>
      <trkpt lat="45.62803" lon="6.82045">
        <ele>1256.099609375</ele>
        <time>2016-08-21T07:46:34Z</time>
      </trkpt>
      <trkpt lat="45.62787" lon="6.82052">
        <ele>1258.0224609375</ele>
        <time>2016-08-21T07:46:40Z</time>
      </trkpt>
      <trkpt lat="45.62769" lon="6.82056">
        <ele>1259.9448242188</ele>
        <time>2016-08-21T07:46:46Z</time>
      </trkpt>
      <trkpt lat="45.62767" lon="6.82056">
        <ele>1259.9448242188</ele>
        <time>2016-08-21T07:46:47Z</time>
      </trkpt>
      <trkpt lat="45.62752" lon="6.82059">
        <ele>1261.3872070312</ele>
        <time>2016-08-21T07:46:52Z</time>
      </trkpt>
      <trkpt lat="45.62735" lon="6.82067">
        <ele>1262.8291015625</ele>
        <time>2016-08-21T07:46:58Z</time>
      </trkpt>
      <trkpt lat="45.62717" lon="6.82079">
        <ele>1262.8291015625</ele>
        <time>2016-08-21T07:47:04Z</time>
      </trkpt>
      <trkpt lat="45.62706" lon="6.821">
        <ele>1263.7902832031</ele>
        <time>2016-08-21T07:47:09Z</time>
      </trkpt>
      <trkpt lat="45.6269" lon="6.82124">
        <ele>1263.7902832031</ele>
        <time>2016-08-21T07:47:16Z</time>
      </trkpt>
      <trkpt lat="45.62674" lon="6.8214">
        <ele>1265.7131347656</ele>
        <time>2016-08-21T07:47:22Z</time>
      </trkpt>
      <trkpt lat="45.62653" lon="6.82155">
        <ele>1266.1936035156</ele>
        <time>2016-08-21T07:47:29Z</time>
      </trkpt>
      <trkpt lat="45.62639" lon="6.82164">
        <ele>1267.6354980469</ele>
        <time>2016-08-21T07:47:34Z</time>
      </trkpt>
      <trkpt lat="45.62618" lon="6.82172">
        <ele>1269.0776367188</ele>
        <time>2016-08-21T07:47:41Z</time>
      </trkpt>
      <trkpt lat="45.62603" lon="6.82173">
        <ele>1269.5583496094</ele>
        <time>2016-08-21T07:47:46Z</time>
      </trkpt>
      <trkpt lat="45.62578" lon="6.82171">
        <ele>1271.0002441406</ele>
        <time>2016-08-21T07:47:53Z</time>
      </trkpt>
      <trkpt lat="45.62554" lon="6.82175">
        <ele>1272.9228515625</ele>
        <time>2016-08-21T07:48:00Z</time>
      </trkpt>
      <trkpt lat="45.62531" lon="6.82184">
        <ele>1273.8840332031</ele>
        <time>2016-08-21T07:48:07Z</time>
      </trkpt>
      <trkpt lat="45.62503" lon="6.82197">
        <ele>1276.2875976562</ele>
        <time>2016-08-21T07:48:16Z</time>
      </trkpt>
      <trkpt lat="45.62479" lon="6.82206">
        <ele>1277.7294921875</ele>
        <time>2016-08-21T07:48:23Z</time>
      </trkpt>
      <trkpt lat="45.62472" lon="6.82208">
        <ele>1278.6909179688</ele>
        <time>2016-08-21T07:48:25Z</time>
      </trkpt>
      <trkpt lat="45.62448" lon="6.82219">
        <ele>1279.6520996094</ele>
        <time>2016-08-21T07:48:32Z</time>
      </trkpt>
      <trkpt lat="45.62427" lon="6.82236">
        <ele>1281.0942382812</ele>
        <time>2016-08-21T07:48:39Z</time>
      </trkpt>
      <trkpt lat="45.62411" lon="6.82257">
        <ele>1282.5361328125</ele>
        <time>2016-08-21T07:48:45Z</time>
      </trkpt>
      <trkpt lat="45.62391" lon="6.82286">
        <ele>1283.9780273438</ele>
        <time>2016-08-21T07:48:53Z</time>
      </trkpt>
      <trkpt lat="45.6237" lon="6.82319">
        <ele>1285.419921875</ele>
        <time>2016-08-21T07:49:02Z</time>
      </trkpt>
      <trkpt lat="45.62356" lon="6.82352">
        <ele>1286.8618164062</ele>
        <time>2016-08-21T07:49:10Z</time>
      </trkpt>
      <trkpt lat="45.62337" lon="6.82393">
        <ele>1288.7846679688</ele>
        <time>2016-08-21T07:49:20Z</time>
      </trkpt>
      <trkpt lat="45.62319" lon="6.82436">
        <ele>1291.6684570312</ele>
        <time>2016-08-21T07:49:30Z</time>
      </trkpt>
      <trkpt lat="45.62303" lon="6.82477">
        <ele>1295.033203125</ele>
        <time>2016-08-21T07:49:40Z</time>
      </trkpt>
      <trkpt lat="45.62291" lon="6.82514">
        <ele>1296.9558105469</ele>
        <time>2016-08-21T07:49:49Z</time>
      </trkpt>
      <trkpt lat="45.62279" lon="6.8256">
        <ele>1298.8784179688</ele>
        <time>2016-08-21T07:49:59Z</time>
      </trkpt>
      <trkpt lat="45.62274" lon="6.82603">
        <ele>1300.8010253906</ele>
        <time>2016-08-21T07:50:08Z</time>
      </trkpt>
      <trkpt lat="45.62281" lon="6.82634">
        <ele>1300.8010253906</ele>
        <time>2016-08-21T07:50:15Z</time>
      </trkpt>
      <trkpt lat="45.62296" lon="6.82679">
        <ele>1301.7624511719</ele>
        <time>2016-08-21T07:50:25Z</time>
      </trkpt>
      <trkpt lat="45.62301" lon="6.82712">
        <ele>1302.7236328125</ele>
        <time>2016-08-21T07:50:31Z</time>
      </trkpt>
      <trkpt lat="45.62296" lon="6.82755">
        <ele>1303.6850585938</ele>
        <time>2016-08-21T07:50:39Z</time>
      </trkpt>
      <trkpt lat="45.62283" lon="6.82798">
        <ele>1303.6850585938</ele>
        <time>2016-08-21T07:50:47Z</time>
      </trkpt>
      <trkpt lat="45.62277" lon="6.82829">
        <ele>1304.6462402344</ele>
        <time>2016-08-21T07:50:53Z</time>
      </trkpt>
      <trkpt lat="45.62288" lon="6.82837">
        <ele>1306.0881347656</ele>
        <time>2016-08-21T07:50:57Z</time>
      </trkpt>
      <trkpt lat="45.62297" lon="6.82821">
        <ele>1306.5688476562</ele>
        <time>2016-08-21T07:51:01Z</time>
      </trkpt>
      <trkpt lat="45.62299" lon="6.82817">
        <ele>1307.0495605469</ele>
        <time>2016-08-21T07:51:02Z</time>
      </trkpt>
      <trkpt lat="45.62309" lon="6.82774">
        <ele>1308.9724121094</ele>
        <time>2016-08-21T07:51:11Z</time>
      </trkpt>
      <trkpt lat="45.62316" lon="6.82744">
        <ele>1309.93359375</ele>
        <time>2016-08-21T07:51:18Z</time>
      </trkpt>
      <trkpt lat="45.62318" lon="6.82707">
        <ele>1311.3757324219</ele>
        <time>2016-08-21T07:51:26Z</time>
      </trkpt>
      <trkpt lat="45.62317" lon="6.82669">
        <ele>1313.2983398438</ele>
        <time>2016-08-21T07:51:34Z</time>
      </trkpt>
      <trkpt lat="45.62312" lon="6.82626">
        <ele>1315.2209472656</ele>
        <time>2016-08-21T07:51:43Z</time>
      </trkpt>
      <trkpt lat="45.62312" lon="6.82593">
        <ele>1316.6628417969</ele>
        <time>2016-08-21T07:51:50Z</time>
      </trkpt>
      <trkpt lat="45.62315" lon="6.82575">
        <ele>1318.1047363281</ele>
        <time>2016-08-21T07:51:54Z</time>
      </trkpt>
      <trkpt lat="45.6233" lon="6.82531">
        <ele>1318.1047363281</ele>
        <time>2016-08-21T07:52:04Z</time>
      </trkpt>
      <trkpt lat="45.62346" lon="6.82501">
        <ele>1320.5080566406</ele>
        <time>2016-08-21T07:52:12Z</time>
      </trkpt>
      <trkpt lat="45.62365" lon="6.82474">
        <ele>1321.9499511719</ele>
        <time>2016-08-21T07:52:20Z</time>
      </trkpt>
      <trkpt lat="45.62387" lon="6.82454">
        <ele>1323.3920898438</ele>
        <time>2016-08-21T07:52:28Z</time>
      </trkpt>
      <trkpt lat="45.62412" lon="6.82429">
        <ele>1324.8342285156</ele>
        <time>2016-08-21T07:52:37Z</time>
      </trkpt>
      <trkpt lat="45.62427" lon="6.82404">
        <ele>1327.2375488281</ele>
        <time>2016-08-21T07:52:44Z</time>
      </trkpt>
      <trkpt lat="45.62442" lon="6.82386">
        <ele>1328.1987304688</ele>
        <time>2016-08-21T07:52:50Z</time>
      </trkpt>
      <trkpt lat="45.62459" lon="6.82387">
        <ele>1329.1599121094</ele>
        <time>2016-08-21T07:52:55Z</time>
      </trkpt>
      <trkpt lat="45.62486" lon="6.82398">
        <ele>1332.0439453125</ele>
        <time>2016-08-21T07:53:03Z</time>
      </trkpt>
      <trkpt lat="45.62513" lon="6.82393">
        <ele>1333.4858398438</ele>
        <time>2016-08-21T07:53:11Z</time>
      </trkpt>
      <trkpt lat="45.62546" lon="6.82378">
        <ele>1335.4084472656</ele>
        <time>2016-08-21T07:53:21Z</time>
      </trkpt>
      <trkpt lat="45.62577" lon="6.82372">
        <ele>1336.3698730469</ele>
        <time>2016-08-21T07:53:30Z</time>
      </trkpt>
      <trkpt lat="45.62593" lon="6.82363">
        <ele>1337.8117675781</ele>
        <time>2016-08-21T07:53:35Z</time>
      </trkpt>
      <trkpt lat="45.6262" lon="6.82347">
        <ele>1339.2536621094</ele>
        <time>2016-08-21T07:53:44Z</time>
      </trkpt>
      <trkpt lat="45.6264" lon="6.8235">
        <ele>1341.1765136719</ele>
        <time>2016-08-21T07:53:50Z</time>
      </trkpt>
      <trkpt lat="45.62661" lon="6.82361">
        <ele>1342.1379394531</ele>
        <time>2016-08-21T07:53:57Z</time>
      </trkpt>
      <trkpt lat="45.62678" lon="6.8236">
        <ele>1343.0991210938</ele>
        <time>2016-08-21T07:54:02Z</time>
      </trkpt>
      <trkpt lat="45.62702" lon="6.82349">
        <ele>1345.5024414062</ele>
        <time>2016-08-21T07:54:09Z</time>
      </trkpt>
      <trkpt lat="45.62725" lon="6.8234">
        <ele>1347.9057617188</ele>
        <time>2016-08-21T07:54:16Z</time>
      </trkpt>
      <trkpt lat="45.62748" lon="6.82344">
        <ele>1348.8669433594</ele>
        <time>2016-08-21T07:54:23Z</time>
      </trkpt>
      <trkpt lat="45.62775" lon="6.82347">
        <ele>1349.8283691406</ele>
        <time>2016-08-21T07:54:31Z</time>
      </trkpt>
      <trkpt lat="45.62806" lon="6.82338">
        <ele>1350.7895507812</ele>
        <time>2016-08-21T07:54:40Z</time>
      </trkpt>
      <trkpt lat="45.62838" lon="6.82335">
        <ele>1352.7121582031</ele>
        <time>2016-08-21T07:54:49Z</time>
      </trkpt>
      <trkpt lat="45.62857" lon="6.82331">
        <ele>1354.154296875</ele>
        <time>2016-08-21T07:54:55Z</time>
      </trkpt>
      <trkpt lat="45.62879" lon="6.82325">
        <ele>1355.1154785156</ele>
        <time>2016-08-21T07:55:02Z</time>
      </trkpt>
      <trkpt lat="45.62896" lon="6.82309">
        <ele>1356.5576171875</ele>
        <time>2016-08-21T07:55:09Z</time>
      </trkpt>
      <trkpt lat="45.62916" lon="6.8228">
        <ele>1357.9997558594</ele>
        <time>2016-08-21T07:55:19Z</time>
      </trkpt>
      <trkpt lat="45.62934" lon="6.82262">
        <ele>1359.4416503906</ele>
        <time>2016-08-21T07:55:26Z</time>
      </trkpt>
      <trkpt lat="45.62955" lon="6.82252">
        <ele>1359.9221191406</ele>
        <time>2016-08-21T07:55:32Z</time>
      </trkpt>
      <trkpt lat="45.62972" lon="6.82255">
        <ele>1360.8835449219</ele>
        <time>2016-08-21T07:55:37Z</time>
      </trkpt>
      <trkpt lat="45.62972" lon="6.82271">
        <ele>1361.8449707031</ele>
        <time>2016-08-21T07:55:41Z</time>
      </trkpt>
      <trkpt lat="45.62962" lon="6.82275">
        <ele>1362.3254394531</ele>
        <time>2016-08-21T07:55:44Z</time>
      </trkpt>
      <trkpt lat="45.62933" lon="6.8228">
        <ele>1363.2868652344</ele>
        <time>2016-08-21T07:55:52Z</time>
      </trkpt>
      <trkpt lat="45.6292" lon="6.82296">
        <ele>1363.7673339844</ele>
        <time>2016-08-21T07:55:57Z</time>
      </trkpt>
      <trkpt lat="45.62907" lon="6.82324">
        <ele>1365.2094726562</ele>
        <time>2016-08-21T07:56:03Z</time>
      </trkpt>
      <trkpt lat="45.62895" lon="6.82351">
        <ele>1366.1706542969</ele>
        <time>2016-08-21T07:56:08Z</time>
      </trkpt>
      <trkpt lat="45.6288" lon="6.82363">
        <ele>1367.1320800781</ele>
        <time>2016-08-21T07:56:12Z</time>
      </trkpt>
      <trkpt lat="45.62842" lon="6.82371">
        <ele>1370.4965820312</ele>
        <time>2016-08-21T07:56:20Z</time>
      </trkpt>
      <trkpt lat="45.62816" lon="6.82377">
        <ele>1372.9001464844</ele>
        <time>2016-08-21T07:56:25Z</time>
      </trkpt>
      <trkpt lat="45.62806" lon="6.82382">
        <ele>1372.9001464844</ele>
        <time>2016-08-21T07:56:27Z</time>
      </trkpt>
      <trkpt lat="45.62802" lon="6.82384">
        <ele>1373.380859375</ele>
        <time>2016-08-21T07:56:28Z</time>
      </trkpt>
      <trkpt lat="45.62773" lon="6.82402">
        <ele>1375.3032226562</ele>
        <time>2016-08-21T07:56:35Z</time>
      </trkpt>
      <trkpt lat="45.6275" lon="6.82416">
        <ele>1377.7065429688</ele>
        <time>2016-08-21T07:56:40Z</time>
      </trkpt>
      <trkpt lat="45.62736" lon="6.82421">
        <ele>1378.1872558594</ele>
        <time>2016-08-21T07:56:43Z</time>
      </trkpt>
      <trkpt lat="45.62712" lon="6.8242">
        <ele>1379.1484375</ele>
        <time>2016-08-21T07:56:48Z</time>
      </trkpt>
      <trkpt lat="45.62703" lon="6.82422">
        <ele>1380.1098632812</ele>
        <time>2016-08-21T07:56:50Z</time>
      </trkpt>
      <trkpt lat="45.62671" lon="6.82438">
        <ele>1382.0324707031</ele>
        <time>2016-08-21T07:56:57Z</time>
      </trkpt>
      <trkpt lat="45.62667" lon="6.82442">
        <ele>1382.5131835938</ele>
        <time>2016-08-21T07:56:58Z</time>
      </trkpt>
      <trkpt lat="45.62636" lon="6.82466">
        <ele>1384.4357910156</ele>
        <time>2016-08-21T07:57:05Z</time>
      </trkpt>
      <trkpt lat="45.62623" lon="6.82476">
        <ele>1386.3583984375</ele>
        <time>2016-08-21T07:57:08Z</time>
      </trkpt>
      <trkpt lat="45.62593" lon="6.82494">
        <ele>1387.8002929688</ele>
        <time>2016-08-21T07:57:15Z</time>
      </trkpt>
      <trkpt lat="45.62577" lon="6.82505">
        <ele>1389.2424316406</ele>
        <time>2016-08-21T07:57:19Z</time>
      </trkpt>
      <trkpt lat="45.62551" lon="6.82535">
        <ele>1391.1650390625</ele>
        <time>2016-08-21T07:57:26Z</time>
      </trkpt>
      <trkpt lat="45.62541" lon="6.82547">
        <ele>1392.1264648438</ele>
        <time>2016-08-21T07:57:29Z</time>
      </trkpt>
      <trkpt lat="45.62526" lon="6.82574">
        <ele>1393.568359375</ele>
        <time>2016-08-21T07:57:34Z</time>
      </trkpt>
      <trkpt lat="45.62507" lon="6.82615">
        <ele>1396.4523925781</ele>
        <time>2016-08-21T07:57:41Z</time>
      </trkpt>
      <trkpt lat="45.62504" lon="6.8262">
        <ele>1396.4523925781</ele>
        <time>2016-08-21T07:57:42Z</time>
      </trkpt>
      <trkpt lat="45.62484" lon="6.82669">
        <ele>1397.4135742188</ele>
        <time>2016-08-21T07:57:50Z</time>
      </trkpt>
      <trkpt lat="45.62482" lon="6.82676">
        <ele>1397.4135742188</ele>
        <time>2016-08-21T07:57:51Z</time>
      </trkpt>
      <trkpt lat="45.62482" lon="6.82712">
        <ele>1399.8168945312</ele>
        <time>2016-08-21T07:57:56Z</time>
      </trkpt>
      <trkpt lat="45.62486" lon="6.82724">
        <ele>1399.8168945312</ele>
        <time>2016-08-21T07:57:58Z</time>
      </trkpt>
      <trkpt lat="45.62495" lon="6.82741">
        <ele>1401.2587890625</ele>
        <time>2016-08-21T07:58:01Z</time>
      </trkpt>
      <trkpt lat="45.62511" lon="6.82773">
        <ele>1401.2587890625</ele>
        <time>2016-08-21T07:58:07Z</time>
      </trkpt>
      <trkpt lat="45.62515" lon="6.82792">
        <ele>1402.2199707031</ele>
        <time>2016-08-21T07:58:10Z</time>
      </trkpt>
      <trkpt lat="45.62517" lon="6.82811">
        <ele>1403.662109375</ele>
        <time>2016-08-21T07:58:13Z</time>
      </trkpt>
      <trkpt lat="45.62516" lon="6.82838">
        <ele>1403.662109375</ele>
        <time>2016-08-21T07:58:17Z</time>
      </trkpt>
      <trkpt lat="45.62515" lon="6.82857">
        <ele>1405.1042480469</ele>
        <time>2016-08-21T07:58:20Z</time>
      </trkpt>
      <trkpt lat="45.62508" lon="6.82912">
        <ele>1407.0268554688</ele>
        <time>2016-08-21T07:58:29Z</time>
      </trkpt>
      <trkpt lat="45.62507" lon="6.8297">
        <ele>1409.9106445312</ele>
        <time>2016-08-21T07:58:38Z</time>
      </trkpt>
      <trkpt lat="45.62507" lon="6.82983">
        <ele>1410.3913574219</ele>
        <time>2016-08-21T07:58:40Z</time>
      </trkpt>
      <trkpt lat="45.62515" lon="6.83019">
        <ele>1412.7946777344</ele>
        <time>2016-08-21T07:58:46Z</time>
      </trkpt>
      <trkpt lat="45.62518" lon="6.83024">
        <ele>1413.275390625</ele>
        <time>2016-08-21T07:58:47Z</time>
      </trkpt>
      <trkpt lat="45.6254" lon="6.83064">
        <ele>1414.7172851562</ele>
        <time>2016-08-21T07:58:54Z</time>
      </trkpt>
      <trkpt lat="45.62548" lon="6.8309">
        <ele>1415.1979980469</ele>
        <time>2016-08-21T07:58:58Z</time>
      </trkpt>
      <trkpt lat="45.62549" lon="6.83127">
        <ele>1415.6787109375</ele>
        <time>2016-08-21T07:59:03Z</time>
      </trkpt>
      <trkpt lat="45.6254" lon="6.83145">
        <ele>1415.6787109375</ele>
        <time>2016-08-21T07:59:06Z</time>
      </trkpt>
      <trkpt lat="45.62527" lon="6.83157">
        <ele>1417.1206054688</ele>
        <time>2016-08-21T07:59:09Z</time>
      </trkpt>
      <trkpt lat="45.62512" lon="6.83165">
        <ele>1417.6010742188</ele>
        <time>2016-08-21T07:59:12Z</time>
      </trkpt>
      <trkpt lat="45.62499" lon="6.83185">
        <ele>1419.0432128906</ele>
        <time>2016-08-21T07:59:16Z</time>
      </trkpt>
      <trkpt lat="45.62499" lon="6.83192">
        <ele>1419.5239257812</ele>
        <time>2016-08-21T07:59:17Z</time>
      </trkpt>
      <trkpt lat="45.62508" lon="6.832">
        <ele>1418.5625</ele>
        <time>2016-08-21T07:59:19Z</time>
      </trkpt>
      <trkpt lat="45.62524" lon="6.83194">
        <ele>1420.4853515625</ele>
        <time>2016-08-21T07:59:22Z</time>
      </trkpt>
      <trkpt lat="45.62553" lon="6.83169">
        <ele>1420.0046386719</ele>
        <time>2016-08-21T07:59:28Z</time>
      </trkpt>
      <trkpt lat="45.62568" lon="6.83147">
        <ele>1421.4465332031</ele>
        <time>2016-08-21T07:59:32Z</time>
      </trkpt>
      <trkpt lat="45.62574" lon="6.83124">
        <ele>1422.888671875</ele>
        <time>2016-08-21T07:59:35Z</time>
      </trkpt>
      <trkpt lat="45.62574" lon="6.83109">
        <ele>1423.8498535156</ele>
        <time>2016-08-21T07:59:37Z</time>
      </trkpt>
      <trkpt lat="45.6257" lon="6.83053">
        <ele>1425.7724609375</ele>
        <time>2016-08-21T07:59:44Z</time>
      </trkpt>
      <trkpt lat="45.62566" lon="6.83014">
        <ele>1427.2145996094</ele>
        <time>2016-08-21T07:59:49Z</time>
      </trkpt>
      <trkpt lat="45.62566" lon="6.82954">
        <ele>1429.6176757812</ele>
        <time>2016-08-21T07:59:57Z</time>
      </trkpt>
      <trkpt lat="45.62577" lon="6.82907">
        <ele>1431.5402832031</ele>
        <time>2016-08-21T08:00:04Z</time>
      </trkpt>
      <trkpt lat="45.62578" lon="6.829">
        <ele>1431.5402832031</ele>
        <time>2016-08-21T08:00:05Z</time>
      </trkpt>
      <trkpt lat="45.62578" lon="6.82874">
        <ele>1433.462890625</ele>
        <time>2016-08-21T08:00:09Z</time>
      </trkpt>
      <trkpt lat="45.62571" lon="6.82835">
        <ele>1433.462890625</ele>
        <time>2016-08-21T08:00:15Z</time>
      </trkpt>
      <trkpt lat="45.62569" lon="6.82829">
        <ele>1433.9436035156</ele>
        <time>2016-08-21T08:00:16Z</time>
      </trkpt>
      <trkpt lat="45.62568" lon="6.82796">
        <ele>1435.8662109375</ele>
        <time>2016-08-21T08:00:21Z</time>
      </trkpt>
      <trkpt lat="45.62571" lon="6.82783">
        <ele>1436.8276367188</ele>
        <time>2016-08-21T08:00:23Z</time>
      </trkpt>
      <trkpt lat="45.62577" lon="6.82764">
        <ele>1436.8276367188</ele>
        <time>2016-08-21T08:00:26Z</time>
      </trkpt>
      <trkpt lat="45.6259" lon="6.82741">
        <ele>1438.2697753906</ele>
        <time>2016-08-21T08:00:30Z</time>
      </trkpt>
      <trkpt lat="45.62601" lon="6.82728">
        <ele>1439.2309570312</ele>
        <time>2016-08-21T08:00:33Z</time>
      </trkpt>
      <trkpt lat="45.62629" lon="6.82706">
        <ele>1439.2309570312</ele>
        <time>2016-08-21T08:00:40Z</time>
      </trkpt>
      <trkpt lat="45.62642" lon="6.827">
        <ele>1440.6728515625</ele>
        <time>2016-08-21T08:00:43Z</time>
      </trkpt>
      <trkpt lat="45.62665" lon="6.82697">
        <ele>1443.076171875</ele>
        <time>2016-08-21T08:00:48Z</time>
      </trkpt>
      <trkpt lat="45.62689" lon="6.82697">
        <ele>1444.9987792969</ele>
        <time>2016-08-21T08:00:53Z</time>
      </trkpt>
      <trkpt lat="45.62709" lon="6.8269">
        <ele>1445.4794921875</ele>
        <time>2016-08-21T08:00:57Z</time>
      </trkpt>
      <trkpt lat="45.62728" lon="6.82675">
        <ele>1446.9213867188</ele>
        <time>2016-08-21T08:01:02Z</time>
      </trkpt>
      <trkpt lat="45.62747" lon="6.8267">
        <ele>1446.9213867188</ele>
        <time>2016-08-21T08:01:06Z</time>
      </trkpt>
      <trkpt lat="45.62785" lon="6.82673">
        <ele>1449.3247070312</ele>
        <time>2016-08-21T08:01:14Z</time>
      </trkpt>
      <trkpt lat="45.62809" lon="6.82676">
        <ele>1450.7666015625</ele>
        <time>2016-08-21T08:01:19Z</time>
      </trkpt>
      <trkpt lat="45.6282" lon="6.82695">
        <ele>1451.2473144531</ele>
        <time>2016-08-21T08:01:23Z</time>
      </trkpt>
      <trkpt lat="45.62813" lon="6.82704">
        <ele>1451.7280273438</ele>
        <time>2016-08-21T08:01:25Z</time>
      </trkpt>
      <trkpt lat="45.62799" lon="6.82702">
        <ele>1452.2087402344</ele>
        <time>2016-08-21T08:01:28Z</time>
      </trkpt>
      <trkpt lat="45.62767" lon="6.82691">
        <ele>1453.1701660156</ele>
        <time>2016-08-21T08:01:34Z</time>
      </trkpt>
      <trkpt lat="45.62743" lon="6.82699">
        <ele>1454.1315917969</ele>
        <time>2016-08-21T08:01:39Z</time>
      </trkpt>
      <trkpt lat="45.62735" lon="6.82709">
        <ele>1455.0927734375</ele>
        <time>2016-08-21T08:01:41Z</time>
      </trkpt>
      <trkpt lat="45.62729" lon="6.8272">
        <ele>1456.0539550781</ele>
        <time>2016-08-21T08:01:43Z</time>
      </trkpt>
      <trkpt lat="45.62723" lon="6.82732">
        <ele>1457.49609375</ele>
        <time>2016-08-21T08:01:45Z</time>
      </trkpt>
      <trkpt lat="45.627" lon="6.82749">
        <ele>1458.4572753906</ele>
        <time>2016-08-21T08:01:50Z</time>
      </trkpt>
      <trkpt lat="45.62662" lon="6.82767">
        <ele>1460.3798828125</ele>
        <time>2016-08-21T08:01:57Z</time>
      </trkpt>
      <trkpt lat="45.62636" lon="6.82796">
        <ele>1461.3413085938</ele>
        <time>2016-08-21T08:02:03Z</time>
      </trkpt>
      <trkpt lat="45.62634" lon="6.82818">
        <ele>1461.8220214844</ele>
        <time>2016-08-21T08:02:06Z</time>
      </trkpt>
      <trkpt lat="45.62639" lon="6.82839">
        <ele>1462.783203125</ele>
        <time>2016-08-21T08:02:09Z</time>
      </trkpt>
      <trkpt lat="45.62661" lon="6.829">
        <ele>1466.1477050781</ele>
        <time>2016-08-21T08:02:18Z</time>
      </trkpt>
      <trkpt lat="45.62663" lon="6.82906">
        <ele>1466.1477050781</ele>
        <time>2016-08-21T08:02:19Z</time>
      </trkpt>
      <trkpt lat="45.62682" lon="6.82959">
        <ele>1468.5512695312</ele>
        <time>2016-08-21T08:02:27Z</time>
      </trkpt>
      <trkpt lat="45.627" lon="6.83005">
        <ele>1469.0319824219</ele>
        <time>2016-08-21T08:02:34Z</time>
      </trkpt>
      <trkpt lat="45.62704" lon="6.83018">
        <ele>1470.4738769531</ele>
        <time>2016-08-21T08:02:36Z</time>
      </trkpt>
      <trkpt lat="45.62704" lon="6.83047">
        <ele>1470.4738769531</ele>
        <time>2016-08-21T08:02:40Z</time>
      </trkpt>
      <trkpt lat="45.6269" lon="6.83098">
        <ele>1473.3579101562</ele>
        <time>2016-08-21T08:02:48Z</time>
      </trkpt>
      <trkpt lat="45.62683" lon="6.83154">
        <ele>1475.2802734375</ele>
        <time>2016-08-21T08:02:56Z</time>
      </trkpt>
      <trkpt lat="45.62683" lon="6.83161">
        <ele>1475.7609863281</ele>
        <time>2016-08-21T08:02:57Z</time>
      </trkpt>
      <trkpt lat="45.62676" lon="6.83186">
        <ele>1476.2416992188</ele>
        <time>2016-08-21T08:03:01Z</time>
      </trkpt>
      <trkpt lat="45.62663" lon="6.83214">
        <ele>1478.6450195312</ele>
        <time>2016-08-21T08:03:06Z</time>
      </trkpt>
      <trkpt lat="45.62652" lon="6.83238">
        <ele>1479.6062011719</ele>
        <time>2016-08-21T08:03:10Z</time>
      </trkpt>
      <trkpt lat="45.62644" lon="6.83265">
        <ele>1480.5676269531</ele>
        <time>2016-08-21T08:03:14Z</time>
      </trkpt>
      <trkpt lat="45.62639" lon="6.83277">
        <ele>1481.0483398438</ele>
        <time>2016-08-21T08:03:16Z</time>
      </trkpt>
      <trkpt lat="45.62633" lon="6.83297">
        <ele>1481.0483398438</ele>
        <time>2016-08-21T08:03:19Z</time>
      </trkpt>
      <trkpt lat="45.62622" lon="6.8332">
        <ele>1482.970703125</ele>
        <time>2016-08-21T08:03:23Z</time>
      </trkpt>
      <trkpt lat="45.62602" lon="6.83337">
        <ele>1482.970703125</ele>
        <time>2016-08-21T08:03:29Z</time>
      </trkpt>
      <trkpt lat="45.62592" lon="6.83347">
        <ele>1483.9321289062</ele>
        <time>2016-08-21T08:03:32Z</time>
      </trkpt>
      <trkpt lat="45.62577" lon="6.83376">
        <ele>1485.3742675781</ele>
        <time>2016-08-21T08:03:37Z</time>
      </trkpt>
      <trkpt lat="45.62569" lon="6.83417">
        <ele>1485.8549804688</ele>
        <time>2016-08-21T08:03:43Z</time>
      </trkpt>
      <trkpt lat="45.62567" lon="6.8343">
        <ele>1486.8161621094</ele>
        <time>2016-08-21T08:03:45Z</time>
      </trkpt>
      <trkpt lat="45.62566" lon="6.83453">
        <ele>1486.8161621094</ele>
        <time>2016-08-21T08:03:49Z</time>
      </trkpt>
      <trkpt lat="45.62553" lon="6.83478">
        <ele>1487.296875</ele>
        <time>2016-08-21T08:03:54Z</time>
      </trkpt>
      <trkpt lat="45.62549" lon="6.83482">
        <ele>1487.296875</ele>
        <time>2016-08-21T08:03:55Z</time>
      </trkpt>
      <trkpt lat="45.62527" lon="6.83503">
        <ele>1490.1809082031</ele>
        <time>2016-08-21T08:04:01Z</time>
      </trkpt>
      <trkpt lat="45.62501" lon="6.83526">
        <ele>1492.103515625</ele>
        <time>2016-08-21T08:04:07Z</time>
      </trkpt>
      <trkpt lat="45.62476" lon="6.83548">
        <ele>1493.5454101562</ele>
        <time>2016-08-21T08:04:13Z</time>
      </trkpt>
      <trkpt lat="45.62444" lon="6.83574">
        <ele>1494.9873046875</ele>
        <time>2016-08-21T08:04:20Z</time>
      </trkpt>
      <trkpt lat="45.62437" lon="6.83582">
        <ele>1494.9873046875</ele>
        <time>2016-08-21T08:04:22Z</time>
      </trkpt>
      <trkpt lat="45.62426" lon="6.83614">
        <ele>1496.9099121094</ele>
        <time>2016-08-21T08:04:27Z</time>
      </trkpt>
      <trkpt lat="45.62417" lon="6.83671">
        <ele>1498.8325195312</ele>
        <time>2016-08-21T08:04:35Z</time>
      </trkpt>
      <trkpt lat="45.62413" lon="6.83683">
        <ele>1500.2749023438</ele>
        <time>2016-08-21T08:04:37Z</time>
      </trkpt>
      <trkpt lat="45.62394" lon="6.83704">
        <ele>1501.716796875</ele>
        <time>2016-08-21T08:04:42Z</time>
      </trkpt>
      <trkpt lat="45.62386" lon="6.83712">
        <ele>1501.716796875</ele>
        <time>2016-08-21T08:04:44Z</time>
      </trkpt>
      <trkpt lat="45.62374" lon="6.83735">
        <ele>1502.197265625</ele>
        <time>2016-08-21T08:04:48Z</time>
      </trkpt>
      <trkpt lat="45.62357" lon="6.83763">
        <ele>1502.6779785156</ele>
        <time>2016-08-21T08:04:54Z</time>
      </trkpt>
      <trkpt lat="45.62348" lon="6.83766">
        <ele>1503.6394042969</ele>
        <time>2016-08-21T08:04:56Z</time>
      </trkpt>
      <trkpt lat="45.62317" lon="6.83783">
        <ele>1504.6005859375</ele>
        <time>2016-08-21T08:05:02Z</time>
      </trkpt>
      <trkpt lat="45.62295" lon="6.83809">
        <ele>1506.5231933594</ele>
        <time>2016-08-21T08:05:07Z</time>
      </trkpt>
      <trkpt lat="45.62292" lon="6.83816">
        <ele>1507.00390625</ele>
        <time>2016-08-21T08:05:08Z</time>
      </trkpt>
      <trkpt lat="45.62271" lon="6.83872">
        <ele>1508.4458007812</ele>
        <time>2016-08-21T08:05:16Z</time>
      </trkpt>
      <trkpt lat="45.62266" lon="6.83892">
        <ele>1509.4072265625</ele>
        <time>2016-08-21T08:05:19Z</time>
      </trkpt>
      <trkpt lat="45.62241" lon="6.83939">
        <ele>1510.3684082031</ele>
        <time>2016-08-21T08:05:27Z</time>
      </trkpt>
      <trkpt lat="45.62228" lon="6.83957">
        <ele>1510.3684082031</ele>
        <time>2016-08-21T08:05:31Z</time>
      </trkpt>
      <trkpt lat="45.62203" lon="6.83987">
        <ele>1513.2524414062</ele>
        <time>2016-08-21T08:05:39Z</time>
      </trkpt>
      <trkpt lat="45.6218" lon="6.8402">
        <ele>1514.6943359375</ele>
        <time>2016-08-21T08:05:47Z</time>
      </trkpt>
      <trkpt lat="45.62154" lon="6.8405">
        <ele>1517.0979003906</ele>
        <time>2016-08-21T08:05:56Z</time>
      </trkpt>
      <trkpt lat="45.6214" lon="6.84068">
        <ele>1518.0590820312</ele>
        <time>2016-08-21T08:06:01Z</time>
      </trkpt>
      <trkpt lat="45.62129" lon="6.84086">
        <ele>1518.5397949219</ele>
        <time>2016-08-21T08:06:05Z</time>
      </trkpt>
      <trkpt lat="45.62114" lon="6.84108">
        <ele>1521.4235839844</ele>
        <time>2016-08-21T08:06:10Z</time>
      </trkpt>
      <trkpt lat="45.62097" lon="6.84128">
        <ele>1523.3464355469</ele>
        <time>2016-08-21T08:06:15Z</time>
      </trkpt>
      <trkpt lat="45.6209" lon="6.84137">
        <ele>1522.8657226562</ele>
        <time>2016-08-21T08:06:17Z</time>
      </trkpt>
      <trkpt lat="45.62077" lon="6.84167">
        <ele>1523.8269042969</ele>
        <time>2016-08-21T08:06:22Z</time>
      </trkpt>
      <trkpt lat="45.62071" lon="6.84186">
        <ele>1525.2687988281</ele>
        <time>2016-08-21T08:06:25Z</time>
      </trkpt>
      <trkpt lat="45.62066" lon="6.84199">
        <ele>1525.2687988281</ele>
        <time>2016-08-21T08:06:27Z</time>
      </trkpt>
      <trkpt lat="45.62057" lon="6.84227">
        <ele>1526.7109375</ele>
        <time>2016-08-21T08:06:32Z</time>
      </trkpt>
      <trkpt lat="45.6205" lon="6.84251">
        <ele>1528.1528320312</ele>
        <time>2016-08-21T08:06:37Z</time>
      </trkpt>
      <trkpt lat="45.62041" lon="6.84281">
        <ele>1528.6335449219</ele>
        <time>2016-08-21T08:06:43Z</time>
      </trkpt>
      <trkpt lat="45.62037" lon="6.84304">
        <ele>1529.5947265625</ele>
        <time>2016-08-21T08:06:48Z</time>
      </trkpt>
      <trkpt lat="45.62031" lon="6.84332">
        <ele>1530.0754394531</ele>
        <time>2016-08-21T08:06:54Z</time>
      </trkpt>
      <trkpt lat="45.62026" lon="6.84358">
        <ele>1530.5561523438</ele>
        <time>2016-08-21T08:06:59Z</time>
      </trkpt>
      <trkpt lat="45.62022" lon="6.84375">
        <ele>1530.5561523438</ele>
        <time>2016-08-21T08:07:02Z</time>
      </trkpt>
      <trkpt lat="45.62007" lon="6.84409">
        <ele>1531.998046875</ele>
        <time>2016-08-21T08:07:09Z</time>
      </trkpt>
      <trkpt lat="45.61991" lon="6.8444">
        <ele>1533.4401855469</ele>
        <time>2016-08-21T08:07:16Z</time>
      </trkpt>
      <trkpt lat="45.61977" lon="6.84468">
        <ele>1533.9208984375</ele>
        <time>2016-08-21T08:07:22Z</time>
      </trkpt>
      <trkpt lat="45.61963" lon="6.84507">
        <ele>1534.4016113281</ele>
        <time>2016-08-21T08:07:30Z</time>
      </trkpt>
      <trkpt lat="45.61975" lon="6.84516">
        <ele>1534.8823242188</ele>
        <time>2016-08-21T08:07:34Z</time>
      </trkpt>
      <trkpt lat="45.61983" lon="6.84504">
        <ele>1534.8823242188</ele>
        <time>2016-08-21T08:07:37Z</time>
      </trkpt>
      <trkpt lat="45.61995" lon="6.84468">
        <ele>1535.8435058594</ele>
        <time>2016-08-21T08:07:44Z</time>
      </trkpt>
      <trkpt lat="45.62016" lon="6.84428">
        <ele>1537.7661132812</ele>
        <time>2016-08-21T08:07:53Z</time>
      </trkpt>
      <trkpt lat="45.62036" lon="6.8439">
        <ele>1539.2080078125</ele>
        <time>2016-08-21T08:08:01Z</time>
      </trkpt>
      <trkpt lat="45.62055" lon="6.84332">
        <ele>1541.1306152344</ele>
        <time>2016-08-21T08:08:12Z</time>
      </trkpt>
      <trkpt lat="45.6207" lon="6.84296">
        <ele>1542.0920410156</ele>
        <time>2016-08-21T08:08:19Z</time>
      </trkpt>
      <trkpt lat="45.62093" lon="6.8425">
        <ele>1544.0146484375</ele>
        <time>2016-08-21T08:08:29Z</time>
      </trkpt>
      <trkpt lat="45.62114" lon="6.84208">
        <ele>1545.9372558594</ele>
        <time>2016-08-21T08:08:38Z</time>
      </trkpt>
      <trkpt lat="45.62137" lon="6.84178">
        <ele>1547.3791503906</ele>
        <time>2016-08-21T08:08:46Z</time>
      </trkpt>
      <trkpt lat="45.6214" lon="6.84174">
        <ele>1548.3405761719</ele>
        <time>2016-08-21T08:08:47Z</time>
      </trkpt>
      <trkpt lat="45.62163" lon="6.84151">
        <ele>1548.8212890625</ele>
        <time>2016-08-21T08:08:54Z</time>
      </trkpt>
      <trkpt lat="45.62172" lon="6.84138">
        <ele>1549.7827148438</ele>
        <time>2016-08-21T08:08:57Z</time>
      </trkpt>
      <trkpt lat="45.62191" lon="6.84101">
        <ele>1550.7438964844</ele>
        <time>2016-08-21T08:09:05Z</time>
      </trkpt>
      <trkpt lat="45.6221" lon="6.8408">
        <ele>1552.1857910156</ele>
        <time>2016-08-21T08:09:11Z</time>
      </trkpt>
      <trkpt lat="45.62238" lon="6.84064">
        <ele>1552.1857910156</ele>
        <time>2016-08-21T08:09:18Z</time>
      </trkpt>
      <trkpt lat="45.62271" lon="6.84051">
        <ele>1553.1472167969</ele>
        <time>2016-08-21T08:09:26Z</time>
      </trkpt>
      <trkpt lat="45.623" lon="6.84043">
        <ele>1554.1086425781</ele>
        <time>2016-08-21T08:09:33Z</time>
      </trkpt>
      <trkpt lat="45.62312" lon="6.84037">
        <ele>1554.1086425781</ele>
        <time>2016-08-21T08:09:36Z</time>
      </trkpt>
      <trkpt lat="45.62326" lon="6.84025">
        <ele>1555.0698242188</ele>
        <time>2016-08-21T08:09:40Z</time>
      </trkpt>
      <trkpt lat="45.62352" lon="6.83987">
        <ele>1556.9924316406</ele>
        <time>2016-08-21T08:09:49Z</time>
      </trkpt>
      <trkpt lat="45.62376" lon="6.83951">
        <ele>1559.3957519531</ele>
        <time>2016-08-21T08:09:58Z</time>
      </trkpt>
      <trkpt lat="45.624" lon="6.83916">
        <ele>1561.7990722656</ele>
        <time>2016-08-21T08:10:07Z</time>
      </trkpt>
      <trkpt lat="45.62421" lon="6.83898">
        <ele>1562.2795410156</ele>
        <time>2016-08-21T08:10:14Z</time>
      </trkpt>
      <trkpt lat="45.62439" lon="6.83883">
        <ele>1563.2409667969</ele>
        <time>2016-08-21T08:10:21Z</time>
      </trkpt>
      <trkpt lat="45.62457" lon="6.83873">
        <ele>1564.6831054688</ele>
        <time>2016-08-21T08:10:28Z</time>
      </trkpt>
      <trkpt lat="45.62483" lon="6.83872">
        <ele>1566.6057128906</ele>
        <time>2016-08-21T08:10:37Z</time>
      </trkpt>
      <trkpt lat="45.62499" lon="6.83871">
        <ele>1569.0090332031</ele>
        <time>2016-08-21T08:10:43Z</time>
      </trkpt>
      <trkpt lat="45.62519" lon="6.83866">
        <ele>1570.931640625</ele>
        <time>2016-08-21T08:10:49Z</time>
      </trkpt>
      <trkpt lat="45.62543" lon="6.8385">
        <ele>1572.3735351562</ele>
        <time>2016-08-21T08:10:57Z</time>
      </trkpt>
      <trkpt lat="45.62556" lon="6.83842">
        <ele>1573.3349609375</ele>
        <time>2016-08-21T08:11:01Z</time>
      </trkpt>
      <trkpt lat="45.62574" lon="6.83817">
        <ele>1575.2573242188</ele>
        <time>2016-08-21T08:11:08Z</time>
      </trkpt>
      <trkpt lat="45.62596" lon="6.83792">
        <ele>1576.6994628906</ele>
        <time>2016-08-21T08:11:16Z</time>
      </trkpt>
      <trkpt lat="45.62615" lon="6.83771">
        <ele>1577.1801757812</ele>
        <time>2016-08-21T08:11:23Z</time>
      </trkpt>
      <trkpt lat="45.62628" lon="6.83743">
        <ele>1578.1413574219</ele>
        <time>2016-08-21T08:11:29Z</time>
      </trkpt>
      <trkpt lat="45.62642" lon="6.83714">
        <ele>1579.5832519531</ele>
        <time>2016-08-21T08:11:36Z</time>
      </trkpt>
      <trkpt lat="45.6266" lon="6.83686">
        <ele>1581.5061035156</ele>
        <time>2016-08-21T08:11:44Z</time>
      </trkpt>
      <trkpt lat="45.62677" lon="6.83664">
        <ele>1583.4287109375</ele>
        <time>2016-08-21T08:11:51Z</time>
      </trkpt>
      <trkpt lat="45.62695" lon="6.83653">
        <ele>1584.3901367188</ele>
        <time>2016-08-21T08:11:57Z</time>
      </trkpt>
      <trkpt lat="45.62711" lon="6.8364">
        <ele>1585.3513183594</ele>
        <time>2016-08-21T08:12:03Z</time>
      </trkpt>
      <trkpt lat="45.62731" lon="6.83621">
        <ele>1586.3127441406</ele>
        <time>2016-08-21T08:12:10Z</time>
      </trkpt>
      <trkpt lat="45.62751" lon="6.83603">
        <ele>1587.2739257812</ele>
        <time>2016-08-21T08:12:17Z</time>
      </trkpt>
      <trkpt lat="45.62769" lon="6.83582">
        <ele>1588.2353515625</ele>
        <time>2016-08-21T08:12:24Z</time>
      </trkpt>
      <trkpt lat="45.62786" lon="6.83546">
        <ele>1589.1965332031</ele>
        <time>2016-08-21T08:12:33Z</time>
      </trkpt>
      <trkpt lat="45.62808" lon="6.83505">
        <ele>1590.6384277344</ele>
        <time>2016-08-21T08:12:44Z</time>
      </trkpt>
      <trkpt lat="45.62811" lon="6.83503">
        <ele>1590.6384277344</ele>
        <time>2016-08-21T08:12:45Z</time>
      </trkpt>
      <trkpt lat="45.6282" lon="6.83509">
        <ele>1591.119140625</ele>
        <time>2016-08-21T08:12:49Z</time>
      </trkpt>
      <trkpt lat="45.62814" lon="6.83521">
        <ele>1592.0805664062</ele>
        <time>2016-08-21T08:12:52Z</time>
      </trkpt>
      <trkpt lat="45.62812" lon="6.83524">
        <ele>1591.5998535156</ele>
        <time>2016-08-21T08:12:53Z</time>
      </trkpt>
      <trkpt lat="45.62793" lon="6.8356">
        <ele>1592.5612792969</ele>
        <time>2016-08-21T08:13:02Z</time>
      </trkpt>
      <trkpt lat="45.6278" lon="6.83594">
        <ele>1594.9643554688</ele>
        <time>2016-08-21T08:13:10Z</time>
      </trkpt>
      <trkpt lat="45.6276" lon="6.83623">
        <ele>1595.92578125</ele>
        <time>2016-08-21T08:13:18Z</time>
      </trkpt>
      <trkpt lat="45.62733" lon="6.83645">
        <ele>1597.3679199219</ele>
        <time>2016-08-21T08:13:27Z</time>
      </trkpt>
      <trkpt lat="45.6272" lon="6.83667">
        <ele>1598.8098144531</ele>
        <time>2016-08-21T08:13:33Z</time>
      </trkpt>
      <trkpt lat="45.62702" lon="6.83708">
        <ele>1600.732421875</ele>
        <time>2016-08-21T08:13:43Z</time>
      </trkpt>
      <trkpt lat="45.62687" lon="6.83746">
        <ele>1603.6164550781</ele>
        <time>2016-08-21T08:13:52Z</time>
      </trkpt>
      <trkpt lat="45.62672" lon="6.83777">
        <ele>1605.5390625</ele>
        <time>2016-08-21T08:14:00Z</time>
      </trkpt>
      <trkpt lat="45.62655" lon="6.83801">
        <ele>1606.5002441406</ele>
        <time>2016-08-21T08:14:07Z</time>
      </trkpt>
      <trkpt lat="45.62629" lon="6.83831">
        <ele>1607.9423828125</ele>
        <time>2016-08-21T08:14:17Z</time>
      </trkpt>
      <trkpt lat="45.62613" lon="6.83853">
        <ele>1609.8647460938</ele>
        <time>2016-08-21T08:14:24Z</time>
      </trkpt>
      <trkpt lat="45.62602" lon="6.83882">
        <ele>1610.826171875</ele>
        <time>2016-08-21T08:14:31Z</time>
      </trkpt>
      <trkpt lat="45.62597" lon="6.83894">
        <ele>1612.2683105469</ele>
        <time>2016-08-21T08:14:34Z</time>
      </trkpt>
      <trkpt lat="45.62585" lon="6.83916">
        <ele>1613.2297363281</ele>
        <time>2016-08-21T08:14:40Z</time>
      </trkpt>
      <trkpt lat="45.6257" lon="6.83947">
        <ele>1616.1135253906</ele>
        <time>2016-08-21T08:14:48Z</time>
      </trkpt>
      <trkpt lat="45.62555" lon="6.83981">
        <ele>1616.5942382812</ele>
        <time>2016-08-21T08:14:57Z</time>
      </trkpt>
      <trkpt lat="45.62538" lon="6.83993">
        <ele>1618.0361328125</ele>
        <time>2016-08-21T08:15:03Z</time>
      </trkpt>
      <trkpt lat="45.62516" lon="6.83999">
        <ele>1618.9975585938</ele>
        <time>2016-08-21T08:15:10Z</time>
      </trkpt>
      <trkpt lat="45.62501" lon="6.84011">
        <ele>1619.4782714844</ele>
        <time>2016-08-21T08:15:15Z</time>
      </trkpt>
      <trkpt lat="45.62491" lon="6.84024">
        <ele>1620.9201660156</ele>
        <time>2016-08-21T08:15:19Z</time>
      </trkpt>
      <trkpt lat="45.62471" lon="6.84047">
        <ele>1622.8427734375</ele>
        <time>2016-08-21T08:15:26Z</time>
      </trkpt>
      <trkpt lat="45.62455" lon="6.84071">
        <ele>1623.8039550781</ele>
        <time>2016-08-21T08:15:33Z</time>
      </trkpt>
      <trkpt lat="45.62443" lon="6.84103">
        <ele>1625.2458496094</ele>
        <time>2016-08-21T08:15:40Z</time>
      </trkpt>
      <trkpt lat="45.62429" lon="6.8413">
        <ele>1627.1687011719</ele>
        <time>2016-08-21T08:15:47Z</time>
      </trkpt>
      <trkpt lat="45.62409" lon="6.84146">
        <ele>1628.1301269531</ele>
        <time>2016-08-21T08:15:54Z</time>
      </trkpt>
      <trkpt lat="45.62388" lon="6.84161">
        <ele>1628.6108398438</ele>
        <time>2016-08-21T08:16:01Z</time>
      </trkpt>
      <trkpt lat="45.62368" lon="6.84175">
        <ele>1630.052734375</ele>
        <time>2016-08-21T08:16:08Z</time>
      </trkpt>
      <trkpt lat="45.62352" lon="6.84195">
        <ele>1631.0141601562</ele>
        <time>2016-08-21T08:16:15Z</time>
      </trkpt>
      <trkpt lat="45.62336" lon="6.84222">
        <ele>1632.9365234375</ele>
        <time>2016-08-21T08:16:22Z</time>
      </trkpt>
      <trkpt lat="45.62333" lon="6.84227">
        <ele>1633.4172363281</ele>
        <time>2016-08-21T08:16:23Z</time>
      </trkpt>
      <trkpt lat="45.62318" lon="6.84273">
        <ele>1633.8979492188</ele>
        <time>2016-08-21T08:16:31Z</time>
      </trkpt>
      <trkpt lat="45.62312" lon="6.84316">
        <ele>1635.33984375</ele>
        <time>2016-08-21T08:16:38Z</time>
      </trkpt>
      <trkpt lat="45.62313" lon="6.84336">
        <ele>1635.33984375</ele>
        <time>2016-08-21T08:16:41Z</time>
      </trkpt>
      <trkpt lat="45.62306" lon="6.84366">
        <ele>1636.7817382812</ele>
        <time>2016-08-21T08:16:46Z</time>
      </trkpt>
      <trkpt lat="45.62303" lon="6.84371">
        <ele>1637.2624511719</ele>
        <time>2016-08-21T08:16:47Z</time>
      </trkpt>
      <trkpt lat="45.62285" lon="6.84407">
        <ele>1638.2238769531</ele>
        <time>2016-08-21T08:16:54Z</time>
      </trkpt>
      <trkpt lat="45.62281" lon="6.84418">
        <ele>1639.6657714844</ele>
        <time>2016-08-21T08:16:56Z</time>
      </trkpt>
      <trkpt lat="45.62261" lon="6.84474">
        <ele>1641.5883789062</ele>
        <time>2016-08-21T08:17:06Z</time>
      </trkpt>
      <trkpt lat="45.62251" lon="6.84496">
        <ele>1641.5883789062</ele>
        <time>2016-08-21T08:17:10Z</time>
      </trkpt>
      <trkpt lat="45.6223" lon="6.84525">
        <ele>1642.5498046875</ele>
        <time>2016-08-21T08:17:17Z</time>
      </trkpt>
      <trkpt lat="45.6221" lon="6.84551">
        <ele>1644.953125</ele>
        <time>2016-08-21T08:17:24Z</time>
      </trkpt>
      <trkpt lat="45.62199" lon="6.84581">
        <ele>1646.3952636719</ele>
        <time>2016-08-21T08:17:30Z</time>
      </trkpt>
      <trkpt lat="45.62189" lon="6.84604">
        <ele>1646.8757324219</ele>
        <time>2016-08-21T08:17:35Z</time>
      </trkpt>
      <trkpt lat="45.62174" lon="6.84628">
        <ele>1647.8371582031</ele>
        <time>2016-08-21T08:17:41Z</time>
      </trkpt>
      <trkpt lat="45.62169" lon="6.84653">
        <ele>1649.2790527344</ele>
        <time>2016-08-21T08:17:46Z</time>
      </trkpt>
      <trkpt lat="45.62172" lon="6.84701">
        <ele>1650.7209472656</ele>
        <time>2016-08-21T08:17:54Z</time>
      </trkpt>
      <trkpt lat="45.62177" lon="6.84765">
        <ele>1653.6049804688</ele>
        <time>2016-08-21T08:18:05Z</time>
      </trkpt>
      <trkpt lat="45.62177" lon="6.84832">
        <ele>1655.5275878906</ele>
        <time>2016-08-21T08:18:16Z</time>
      </trkpt>
      <trkpt lat="45.62176" lon="6.84851">
        <ele>1654.5661621094</ele>
        <time>2016-08-21T08:18:19Z</time>
      </trkpt>
      <trkpt lat="45.62174" lon="6.84898">
        <ele>1657.9309082031</ele>
        <time>2016-08-21T08:18:27Z</time>
      </trkpt>
      <trkpt lat="45.62175" lon="6.84951">
        <ele>1658.8920898438</ele>
        <time>2016-08-21T08:18:36Z</time>
      </trkpt>
      <trkpt lat="45.6218" lon="6.84998">
        <ele>1659.8532714844</ele>
        <time>2016-08-21T08:18:44Z</time>
      </trkpt>
      <trkpt lat="45.62181" lon="6.8501">
        <ele>1660.8149414062</ele>
        <time>2016-08-21T08:18:46Z</time>
      </trkpt>
      <trkpt lat="45.62182" lon="6.85041">
        <ele>1661.2956542969</ele>
        <time>2016-08-21T08:18:51Z</time>
      </trkpt>
      <trkpt lat="45.62176" lon="6.85066">
        <ele>1662.7375488281</ele>
        <time>2016-08-21T08:18:55Z</time>
      </trkpt>
      <trkpt lat="45.62164" lon="6.85101">
        <ele>1664.1794433594</ele>
        <time>2016-08-21T08:19:01Z</time>
      </trkpt>
      <trkpt lat="45.62152" lon="6.8516">
        <ele>1665.6215820312</ele>
        <time>2016-08-21T08:19:11Z</time>
      </trkpt>
      <trkpt lat="45.62146" lon="6.85205">
        <ele>1666.5827636719</ele>
        <time>2016-08-21T08:19:19Z</time>
      </trkpt>
      <trkpt lat="45.62144" lon="6.85223">
        <ele>1668.0246582031</ele>
        <time>2016-08-21T08:19:22Z</time>
      </trkpt>
      <trkpt lat="45.62144" lon="6.8527">
        <ele>1668.5053710938</ele>
        <time>2016-08-21T08:19:30Z</time>
      </trkpt>
      <trkpt lat="45.62146" lon="6.85326">
        <ele>1669.466796875</ele>
        <time>2016-08-21T08:19:39Z</time>
      </trkpt>
      <trkpt lat="45.62149" lon="6.85387">
        <ele>1672.8312988281</ele>
        <time>2016-08-21T08:19:49Z</time>
      </trkpt>
      <trkpt lat="45.62153" lon="6.85423">
        <ele>1673.7924804688</ele>
        <time>2016-08-21T08:19:55Z</time>
      </trkpt>
      <trkpt lat="45.6216" lon="6.85445">
        <ele>1674.2731933594</ele>
        <time>2016-08-21T08:19:59Z</time>
      </trkpt>
      <trkpt lat="45.62169" lon="6.85466">
        <ele>1674.2731933594</ele>
        <time>2016-08-21T08:20:03Z</time>
      </trkpt>
      <trkpt lat="45.62172" lon="6.85501">
        <ele>1676.1960449219</ele>
        <time>2016-08-21T08:20:09Z</time>
      </trkpt>
      <trkpt lat="45.62166" lon="6.85536">
        <ele>1676.1960449219</ele>
        <time>2016-08-21T08:20:15Z</time>
      </trkpt>
      <trkpt lat="45.62163" lon="6.85548">
        <ele>1676.6767578125</ele>
        <time>2016-08-21T08:20:17Z</time>
      </trkpt>
      <trkpt lat="45.62161" lon="6.8556">
        <ele>1677.6379394531</ele>
        <time>2016-08-21T08:20:19Z</time>
      </trkpt>
      <trkpt lat="45.62157" lon="6.85584">
        <ele>1678.1186523438</ele>
        <time>2016-08-21T08:20:23Z</time>
      </trkpt>
      <trkpt lat="45.6215" lon="6.85618">
        <ele>1680.5219726562</ele>
        <time>2016-08-21T08:20:29Z</time>
      </trkpt>
      <trkpt lat="45.62144" lon="6.85662">
        <ele>1681.4831542969</ele>
        <time>2016-08-21T08:20:37Z</time>
      </trkpt>
      <trkpt lat="45.62149" lon="6.85706">
        <ele>1682.4445800781</ele>
        <time>2016-08-21T08:20:45Z</time>
      </trkpt>
      <trkpt lat="45.62142" lon="6.85733">
        <ele>1682.9250488281</ele>
        <time>2016-08-21T08:20:50Z</time>
      </trkpt>
      <trkpt lat="45.62125" lon="6.85771">
        <ele>1684.3671875</ele>
        <time>2016-08-21T08:20:58Z</time>
      </trkpt>
      <trkpt lat="45.62118" lon="6.85812">
        <ele>1685.3283691406</ele>
        <time>2016-08-21T08:21:05Z</time>
      </trkpt>
      <trkpt lat="45.62115" lon="6.85866">
        <ele>1686.7702636719</ele>
        <time>2016-08-21T08:21:14Z</time>
      </trkpt>
      <trkpt lat="45.62113" lon="6.85883">
        <ele>1687.7316894531</ele>
        <time>2016-08-21T08:21:17Z</time>
      </trkpt>
      <trkpt lat="45.62104" lon="6.85943">
        <ele>1689.654296875</ele>
        <time>2016-08-21T08:21:27Z</time>
      </trkpt>
      <trkpt lat="45.62101" lon="6.85971">
        <ele>1691.5769042969</ele>
        <time>2016-08-21T08:21:32Z</time>
      </trkpt>
      <trkpt lat="45.62112" lon="6.85978">
        <ele>1691.5769042969</ele>
        <time>2016-08-21T08:21:36Z</time>
      </trkpt>
      <trkpt lat="45.62119" lon="6.85964">
        <ele>1692.0578613281</ele>
        <time>2016-08-21T08:21:39Z</time>
      </trkpt>
      <trkpt lat="45.62122" lon="6.85953">
        <ele>1692.0578613281</ele>
        <time>2016-08-21T08:21:41Z</time>
      </trkpt>
      <trkpt lat="45.62131" lon="6.85897">
        <ele>1693.4997558594</ele>
        <time>2016-08-21T08:21:51Z</time>
      </trkpt>
      <trkpt lat="45.62139" lon="6.8585">
        <ele>1695.9030761719</ele>
        <time>2016-08-21T08:22:00Z</time>
      </trkpt>
      <trkpt lat="45.62146" lon="6.85792">
        <ele>1697.3449707031</ele>
        <time>2016-08-21T08:22:11Z</time>
      </trkpt>
      <trkpt lat="45.62156" lon="6.85758">
        <ele>1698.7868652344</ele>
        <time>2016-08-21T08:22:18Z</time>
      </trkpt>
      <trkpt lat="45.62174" lon="6.85733">
        <ele>1700.2290039062</ele>
        <time>2016-08-21T08:22:25Z</time>
      </trkpt>
      <trkpt lat="45.62183" lon="6.85723">
        <ele>1701.6708984375</ele>
        <time>2016-08-21T08:22:28Z</time>
      </trkpt>
      <trkpt lat="45.62201" lon="6.85695">
        <ele>1703.1127929688</ele>
        <time>2016-08-21T08:22:35Z</time>
      </trkpt>
      <trkpt lat="45.62202" lon="6.85664">
        <ele>1704.07421875</ele>
        <time>2016-08-21T08:22:41Z</time>
      </trkpt>
      <trkpt lat="45.62202" lon="6.8562">
        <ele>1706.4772949219</ele>
        <time>2016-08-21T08:22:49Z</time>
      </trkpt>
      <trkpt lat="45.62212" lon="6.85591">
        <ele>1707.4387207031</ele>
        <time>2016-08-21T08:22:55Z</time>
      </trkpt>
      <trkpt lat="45.6223" lon="6.85564">
        <ele>1708.4001464844</ele>
        <time>2016-08-21T08:23:02Z</time>
      </trkpt>
      <trkpt lat="45.62242" lon="6.85541">
        <ele>1709.3615722656</ele>
        <time>2016-08-21T08:23:08Z</time>
      </trkpt>
      <trkpt lat="45.62248" lon="6.85511">
        <ele>1710.3227539062</ele>
        <time>2016-08-21T08:23:14Z</time>
      </trkpt>
      <trkpt lat="45.62256" lon="6.85465">
        <ele>1711.7648925781</ele>
        <time>2016-08-21T08:23:23Z</time>
      </trkpt>
      <trkpt lat="45.62261" lon="6.8543">
        <ele>1713.6872558594</ele>
        <time>2016-08-21T08:23:30Z</time>
      </trkpt>
      <trkpt lat="45.62261" lon="6.85424">
        <ele>1714.16796875</ele>
        <time>2016-08-21T08:23:31Z</time>
      </trkpt>
      <trkpt lat="45.62258" lon="6.85377">
        <ele>1716.0905761719</ele>
        <time>2016-08-21T08:23:39Z</time>
      </trkpt>
      <trkpt lat="45.62261" lon="6.85334">
        <ele>1718.4938964844</ele>
        <time>2016-08-21T08:23:47Z</time>
      </trkpt>
      <trkpt lat="45.6227" lon="6.85286">
        <ele>1720.8972167969</ele>
        <time>2016-08-21T08:23:56Z</time>
      </trkpt>
      <trkpt lat="45.62283" lon="6.85246">
        <ele>1721.8583984375</ele>
        <time>2016-08-21T08:24:04Z</time>
      </trkpt>
      <trkpt lat="45.623" lon="6.85204">
        <ele>1723.3005371094</ele>
        <time>2016-08-21T08:24:13Z</time>
      </trkpt>
      <trkpt lat="45.62307" lon="6.85182">
        <ele>1724.2619628906</ele>
        <time>2016-08-21T08:24:18Z</time>
      </trkpt>
      <trkpt lat="45.62316" lon="6.85144">
        <ele>1725.7038574219</ele>
        <time>2016-08-21T08:24:26Z</time>
      </trkpt>
      <trkpt lat="45.6232" lon="6.85097">
        <ele>1727.1459960938</ele>
        <time>2016-08-21T08:24:35Z</time>
      </trkpt>
      <trkpt lat="45.62326" lon="6.85084">
        <ele>1728.1071777344</ele>
        <time>2016-08-21T08:24:38Z</time>
      </trkpt>
      <trkpt lat="45.62335" lon="6.85092">
        <ele>1728.587890625</ele>
        <time>2016-08-21T08:24:42Z</time>
      </trkpt>
      <trkpt lat="45.62335" lon="6.85102">
        <ele>1729.068359375</ele>
        <time>2016-08-21T08:24:44Z</time>
      </trkpt>
      <trkpt lat="45.62327" lon="6.85141">
        <ele>1730.0297851562</ele>
        <time>2016-08-21T08:24:51Z</time>
      </trkpt>
      <trkpt lat="45.62321" lon="6.85171">
        <ele>1730.5104980469</ele>
        <time>2016-08-21T08:24:56Z</time>
      </trkpt>
      <trkpt lat="45.62317" lon="6.85183">
        <ele>1730.9912109375</ele>
        <time>2016-08-21T08:24:58Z</time>
      </trkpt>
      <trkpt lat="45.62304" lon="6.85224">
        <ele>1730.9912109375</ele>
        <time>2016-08-21T08:25:05Z</time>
      </trkpt>
      <trkpt lat="45.62302" lon="6.8523">
        <ele>1730.9912109375</ele>
        <time>2016-08-21T08:25:06Z</time>
      </trkpt>
      <trkpt lat="45.62293" lon="6.8529">
        <ele>1731.9523925781</ele>
        <time>2016-08-21T08:25:15Z</time>
      </trkpt>
      <trkpt lat="45.62287" lon="6.85334">
        <ele>1732.4331054688</ele>
        <time>2016-08-21T08:25:22Z</time>
      </trkpt>
      <trkpt lat="45.62289" lon="6.85378">
        <ele>1733.3942871094</ele>
        <time>2016-08-21T08:25:29Z</time>
      </trkpt>
      <trkpt lat="45.62297" lon="6.85427">
        <ele>1735.7976074219</ele>
        <time>2016-08-21T08:25:37Z</time>
      </trkpt>
      <trkpt lat="45.62302" lon="6.85479">
        <ele>1736.7587890625</ele>
        <time>2016-08-21T08:25:46Z</time>
      </trkpt>
      <trkpt lat="45.62306" lon="6.85536">
        <ele>1738.2009277344</ele>
        <time>2016-08-21T08:25:56Z</time>
      </trkpt>
      <trkpt lat="45.62305" lon="6.85567">
        <ele>1740.1237792969</ele>
        <time>2016-08-21T08:26:02Z</time>
      </trkpt>
      <trkpt lat="45.62301" lon="6.85614">
        <ele>1742.5270996094</ele>
        <time>2016-08-21T08:26:11Z</time>
      </trkpt>
      <trkpt lat="45.62298" lon="6.85649">
        <ele>1743.48828125</ele>
        <time>2016-08-21T08:26:18Z</time>
      </trkpt>
      <trkpt lat="45.62294" lon="6.85689">
        <ele>1744.9301757812</ele>
        <time>2016-08-21T08:26:26Z</time>
      </trkpt>
      <trkpt lat="45.6229" lon="6.85724">
        <ele>1747.8142089844</ele>
        <time>2016-08-21T08:26:33Z</time>
      </trkpt>
      <trkpt lat="45.62288" lon="6.85728">
        <ele>1747.8142089844</ele>
        <time>2016-08-21T08:26:34Z</time>
      </trkpt>
      <trkpt lat="45.62278" lon="6.85753">
        <ele>1749.2561035156</ele>
        <time>2016-08-21T08:26:40Z</time>
      </trkpt>
      <trkpt lat="45.62265" lon="6.85779">
        <ele>1749.7368164062</ele>
        <time>2016-08-21T08:26:47Z</time>
      </trkpt>
      <trkpt lat="45.6226" lon="6.8581">
        <ele>1750.2175292969</ele>
        <time>2016-08-21T08:26:53Z</time>
      </trkpt>
      <trkpt lat="45.62263" lon="6.85867">
        <ele>1753.1013183594</ele>
        <time>2016-08-21T08:27:03Z</time>
      </trkpt>
      <trkpt lat="45.62267" lon="6.85932">
        <ele>1755.5046386719</ele>
        <time>2016-08-21T08:27:15Z</time>
      </trkpt>
      <trkpt lat="45.62272" lon="6.85986">
        <ele>1757.4274902344</ele>
        <time>2016-08-21T08:27:25Z</time>
      </trkpt>
      <trkpt lat="45.62277" lon="6.86007">
        <ele>1758.8693847656</ele>
        <time>2016-08-21T08:27:29Z</time>
      </trkpt>
      <trkpt lat="45.62299" lon="6.86054">
        <ele>1760.3112792969</ele>
        <time>2016-08-21T08:27:39Z</time>
      </trkpt>
      <trkpt lat="45.62316" lon="6.8609">
        <ele>1763.1953125</ele>
        <time>2016-08-21T08:27:47Z</time>
      </trkpt>
      <trkpt lat="45.62332" lon="6.8614">
        <ele>1764.1564941406</ele>
        <time>2016-08-21T08:27:57Z</time>
      </trkpt>
      <trkpt lat="45.62344" lon="6.86211">
        <ele>1766.0791015625</ele>
        <time>2016-08-21T08:28:11Z</time>
      </trkpt>
      <trkpt lat="45.62358" lon="6.86271">
        <ele>1768.9631347656</ele>
        <time>2016-08-21T08:28:23Z</time>
      </trkpt>
      <trkpt lat="45.62366" lon="6.86321">
        <ele>1771.3662109375</ele>
        <time>2016-08-21T08:28:33Z</time>
      </trkpt>
      <trkpt lat="45.62373" lon="6.86369">
        <ele>1771.8469238281</ele>
        <time>2016-08-21T08:28:43Z</time>
      </trkpt>
      <trkpt lat="45.62379" lon="6.86413">
        <ele>1775.2116699219</ele>
        <time>2016-08-21T08:28:52Z</time>
      </trkpt>
      <trkpt lat="45.62386" lon="6.86458">
        <ele>1778.095703125</ele>
        <time>2016-08-21T08:29:01Z</time>
      </trkpt>
      <trkpt lat="45.62398" lon="6.86515">
        <ele>1780.4990234375</ele>
        <time>2016-08-21T08:29:12Z</time>
      </trkpt>
      <trkpt lat="45.62413" lon="6.86535">
        <ele>1781.9409179688</ele>
        <time>2016-08-21T08:29:18Z</time>
      </trkpt>
      <trkpt lat="45.62425" lon="6.86529">
        <ele>1781.9409179688</ele>
        <time>2016-08-21T08:29:22Z</time>
      </trkpt>
      <trkpt lat="45.62428" lon="6.8652">
        <ele>1782.9020996094</ele>
        <time>2016-08-21T08:29:24Z</time>
      </trkpt>
      <trkpt lat="45.62425" lon="6.86497">
        <ele>1782.9020996094</ele>
        <time>2016-08-21T08:29:28Z</time>
      </trkpt>
      <trkpt lat="45.6241" lon="6.86465">
        <ele>1783.8635253906</ele>
        <time>2016-08-21T08:29:34Z</time>
      </trkpt>
      <trkpt lat="45.62405" lon="6.86436">
        <ele>1784.8249511719</ele>
        <time>2016-08-21T08:29:39Z</time>
      </trkpt>
      <trkpt lat="45.62408" lon="6.86382">
        <ele>1785.7861328125</ele>
        <time>2016-08-21T08:29:49Z</time>
      </trkpt>
      <trkpt lat="45.62411" lon="6.86347">
        <ele>1786.7473144531</ele>
        <time>2016-08-21T08:29:56Z</time>
      </trkpt>
      <trkpt lat="45.62413" lon="6.86332">
        <ele>1789.1508789062</ele>
        <time>2016-08-21T08:29:59Z</time>
      </trkpt>
      <trkpt lat="45.62419" lon="6.86283">
        <ele>1790.5927734375</ele>
        <time>2016-08-21T08:30:09Z</time>
      </trkpt>
      <trkpt lat="45.62418" lon="6.86235">
        <ele>1792.0349121094</ele>
        <time>2016-08-21T08:30:19Z</time>
      </trkpt>
      <trkpt lat="45.62414" lon="6.86185">
        <ele>1793.9575195312</ele>
        <time>2016-08-21T08:30:30Z</time>
      </trkpt>
      <trkpt lat="45.62413" lon="6.86134">
        <ele>1796.8413085938</ele>
        <time>2016-08-21T08:30:41Z</time>
      </trkpt>
      <trkpt lat="45.62412" lon="6.86129">
        <ele>1796.3608398438</ele>
        <time>2016-08-21T08:30:42Z</time>
      </trkpt>
      <trkpt lat="45.62407" lon="6.86086">
        <ele>1797.3220214844</ele>
        <time>2016-08-21T08:30:51Z</time>
      </trkpt>
      <trkpt lat="45.62404" lon="6.86047">
        <ele>1798.283203125</ele>
        <time>2016-08-21T08:30:59Z</time>
      </trkpt>
      <trkpt lat="45.62403" lon="6.85999">
        <ele>1800.6865234375</ele>
        <time>2016-08-21T08:31:09Z</time>
      </trkpt>
      <trkpt lat="45.62403" lon="6.85989">
        <ele>1801.6479492188</ele>
        <time>2016-08-21T08:31:11Z</time>
      </trkpt>
      <trkpt lat="45.62403" lon="6.85944">
        <ele>1803.08984375</ele>
        <time>2016-08-21T08:31:20Z</time>
      </trkpt>
      <trkpt lat="45.62403" lon="6.85912">
        <ele>1805.9738769531</ele>
        <time>2016-08-21T08:31:26Z</time>
      </trkpt>
      <trkpt lat="45.62402" lon="6.85872">
        <ele>1806.9353027344</ele>
        <time>2016-08-21T08:31:34Z</time>
      </trkpt>
      <trkpt lat="45.62404" lon="6.85836">
        <ele>1807.8967285156</ele>
        <time>2016-08-21T08:31:41Z</time>
      </trkpt>
      <trkpt lat="45.62414" lon="6.85827">
        <ele>1808.3771972656</ele>
        <time>2016-08-21T08:31:45Z</time>
      </trkpt>
      <trkpt lat="45.62419" lon="6.85815">
        <ele>1808.8579101562</ele>
        <time>2016-08-21T08:31:48Z</time>
      </trkpt>
      <trkpt lat="45.62416" lon="6.85802">
        <ele>1808.8579101562</ele>
        <time>2016-08-21T08:31:51Z</time>
      </trkpt>
      <trkpt lat="45.62407" lon="6.85798">
        <ele>1809.3386230469</ele>
        <time>2016-08-21T08:31:54Z</time>
      </trkpt>
      <trkpt lat="45.62397" lon="6.85797">
        <ele>1808.3771972656</ele>
        <time>2016-08-21T08:31:59Z</time>
      </trkpt>
      <trkpt lat="45.62397" lon="6.85796">
        <ele>1807.8967285156</ele>
        <time>2016-08-21T08:32:04Z</time>
      </trkpt>
      <trkpt lat="45.62397" lon="6.85797">
        <ele>1807.416015625</ele>
        <time>2016-08-21T08:32:10Z</time>
      </trkpt>
      <trkpt lat="45.62397" lon="6.85798">
        <ele>1807.416015625</ele>
        <time>2016-08-21T08:32:19Z</time>
      </trkpt>
      <trkpt lat="45.62397" lon="6.85798">
        <ele>1807.416015625</ele>
        <time>2016-08-21T08:32:29Z</time>
      </trkpt>
      <trkpt lat="45.62397" lon="6.85798">
        <ele>1809.3386230469</ele>
        <time>2016-08-21T08:32:43Z</time>
      </trkpt>
      <trkpt lat="45.62397" lon="6.85798">
        <ele>1807.8967285156</ele>
        <time>2016-08-21T08:32:47Z</time>
      </trkpt>
      <trkpt lat="45.62397" lon="6.85798">
        <ele>1808.8579101562</ele>
        <time>2016-08-21T08:33:16Z</time>
      </trkpt>
      <trkpt lat="45.62397" lon="6.85797">
        <ele>1809.3386230469</ele>
        <time>2016-08-21T08:33:19Z</time>
      </trkpt>
      <trkpt lat="45.62398" lon="6.85796">
        <ele>1808.8579101562</ele>
        <time>2016-08-21T08:33:26Z</time>
      </trkpt>
      <trkpt lat="45.62401" lon="6.85779">
        <ele>1810.7805175781</ele>
        <time>2016-08-21T08:33:32Z</time>
      </trkpt>
      <trkpt lat="45.6241" lon="6.85758">
        <ele>1809.3386230469</ele>
        <time>2016-08-21T08:33:38Z</time>
      </trkpt>
      <trkpt lat="45.62411" lon="6.85755">
        <ele>1809.8190917969</ele>
        <time>2016-08-21T08:33:42Z</time>
      </trkpt>
      <trkpt lat="45.62413" lon="6.85756">
        <ele>1810.2998046875</ele>
        <time>2016-08-21T08:33:46Z</time>
      </trkpt>
      <trkpt lat="45.62411" lon="6.85754">
        <ele>1811.2612304688</ele>
        <time>2016-08-21T08:34:00Z</time>
      </trkpt>
      <trkpt lat="45.62411" lon="6.85754">
        <ele>1811.2612304688</ele>
        <time>2016-08-21T08:34:02Z</time>
      </trkpt>
      <trkpt lat="45.62411" lon="6.85754">
        <ele>1810.7805175781</ele>
        <time>2016-08-21T08:34:03Z</time>
      </trkpt>
      <trkpt lat="45.6241" lon="6.85752">
        <ele>1810.7805175781</ele>
        <time>2016-08-21T08:34:22Z</time>
      </trkpt>
      <trkpt lat="45.6241" lon="6.85752">
        <ele>1810.7805175781</ele>
        <time>2016-08-21T08:34:26Z</time>
      </trkpt>
      <trkpt lat="45.6241" lon="6.85751">
        <ele>1810.7805175781</ele>
        <time>2016-08-21T08:35:23Z</time>
      </trkpt>
      <trkpt lat="45.6241" lon="6.85751">
        <ele>1811.2612304688</ele>
        <time>2016-08-21T08:36:00Z</time>
      </trkpt>
      <trkpt lat="45.62409" lon="6.85753">
        <ele>1811.7419433594</ele>
        <time>2016-08-21T08:36:17Z</time>
      </trkpt>
      <trkpt lat="45.62409" lon="6.85754">
        <ele>1812.703125</ele>
        <time>2016-08-21T08:36:21Z</time>
      </trkpt>
      <trkpt lat="45.62405" lon="6.85768">
        <ele>1813.1838378906</ele>
        <time>2016-08-21T08:36:28Z</time>
      </trkpt>
      <trkpt lat="45.62398" lon="6.85786">
        <ele>1813.1838378906</ele>
        <time>2016-08-21T08:36:32Z</time>
      </trkpt>
      <trkpt lat="45.624" lon="6.85808">
        <ele>1812.703125</ele>
        <time>2016-08-21T08:36:36Z</time>
      </trkpt>
      <trkpt lat="45.62407" lon="6.85814">
        <ele>1812.2224121094</ele>
        <time>2016-08-21T08:36:38Z</time>
      </trkpt>
      <trkpt lat="45.62416" lon="6.85805">
        <ele>1812.703125</ele>
        <time>2016-08-21T08:36:41Z</time>
      </trkpt>
      <trkpt lat="45.62417" lon="6.85783">
        <ele>1812.703125</ele>
        <time>2016-08-21T08:36:45Z</time>
      </trkpt>
      <trkpt lat="45.62423" lon="6.85763">
        <ele>1814.1450195312</ele>
        <time>2016-08-21T08:36:49Z</time>
      </trkpt>
      <trkpt lat="45.62427" lon="6.85754">
        <ele>1813.6643066406</ele>
        <time>2016-08-21T08:36:51Z</time>
      </trkpt>
      <trkpt lat="45.62449" lon="6.85727">
        <ele>1815.5871582031</ele>
        <time>2016-08-21T08:36:58Z</time>
      </trkpt>
      <trkpt lat="45.62459" lon="6.85718">
        <ele>1816.0676269531</ele>
        <time>2016-08-21T08:37:01Z</time>
      </trkpt>
      <trkpt lat="45.62478" lon="6.85698">
        <ele>1817.990234375</ele>
        <time>2016-08-21T08:37:07Z</time>
      </trkpt>
      <trkpt lat="45.62493" lon="6.85681">
        <ele>1818.4709472656</ele>
        <time>2016-08-21T08:37:12Z</time>
      </trkpt>
      <trkpt lat="45.625" lon="6.85669">
        <ele>1819.4323730469</ele>
        <time>2016-08-21T08:37:15Z</time>
      </trkpt>
      <trkpt lat="45.62503" lon="6.85665">
        <ele>1819.4323730469</ele>
        <time>2016-08-21T08:37:16Z</time>
      </trkpt>
      <trkpt lat="45.62516" lon="6.85632">
        <ele>1821.3549804688</ele>
        <time>2016-08-21T08:37:23Z</time>
      </trkpt>
      <trkpt lat="45.62531" lon="6.85595">
        <ele>1823.2778320312</ele>
        <time>2016-08-21T08:37:31Z</time>
      </trkpt>
      <trkpt lat="45.62553" lon="6.85546">
        <ele>1825.6809082031</ele>
        <time>2016-08-21T08:37:42Z</time>
      </trkpt>
      <trkpt lat="45.62565" lon="6.85529">
        <ele>1825.6809082031</ele>
        <time>2016-08-21T08:37:47Z</time>
      </trkpt>
      <trkpt lat="45.6257" lon="6.855">
        <ele>1827.123046875</ele>
        <time>2016-08-21T08:37:53Z</time>
      </trkpt>
      <trkpt lat="45.62568" lon="6.85462">
        <ele>1829.0454101562</ele>
        <time>2016-08-21T08:38:00Z</time>
      </trkpt>
      <trkpt lat="45.62571" lon="6.85414">
        <ele>1830.9682617188</ele>
        <time>2016-08-21T08:38:09Z</time>
      </trkpt>
      <trkpt lat="45.62578" lon="6.85354">
        <ele>1832.41015625</ele>
        <time>2016-08-21T08:38:21Z</time>
      </trkpt>
      <trkpt lat="45.62579" lon="6.85298">
        <ele>1834.3327636719</ele>
        <time>2016-08-21T08:38:32Z</time>
      </trkpt>
      <trkpt lat="45.62582" lon="6.85259">
        <ele>1836.2556152344</ele>
        <time>2016-08-21T08:38:40Z</time>
      </trkpt>
      <trkpt lat="45.62584" lon="6.85235">
        <ele>1838.1782226562</ele>
        <time>2016-08-21T08:38:45Z</time>
      </trkpt>
      <trkpt lat="45.62591" lon="6.85202">
        <ele>1839.6201171875</ele>
        <time>2016-08-21T08:38:52Z</time>
      </trkpt>
      <trkpt lat="45.62599" lon="6.85174">
        <ele>1840.1008300781</ele>
        <time>2016-08-21T08:38:58Z</time>
      </trkpt>
      <trkpt lat="45.62611" lon="6.85138">
        <ele>1842.0234375</ele>
        <time>2016-08-21T08:39:06Z</time>
      </trkpt>
      <trkpt lat="45.62628" lon="6.851">
        <ele>1842.0234375</ele>
        <time>2016-08-21T08:39:15Z</time>
      </trkpt>
      <trkpt lat="45.62652" lon="6.85073">
        <ele>1843.9460449219</ele>
        <time>2016-08-21T08:39:23Z</time>
      </trkpt>
      <trkpt lat="45.62668" lon="6.85043">
        <ele>1844.4265136719</ele>
        <time>2016-08-21T08:39:30Z</time>
      </trkpt>
      <trkpt lat="45.62677" lon="6.85012">
        <ele>1845.3879394531</ele>
        <time>2016-08-21T08:39:36Z</time>
      </trkpt>
      <trkpt lat="45.62687" lon="6.84992">
        <ele>1846.3493652344</ele>
        <time>2016-08-21T08:39:40Z</time>
      </trkpt>
      <trkpt lat="45.62707" lon="6.84969">
        <ele>1847.310546875</ele>
        <time>2016-08-21T08:39:46Z</time>
      </trkpt>
      <trkpt lat="45.62731" lon="6.84946">
        <ele>1848.2717285156</ele>
        <time>2016-08-21T08:39:53Z</time>
      </trkpt>
      <trkpt lat="45.62747" lon="6.84915">
        <ele>1849.2331542969</ele>
        <time>2016-08-21T08:40:00Z</time>
      </trkpt>
      <trkpt lat="45.62772" lon="6.84868">
        <ele>1849.2331542969</ele>
        <time>2016-08-21T08:40:10Z</time>
      </trkpt>
      <trkpt lat="45.62797" lon="6.84846">
        <ele>1852.1171875</ele>
        <time>2016-08-21T08:40:17Z</time>
      </trkpt>
      <trkpt lat="45.62841" lon="6.84822">
        <ele>1854.0400390625</ele>
        <time>2016-08-21T08:40:29Z</time>
      </trkpt>
      <trkpt lat="45.6288" lon="6.84809">
        <ele>1855.9624023438</ele>
        <time>2016-08-21T08:40:39Z</time>
      </trkpt>
      <trkpt lat="45.62903" lon="6.84789">
        <ele>1857.4045410156</ele>
        <time>2016-08-21T08:40:46Z</time>
      </trkpt>
      <trkpt lat="45.62933" lon="6.84755">
        <ele>1858.3657226562</ele>
        <time>2016-08-21T08:40:56Z</time>
      </trkpt>
      <trkpt lat="45.62956" lon="6.84727">
        <ele>1859.3271484375</ele>
        <time>2016-08-21T08:41:04Z</time>
      </trkpt>
      <trkpt lat="45.62984" lon="6.84697">
        <ele>1861.2497558594</ele>
        <time>2016-08-21T08:41:13Z</time>
      </trkpt>
      <trkpt lat="45.63006" lon="6.84669">
        <ele>1862.6916503906</ele>
        <time>2016-08-21T08:41:21Z</time>
      </trkpt>
      <trkpt lat="45.63009" lon="6.84666">
        <ele>1862.6916503906</ele>
        <time>2016-08-21T08:41:22Z</time>
      </trkpt>
      <trkpt lat="45.63023" lon="6.84664">
        <ele>1863.1723632812</ele>
        <time>2016-08-21T08:41:26Z</time>
      </trkpt>
      <trkpt lat="45.63039" lon="6.84679">
        <ele>1864.1335449219</ele>
        <time>2016-08-21T08:41:31Z</time>
      </trkpt>
      <trkpt lat="45.63067" lon="6.8471">
        <ele>1865.5756835938</ele>
        <time>2016-08-21T08:41:40Z</time>
      </trkpt>
      <trkpt lat="45.631" lon="6.8473">
        <ele>1868.4597167969</ele>
        <time>2016-08-21T08:41:49Z</time>
      </trkpt>
      <trkpt lat="45.63103" lon="6.84732">
        <ele>1867.9787597656</ele>
        <time>2016-08-21T08:41:50Z</time>
      </trkpt>
      <trkpt lat="45.63121" lon="6.84754">
        <ele>1868.9404296875</ele>
        <time>2016-08-21T08:41:56Z</time>
      </trkpt>
      <trkpt lat="45.63136" lon="6.84772">
        <ele>1870.3823242188</ele>
        <time>2016-08-21T08:42:01Z</time>
      </trkpt>
      <trkpt lat="45.63172" lon="6.84798">
        <ele>1872.3049316406</ele>
        <time>2016-08-21T08:42:11Z</time>
      </trkpt>
      <trkpt lat="45.63195" lon="6.84827">
        <ele>1873.2663574219</ele>
        <time>2016-08-21T08:42:19Z</time>
      </trkpt>
      <trkpt lat="45.63214" lon="6.84855">
        <ele>1874.7082519531</ele>
        <time>2016-08-21T08:42:26Z</time>
      </trkpt>
      <trkpt lat="45.63244" lon="6.8489">
        <ele>1876.1501464844</ele>
        <time>2016-08-21T08:42:36Z</time>
      </trkpt>
      <trkpt lat="45.63255" lon="6.84897">
        <ele>1877.5920410156</ele>
        <time>2016-08-21T08:42:39Z</time>
      </trkpt>
      <trkpt lat="45.63282" lon="6.84907">
        <ele>1879.5146484375</ele>
        <time>2016-08-21T08:42:46Z</time>
      </trkpt>
      <trkpt lat="45.63313" lon="6.8491">
        <ele>1880.4760742188</ele>
        <time>2016-08-21T08:42:54Z</time>
      </trkpt>
      <trkpt lat="45.63346" lon="6.84906">
        <ele>1882.8791503906</ele>
        <time>2016-08-21T08:43:02Z</time>
      </trkpt>
      <trkpt lat="45.63388" lon="6.84912">
        <ele>1885.2827148438</ele>
        <time>2016-08-21T08:43:13Z</time>
      </trkpt>
      <trkpt lat="45.63425" lon="6.84919">
        <ele>1887.2053222656</ele>
        <time>2016-08-21T08:43:23Z</time>
      </trkpt>
      <trkpt lat="45.63449" lon="6.84937">
        <ele>1887.6860351562</ele>
        <time>2016-08-21T08:43:30Z</time>
      </trkpt>
      <trkpt lat="45.63461" lon="6.84959">
        <ele>1888.6474609375</ele>
        <time>2016-08-21T08:43:35Z</time>
      </trkpt>
      <trkpt lat="45.63481" lon="6.85002">
        <ele>1889.1279296875</ele>
        <time>2016-08-21T08:43:44Z</time>
      </trkpt>
      <trkpt lat="45.63499" lon="6.85017">
        <ele>1891.0505371094</ele>
        <time>2016-08-21T08:43:49Z</time>
      </trkpt>
      <trkpt lat="45.63543" lon="6.85033">
        <ele>1893.4538574219</ele>
        <time>2016-08-21T08:44:00Z</time>
      </trkpt>
      <trkpt lat="45.63565" lon="6.85046">
        <ele>1895.3764648438</ele>
        <time>2016-08-21T08:44:06Z</time>
      </trkpt>
      <trkpt lat="45.63572" lon="6.85051">
        <ele>1895.8571777344</ele>
        <time>2016-08-21T08:44:08Z</time>
      </trkpt>
      <trkpt lat="45.63592" lon="6.85052">
        <ele>1896.337890625</ele>
        <time>2016-08-21T08:44:13Z</time>
      </trkpt>
      <trkpt lat="45.63603" lon="6.85042">
        <ele>1896.818359375</ele>
        <time>2016-08-21T08:44:16Z</time>
      </trkpt>
      <trkpt lat="45.63628" lon="6.85015">
        <ele>1898.7409667969</ele>
        <time>2016-08-21T08:44:23Z</time>
      </trkpt>
      <trkpt lat="45.63661" lon="6.8498">
        <ele>1899.2216796875</ele>
        <time>2016-08-21T08:44:32Z</time>
      </trkpt>
      <trkpt lat="45.63696" lon="6.8495">
        <ele>1900.6638183594</ele>
        <time>2016-08-21T08:44:41Z</time>
      </trkpt>
      <trkpt lat="45.63715" lon="6.84927">
        <ele>1902.5864257812</ele>
        <time>2016-08-21T08:44:47Z</time>
      </trkpt>
      <trkpt lat="45.63725" lon="6.84902">
        <ele>1904.0285644531</ele>
        <time>2016-08-21T08:44:52Z</time>
      </trkpt>
      <trkpt lat="45.63748" lon="6.84867">
        <ele>1904.9897460938</ele>
        <time>2016-08-21T08:45:00Z</time>
      </trkpt>
      <trkpt lat="45.63753" lon="6.84858">
        <ele>1905.9509277344</ele>
        <time>2016-08-21T08:45:02Z</time>
      </trkpt>
      <trkpt lat="45.63762" lon="6.84827">
        <ele>1907.3930664062</ele>
        <time>2016-08-21T08:45:08Z</time>
      </trkpt>
      <trkpt lat="45.63768" lon="6.84783">
        <ele>1908.3542480469</ele>
        <time>2016-08-21T08:45:16Z</time>
      </trkpt>
      <trkpt lat="45.63769" lon="6.84724">
        <ele>1912.6801757812</ele>
        <time>2016-08-21T08:45:26Z</time>
      </trkpt>
      <trkpt lat="45.63771" lon="6.84712">
        <ele>1912.6801757812</ele>
        <time>2016-08-21T08:45:28Z</time>
      </trkpt>
      <trkpt lat="45.63784" lon="6.84688">
        <ele>1912.1994628906</ele>
        <time>2016-08-21T08:45:33Z</time>
      </trkpt>
      <trkpt lat="45.63808" lon="6.84671">
        <ele>1915.0834960938</ele>
        <time>2016-08-21T08:45:39Z</time>
      </trkpt>
      <trkpt lat="45.63832" lon="6.84669">
        <ele>1916.5256347656</ele>
        <time>2016-08-21T08:45:45Z</time>
      </trkpt>
      <trkpt lat="45.63863" lon="6.84667">
        <ele>1917.0063476562</ele>
        <time>2016-08-21T08:45:53Z</time>
      </trkpt>
      <trkpt lat="45.63897" lon="6.84653">
        <ele>1919.4096679688</ele>
        <time>2016-08-21T08:46:02Z</time>
      </trkpt>
      <trkpt lat="45.63932" lon="6.8464">
        <ele>1920.3708496094</ele>
        <time>2016-08-21T08:46:11Z</time>
      </trkpt>
      <trkpt lat="45.63945" lon="6.84625">
        <ele>1920.3708496094</ele>
        <time>2016-08-21T08:46:15Z</time>
      </trkpt>
      <trkpt lat="45.63955" lon="6.84606">
        <ele>1921.8127441406</ele>
        <time>2016-08-21T08:46:19Z</time>
      </trkpt>
      <trkpt lat="45.63985" lon="6.84576">
        <ele>1922.7741699219</ele>
        <time>2016-08-21T08:46:28Z</time>
      </trkpt>
      <trkpt lat="45.64023" lon="6.84543">
        <ele>1924.6967773438</ele>
        <time>2016-08-21T08:46:39Z</time>
      </trkpt>
      <trkpt lat="45.64038" lon="6.84533">
        <ele>1924.6967773438</ele>
        <time>2016-08-21T08:46:43Z</time>
      </trkpt>
      <trkpt lat="45.64071" lon="6.84515">
        <ele>1926.6193847656</ele>
        <time>2016-08-21T08:46:52Z</time>
      </trkpt>
      <trkpt lat="45.64092" lon="6.84494">
        <ele>1927.5805664062</ele>
        <time>2016-08-21T08:46:59Z</time>
      </trkpt>
      <trkpt lat="45.64125" lon="6.8446">
        <ele>1929.9838867188</ele>
        <time>2016-08-21T08:47:10Z</time>
      </trkpt>
      <trkpt lat="45.64151" lon="6.84439">
        <ele>1932.8679199219</ele>
        <time>2016-08-21T08:47:18Z</time>
      </trkpt>
      <trkpt lat="45.64172" lon="6.84432">
        <ele>1932.3874511719</ele>
        <time>2016-08-21T08:47:24Z</time>
      </trkpt>
      <trkpt lat="45.64183" lon="6.84444">
        <ele>1934.7907714844</ele>
        <time>2016-08-21T08:47:28Z</time>
      </trkpt>
      <trkpt lat="45.64192" lon="6.84478">
        <ele>1936.2326660156</ele>
        <time>2016-08-21T08:47:35Z</time>
      </trkpt>
      <trkpt lat="45.64204" lon="6.84517">
        <ele>1937.6745605469</ele>
        <time>2016-08-21T08:47:43Z</time>
      </trkpt>
      <trkpt lat="45.64213" lon="6.84543">
        <ele>1939.1164550781</ele>
        <time>2016-08-21T08:47:48Z</time>
      </trkpt>
      <trkpt lat="45.64239" lon="6.84584">
        <ele>1940.5583496094</ele>
        <time>2016-08-21T08:47:57Z</time>
      </trkpt>
      <trkpt lat="45.64265" lon="6.84621">
        <ele>1941.0390625</ele>
        <time>2016-08-21T08:48:05Z</time>
      </trkpt>
      <trkpt lat="45.64292" lon="6.84663">
        <ele>1942.9616699219</ele>
        <time>2016-08-21T08:48:14Z</time>
      </trkpt>
      <trkpt lat="45.6431" lon="6.84694">
        <ele>1943.9230957031</ele>
        <time>2016-08-21T08:48:21Z</time>
      </trkpt>
      <trkpt lat="45.64335" lon="6.84727">
        <ele>1944.8842773438</ele>
        <time>2016-08-21T08:48:30Z</time>
      </trkpt>
      <trkpt lat="45.64362" lon="6.84757">
        <ele>1946.8068847656</ele>
        <time>2016-08-21T08:48:39Z</time>
      </trkpt>
      <trkpt lat="45.64368" lon="6.84763">
        <ele>1947.7683105469</ele>
        <time>2016-08-21T08:48:41Z</time>
      </trkpt>
      <trkpt lat="45.64386" lon="6.84771">
        <ele>1949.6911621094</ele>
        <time>2016-08-21T08:48:46Z</time>
      </trkpt>
      <trkpt lat="45.6439" lon="6.84772">
        <ele>1949.6911621094</ele>
        <time>2016-08-21T08:48:47Z</time>
      </trkpt>
      <trkpt lat="45.64403" lon="6.84775">
        <ele>1950.171875</ele>
        <time>2016-08-21T08:48:50Z</time>
      </trkpt>
      <trkpt lat="45.64433" lon="6.84795">
        <ele>1951.6137695312</ele>
        <time>2016-08-21T08:48:58Z</time>
      </trkpt>
      <trkpt lat="45.64448" lon="6.84813">
        <ele>1951.6137695312</ele>
        <time>2016-08-21T08:49:03Z</time>
      </trkpt>
      <trkpt lat="45.64474" lon="6.8486">
        <ele>1954.0170898438</ele>
        <time>2016-08-21T08:49:13Z</time>
      </trkpt>
      <trkpt lat="45.64495" lon="6.84903">
        <ele>1955.458984375</ele>
        <time>2016-08-21T08:49:22Z</time>
      </trkpt>
      <trkpt lat="45.64519" lon="6.84933">
        <ele>1957.3815917969</ele>
        <time>2016-08-21T08:49:30Z</time>
      </trkpt>
      <trkpt lat="45.64533" lon="6.84946">
        <ele>1957.3815917969</ele>
        <time>2016-08-21T08:49:34Z</time>
      </trkpt>
      <trkpt lat="45.64548" lon="6.84971">
        <ele>1959.3041992188</ele>
        <time>2016-08-21T08:49:40Z</time>
      </trkpt>
      <trkpt lat="45.64564" lon="6.85005">
        <ele>1960.74609375</ele>
        <time>2016-08-21T08:49:48Z</time>
      </trkpt>
      <trkpt lat="45.64583" lon="6.85033">
        <ele>1962.1879882812</ele>
        <time>2016-08-21T08:49:54Z</time>
      </trkpt>
      <trkpt lat="45.6461" lon="6.85063">
        <ele>1963.6298828125</ele>
        <time>2016-08-21T08:50:02Z</time>
      </trkpt>
      <trkpt lat="45.64634" lon="6.85094">
        <ele>1966.0334472656</ele>
        <time>2016-08-21T08:50:10Z</time>
      </trkpt>
      <trkpt lat="45.64659" lon="6.8513">
        <ele>1966.9948730469</ele>
        <time>2016-08-21T08:50:19Z</time>
      </trkpt>
      <trkpt lat="45.64685" lon="6.85168">
        <ele>1968.9174804688</ele>
        <time>2016-08-21T08:50:28Z</time>
      </trkpt>
      <trkpt lat="45.647" lon="6.85194">
        <ele>1970.359375</ele>
        <time>2016-08-21T08:50:35Z</time>
      </trkpt>
      <trkpt lat="45.64713" lon="6.85207">
        <ele>1971.8012695312</ele>
        <time>2016-08-21T08:50:39Z</time>
      </trkpt>
      <trkpt lat="45.64735" lon="6.85212">
        <ele>1971.8012695312</ele>
        <time>2016-08-21T08:50:44Z</time>
      </trkpt>
      <trkpt lat="45.64754" lon="6.85213">
        <ele>1973.2434082031</ele>
        <time>2016-08-21T08:50:48Z</time>
      </trkpt>
      <trkpt lat="45.64788" lon="6.85231">
        <ele>1972.2819824219</ele>
        <time>2016-08-21T08:50:56Z</time>
      </trkpt>
      <trkpt lat="45.64828" lon="6.85254">
        <ele>1975.646484375</ele>
        <time>2016-08-21T08:51:05Z</time>
      </trkpt>
      <trkpt lat="45.64881" lon="6.85282">
        <ele>1975.646484375</ele>
        <time>2016-08-21T08:51:17Z</time>
      </trkpt>
      <trkpt lat="45.64894" lon="6.85291">
        <ele>1976.6079101562</ele>
        <time>2016-08-21T08:51:20Z</time>
      </trkpt>
      <trkpt lat="45.64912" lon="6.8532">
        <ele>1977.5690917969</ele>
        <time>2016-08-21T08:51:26Z</time>
      </trkpt>
      <trkpt lat="45.64925" lon="6.8535">
        <ele>1980.4533691406</ele>
        <time>2016-08-21T08:51:32Z</time>
      </trkpt>
      <trkpt lat="45.64948" lon="6.85398">
        <ele>1981.4145507812</ele>
        <time>2016-08-21T08:51:42Z</time>
      </trkpt>
      <trkpt lat="45.6495" lon="6.85403">
        <ele>1980.9340820312</ele>
        <time>2016-08-21T08:51:43Z</time>
      </trkpt>
      <trkpt lat="45.64954" lon="6.85413">
        <ele>1982.8564453125</ele>
        <time>2016-08-21T08:51:45Z</time>
      </trkpt>
      <trkpt lat="45.64959" lon="6.8543">
        <ele>1984.2985839844</ele>
        <time>2016-08-21T08:51:48Z</time>
      </trkpt>
      <trkpt lat="45.64962" lon="6.8545">
        <ele>1985.7404785156</ele>
        <time>2016-08-21T08:51:51Z</time>
      </trkpt>
      <trkpt lat="45.64972" lon="6.85489">
        <ele>1986.7016601562</ele>
        <time>2016-08-21T08:51:57Z</time>
      </trkpt>
      <trkpt lat="45.64987" lon="6.85518">
        <ele>1988.1437988281</ele>
        <time>2016-08-21T08:52:02Z</time>
      </trkpt>
      <trkpt lat="45.65003" lon="6.85544">
        <ele>1989.5856933594</ele>
        <time>2016-08-21T08:52:07Z</time>
      </trkpt>
      <trkpt lat="45.6502" lon="6.85572">
        <ele>1991.0275878906</ele>
        <time>2016-08-21T08:52:12Z</time>
      </trkpt>
      <trkpt lat="45.65041" lon="6.85623">
        <ele>1993.4309082031</ele>
        <time>2016-08-21T08:52:19Z</time>
      </trkpt>
      <trkpt lat="45.65045" lon="6.85629">
        <ele>1993.4309082031</ele>
        <time>2016-08-21T08:52:20Z</time>
      </trkpt>
      <trkpt lat="45.65068" lon="6.85654">
        <ele>1995.353515625</ele>
        <time>2016-08-21T08:52:25Z</time>
      </trkpt>
      <trkpt lat="45.65074" lon="6.85658">
        <ele>1994.8728027344</ele>
        <time>2016-08-21T08:52:26Z</time>
      </trkpt>
      <trkpt lat="45.65115" lon="6.85681">
        <ele>1995.8342285156</ele>
        <time>2016-08-21T08:52:32Z</time>
      </trkpt>
      <trkpt lat="45.65159" lon="6.8571">
        <ele>1997.7570800781</ele>
        <time>2016-08-21T08:52:39Z</time>
      </trkpt>
      <trkpt lat="45.65175" lon="6.85722">
        <ele>1999.1989746094</ele>
        <time>2016-08-21T08:52:42Z</time>
      </trkpt>
      <trkpt lat="45.65211" lon="6.85763">
        <ele>2000.1604003906</ele>
        <time>2016-08-21T08:52:50Z</time>
      </trkpt>
      <trkpt lat="45.65241" lon="6.85793">
        <ele>2002.0827636719</ele>
        <time>2016-08-21T08:52:57Z</time>
      </trkpt>
      <trkpt lat="45.6525" lon="6.858">
        <ele>2003.0441894531</ele>
        <time>2016-08-21T08:52:59Z</time>
      </trkpt>
      <trkpt lat="45.65285" lon="6.85815">
        <ele>2003.5249023438</ele>
        <time>2016-08-21T08:53:05Z</time>
      </trkpt>
      <trkpt lat="45.65326" lon="6.8584">
        <ele>2004.966796875</ele>
        <time>2016-08-21T08:53:12Z</time>
      </trkpt>
      <trkpt lat="45.65359" lon="6.85876">
        <ele>2007.3701171875</ele>
        <time>2016-08-21T08:53:19Z</time>
      </trkpt>
      <trkpt lat="45.65374" lon="6.85899">
        <ele>2008.8120117188</ele>
        <time>2016-08-21T08:53:23Z</time>
      </trkpt>
      <trkpt lat="45.65406" lon="6.85945">
        <ele>2011.6960449219</ele>
        <time>2016-08-21T08:53:32Z</time>
      </trkpt>
      <trkpt lat="45.65418" lon="6.85957">
        <ele>2013.6186523438</ele>
        <time>2016-08-21T08:53:35Z</time>
      </trkpt>
      <trkpt lat="45.65438" lon="6.85966">
        <ele>2014.0993652344</ele>
        <time>2016-08-21T08:53:39Z</time>
      </trkpt>
      <trkpt lat="45.65468" lon="6.85975">
        <ele>2014.0993652344</ele>
        <time>2016-08-21T08:53:44Z</time>
      </trkpt>
      <trkpt lat="45.65492" lon="6.85999">
        <ele>2016.5026855469</ele>
        <time>2016-08-21T08:53:49Z</time>
      </trkpt>
      <trkpt lat="45.65512" lon="6.86042">
        <ele>2017.9445800781</ele>
        <time>2016-08-21T08:53:56Z</time>
      </trkpt>
      <trkpt lat="45.65527" lon="6.86077">
        <ele>2019.8671875</ele>
        <time>2016-08-21T08:54:02Z</time>
      </trkpt>
      <trkpt lat="45.65547" lon="6.86108">
        <ele>2022.2705078125</ele>
        <time>2016-08-21T08:54:08Z</time>
      </trkpt>
      <trkpt lat="45.65574" lon="6.86127">
        <ele>2023.7124023438</ele>
        <time>2016-08-21T08:54:14Z</time>
      </trkpt>
      <trkpt lat="45.65607" lon="6.86135">
        <ele>2025.154296875</ele>
        <time>2016-08-21T08:54:20Z</time>
      </trkpt>
      <trkpt lat="45.65627" lon="6.86148">
        <ele>2027.5576171875</ele>
        <time>2016-08-21T08:54:24Z</time>
      </trkpt>
      <trkpt lat="45.65656" lon="6.86186">
        <ele>2029.9611816406</ele>
        <time>2016-08-21T08:54:31Z</time>
      </trkpt>
      <trkpt lat="45.65659" lon="6.86193">
        <ele>2029.9611816406</ele>
        <time>2016-08-21T08:54:32Z</time>
      </trkpt>
      <trkpt lat="45.65673" lon="6.86237">
        <ele>2030.9226074219</ele>
        <time>2016-08-21T08:54:38Z</time>
      </trkpt>
      <trkpt lat="45.65684" lon="6.86264">
        <ele>2032.8449707031</ele>
        <time>2016-08-21T08:54:42Z</time>
      </trkpt>
      <trkpt lat="45.65728" lon="6.86318">
        <ele>2035.2482910156</ele>
        <time>2016-08-21T08:54:52Z</time>
      </trkpt>
      <trkpt lat="45.65755" lon="6.86339">
        <ele>2036.6901855469</ele>
        <time>2016-08-21T08:54:57Z</time>
      </trkpt>
      <trkpt lat="45.6579" lon="6.86357">
        <ele>2038.1323242188</ele>
        <time>2016-08-21T08:55:03Z</time>
      </trkpt>
      <trkpt lat="45.65821" lon="6.86388">
        <ele>2039.57421875</ele>
        <time>2016-08-21T08:55:09Z</time>
      </trkpt>
      <trkpt lat="45.65826" lon="6.86394">
        <ele>2039.57421875</ele>
        <time>2016-08-21T08:55:10Z</time>
      </trkpt>
      <trkpt lat="45.65868" lon="6.86416">
        <ele>2041.0161132812</ele>
        <time>2016-08-21T08:55:17Z</time>
      </trkpt>
      <trkpt lat="45.65892" lon="6.8643">
        <ele>2041.4968261719</ele>
        <time>2016-08-21T08:55:21Z</time>
      </trkpt>
      <trkpt lat="45.65915" lon="6.86461">
        <ele>2042.9387207031</ele>
        <time>2016-08-21T08:55:26Z</time>
      </trkpt>
      <trkpt lat="45.65938" lon="6.86517">
        <ele>2044.8615722656</ele>
        <time>2016-08-21T08:55:34Z</time>
      </trkpt>
      <trkpt lat="45.65943" lon="6.86531">
        <ele>2045.8229980469</ele>
        <time>2016-08-21T08:55:36Z</time>
      </trkpt>
      <trkpt lat="45.65959" lon="6.8657">
        <ele>2046.7841796875</ele>
        <time>2016-08-21T08:55:42Z</time>
      </trkpt>
      <trkpt lat="45.65969" lon="6.86587">
        <ele>2048.2260742188</ele>
        <time>2016-08-21T08:55:45Z</time>
      </trkpt>
      <trkpt lat="45.65999" lon="6.86619">
        <ele>2050.1489257812</ele>
        <time>2016-08-21T08:55:52Z</time>
      </trkpt>
      <trkpt lat="45.66023" lon="6.86653">
        <ele>2051.5908203125</ele>
        <time>2016-08-21T08:55:59Z</time>
      </trkpt>
      <trkpt lat="45.6605" lon="6.86695">
        <ele>2054.474609375</ele>
        <time>2016-08-21T08:56:07Z</time>
      </trkpt>
      <trkpt lat="45.66078" lon="6.86726">
        <ele>2055.4360351562</ele>
        <time>2016-08-21T08:56:14Z</time>
      </trkpt>
      <trkpt lat="45.66115" lon="6.86769">
        <ele>2058.8005371094</ele>
        <time>2016-08-21T08:56:24Z</time>
      </trkpt>
      <trkpt lat="45.66146" lon="6.86811">
        <ele>2062.1652832031</ele>
        <time>2016-08-21T08:56:33Z</time>
      </trkpt>
      <trkpt lat="45.66164" lon="6.86849">
        <ele>2064.087890625</ele>
        <time>2016-08-21T08:56:40Z</time>
      </trkpt>
      <trkpt lat="45.66173" lon="6.86874">
        <ele>2065.0493164062</ele>
        <time>2016-08-21T08:56:44Z</time>
      </trkpt>
      <trkpt lat="45.66195" lon="6.86903">
        <ele>2066.9719238281</ele>
        <time>2016-08-21T08:56:50Z</time>
      </trkpt>
      <trkpt lat="45.66199" lon="6.86906">
        <ele>2067.4523925781</ele>
        <time>2016-08-21T08:56:51Z</time>
      </trkpt>
      <trkpt lat="45.66218" lon="6.86918">
        <ele>2066.9719238281</ele>
        <time>2016-08-21T08:56:55Z</time>
      </trkpt>
      <trkpt lat="45.66236" lon="6.8695">
        <ele>2069.3752441406</ele>
        <time>2016-08-21T08:57:01Z</time>
      </trkpt>
      <trkpt lat="45.66238" lon="6.86976">
        <ele>2071.7783203125</ele>
        <time>2016-08-21T08:57:05Z</time>
      </trkpt>
      <trkpt lat="45.66234" lon="6.87014">
        <ele>2073.2204589844</ele>
        <time>2016-08-21T08:57:11Z</time>
      </trkpt>
      <trkpt lat="45.66226" lon="6.87045">
        <ele>2075.1428222656</ele>
        <time>2016-08-21T08:57:16Z</time>
      </trkpt>
      <trkpt lat="45.66231" lon="6.87073">
        <ele>2076.1044921875</ele>
        <time>2016-08-21T08:57:20Z</time>
      </trkpt>
      <trkpt lat="45.66248" lon="6.87076">
        <ele>2076.5852050781</ele>
        <time>2016-08-21T08:57:23Z</time>
      </trkpt>
      <trkpt lat="45.66253" lon="6.87073">
        <ele>2075.6235351562</ele>
        <time>2016-08-21T08:57:24Z</time>
      </trkpt>
      <trkpt lat="45.66283" lon="6.87058">
        <ele>2078.0270996094</ele>
        <time>2016-08-21T08:57:29Z</time>
      </trkpt>
      <trkpt lat="45.66313" lon="6.87045">
        <ele>2078.0270996094</ele>
        <time>2016-08-21T08:57:34Z</time>
      </trkpt>
      <trkpt lat="45.66349" lon="6.87044">
        <ele>2078.98828125</ele>
        <time>2016-08-21T08:57:40Z</time>
      </trkpt>
      <trkpt lat="45.66385" lon="6.87052">
        <ele>2079.9497070312</ele>
        <time>2016-08-21T08:57:47Z</time>
      </trkpt>
      <trkpt lat="45.66413" lon="6.87063">
        <ele>2081.8723144531</ele>
        <time>2016-08-21T08:57:53Z</time>
      </trkpt>
      <trkpt lat="45.66457" lon="6.87091">
        <ele>2085.2368164062</ele>
        <time>2016-08-21T08:58:03Z</time>
      </trkpt>
      <trkpt lat="45.66469" lon="6.87102">
        <ele>2086.6787109375</ele>
        <time>2016-08-21T08:58:06Z</time>
      </trkpt>
      <trkpt lat="45.66496" lon="6.87129">
        <ele>2089.08203125</ele>
        <time>2016-08-21T08:58:13Z</time>
      </trkpt>
      <trkpt lat="45.66509" lon="6.87136">
        <ele>2090.5239257812</ele>
        <time>2016-08-21T08:58:16Z</time>
      </trkpt>
      <trkpt lat="45.66538" lon="6.87142">
        <ele>2092.9274902344</ele>
        <time>2016-08-21T08:58:22Z</time>
      </trkpt>
      <trkpt lat="45.66578" lon="6.87151">
        <ele>2095.3308105469</ele>
        <time>2016-08-21T08:58:30Z</time>
      </trkpt>
      <trkpt lat="45.66608" lon="6.8717">
        <ele>2098.2145996094</ele>
        <time>2016-08-21T08:58:37Z</time>
      </trkpt>
      <trkpt lat="45.66635" lon="6.87189">
        <ele>2099.6567382812</ele>
        <time>2016-08-21T08:58:44Z</time>
      </trkpt>
      <trkpt lat="45.66656" lon="6.87196">
        <ele>2101.5793457031</ele>
        <time>2016-08-21T08:58:49Z</time>
      </trkpt>
      <trkpt lat="45.66682" lon="6.87202">
        <ele>2103.0212402344</ele>
        <time>2016-08-21T08:58:55Z</time>
      </trkpt>
      <trkpt lat="45.66695" lon="6.87204">
        <ele>2103.9826660156</ele>
        <time>2016-08-21T08:58:58Z</time>
      </trkpt>
      <trkpt lat="45.66727" lon="6.8722">
        <ele>2106.3857421875</ele>
        <time>2016-08-21T08:59:06Z</time>
      </trkpt>
      <trkpt lat="45.66743" lon="6.87229">
        <ele>2107.3471679688</ele>
        <time>2016-08-21T08:59:10Z</time>
      </trkpt>
      <trkpt lat="45.6678" lon="6.87238">
        <ele>2109.7504882812</ele>
        <time>2016-08-21T08:59:18Z</time>
      </trkpt>
      <trkpt lat="45.66785" lon="6.87237">
        <ele>2110.2312011719</ele>
        <time>2016-08-21T08:59:19Z</time>
      </trkpt>
      <trkpt lat="45.66799" lon="6.87234">
        <ele>2111.1926269531</ele>
        <time>2016-08-21T08:59:22Z</time>
      </trkpt>
      <trkpt lat="45.66809" lon="6.8723">
        <ele>2112.1538085938</ele>
        <time>2016-08-21T08:59:24Z</time>
      </trkpt>
      <trkpt lat="45.66828" lon="6.87229">
        <ele>2115.0378417969</ele>
        <time>2016-08-21T08:59:28Z</time>
      </trkpt>
      <trkpt lat="45.66848" lon="6.87241">
        <ele>2116.9604492188</ele>
        <time>2016-08-21T08:59:33Z</time>
      </trkpt>
      <trkpt lat="45.66857" lon="6.87255">
        <ele>2117.4409179688</ele>
        <time>2016-08-21T08:59:36Z</time>
      </trkpt>
      <trkpt lat="45.6688" lon="6.87272">
        <ele>2118.40234375</ele>
        <time>2016-08-21T08:59:42Z</time>
      </trkpt>
      <trkpt lat="45.66892" lon="6.87269">
        <ele>2118.8830566406</ele>
        <time>2016-08-21T08:59:45Z</time>
      </trkpt>
      <trkpt lat="45.66904" lon="6.87264">
        <ele>2120.3249511719</ele>
        <time>2016-08-21T08:59:48Z</time>
      </trkpt>
      <trkpt lat="45.66916" lon="6.87257">
        <ele>2122.2475585938</ele>
        <time>2016-08-21T08:59:51Z</time>
      </trkpt>
      <trkpt lat="45.6692" lon="6.87254">
        <ele>2122.2475585938</ele>
        <time>2016-08-21T08:59:52Z</time>
      </trkpt>
      <trkpt lat="45.66941" lon="6.87253">
        <ele>2124.6511230469</ele>
        <time>2016-08-21T08:59:57Z</time>
      </trkpt>
      <trkpt lat="45.66945" lon="6.87256">
        <ele>2125.1315917969</ele>
        <time>2016-08-21T08:59:58Z</time>
      </trkpt>
      <trkpt lat="45.66955" lon="6.87267">
        <ele>2125.6123046875</ele>
        <time>2016-08-21T09:00:01Z</time>
      </trkpt>
      <trkpt lat="45.66983" lon="6.87283">
        <ele>2127.5349121094</ele>
        <time>2016-08-21T09:00:08Z</time>
      </trkpt>
      <trkpt lat="45.66998" lon="6.87289">
        <ele>2130.8996582031</ele>
        <time>2016-08-21T09:00:11Z</time>
      </trkpt>
      <trkpt lat="45.67003" lon="6.87292">
        <ele>2129.9382324219</ele>
        <time>2016-08-21T09:00:12Z</time>
      </trkpt>
      <trkpt lat="45.67034" lon="6.87315">
        <ele>2132.3415527344</ele>
        <time>2016-08-21T09:00:19Z</time>
      </trkpt>
      <trkpt lat="45.67059" lon="6.87338">
        <ele>2131.3801269531</ele>
        <time>2016-08-21T09:00:25Z</time>
      </trkpt>
      <trkpt lat="45.67065" lon="6.87363">
        <ele>2133.7834472656</ele>
        <time>2016-08-21T09:00:29Z</time>
      </trkpt>
      <trkpt lat="45.67054" lon="6.87374">
        <ele>2135.7060546875</ele>
        <time>2016-08-21T09:00:32Z</time>
      </trkpt>
      <trkpt lat="45.67034" lon="6.87367">
        <ele>2135.7060546875</ele>
        <time>2016-08-21T09:00:36Z</time>
      </trkpt>
      <trkpt lat="45.67012" lon="6.8735">
        <ele>2137.6286621094</ele>
        <time>2016-08-21T09:00:41Z</time>
      </trkpt>
      <trkpt lat="45.66986" lon="6.87326">
        <ele>2139.5512695312</ele>
        <time>2016-08-21T09:00:47Z</time>
      </trkpt>
      <trkpt lat="45.6697" lon="6.87317">
        <ele>2140.9934082031</ele>
        <time>2016-08-21T09:00:50Z</time>
      </trkpt>
      <trkpt lat="45.66965" lon="6.87315">
        <ele>2140.9934082031</ele>
        <time>2016-08-21T09:00:51Z</time>
      </trkpt>
      <trkpt lat="45.66944" lon="6.87322">
        <ele>2141.4741210938</ele>
        <time>2016-08-21T09:00:55Z</time>
      </trkpt>
      <trkpt lat="45.66942" lon="6.87338">
        <ele>2141.9548339844</ele>
        <time>2016-08-21T09:00:57Z</time>
      </trkpt>
      <trkpt lat="45.66952" lon="6.87359">
        <ele>2141.4741210938</ele>
        <time>2016-08-21T09:01:00Z</time>
      </trkpt>
      <trkpt lat="45.66991" lon="6.87401">
        <ele>2144.3579101562</ele>
        <time>2016-08-21T09:01:09Z</time>
      </trkpt>
      <trkpt lat="45.67024" lon="6.87438">
        <ele>2146.7612304688</ele>
        <time>2016-08-21T09:01:18Z</time>
      </trkpt>
      <trkpt lat="45.67045" lon="6.87462">
        <ele>2150.1259765625</ele>
        <time>2016-08-21T09:01:24Z</time>
      </trkpt>
      <trkpt lat="45.67073" lon="6.87492">
        <ele>2151.0871582031</ele>
        <time>2016-08-21T09:01:32Z</time>
      </trkpt>
      <trkpt lat="45.67108" lon="6.87529">
        <ele>2155.4130859375</ele>
        <time>2016-08-21T09:01:42Z</time>
      </trkpt>
      <trkpt lat="45.67138" lon="6.87565">
        <ele>2158.7778320312</ele>
        <time>2016-08-21T09:01:51Z</time>
      </trkpt>
      <trkpt lat="45.67169" lon="6.87599">
        <ele>2160.2197265625</ele>
        <time>2016-08-21T09:01:58Z</time>
      </trkpt>
      <trkpt lat="45.6721" lon="6.87646">
        <ele>2162.1423339844</ele>
        <time>2016-08-21T09:02:07Z</time>
      </trkpt>
      <trkpt lat="45.67237" lon="6.87679">
        <ele>2162.623046875</ele>
        <time>2016-08-21T09:02:13Z</time>
      </trkpt>
      <trkpt lat="45.67271" lon="6.87717">
        <ele>2164.5456542969</ele>
        <time>2016-08-21T09:02:20Z</time>
      </trkpt>
      <trkpt lat="45.67308" lon="6.87757">
        <ele>2165.9875488281</ele>
        <time>2016-08-21T09:02:27Z</time>
      </trkpt>
      <trkpt lat="45.67313" lon="6.87763">
        <ele>2166.4682617188</ele>
        <time>2016-08-21T09:02:28Z</time>
      </trkpt>
      <trkpt lat="45.67364" lon="6.8782">
        <ele>2168.8715820312</ele>
        <time>2016-08-21T09:02:37Z</time>
      </trkpt>
      <trkpt lat="45.67375" lon="6.87833">
        <ele>2169.8327636719</ele>
        <time>2016-08-21T09:02:39Z</time>
      </trkpt>
      <trkpt lat="45.67422" lon="6.87882">
        <ele>2171.2746582031</ele>
        <time>2016-08-21T09:02:47Z</time>
      </trkpt>
      <trkpt lat="45.67466" lon="6.87933">
        <ele>2171.2746582031</ele>
        <time>2016-08-21T09:02:54Z</time>
      </trkpt>
      <trkpt lat="45.6752" lon="6.87993">
        <ele>2172.7170410156</ele>
        <time>2016-08-21T09:03:02Z</time>
      </trkpt>
      <trkpt lat="45.67567" lon="6.88047">
        <ele>2173.6782226562</ele>
        <time>2016-08-21T09:03:09Z</time>
      </trkpt>
      <trkpt lat="45.67601" lon="6.88083">
        <ele>2174.6396484375</ele>
        <time>2016-08-21T09:03:14Z</time>
      </trkpt>
      <trkpt lat="45.67653" lon="6.88144">
        <ele>2175.1201171875</ele>
        <time>2016-08-21T09:03:22Z</time>
      </trkpt>
      <trkpt lat="45.67686" lon="6.88168">
        <ele>2177.04296875</ele>
        <time>2016-08-21T09:03:27Z</time>
      </trkpt>
      <trkpt lat="45.67705" lon="6.88177">
        <ele>2178.4848632812</ele>
        <time>2016-08-21T09:03:30Z</time>
      </trkpt>
      <trkpt lat="45.67743" lon="6.88194">
        <ele>2180.8881835938</ele>
        <time>2016-08-21T09:03:36Z</time>
      </trkpt>
      <trkpt lat="45.6776" lon="6.88204">
        <ele>2182.330078125</ele>
        <time>2016-08-21T09:03:39Z</time>
      </trkpt>
      <trkpt lat="45.67808" lon="6.88227">
        <ele>2185.6945800781</ele>
        <time>2016-08-21T09:03:47Z</time>
      </trkpt>
      <trkpt lat="45.67832" lon="6.88237">
        <ele>2187.1364746094</ele>
        <time>2016-08-21T09:03:51Z</time>
      </trkpt>
      <trkpt lat="45.67867" lon="6.88256">
        <ele>2189.5400390625</ele>
        <time>2016-08-21T09:03:58Z</time>
      </trkpt>
      <trkpt lat="45.6789" lon="6.88267">
        <ele>2191.4626464844</ele>
        <time>2016-08-21T09:04:03Z</time>
      </trkpt>
      <trkpt lat="45.67904" lon="6.88277">
        <ele>2192.9045410156</ele>
        <time>2016-08-21T09:04:08Z</time>
      </trkpt>
      <trkpt lat="45.67918" lon="6.8829">
        <ele>2193.8659667969</ele>
        <time>2016-08-21T09:04:14Z</time>
      </trkpt>
      <trkpt lat="45.6792" lon="6.88292">
        <ele>2194.3464355469</ele>
        <time>2016-08-21T09:04:15Z</time>
      </trkpt>
      <trkpt lat="45.6793" lon="6.88302">
        <ele>2193.8659667969</ele>
        <time>2016-08-21T09:04:20Z</time>
      </trkpt>
      <trkpt lat="45.67942" lon="6.88316">
        <ele>2193.8659667969</ele>
        <time>2016-08-21T09:04:27Z</time>
      </trkpt>
      <trkpt lat="45.67945" lon="6.88318">
        <ele>2194.3464355469</ele>
        <time>2016-08-21T09:04:29Z</time>
      </trkpt>
      <trkpt lat="45.67951" lon="6.88323">
        <ele>2195.3078613281</ele>
        <time>2016-08-21T09:04:33Z</time>
      </trkpt>
      <trkpt lat="45.67959" lon="6.8833">
        <ele>2195.3078613281</ele>
        <time>2016-08-21T09:04:39Z</time>
      </trkpt>
      <trkpt lat="45.67972" lon="6.88339">
        <ele>2195.3078613281</ele>
        <time>2016-08-21T09:04:45Z</time>
      </trkpt>
      <trkpt lat="45.67984" lon="6.8836">
        <ele>2194.3464355469</ele>
        <time>2016-08-21T09:04:51Z</time>
      </trkpt>
      <trkpt lat="45.67985" lon="6.8837">
        <ele>2193.3852539062</ele>
        <time>2016-08-21T09:04:55Z</time>
      </trkpt>
      <trkpt lat="45.67985" lon="6.8837">
        <ele>2193.8659667969</ele>
        <time>2016-08-21T09:04:56Z</time>
      </trkpt>
      <trkpt lat="45.67984" lon="6.8837">
        <ele>2193.3852539062</ele>
        <time>2016-08-21T09:05:06Z</time>
      </trkpt>
      <trkpt lat="45.67984" lon="6.88371">
        <ele>2194.3464355469</ele>
        <time>2016-08-21T09:05:25Z</time>
      </trkpt>
      <trkpt lat="45.67984" lon="6.88371">
        <ele>2193.8659667969</ele>
        <time>2016-08-21T09:05:40Z</time>
      </trkpt>
      <trkpt lat="45.67985" lon="6.88371">
        <ele>2193.3852539062</ele>
        <time>2016-08-21T09:05:55Z</time>
      </trkpt>
      <trkpt lat="45.67984" lon="6.88371">
        <ele>2193.3852539062</ele>
        <time>2016-08-21T09:06:12Z</time>
      </trkpt>
      <trkpt lat="45.67984" lon="6.88372">
        <ele>2193.8659667969</ele>
        <time>2016-08-21T09:06:13Z</time>
      </trkpt>
      <trkpt lat="45.67989" lon="6.88384">
        <ele>2194.3464355469</ele>
        <time>2016-08-21T09:06:19Z</time>
      </trkpt>
      <trkpt lat="45.67993" lon="6.88415">
        <ele>2195.7885742188</ele>
        <time>2016-08-21T09:06:25Z</time>
      </trkpt>
      <trkpt lat="45.68" lon="6.88442">
        <ele>2195.7885742188</ele>
        <time>2016-08-21T09:06:32Z</time>
      </trkpt>
      <trkpt lat="45.68015" lon="6.88461">
        <ele>2197.23046875</ele>
        <time>2016-08-21T09:06:39Z</time>
      </trkpt>
      <trkpt lat="45.68037" lon="6.88471">
        <ele>2196.2692871094</ele>
        <time>2016-08-21T09:06:46Z</time>
      </trkpt>
      <trkpt lat="45.68041" lon="6.88472">
        <ele>2196.7497558594</ele>
        <time>2016-08-21T09:06:47Z</time>
      </trkpt>
      <trkpt lat="45.6807" lon="6.88464">
        <ele>2195.7885742188</ele>
        <time>2016-08-21T09:06:53Z</time>
      </trkpt>
      <trkpt lat="45.68076" lon="6.88462">
        <ele>2195.7885742188</ele>
        <time>2016-08-21T09:06:54Z</time>
      </trkpt>
      <trkpt lat="45.68108" lon="6.88468">
        <ele>2194.8271484375</ele>
        <time>2016-08-21T09:06:59Z</time>
      </trkpt>
      <trkpt lat="45.68154" lon="6.88496">
        <ele>2194.8271484375</ele>
        <time>2016-08-21T09:07:06Z</time>
      </trkpt>
      <trkpt lat="45.68207" lon="6.88529">
        <ele>2194.8271484375</ele>
        <time>2016-08-21T09:07:14Z</time>
      </trkpt>
      <trkpt lat="45.68233" lon="6.88548">
        <ele>2193.3852539062</ele>
        <time>2016-08-21T09:07:19Z</time>
      </trkpt>
      <trkpt lat="45.68249" lon="6.8856">
        <ele>2192.4240722656</ele>
        <time>2016-08-21T09:07:24Z</time>
      </trkpt>
      <trkpt lat="45.68258" lon="6.88569">
        <ele>2192.9045410156</ele>
        <time>2016-08-21T09:07:28Z</time>
      </trkpt>
      <trkpt lat="45.68268" lon="6.88578">
        <ele>2192.4240722656</ele>
        <time>2016-08-21T09:07:31Z</time>
      </trkpt>
      <trkpt lat="45.6828" lon="6.88587">
        <ele>2192.9045410156</ele>
        <time>2016-08-21T09:07:34Z</time>
      </trkpt>
      <trkpt lat="45.68306" lon="6.88609">
        <ele>2191.4626464844</ele>
        <time>2016-08-21T09:07:40Z</time>
      </trkpt>
      <trkpt lat="45.68317" lon="6.88617">
        <ele>2189.5400390625</ele>
        <time>2016-08-21T09:07:43Z</time>
      </trkpt>
      <trkpt lat="45.68333" lon="6.88629">
        <ele>2188.5788574219</ele>
        <time>2016-08-21T09:07:49Z</time>
      </trkpt>
      <trkpt lat="45.68337" lon="6.88632">
        <ele>2188.5788574219</ele>
        <time>2016-08-21T09:07:54Z</time>
      </trkpt>
      <trkpt lat="45.68339" lon="6.88636">
        <ele>2188.0981445312</ele>
        <time>2016-08-21T09:08:03Z</time>
      </trkpt>
      <trkpt lat="45.68339" lon="6.88637">
        <ele>2188.0981445312</ele>
        <time>2016-08-21T09:08:08Z</time>
      </trkpt>
      <trkpt lat="45.68339" lon="6.88637">
        <ele>2189.0593261719</ele>
        <time>2016-08-21T09:08:12Z</time>
      </trkpt>
      <trkpt lat="45.68344" lon="6.88643">
        <ele>2188.5788574219</ele>
        <time>2016-08-21T09:08:20Z</time>
      </trkpt>
      <trkpt lat="45.68362" lon="6.88656">
        <ele>2188.5788574219</ele>
        <time>2016-08-21T09:08:27Z</time>
      </trkpt>
      <trkpt lat="45.68386" lon="6.88676">
        <ele>2187.6171875</ele>
        <time>2016-08-21T09:08:34Z</time>
      </trkpt>
      <trkpt lat="45.68418" lon="6.88702">
        <ele>2187.1364746094</ele>
        <time>2016-08-21T09:08:41Z</time>
      </trkpt>
      <trkpt lat="45.68456" lon="6.88734">
        <ele>2185.6945800781</ele>
        <time>2016-08-21T09:08:49Z</time>
      </trkpt>
      <trkpt lat="45.6849" lon="6.88761">
        <ele>2182.810546875</ele>
        <time>2016-08-21T09:08:57Z</time>
      </trkpt>
      <trkpt lat="45.68493" lon="6.88764">
        <ele>2183.2912597656</ele>
        <time>2016-08-21T09:08:58Z</time>
      </trkpt>
      <trkpt lat="45.68522" lon="6.88775">
        <ele>2182.330078125</ele>
        <time>2016-08-21T09:09:05Z</time>
      </trkpt>
      <trkpt lat="45.68529" lon="6.88777">
        <ele>2181.8493652344</ele>
        <time>2016-08-21T09:09:07Z</time>
      </trkpt>
      <trkpt lat="45.68542" lon="6.88782">
        <ele>2182.810546875</ele>
        <time>2016-08-21T09:09:10Z</time>
      </trkpt>
      <trkpt lat="45.68566" lon="6.88798">
        <ele>2180.4074707031</ele>
        <time>2016-08-21T09:09:15Z</time>
      </trkpt>
      <trkpt lat="45.68598" lon="6.88822">
        <ele>2178.4848632812</ele>
        <time>2016-08-21T09:09:21Z</time>
      </trkpt>
      <trkpt lat="45.6861" lon="6.88827">
        <ele>2177.5234375</ele>
        <time>2016-08-21T09:09:23Z</time>
      </trkpt>
      <trkpt lat="45.68642" lon="6.88846">
        <ele>2176.5622558594</ele>
        <time>2016-08-21T09:09:28Z</time>
      </trkpt>
      <trkpt lat="45.68655" lon="6.88856">
        <ele>2173.1977539062</ele>
        <time>2016-08-21T09:09:30Z</time>
      </trkpt>
      <trkpt lat="45.68662" lon="6.88861">
        <ele>2172.236328125</ele>
        <time>2016-08-21T09:09:31Z</time>
      </trkpt>
      <trkpt lat="45.68699" lon="6.8887">
        <ele>2170.3134765625</ele>
        <time>2016-08-21T09:09:36Z</time>
      </trkpt>
      <trkpt lat="45.68707" lon="6.88871">
        <ele>2169.8327636719</ele>
        <time>2016-08-21T09:09:37Z</time>
      </trkpt>
      <trkpt lat="45.68722" lon="6.88873">
        <ele>2168.8715820312</ele>
        <time>2016-08-21T09:09:39Z</time>
      </trkpt>
      <trkpt lat="45.68744" lon="6.8888">
        <ele>2168.3908691406</ele>
        <time>2016-08-21T09:09:42Z</time>
      </trkpt>
      <trkpt lat="45.68766" lon="6.8888">
        <ele>2166.4682617188</ele>
        <time>2016-08-21T09:09:45Z</time>
      </trkpt>
      <trkpt lat="45.68773" lon="6.88878">
        <ele>2167.4294433594</ele>
        <time>2016-08-21T09:09:46Z</time>
      </trkpt>
      <trkpt lat="45.68795" lon="6.8887">
        <ele>2166.9489746094</ele>
        <time>2016-08-21T09:09:49Z</time>
      </trkpt>
      <trkpt lat="45.6882" lon="6.8887">
        <ele>2162.1423339844</ele>
        <time>2016-08-21T09:09:52Z</time>
      </trkpt>
      <trkpt lat="45.68841" lon="6.88873">
        <ele>2161.1811523438</ele>
        <time>2016-08-21T09:09:55Z</time>
      </trkpt>
      <trkpt lat="45.68868" lon="6.88883">
        <ele>2158.2971191406</ele>
        <time>2016-08-21T09:10:00Z</time>
      </trkpt>
      <trkpt lat="45.68876" lon="6.88888">
        <ele>2159.2585449219</ele>
        <time>2016-08-21T09:10:03Z</time>
      </trkpt>
      <trkpt lat="45.68885" lon="6.88894">
        <ele>2157.8166503906</ele>
        <time>2016-08-21T09:10:08Z</time>
      </trkpt>
      <trkpt lat="45.68905" lon="6.88904">
        <ele>2156.3745117188</ele>
        <time>2016-08-21T09:10:13Z</time>
      </trkpt>
      <trkpt lat="45.68929" lon="6.88919">
        <ele>2155.4130859375</ele>
        <time>2016-08-21T09:10:17Z</time>
      </trkpt>
      <trkpt lat="45.68967" lon="6.88943">
        <ele>2152.5290527344</ele>
        <time>2016-08-21T09:10:22Z</time>
      </trkpt>
      <trkpt lat="45.68974" lon="6.88947">
        <ele>2152.5290527344</ele>
        <time>2016-08-21T09:10:23Z</time>
      </trkpt>
      <trkpt lat="45.69001" lon="6.88963">
        <ele>2150.6064453125</ele>
        <time>2016-08-21T09:10:27Z</time>
      </trkpt>
      <trkpt lat="45.6902" lon="6.88987">
        <ele>2148.6838378906</ele>
        <time>2016-08-21T09:10:31Z</time>
      </trkpt>
      <trkpt lat="45.69025" lon="6.89003">
        <ele>2148.6838378906</ele>
        <time>2016-08-21T09:10:33Z</time>
      </trkpt>
      <trkpt lat="45.6903" lon="6.89041">
        <ele>2145.8000488281</ele>
        <time>2016-08-21T09:10:37Z</time>
      </trkpt>
      <trkpt lat="45.69032" lon="6.89097">
        <ele>2141.9548339844</ele>
        <time>2016-08-21T09:10:42Z</time>
      </trkpt>
      <trkpt lat="45.69033" lon="6.89107">
        <ele>2141.4741210938</ele>
        <time>2016-08-21T09:10:43Z</time>
      </trkpt>
      <trkpt lat="45.69038" lon="6.89123">
        <ele>2139.5512695312</ele>
        <time>2016-08-21T09:10:45Z</time>
      </trkpt>
      <trkpt lat="45.69047" lon="6.89136">
        <ele>2140.0322265625</ele>
        <time>2016-08-21T09:10:47Z</time>
      </trkpt>
      <trkpt lat="45.69077" lon="6.89158">
        <ele>2137.1479492188</ele>
        <time>2016-08-21T09:10:52Z</time>
      </trkpt>
      <trkpt lat="45.69089" lon="6.89163">
        <ele>2135.7060546875</ele>
        <time>2016-08-21T09:10:54Z</time>
      </trkpt>
      <trkpt lat="45.69107" lon="6.89158">
        <ele>2135.2253417969</ele>
        <time>2016-08-21T09:10:57Z</time>
      </trkpt>
      <trkpt lat="45.69116" lon="6.8914">
        <ele>2135.7060546875</ele>
        <time>2016-08-21T09:11:00Z</time>
      </trkpt>
      <trkpt lat="45.69114" lon="6.89117">
        <ele>2133.7834472656</ele>
        <time>2016-08-21T09:11:04Z</time>
      </trkpt>
      <trkpt lat="45.69107" lon="6.89095">
        <ele>2133.7834472656</ele>
        <time>2016-08-21T09:11:08Z</time>
      </trkpt>
      <trkpt lat="45.69104" lon="6.8908">
        <ele>2135.2253417969</ele>
        <time>2016-08-21T09:11:10Z</time>
      </trkpt>
      <trkpt lat="45.69099" lon="6.89064">
        <ele>2135.7060546875</ele>
        <time>2016-08-21T09:11:12Z</time>
      </trkpt>
      <trkpt lat="45.69095" lon="6.89026">
        <ele>2131.8608398438</ele>
        <time>2016-08-21T09:11:16Z</time>
      </trkpt>
      <trkpt lat="45.69092" lon="6.88975">
        <ele>2126.5737304688</ele>
        <time>2016-08-21T09:11:21Z</time>
      </trkpt>
      <trkpt lat="45.69091" lon="6.88965">
        <ele>2126.5737304688</ele>
        <time>2016-08-21T09:11:22Z</time>
      </trkpt>
      <trkpt lat="45.6909" lon="6.88955">
        <ele>2125.6123046875</ele>
        <time>2016-08-21T09:11:23Z</time>
      </trkpt>
      <trkpt lat="45.69087" lon="6.8894">
        <ele>2125.1315917969</ele>
        <time>2016-08-21T09:11:25Z</time>
      </trkpt>
      <trkpt lat="45.69089" lon="6.88924">
        <ele>2119.8442382812</ele>
        <time>2016-08-21T09:11:28Z</time>
      </trkpt>
      <trkpt lat="45.69093" lon="6.88923">
        <ele>2119.8442382812</ele>
        <time>2016-08-21T09:11:29Z</time>
      </trkpt>
      <trkpt lat="45.69102" lon="6.88929">
        <ele>2118.40234375</ele>
        <time>2016-08-21T09:11:31Z</time>
      </trkpt>
      <trkpt lat="45.69114" lon="6.88954">
        <ele>2116.4797363281</ele>
        <time>2016-08-21T09:11:34Z</time>
      </trkpt>
      <trkpt lat="45.69117" lon="6.88965">
        <ele>2116.4797363281</ele>
        <time>2016-08-21T09:11:35Z</time>
      </trkpt>
      <trkpt lat="45.69134" lon="6.89022">
        <ele>2113.115234375</ele>
        <time>2016-08-21T09:11:40Z</time>
      </trkpt>
      <trkpt lat="45.69154" lon="6.89063">
        <ele>2109.2700195312</ele>
        <time>2016-08-21T09:11:45Z</time>
      </trkpt>
      <trkpt lat="45.69164" lon="6.8907">
        <ele>2108.7893066406</ele>
        <time>2016-08-21T09:11:48Z</time>
      </trkpt>
      <trkpt lat="45.69166" lon="6.89057">
        <ele>2111.6733398438</ele>
        <time>2016-08-21T09:11:50Z</time>
      </trkpt>
      <trkpt lat="45.69165" lon="6.8905">
        <ele>2114.5571289062</ele>
        <time>2016-08-21T09:11:51Z</time>
      </trkpt>
      <trkpt lat="45.69162" lon="6.89036">
        <ele>2113.595703125</ele>
        <time>2016-08-21T09:11:53Z</time>
      </trkpt>
      <trkpt lat="45.69163" lon="6.89021">
        <ele>2106.3857421875</ele>
        <time>2016-08-21T09:11:55Z</time>
      </trkpt>
      <trkpt lat="45.69171" lon="6.89012">
        <ele>2104.4631347656</ele>
        <time>2016-08-21T09:11:57Z</time>
      </trkpt>
      <trkpt lat="45.69191" lon="6.89012">
        <ele>2102.0598144531</ele>
        <time>2016-08-21T09:12:00Z</time>
      </trkpt>
      <trkpt lat="45.69198" lon="6.89016">
        <ele>2102.0598144531</ele>
        <time>2016-08-21T09:12:01Z</time>
      </trkpt>
      <trkpt lat="45.69241" lon="6.89042">
        <ele>2100.1374511719</ele>
        <time>2016-08-21T09:12:06Z</time>
      </trkpt>
      <trkpt lat="45.69269" lon="6.89067">
        <ele>2096.2922363281</ele>
        <time>2016-08-21T09:12:09Z</time>
      </trkpt>
      <trkpt lat="45.69303" lon="6.89117">
        <ele>2094.3693847656</ele>
        <time>2016-08-21T09:12:13Z</time>
      </trkpt>
      <trkpt lat="45.69309" lon="6.89131">
        <ele>2093.8889160156</ele>
        <time>2016-08-21T09:12:14Z</time>
      </trkpt>
      <trkpt lat="45.69318" lon="6.89156">
        <ele>2091.9660644531</ele>
        <time>2016-08-21T09:12:16Z</time>
      </trkpt>
      <trkpt lat="45.69343" lon="6.89191">
        <ele>2090.0434570312</ele>
        <time>2016-08-21T09:12:20Z</time>
      </trkpt>
      <trkpt lat="45.6935" lon="6.89215">
        <ele>2091.9660644531</ele>
        <time>2016-08-21T09:12:22Z</time>
      </trkpt>
      <trkpt lat="45.69351" lon="6.89229">
        <ele>2091.9660644531</ele>
        <time>2016-08-21T09:12:23Z</time>
      </trkpt>
      <trkpt lat="45.69349" lon="6.89274">
        <ele>2086.1982421875</ele>
        <time>2016-08-21T09:12:26Z</time>
      </trkpt>
      <trkpt lat="45.69349" lon="6.89289">
        <ele>2086.6787109375</ele>
        <time>2016-08-21T09:12:27Z</time>
      </trkpt>
      <trkpt lat="45.69359" lon="6.89346">
        <ele>2085.7175292969</ele>
        <time>2016-08-21T09:12:31Z</time>
      </trkpt>
      <trkpt lat="45.6939" lon="6.89424">
        <ele>2080.4304199219</ele>
        <time>2016-08-21T09:12:37Z</time>
      </trkpt>
      <trkpt lat="45.69394" lon="6.89477">
        <ele>2080.9111328125</ele>
        <time>2016-08-21T09:12:41Z</time>
      </trkpt>
      <trkpt lat="45.69394" lon="6.89491">
        <ele>2079.4689941406</ele>
        <time>2016-08-21T09:12:42Z</time>
      </trkpt>
      <trkpt lat="45.69404" lon="6.89546">
        <ele>2076.1044921875</ele>
        <time>2016-08-21T09:12:46Z</time>
      </trkpt>
      <trkpt lat="45.69434" lon="6.89629">
        <ele>2075.6235351562</ele>
        <time>2016-08-21T09:12:52Z</time>
      </trkpt>
      <trkpt lat="45.69461" lon="6.89682">
        <ele>2073.7009277344</ele>
        <time>2016-08-21T09:12:56Z</time>
      </trkpt>
      <trkpt lat="45.69473" lon="6.8971">
        <ele>2071.2976074219</ele>
        <time>2016-08-21T09:12:58Z</time>
      </trkpt>
      <trkpt lat="45.69498" lon="6.89804">
        <ele>2070.3364257812</ele>
        <time>2016-08-21T09:13:04Z</time>
      </trkpt>
      <trkpt lat="45.69507" lon="6.89835">
        <ele>2067.4523925781</ele>
        <time>2016-08-21T09:13:06Z</time>
      </trkpt>
      <trkpt lat="45.69524" lon="6.89874">
        <ele>2065.0493164062</ele>
        <time>2016-08-21T09:13:09Z</time>
      </trkpt>
      <trkpt lat="45.69552" lon="6.89897">
        <ele>2062.1652832031</ele>
        <time>2016-08-21T09:13:12Z</time>
      </trkpt>
      <trkpt lat="45.69605" lon="6.89931">
        <ele>2061.2041015625</ele>
        <time>2016-08-21T09:13:17Z</time>
      </trkpt>
      <trkpt lat="45.69644" lon="6.89978">
        <ele>2060.7233886719</ele>
        <time>2016-08-21T09:13:21Z</time>
      </trkpt>
      <trkpt lat="45.69662" lon="6.90005">
        <ele>2062.1652832031</ele>
        <time>2016-08-21T09:13:23Z</time>
      </trkpt>
      <trkpt lat="45.69715" lon="6.90095">
        <ele>2060.7233886719</ele>
        <time>2016-08-21T09:13:30Z</time>
      </trkpt>
      <trkpt lat="45.69739" lon="6.90136">
        <ele>2061.2041015625</ele>
        <time>2016-08-21T09:13:34Z</time>
      </trkpt>
      <trkpt lat="45.69772" lon="6.90175">
        <ele>2056.3972167969</ele>
        <time>2016-08-21T09:13:39Z</time>
      </trkpt>
      <trkpt lat="45.69779" lon="6.90183">
        <ele>2056.3972167969</ele>
        <time>2016-08-21T09:13:40Z</time>
      </trkpt>
      <trkpt lat="45.69808" lon="6.90215">
        <ele>2053.0327148438</ele>
        <time>2016-08-21T09:13:44Z</time>
      </trkpt>
      <trkpt lat="45.69814" lon="6.90223">
        <ele>2053.5134277344</ele>
        <time>2016-08-21T09:13:45Z</time>
      </trkpt>
      <trkpt lat="45.69832" lon="6.9027">
        <ele>2051.5908203125</ele>
        <time>2016-08-21T09:13:49Z</time>
      </trkpt>
      <trkpt lat="45.69844" lon="6.90307">
        <ele>2050.6293945312</ele>
        <time>2016-08-21T09:13:52Z</time>
      </trkpt>
      <trkpt lat="45.69872" lon="6.90343">
        <ele>2047.7456054688</ele>
        <time>2016-08-21T09:13:56Z</time>
      </trkpt>
      <trkpt lat="45.69906" lon="6.90405">
        <ele>2042.4582519531</ele>
        <time>2016-08-21T09:14:01Z</time>
      </trkpt>
      <trkpt lat="45.69912" lon="6.90417">
        <ele>2042.4582519531</ele>
        <time>2016-08-21T09:14:02Z</time>
      </trkpt>
      <trkpt lat="45.69927" lon="6.90439">
        <ele>2039.57421875</ele>
        <time>2016-08-21T09:14:04Z</time>
      </trkpt>
      <trkpt lat="45.69933" lon="6.90449">
        <ele>2039.0935058594</ele>
        <time>2016-08-21T09:14:05Z</time>
      </trkpt>
      <trkpt lat="45.6995" lon="6.90501">
        <ele>2037.1708984375</ele>
        <time>2016-08-21T09:14:09Z</time>
      </trkpt>
      <trkpt lat="45.69974" lon="6.9057">
        <ele>2034.287109375</ele>
        <time>2016-08-21T09:14:14Z</time>
      </trkpt>
      <trkpt lat="45.69991" lon="6.90608">
        <ele>2031.4030761719</ele>
        <time>2016-08-21T09:14:17Z</time>
      </trkpt>
      <trkpt lat="45.70033" lon="6.90674">
        <ele>2028.0385742188</ele>
        <time>2016-08-21T09:14:23Z</time>
      </trkpt>
      <trkpt lat="45.7004" lon="6.90683">
        <ele>2028.0385742188</ele>
        <time>2016-08-21T09:14:24Z</time>
      </trkpt>
      <trkpt lat="45.70053" lon="6.907">
        <ele>2026.1157226562</ele>
        <time>2016-08-21T09:14:26Z</time>
      </trkpt>
      <trkpt lat="45.70079" lon="6.90706">
        <ele>2024.673828125</ele>
        <time>2016-08-21T09:14:30Z</time>
      </trkpt>
      <trkpt lat="45.7009" lon="6.90688">
        <ele>2023.7124023438</ele>
        <time>2016-08-21T09:14:32Z</time>
      </trkpt>
      <trkpt lat="45.70098" lon="6.90666">
        <ele>2022.7512207031</ele>
        <time>2016-08-21T09:14:34Z</time>
      </trkpt>
      <trkpt lat="45.70118" lon="6.90651">
        <ele>2020.8286132812</ele>
        <time>2016-08-21T09:14:37Z</time>
      </trkpt>
      <trkpt lat="45.70125" lon="6.90655">
        <ele>2019.8671875</ele>
        <time>2016-08-21T09:14:38Z</time>
      </trkpt>
      <trkpt lat="45.70141" lon="6.90662">
        <ele>2023.2319335938</ele>
        <time>2016-08-21T09:14:40Z</time>
      </trkpt>
      <trkpt lat="45.70149" lon="6.90665">
        <ele>2021.3090820312</ele>
        <time>2016-08-21T09:14:41Z</time>
      </trkpt>
      <trkpt lat="45.70177" lon="6.90654">
        <ele>2020.3479003906</ele>
        <time>2016-08-21T09:14:45Z</time>
      </trkpt>
      <trkpt lat="45.70189" lon="6.90646">
        <ele>2015.0607910156</ele>
        <time>2016-08-21T09:14:47Z</time>
      </trkpt>
      <trkpt lat="45.702" lon="6.90651">
        <ele>2013.6186523438</ele>
        <time>2016-08-21T09:14:49Z</time>
      </trkpt>
      <trkpt lat="45.70204" lon="6.90659">
        <ele>2012.6574707031</ele>
        <time>2016-08-21T09:14:50Z</time>
      </trkpt>
      <trkpt lat="45.70212" lon="6.90677">
        <ele>2009.2927246094</ele>
        <time>2016-08-21T09:14:52Z</time>
      </trkpt>
      <trkpt lat="45.7023" lon="6.90705">
        <ele>2005.9279785156</ele>
        <time>2016-08-21T09:14:55Z</time>
      </trkpt>
      <trkpt lat="45.70253" lon="6.90735">
        <ele>2002.5634765625</ele>
        <time>2016-08-21T09:14:58Z</time>
      </trkpt>
      <trkpt lat="45.7026" lon="6.90745">
        <ele>2003.0441894531</ele>
        <time>2016-08-21T09:14:59Z</time>
      </trkpt>
      <trkpt lat="45.7028" lon="6.90773">
        <ele>2001.6022949219</ele>
        <time>2016-08-21T09:15:02Z</time>
      </trkpt>
      <trkpt lat="45.70302" lon="6.90818">
        <ele>2001.1215820312</ele>
        <time>2016-08-21T09:15:06Z</time>
      </trkpt>
      <trkpt lat="45.70325" lon="6.9087">
        <ele>1995.353515625</ele>
        <time>2016-08-21T09:15:10Z</time>
      </trkpt>
      <trkpt lat="45.7033" lon="6.90883">
        <ele>1996.7956542969</ele>
        <time>2016-08-21T09:15:11Z</time>
      </trkpt>
      <trkpt lat="45.70342" lon="6.9091">
        <ele>1992.9501953125</ele>
        <time>2016-08-21T09:15:13Z</time>
      </trkpt>
      <trkpt lat="45.70371" lon="6.90972">
        <ele>1991.0275878906</ele>
        <time>2016-08-21T09:15:18Z</time>
      </trkpt>
      <trkpt lat="45.704" lon="6.91038">
        <ele>1989.5856933594</ele>
        <time>2016-08-21T09:15:23Z</time>
      </trkpt>
      <trkpt lat="45.70415" lon="6.91075">
        <ele>1985.259765625</ele>
        <time>2016-08-21T09:15:26Z</time>
      </trkpt>
      <trkpt lat="45.7042" lon="6.91088">
        <ele>1985.259765625</ele>
        <time>2016-08-21T09:15:27Z</time>
      </trkpt>
      <trkpt lat="45.70445" lon="6.91141">
        <ele>1983.3371582031</ele>
        <time>2016-08-21T09:15:31Z</time>
      </trkpt>
      <trkpt lat="45.70461" lon="6.91171">
        <ele>1981.4145507812</ele>
        <time>2016-08-21T09:15:34Z</time>
      </trkpt>
      <trkpt lat="45.70477" lon="6.9118">
        <ele>1979.4916992188</ele>
        <time>2016-08-21T09:15:37Z</time>
      </trkpt>
      <trkpt lat="45.70496" lon="6.91163">
        <ele>1979.0109863281</ele>
        <time>2016-08-21T09:15:40Z</time>
      </trkpt>
      <trkpt lat="45.70513" lon="6.91159">
        <ele>1976.6079101562</ele>
        <time>2016-08-21T09:15:42Z</time>
      </trkpt>
      <trkpt lat="45.70538" lon="6.91176">
        <ele>1975.646484375</ele>
        <time>2016-08-21T09:15:45Z</time>
      </trkpt>
      <trkpt lat="45.70553" lon="6.91201">
        <ele>1973.2434082031</ele>
        <time>2016-08-21T09:15:48Z</time>
      </trkpt>
      <trkpt lat="45.70562" lon="6.91221">
        <ele>1971.3205566406</ele>
        <time>2016-08-21T09:15:50Z</time>
      </trkpt>
      <trkpt lat="45.70567" lon="6.91231">
        <ele>1970.359375</ele>
        <time>2016-08-21T09:15:51Z</time>
      </trkpt>
      <trkpt lat="45.70599" lon="6.91272">
        <ele>1967.9560546875</ele>
        <time>2016-08-21T09:15:56Z</time>
      </trkpt>
      <trkpt lat="45.70612" lon="6.91283">
        <ele>1967.4753417969</ele>
        <time>2016-08-21T09:15:58Z</time>
      </trkpt>
      <trkpt lat="45.70638" lon="6.91282">
        <ele>1966.5141601562</ele>
        <time>2016-08-21T09:16:02Z</time>
      </trkpt>
      <trkpt lat="45.70675" lon="6.91268">
        <ele>1966.0334472656</ele>
        <time>2016-08-21T09:16:07Z</time>
      </trkpt>
      <trkpt lat="45.70696" lon="6.91247">
        <ele>1962.6687011719</ele>
        <time>2016-08-21T09:16:10Z</time>
      </trkpt>
      <trkpt lat="45.70703" lon="6.9124">
        <ele>1962.6687011719</ele>
        <time>2016-08-21T09:16:11Z</time>
      </trkpt>
      <trkpt lat="45.7072" lon="6.91228">
        <ele>1962.1879882812</ele>
        <time>2016-08-21T09:16:13Z</time>
      </trkpt>
      <trkpt lat="45.70739" lon="6.9122">
        <ele>1960.74609375</ele>
        <time>2016-08-21T09:16:15Z</time>
      </trkpt>
      <trkpt lat="45.70756" lon="6.9121">
        <ele>1959.3041992188</ele>
        <time>2016-08-21T09:16:17Z</time>
      </trkpt>
      <trkpt lat="45.7078" lon="6.91174">
        <ele>1957.3815917969</ele>
        <time>2016-08-21T09:16:21Z</time>
      </trkpt>
      <trkpt lat="45.70808" lon="6.91118">
        <ele>1955.458984375</ele>
        <time>2016-08-21T09:16:26Z</time>
      </trkpt>
      <trkpt lat="45.70823" lon="6.91072">
        <ele>1949.6911621094</ele>
        <time>2016-08-21T09:16:30Z</time>
      </trkpt>
      <trkpt lat="45.70829" lon="6.91052">
        <ele>1946.8068847656</ele>
        <time>2016-08-21T09:16:33Z</time>
      </trkpt>
      <trkpt lat="45.7083" lon="6.91054">
        <ele>1946.8068847656</ele>
        <time>2016-08-21T09:16:34Z</time>
      </trkpt>
      <trkpt lat="45.70828" lon="6.91082">
        <ele>1947.2875976562</ele>
        <time>2016-08-21T09:16:38Z</time>
      </trkpt>
      <trkpt lat="45.70815" lon="6.91133">
        <ele>1945.845703125</ele>
        <time>2016-08-21T09:16:43Z</time>
      </trkpt>
      <trkpt lat="45.70794" lon="6.91191">
        <ele>1944.4035644531</ele>
        <time>2016-08-21T09:16:48Z</time>
      </trkpt>
      <trkpt lat="45.70778" lon="6.91227">
        <ele>1940.5583496094</ele>
        <time>2016-08-21T09:16:51Z</time>
      </trkpt>
      <trkpt lat="45.70769" lon="6.91249">
        <ele>1938.6359863281</ele>
        <time>2016-08-21T09:16:53Z</time>
      </trkpt>
      <trkpt lat="45.7076" lon="6.9127">
        <ele>1938.1552734375</ele>
        <time>2016-08-21T09:16:55Z</time>
      </trkpt>
      <trkpt lat="45.70748" lon="6.91288">
        <ele>1937.1938476562</ele>
        <time>2016-08-21T09:16:57Z</time>
      </trkpt>
      <trkpt lat="45.7074" lon="6.91297">
        <ele>1937.1938476562</ele>
        <time>2016-08-21T09:16:58Z</time>
      </trkpt>
      <trkpt lat="45.70716" lon="6.91338">
        <ele>1935.751953125</ele>
        <time>2016-08-21T09:17:02Z</time>
      </trkpt>
      <trkpt lat="45.70708" lon="6.9137">
        <ele>1929.5031738281</ele>
        <time>2016-08-21T09:17:05Z</time>
      </trkpt>
      <trkpt lat="45.70707" lon="6.9138">
        <ele>1929.5031738281</ele>
        <time>2016-08-21T09:17:06Z</time>
      </trkpt>
      <trkpt lat="45.70707" lon="6.91399">
        <ele>1928.0612792969</ele>
        <time>2016-08-21T09:17:08Z</time>
      </trkpt>
      <trkpt lat="45.70704" lon="6.91438">
        <ele>1925.1772460938</ele>
        <time>2016-08-21T09:17:12Z</time>
      </trkpt>
      <trkpt lat="45.70699" lon="6.91445">
        <ele>1925.1772460938</ele>
        <time>2016-08-21T09:17:13Z</time>
      </trkpt>
      <trkpt lat="45.70685" lon="6.91468">
        <ele>1922.2934570312</ele>
        <time>2016-08-21T09:17:16Z</time>
      </trkpt>
      <trkpt lat="45.70684" lon="6.91477">
        <ele>1922.2934570312</ele>
        <time>2016-08-21T09:17:17Z</time>
      </trkpt>
      <trkpt lat="45.70687" lon="6.91492">
        <ele>1920.3708496094</ele>
        <time>2016-08-21T09:17:19Z</time>
      </trkpt>
      <trkpt lat="45.70699" lon="6.91498">
        <ele>1919.8901367188</ele>
        <time>2016-08-21T09:17:22Z</time>
      </trkpt>
      <trkpt lat="45.70701" lon="6.91498">
        <ele>1918.4482421875</ele>
        <time>2016-08-21T09:17:23Z</time>
      </trkpt>
      <trkpt lat="45.70708" lon="6.91495">
        <ele>1917.9675292969</ele>
        <time>2016-08-21T09:17:30Z</time>
      </trkpt>
      <trkpt lat="45.70709" lon="6.91495">
        <ele>1919.8901367188</ele>
        <time>2016-08-21T09:17:36Z</time>
      </trkpt>
      <trkpt lat="45.70709" lon="6.91494">
        <ele>1917.9675292969</ele>
        <time>2016-08-21T09:17:47Z</time>
      </trkpt>
      <trkpt lat="45.70715" lon="6.91484">
        <ele>1917.9675292969</ele>
        <time>2016-08-21T09:17:52Z</time>
      </trkpt>
      <trkpt lat="45.70723" lon="6.91446">
        <ele>1918.4482421875</ele>
        <time>2016-08-21T09:17:58Z</time>
      </trkpt>
      <trkpt lat="45.70731" lon="6.91413">
        <ele>1914.6027832031</ele>
        <time>2016-08-21T09:18:02Z</time>
      </trkpt>
      <trkpt lat="45.7074" lon="6.91397">
        <ele>1914.6027832031</ele>
        <time>2016-08-21T09:18:04Z</time>
      </trkpt>
      <trkpt lat="45.70757" lon="6.91373">
        <ele>1912.1994628906</ele>
        <time>2016-08-21T09:18:07Z</time>
      </trkpt>
      <trkpt lat="45.70798" lon="6.91346">
        <ele>1913.6413574219</ele>
        <time>2016-08-21T09:18:12Z</time>
      </trkpt>
      <trkpt lat="45.7082" lon="6.91322">
        <ele>1908.8349609375</ele>
        <time>2016-08-21T09:18:15Z</time>
      </trkpt>
      <trkpt lat="45.70826" lon="6.91313">
        <ele>1909.3156738281</ele>
        <time>2016-08-21T09:18:16Z</time>
      </trkpt>
      <trkpt lat="45.70836" lon="6.91294">
        <ele>1908.8349609375</ele>
        <time>2016-08-21T09:18:18Z</time>
      </trkpt>
      <trkpt lat="45.70844" lon="6.91273">
        <ele>1906.431640625</ele>
        <time>2016-08-21T09:18:20Z</time>
      </trkpt>
      <trkpt lat="45.70868" lon="6.9123">
        <ele>1904.0285644531</ele>
        <time>2016-08-21T09:18:24Z</time>
      </trkpt>
      <trkpt lat="45.709" lon="6.91191">
        <ele>1900.6638183594</ele>
        <time>2016-08-21T09:18:28Z</time>
      </trkpt>
      <trkpt lat="45.70916" lon="6.91172">
        <ele>1899.2216796875</ele>
        <time>2016-08-21T09:18:30Z</time>
      </trkpt>
      <trkpt lat="45.70927" lon="6.91152">
        <ele>1896.337890625</ele>
        <time>2016-08-21T09:18:32Z</time>
      </trkpt>
      <trkpt lat="45.70933" lon="6.91126">
        <ele>1895.3764648438</ele>
        <time>2016-08-21T09:18:34Z</time>
      </trkpt>
      <trkpt lat="45.70941" lon="6.91038">
        <ele>1894.8957519531</ele>
        <time>2016-08-21T09:18:40Z</time>
      </trkpt>
      <trkpt lat="45.70946" lon="6.90985">
        <ele>1892.4926757812</ele>
        <time>2016-08-21T09:18:44Z</time>
      </trkpt>
      <trkpt lat="45.70944" lon="6.90952">
        <ele>1887.2053222656</ele>
        <time>2016-08-21T09:18:47Z</time>
      </trkpt>
      <trkpt lat="45.7095" lon="6.90926">
        <ele>1883.8405761719</ele>
        <time>2016-08-21T09:18:50Z</time>
      </trkpt>
      <trkpt lat="45.70963" lon="6.90931">
        <ele>1882.3986816406</ele>
        <time>2016-08-21T09:18:52Z</time>
      </trkpt>
      <trkpt lat="45.7097" lon="6.90949">
        <ele>1880.9567871094</ele>
        <time>2016-08-21T09:18:54Z</time>
      </trkpt>
      <trkpt lat="45.7097" lon="6.90971">
        <ele>1880.4760742188</ele>
        <time>2016-08-21T09:18:56Z</time>
      </trkpt>
      <trkpt lat="45.70964" lon="6.91056">
        <ele>1878.5534667969</ele>
        <time>2016-08-21T09:19:03Z</time>
      </trkpt>
      <trkpt lat="45.7096" lon="6.91133">
        <ele>1878.5534667969</ele>
        <time>2016-08-21T09:19:09Z</time>
      </trkpt>
      <trkpt lat="45.7096" lon="6.91144">
        <ele>1877.5920410156</ele>
        <time>2016-08-21T09:19:10Z</time>
      </trkpt>
      <trkpt lat="45.70964" lon="6.91165">
        <ele>1875.6694335938</ele>
        <time>2016-08-21T09:19:12Z</time>
      </trkpt>
      <trkpt lat="45.7098" lon="6.91202">
        <ele>1872.7856445312</ele>
        <time>2016-08-21T09:19:16Z</time>
      </trkpt>
      <trkpt lat="45.70992" lon="6.91229">
        <ele>1871.3435058594</ele>
        <time>2016-08-21T09:19:19Z</time>
      </trkpt>
      <trkpt lat="45.71" lon="6.91247">
        <ele>1870.3823242188</ele>
        <time>2016-08-21T09:19:21Z</time>
      </trkpt>
      <trkpt lat="45.71002" lon="6.91284">
        <ele>1870.3823242188</ele>
        <time>2016-08-21T09:19:25Z</time>
      </trkpt>
      <trkpt lat="45.70999" lon="6.91293">
        <ele>1870.8630371094</ele>
        <time>2016-08-21T09:19:26Z</time>
      </trkpt>
      <trkpt lat="45.70988" lon="6.91319">
        <ele>1871.3435058594</ele>
        <time>2016-08-21T09:19:29Z</time>
      </trkpt>
      <trkpt lat="45.70972" lon="6.91383">
        <ele>1869.4211425781</ele>
        <time>2016-08-21T09:19:36Z</time>
      </trkpt>
      <trkpt lat="45.70953" lon="6.91451">
        <ele>1866.5368652344</ele>
        <time>2016-08-21T09:19:43Z</time>
      </trkpt>
      <trkpt lat="45.70929" lon="6.91512">
        <ele>1865.0949707031</ele>
        <time>2016-08-21T09:19:49Z</time>
      </trkpt>
      <trkpt lat="45.70922" lon="6.91533">
        <ele>1863.1723632812</ele>
        <time>2016-08-21T09:19:52Z</time>
      </trkpt>
      <trkpt lat="45.7092" lon="6.91537">
        <ele>1862.6916503906</ele>
        <time>2016-08-21T09:19:53Z</time>
      </trkpt>
      <trkpt lat="45.70911" lon="6.91546">
        <ele>1861.73046875</ele>
        <time>2016-08-21T09:19:58Z</time>
      </trkpt>
      <trkpt lat="45.7091" lon="6.91546">
        <ele>1861.73046875</ele>
        <time>2016-08-21T09:20:04Z</time>
      </trkpt>
      <trkpt lat="45.70911" lon="6.91545">
        <ele>1864.1335449219</ele>
        <time>2016-08-21T09:20:20Z</time>
      </trkpt>
      <trkpt lat="45.70912" lon="6.91544">
        <ele>1861.73046875</ele>
        <time>2016-08-21T09:20:50Z</time>
      </trkpt>
      <trkpt lat="45.70912" lon="6.91544">
        <ele>1861.2497558594</ele>
        <time>2016-08-21T09:20:53Z</time>
      </trkpt>
      <trkpt lat="45.7092" lon="6.91546">
        <ele>1861.2497558594</ele>
        <time>2016-08-21T09:20:58Z</time>
      </trkpt>
      <trkpt lat="45.70923" lon="6.9154">
        <ele>1862.2109375</ele>
        <time>2016-08-21T09:21:00Z</time>
      </trkpt>
      <trkpt lat="45.70924" lon="6.91537">
        <ele>1861.2497558594</ele>
        <time>2016-08-21T09:21:01Z</time>
      </trkpt>
      <trkpt lat="45.70932" lon="6.91516">
        <ele>1861.2497558594</ele>
        <time>2016-08-21T09:21:07Z</time>
      </trkpt>
      <trkpt lat="45.70942" lon="6.91487">
        <ele>1862.6916503906</ele>
        <time>2016-08-21T09:21:14Z</time>
      </trkpt>
      <trkpt lat="45.70954" lon="6.91458">
        <ele>1865.0949707031</ele>
        <time>2016-08-21T09:21:21Z</time>
      </trkpt>
      <trkpt lat="45.70967" lon="6.91421">
        <ele>1867.017578125</ele>
        <time>2016-08-21T09:21:30Z</time>
      </trkpt>
      <trkpt lat="45.70973" lon="6.914">
        <ele>1865.5756835938</ele>
        <time>2016-08-21T09:21:36Z</time>
      </trkpt>
      <trkpt lat="45.70978" lon="6.91375">
        <ele>1868.4597167969</ele>
        <time>2016-08-21T09:21:41Z</time>
      </trkpt>
      <trkpt lat="45.70979" lon="6.9137">
        <ele>1867.9787597656</ele>
        <time>2016-08-21T09:21:42Z</time>
      </trkpt>
      <trkpt lat="45.70988" lon="6.91333">
        <ele>1867.498046875</ele>
        <time>2016-08-21T09:21:49Z</time>
      </trkpt>
      <trkpt lat="45.71002" lon="6.91294">
        <ele>1869.4211425781</ele>
        <time>2016-08-21T09:21:57Z</time>
      </trkpt>
      <trkpt lat="45.71011" lon="6.91261">
        <ele>1870.3823242188</ele>
        <time>2016-08-21T09:22:04Z</time>
      </trkpt>
      <trkpt lat="45.71004" lon="6.91236">
        <ele>1870.8630371094</ele>
        <time>2016-08-21T09:22:09Z</time>
      </trkpt>
      <trkpt lat="45.70995" lon="6.91217">
        <ele>1871.82421875</ele>
        <time>2016-08-21T09:22:13Z</time>
      </trkpt>
      <trkpt lat="45.70981" lon="6.91188">
        <ele>1872.7856445312</ele>
        <time>2016-08-21T09:22:19Z</time>
      </trkpt>
      <trkpt lat="45.70968" lon="6.91158">
        <ele>1873.2663574219</ele>
        <time>2016-08-21T09:22:25Z</time>
      </trkpt>
      <trkpt lat="45.70965" lon="6.91134">
        <ele>1873.7468261719</ele>
        <time>2016-08-21T09:22:29Z</time>
      </trkpt>
      <trkpt lat="45.70966" lon="6.9111">
        <ele>1875.6694335938</ele>
        <time>2016-08-21T09:22:33Z</time>
      </trkpt>
      <trkpt lat="45.70967" lon="6.91063">
        <ele>1877.5920410156</ele>
        <time>2016-08-21T09:22:41Z</time>
      </trkpt>
      <trkpt lat="45.70969" lon="6.91015">
        <ele>1881.4372558594</ele>
        <time>2016-08-21T09:22:50Z</time>
      </trkpt>
      <trkpt lat="45.70972" lon="6.90971">
        <ele>1879.5146484375</ele>
        <time>2016-08-21T09:22:59Z</time>
      </trkpt>
      <trkpt lat="45.70971" lon="6.90945">
        <ele>1882.8791503906</ele>
        <time>2016-08-21T09:23:04Z</time>
      </trkpt>
      <trkpt lat="45.70968" lon="6.90932">
        <ele>1880.4760742188</ele>
        <time>2016-08-21T09:23:07Z</time>
      </trkpt>
      <trkpt lat="45.70957" lon="6.90923">
        <ele>1881.91796875</ele>
        <time>2016-08-21T09:23:11Z</time>
      </trkpt>
      <trkpt lat="45.70944" lon="6.9093">
        <ele>1881.4372558594</ele>
        <time>2016-08-21T09:23:15Z</time>
      </trkpt>
      <trkpt lat="45.70941" lon="6.90945">
        <ele>1882.8791503906</ele>
        <time>2016-08-21T09:23:18Z</time>
      </trkpt>
      <trkpt lat="45.70941" lon="6.90986">
        <ele>1883.3598632812</ele>
        <time>2016-08-21T09:23:26Z</time>
      </trkpt>
      <trkpt lat="45.70938" lon="6.91026">
        <ele>1885.7634277344</ele>
        <time>2016-08-21T09:23:34Z</time>
      </trkpt>
      <trkpt lat="45.70935" lon="6.91064">
        <ele>1886.244140625</ele>
        <time>2016-08-21T09:23:42Z</time>
      </trkpt>
      <trkpt lat="45.70933" lon="6.91087">
        <ele>1887.6860351562</ele>
        <time>2016-08-21T09:23:47Z</time>
      </trkpt>
      <trkpt lat="45.70929" lon="6.91125">
        <ele>1888.6474609375</ele>
        <time>2016-08-21T09:23:55Z</time>
      </trkpt>
      <trkpt lat="45.70921" lon="6.91159">
        <ele>1889.1279296875</ele>
        <time>2016-08-21T09:24:03Z</time>
      </trkpt>
      <trkpt lat="45.70903" lon="6.91184">
        <ele>1890.5698242188</ele>
        <time>2016-08-21T09:24:11Z</time>
      </trkpt>
      <trkpt lat="45.70884" lon="6.91208">
        <ele>1894.4150390625</ele>
        <time>2016-08-21T09:24:19Z</time>
      </trkpt>
      <trkpt lat="45.70881" lon="6.91211">
        <ele>1894.4150390625</ele>
        <time>2016-08-21T09:24:20Z</time>
      </trkpt>
      <trkpt lat="45.7086" lon="6.91237">
        <ele>1895.8571777344</ele>
        <time>2016-08-21T09:24:29Z</time>
      </trkpt>
      <trkpt lat="45.70847" lon="6.91262">
        <ele>1897.7797851562</ele>
        <time>2016-08-21T09:24:36Z</time>
      </trkpt>
      <trkpt lat="45.70844" lon="6.9127">
        <ele>1898.7409667969</ele>
        <time>2016-08-21T09:24:38Z</time>
      </trkpt>
      <trkpt lat="45.70841" lon="6.91277">
        <ele>1899.7023925781</ele>
        <time>2016-08-21T09:24:40Z</time>
      </trkpt>
      <trkpt lat="45.70823" lon="6.91315">
        <ele>1901.14453125</ele>
        <time>2016-08-21T09:24:50Z</time>
      </trkpt>
      <trkpt lat="45.70805" lon="6.91339">
        <ele>1903.5478515625</ele>
        <time>2016-08-21T09:24:58Z</time>
      </trkpt>
      <trkpt lat="45.70787" lon="6.91351">
        <ele>1905.4704589844</ele>
        <time>2016-08-21T09:25:05Z</time>
      </trkpt>
      <trkpt lat="45.70768" lon="6.91361">
        <ele>1907.3930664062</ele>
        <time>2016-08-21T09:25:13Z</time>
      </trkpt>
      <trkpt lat="45.70758" lon="6.91371">
        <ele>1906.9123535156</ele>
        <time>2016-08-21T09:25:21Z</time>
      </trkpt>
      <trkpt lat="45.70757" lon="6.91371">
        <ele>1906.9123535156</ele>
        <time>2016-08-21T09:25:29Z</time>
      </trkpt>
      <trkpt lat="45.70758" lon="6.9137">
        <ele>1907.8737792969</ele>
        <time>2016-08-21T09:25:37Z</time>
      </trkpt>
      <trkpt lat="45.70758" lon="6.9137">
        <ele>1906.9123535156</ele>
        <time>2016-08-21T09:25:42Z</time>
      </trkpt>
      <trkpt lat="45.70758" lon="6.9137">
        <ele>1906.431640625</ele>
        <time>2016-08-21T09:25:46Z</time>
      </trkpt>
      <trkpt lat="45.70757" lon="6.91373">
        <ele>1907.3930664062</ele>
        <time>2016-08-21T09:25:48Z</time>
      </trkpt>
      <trkpt lat="45.70748" lon="6.91386">
        <ele>1908.3542480469</ele>
        <time>2016-08-21T09:25:53Z</time>
      </trkpt>
      <trkpt lat="45.70734" lon="6.91408">
        <ele>1910.7575683594</ele>
        <time>2016-08-21T09:25:59Z</time>
      </trkpt>
      <trkpt lat="45.70723" lon="6.9144">
        <ele>1912.1994628906</ele>
        <time>2016-08-21T09:26:06Z</time>
      </trkpt>
      <trkpt lat="45.70716" lon="6.91478">
        <ele>1912.6801757812</ele>
        <time>2016-08-21T09:26:14Z</time>
      </trkpt>
      <trkpt lat="45.70712" lon="6.91487">
        <ele>1914.1220703125</ele>
        <time>2016-08-21T09:26:16Z</time>
      </trkpt>
      <trkpt lat="45.70709" lon="6.9149">
        <ele>1915.5642089844</ele>
        <time>2016-08-21T09:26:17Z</time>
      </trkpt>
      <trkpt lat="45.70699" lon="6.91494">
        <ele>1916.5256347656</ele>
        <time>2016-08-21T09:26:20Z</time>
      </trkpt>
      <trkpt lat="45.70688" lon="6.91479">
        <ele>1917.9675292969</ele>
        <time>2016-08-21T09:26:24Z</time>
      </trkpt>
      <trkpt lat="45.70692" lon="6.91463">
        <ele>1918.4482421875</ele>
        <time>2016-08-21T09:26:27Z</time>
      </trkpt>
      <trkpt lat="45.70698" lon="6.91455">
        <ele>1918.9289550781</ele>
        <time>2016-08-21T09:26:29Z</time>
      </trkpt>
      <trkpt lat="45.70713" lon="6.91428">
        <ele>1922.2934570312</ele>
        <time>2016-08-21T09:26:35Z</time>
      </trkpt>
      <trkpt lat="45.70713" lon="6.91422">
        <ele>1921.8127441406</ele>
        <time>2016-08-21T09:26:36Z</time>
      </trkpt>
      <trkpt lat="45.70713" lon="6.91416">
        <ele>1921.8127441406</ele>
        <time>2016-08-21T09:26:37Z</time>
      </trkpt>
      <trkpt lat="45.70712" lon="6.91362">
        <ele>1924.2160644531</ele>
        <time>2016-08-21T09:26:46Z</time>
      </trkpt>
      <trkpt lat="45.70721" lon="6.91331">
        <ele>1925.6579589844</ele>
        <time>2016-08-21T09:26:52Z</time>
      </trkpt>
      <trkpt lat="45.70745" lon="6.91292">
        <ele>1928.0612792969</ele>
        <time>2016-08-21T09:27:01Z</time>
      </trkpt>
      <trkpt lat="45.70755" lon="6.91282">
        <ele>1929.0224609375</ele>
        <time>2016-08-21T09:27:04Z</time>
      </trkpt>
      <trkpt lat="45.70772" lon="6.91248">
        <ele>1930.9453125</ele>
        <time>2016-08-21T09:27:11Z</time>
      </trkpt>
      <trkpt lat="45.70781" lon="6.91228">
        <ele>1931.9064941406</ele>
        <time>2016-08-21T09:27:15Z</time>
      </trkpt>
      <trkpt lat="45.70791" lon="6.91203">
        <ele>1935.751953125</ele>
        <time>2016-08-21T09:27:20Z</time>
      </trkpt>
      <trkpt lat="45.70809" lon="6.91158">
        <ele>1936.7131347656</ele>
        <time>2016-08-21T09:27:29Z</time>
      </trkpt>
      <trkpt lat="45.70821" lon="6.91122">
        <ele>1938.6359863281</ele>
        <time>2016-08-21T09:27:36Z</time>
      </trkpt>
      <trkpt lat="45.70831" lon="6.91084">
        <ele>1940.5583496094</ele>
        <time>2016-08-21T09:27:43Z</time>
      </trkpt>
      <trkpt lat="45.70835" lon="6.91063">
        <ele>1941.0390625</ele>
        <time>2016-08-21T09:27:47Z</time>
      </trkpt>
      <trkpt lat="45.70824" lon="6.91054">
        <ele>1942.0004882812</ele>
        <time>2016-08-21T09:27:51Z</time>
      </trkpt>
      <trkpt lat="45.70819" lon="6.91064">
        <ele>1942.9616699219</ele>
        <time>2016-08-21T09:27:53Z</time>
      </trkpt>
      <trkpt lat="45.70817" lon="6.9107">
        <ele>1943.4423828125</ele>
        <time>2016-08-21T09:27:54Z</time>
      </trkpt>
      <trkpt lat="45.70811" lon="6.91096">
        <ele>1944.4035644531</ele>
        <time>2016-08-21T09:27:58Z</time>
      </trkpt>
      <trkpt lat="45.70801" lon="6.9112">
        <ele>1945.845703125</ele>
        <time>2016-08-21T09:28:02Z</time>
      </trkpt>
      <trkpt lat="45.70782" lon="6.91156">
        <ele>1947.7683105469</ele>
        <time>2016-08-21T09:28:09Z</time>
      </trkpt>
      <trkpt lat="45.70766" lon="6.91186">
        <ele>1948.7297363281</ele>
        <time>2016-08-21T09:28:16Z</time>
      </trkpt>
      <trkpt lat="45.70749" lon="6.91209">
        <ele>1950.171875</ele>
        <time>2016-08-21T09:28:22Z</time>
      </trkpt>
      <trkpt lat="45.70738" lon="6.91216">
        <ele>1951.6137695312</ele>
        <time>2016-08-21T09:28:25Z</time>
      </trkpt>
      <trkpt lat="45.7073" lon="6.91219">
        <ele>1953.0556640625</ele>
        <time>2016-08-21T09:28:27Z</time>
      </trkpt>
      <trkpt lat="45.70723" lon="6.91222">
        <ele>1954.4975585938</ele>
        <time>2016-08-21T09:28:29Z</time>
      </trkpt>
      <trkpt lat="45.70697" lon="6.91235">
        <ele>1956.4201660156</ele>
        <time>2016-08-21T09:28:36Z</time>
      </trkpt>
      <trkpt lat="45.70681" lon="6.91254">
        <ele>1957.8623046875</ele>
        <time>2016-08-21T09:28:41Z</time>
      </trkpt>
      <trkpt lat="45.70663" lon="6.91265">
        <ele>1957.8623046875</ele>
        <time>2016-08-21T09:28:46Z</time>
      </trkpt>
      <trkpt lat="45.70645" lon="6.91269">
        <ele>1960.2653808594</ele>
        <time>2016-08-21T09:28:51Z</time>
      </trkpt>
      <trkpt lat="45.70617" lon="6.9128">
        <ele>1963.6298828125</ele>
        <time>2016-08-21T09:28:59Z</time>
      </trkpt>
      <trkpt lat="45.70597" lon="6.91264">
        <ele>1963.6298828125</ele>
        <time>2016-08-21T09:29:06Z</time>
      </trkpt>
      <trkpt lat="45.70592" lon="6.91259">
        <ele>1965.5529785156</ele>
        <time>2016-08-21T09:29:08Z</time>
      </trkpt>
      <trkpt lat="45.70575" lon="6.9124">
        <ele>1965.072265625</ele>
        <time>2016-08-21T09:29:15Z</time>
      </trkpt>
      <trkpt lat="45.7056" lon="6.91213">
        <ele>1966.9948730469</ele>
        <time>2016-08-21T09:29:23Z</time>
      </trkpt>
      <trkpt lat="45.70559" lon="6.91209">
        <ele>1966.9948730469</ele>
        <time>2016-08-21T09:29:24Z</time>
      </trkpt>
      <trkpt lat="45.70542" lon="6.91177">
        <ele>1969.3981933594</ele>
        <time>2016-08-21T09:29:33Z</time>
      </trkpt>
      <trkpt lat="45.70524" lon="6.91158">
        <ele>1970.359375</ele>
        <time>2016-08-21T09:29:40Z</time>
      </trkpt>
      <trkpt lat="45.70503" lon="6.9115">
        <ele>1973.7238769531</ele>
        <time>2016-08-21T09:29:47Z</time>
      </trkpt>
      <trkpt lat="45.70497" lon="6.91152">
        <ele>1974.6853027344</ele>
        <time>2016-08-21T09:29:49Z</time>
      </trkpt>
      <trkpt lat="45.70484" lon="6.91166">
        <ele>1979.0109863281</ele>
        <time>2016-08-21T09:29:54Z</time>
      </trkpt>
      <trkpt lat="45.70482" lon="6.91168">
        <ele>1977.5690917969</ele>
        <time>2016-08-21T09:29:55Z</time>
      </trkpt>
      <trkpt lat="45.70477" lon="6.91171">
        <ele>1976.1271972656</ele>
        <time>2016-08-21T09:29:57Z</time>
      </trkpt>
      <trkpt lat="45.70471" lon="6.91171">
        <ele>1980.4533691406</ele>
        <time>2016-08-21T09:29:59Z</time>
      </trkpt>
      <trkpt lat="45.70469" lon="6.9117">
        <ele>1980.4533691406</ele>
        <time>2016-08-21T09:30:00Z</time>
      </trkpt>
      <trkpt lat="45.70459" lon="6.91157">
        <ele>1980.4533691406</ele>
        <time>2016-08-21T09:30:05Z</time>
      </trkpt>
      <trkpt lat="45.70444" lon="6.91132">
        <ele>1979.9724121094</ele>
        <time>2016-08-21T09:30:13Z</time>
      </trkpt>
      <trkpt lat="45.70435" lon="6.91116">
        <ele>1981.8952636719</ele>
        <time>2016-08-21T09:30:18Z</time>
      </trkpt>
      <trkpt lat="45.70429" lon="6.91103">
        <ele>1983.8178710938</ele>
        <time>2016-08-21T09:30:22Z</time>
      </trkpt>
      <trkpt lat="45.70423" lon="6.91087">
        <ele>1984.2985839844</ele>
        <time>2016-08-21T09:30:27Z</time>
      </trkpt>
      <trkpt lat="45.70415" lon="6.91067">
        <ele>1983.8178710938</ele>
        <time>2016-08-21T09:30:33Z</time>
      </trkpt>
      <trkpt lat="45.70405" lon="6.91041">
        <ele>1985.259765625</ele>
        <time>2016-08-21T09:30:41Z</time>
      </trkpt>
      <trkpt lat="45.70395" lon="6.91017">
        <ele>1989.5856933594</ele>
        <time>2016-08-21T09:30:48Z</time>
      </trkpt>
      <trkpt lat="45.70392" lon="6.91007">
        <ele>1987.1823730469</ele>
        <time>2016-08-21T09:30:51Z</time>
      </trkpt>
      <trkpt lat="45.70379" lon="6.90982">
        <ele>1987.1823730469</ele>
        <time>2016-08-21T09:30:59Z</time>
      </trkpt>
      <trkpt lat="45.70371" lon="6.90965">
        <ele>1990.546875</ele>
        <time>2016-08-21T09:31:04Z</time>
      </trkpt>
      <trkpt lat="45.70358" lon="6.90938">
        <ele>1991.0275878906</ele>
        <time>2016-08-21T09:31:12Z</time>
      </trkpt>
      <trkpt lat="45.70346" lon="6.90913">
        <ele>1990.06640625</ele>
        <time>2016-08-21T09:31:20Z</time>
      </trkpt>
      <trkpt lat="45.70338" lon="6.90893">
        <ele>1991.0275878906</ele>
        <time>2016-08-21T09:31:26Z</time>
      </trkpt>
      <trkpt lat="45.70327" lon="6.90868">
        <ele>1991.5083007812</ele>
        <time>2016-08-21T09:31:34Z</time>
      </trkpt>
      <trkpt lat="45.70317" lon="6.90848">
        <ele>1992.4697265625</ele>
        <time>2016-08-21T09:31:40Z</time>
      </trkpt>
      <trkpt lat="45.7031" lon="6.90832">
        <ele>1995.353515625</ele>
        <time>2016-08-21T09:31:45Z</time>
      </trkpt>
      <trkpt lat="45.70296" lon="6.908">
        <ele>1997.2763671875</ele>
        <time>2016-08-21T09:31:55Z</time>
      </trkpt>
      <trkpt lat="45.70292" lon="6.90791">
        <ele>1996.3151855469</ele>
        <time>2016-08-21T09:31:58Z</time>
      </trkpt>
      <trkpt lat="45.70281" lon="6.9077">
        <ele>1996.7956542969</ele>
        <time>2016-08-21T09:32:05Z</time>
      </trkpt>
      <trkpt lat="45.70275" lon="6.9076">
        <ele>1999.1989746094</ele>
        <time>2016-08-21T09:32:08Z</time>
      </trkpt>
      <trkpt lat="45.70257" lon="6.90734">
        <ele>2000.6408691406</ele>
        <time>2016-08-21T09:32:17Z</time>
      </trkpt>
      <trkpt lat="45.70244" lon="6.90717">
        <ele>2001.6022949219</ele>
        <time>2016-08-21T09:32:24Z</time>
      </trkpt>
      <trkpt lat="45.70229" lon="6.90698">
        <ele>2002.0827636719</ele>
        <time>2016-08-21T09:32:32Z</time>
      </trkpt>
      <trkpt lat="45.70218" lon="6.90684">
        <ele>2005.4475097656</ele>
        <time>2016-08-21T09:32:38Z</time>
      </trkpt>
      <trkpt lat="45.70206" lon="6.90661">
        <ele>2005.9279785156</ele>
        <time>2016-08-21T09:32:46Z</time>
      </trkpt>
      <trkpt lat="45.70193" lon="6.90639">
        <ele>2007.8508300781</ele>
        <time>2016-08-21T09:32:54Z</time>
      </trkpt>
      <trkpt lat="45.70183" lon="6.9064">
        <ele>2007.3701171875</ele>
        <time>2016-08-21T09:32:58Z</time>
      </trkpt>
      <trkpt lat="45.70158" lon="6.90658">
        <ele>2009.7731933594</ele>
        <time>2016-08-21T09:33:06Z</time>
      </trkpt>
      <trkpt lat="45.70137" lon="6.90656">
        <ele>2010.7346191406</ele>
        <time>2016-08-21T09:33:12Z</time>
      </trkpt>
      <trkpt lat="45.70104" lon="6.9065">
        <ele>2013.6186523438</ele>
        <time>2016-08-21T09:33:21Z</time>
      </trkpt>
      <trkpt lat="45.70088" lon="6.90677">
        <ele>2016.5026855469</ele>
        <time>2016-08-21T09:33:27Z</time>
      </trkpt>
      <trkpt lat="45.70086" lon="6.90682">
        <ele>2016.0219726562</ele>
        <time>2016-08-21T09:33:28Z</time>
      </trkpt>
      <trkpt lat="45.70078" lon="6.90697">
        <ele>2019.38671875</ele>
        <time>2016-08-21T09:33:32Z</time>
      </trkpt>
      <trkpt lat="45.70074" lon="6.90703">
        <ele>2017.9445800781</ele>
        <time>2016-08-21T09:33:34Z</time>
      </trkpt>
      <trkpt lat="45.70061" lon="6.90701">
        <ele>2019.8671875</ele>
        <time>2016-08-21T09:33:39Z</time>
      </trkpt>
      <trkpt lat="45.70057" lon="6.90696">
        <ele>2021.7897949219</ele>
        <time>2016-08-21T09:33:41Z</time>
      </trkpt>
      <trkpt lat="45.70053" lon="6.90692">
        <ele>2022.7512207031</ele>
        <time>2016-08-21T09:33:43Z</time>
      </trkpt>
      <trkpt lat="45.7004" lon="6.90673">
        <ele>2024.1931152344</ele>
        <time>2016-08-21T09:33:50Z</time>
      </trkpt>
      <trkpt lat="45.70038" lon="6.90671">
        <ele>2022.7512207031</ele>
        <time>2016-08-21T09:33:51Z</time>
      </trkpt>
      <trkpt lat="45.70022" lon="6.90651">
        <ele>2023.7124023438</ele>
        <time>2016-08-21T09:33:59Z</time>
      </trkpt>
      <trkpt lat="45.70009" lon="6.9063">
        <ele>2024.1931152344</ele>
        <time>2016-08-21T09:34:06Z</time>
      </trkpt>
      <trkpt lat="45.69998" lon="6.9061">
        <ele>2027.5576171875</ele>
        <time>2016-08-21T09:34:13Z</time>
      </trkpt>
      <trkpt lat="45.69997" lon="6.90607">
        <ele>2027.5576171875</ele>
        <time>2016-08-21T09:34:14Z</time>
      </trkpt>
      <trkpt lat="45.69985" lon="6.90585">
        <ele>2028.9997558594</ele>
        <time>2016-08-21T09:34:22Z</time>
      </trkpt>
      <trkpt lat="45.69974" lon="6.90562">
        <ele>2027.5576171875</ele>
        <time>2016-08-21T09:34:30Z</time>
      </trkpt>
      <trkpt lat="45.69968" lon="6.90546">
        <ele>2028.9997558594</ele>
        <time>2016-08-21T09:34:35Z</time>
      </trkpt>
      <trkpt lat="45.69959" lon="6.9052">
        <ele>2029.48046875</ele>
        <time>2016-08-21T09:34:43Z</time>
      </trkpt>
      <trkpt lat="45.69952" lon="6.905">
        <ele>2030.4418945312</ele>
        <time>2016-08-21T09:34:49Z</time>
      </trkpt>
      <trkpt lat="45.69942" lon="6.90468">
        <ele>2032.3645019531</ele>
        <time>2016-08-21T09:34:58Z</time>
      </trkpt>
      <trkpt lat="45.69941" lon="6.90464">
        <ele>2032.3645019531</ele>
        <time>2016-08-21T09:34:59Z</time>
      </trkpt>
      <trkpt lat="45.6993" lon="6.90439">
        <ele>2033.8063964844</ele>
        <time>2016-08-21T09:35:07Z</time>
      </trkpt>
      <trkpt lat="45.69911" lon="6.90413">
        <ele>2034.7678222656</ele>
        <time>2016-08-21T09:35:16Z</time>
      </trkpt>
      <trkpt lat="45.69897" lon="6.90385">
        <ele>2037.1708984375</ele>
        <time>2016-08-21T09:35:25Z</time>
      </trkpt>
      <trkpt lat="45.69895" lon="6.90381">
        <ele>2036.2097167969</ele>
        <time>2016-08-21T09:35:26Z</time>
      </trkpt>
      <trkpt lat="45.69887" lon="6.90362">
        <ele>2040.5354003906</ele>
        <time>2016-08-21T09:35:32Z</time>
      </trkpt>
      <trkpt lat="45.69873" lon="6.90339">
        <ele>2039.0935058594</ele>
        <time>2016-08-21T09:35:40Z</time>
      </trkpt>
      <trkpt lat="45.69854" lon="6.90318">
        <ele>2042.9387207031</ele>
        <time>2016-08-21T09:35:49Z</time>
      </trkpt>
      <trkpt lat="45.69852" lon="6.90316">
        <ele>2042.4582519531</ele>
        <time>2016-08-21T09:35:50Z</time>
      </trkpt>
      <trkpt lat="45.6984" lon="6.90297">
        <ele>2042.4582519531</ele>
        <time>2016-08-21T09:35:57Z</time>
      </trkpt>
      <trkpt lat="45.69829" lon="6.90264">
        <ele>2043.4194335938</ele>
        <time>2016-08-21T09:36:07Z</time>
      </trkpt>
      <trkpt lat="45.69824" lon="6.90239">
        <ele>2045.8229980469</ele>
        <time>2016-08-21T09:36:14Z</time>
      </trkpt>
      <trkpt lat="45.69813" lon="6.90216">
        <ele>2048.2260742188</ele>
        <time>2016-08-21T09:36:22Z</time>
      </trkpt>
      <trkpt lat="45.69796" lon="6.90196">
        <ele>2048.7067871094</ele>
        <time>2016-08-21T09:36:31Z</time>
      </trkpt>
      <trkpt lat="45.69788" lon="6.90187">
        <ele>2049.6682128906</ele>
        <time>2016-08-21T09:36:35Z</time>
      </trkpt>
      <trkpt lat="45.69774" lon="6.90172">
        <ele>2050.1489257812</ele>
        <time>2016-08-21T09:36:42Z</time>
      </trkpt>
      <trkpt lat="45.69769" lon="6.90168">
        <ele>2052.5520019531</ele>
        <time>2016-08-21T09:36:44Z</time>
      </trkpt>
      <trkpt lat="45.69765" lon="6.90163">
        <ele>2051.1101074219</ele>
        <time>2016-08-21T09:36:46Z</time>
      </trkpt>
      <trkpt lat="45.69748" lon="6.90143">
        <ele>2053.5134277344</ele>
        <time>2016-08-21T09:36:54Z</time>
      </trkpt>
      <trkpt lat="45.69741" lon="6.90135">
        <ele>2056.3972167969</ele>
        <time>2016-08-21T09:36:57Z</time>
      </trkpt>
      <trkpt lat="45.69739" lon="6.90132">
        <ele>2056.3972167969</ele>
        <time>2016-08-21T09:36:58Z</time>
      </trkpt>
      <trkpt lat="45.69734" lon="6.90122">
        <ele>2059.28125</ele>
        <time>2016-08-21T09:37:01Z</time>
      </trkpt>
      <trkpt lat="45.69728" lon="6.90112">
        <ele>2054.9553222656</ele>
        <time>2016-08-21T09:37:04Z</time>
      </trkpt>
      <trkpt lat="45.69726" lon="6.90108">
        <ele>2055.4360351562</ele>
        <time>2016-08-21T09:37:05Z</time>
      </trkpt>
      <trkpt lat="45.69706" lon="6.90078">
        <ele>2056.3972167969</ele>
        <time>2016-08-21T09:37:13Z</time>
      </trkpt>
      <trkpt lat="45.69688" lon="6.90046">
        <ele>2056.3972167969</ele>
        <time>2016-08-21T09:37:20Z</time>
      </trkpt>
      <trkpt lat="45.69664" lon="6.90006">
        <ele>2053.5134277344</ele>
        <time>2016-08-21T09:37:29Z</time>
      </trkpt>
      <trkpt lat="45.69662" lon="6.90001">
        <ele>2057.8393554688</ele>
        <time>2016-08-21T09:37:30Z</time>
      </trkpt>
      <trkpt lat="45.6965" lon="6.89981">
        <ele>2055.9165039062</ele>
        <time>2016-08-21T09:37:35Z</time>
      </trkpt>
      <trkpt lat="45.69628" lon="6.8995">
        <ele>2057.3586425781</ele>
        <time>2016-08-21T09:37:43Z</time>
      </trkpt>
      <trkpt lat="45.69606" lon="6.89926">
        <ele>2056.8779296875</ele>
        <time>2016-08-21T09:37:51Z</time>
      </trkpt>
      <trkpt lat="45.69595" lon="6.89915">
        <ele>2057.8393554688</ele>
        <time>2016-08-21T09:37:55Z</time>
      </trkpt>
      <trkpt lat="45.69572" lon="6.89899">
        <ele>2058.8005371094</ele>
        <time>2016-08-21T09:38:03Z</time>
      </trkpt>
      <trkpt lat="45.69541" lon="6.89884">
        <ele>2058.8005371094</ele>
        <time>2016-08-21T09:38:13Z</time>
      </trkpt>
      <trkpt lat="45.69526" lon="6.89866">
        <ele>2058.3198242188</ele>
        <time>2016-08-21T09:38:19Z</time>
      </trkpt>
      <trkpt lat="45.69513" lon="6.89843">
        <ele>2061.2041015625</ele>
        <time>2016-08-21T09:38:25Z</time>
      </trkpt>
      <trkpt lat="45.69501" lon="6.89812">
        <ele>2065.5300292969</ele>
        <time>2016-08-21T09:38:32Z</time>
      </trkpt>
      <trkpt lat="45.695" lon="6.89807">
        <ele>2064.5686035156</ele>
        <time>2016-08-21T09:38:33Z</time>
      </trkpt>
      <trkpt lat="45.69492" lon="6.89773">
        <ele>2064.5686035156</ele>
        <time>2016-08-21T09:38:40Z</time>
      </trkpt>
      <trkpt lat="45.69481" lon="6.89727">
        <ele>2066.0104980469</ele>
        <time>2016-08-21T09:38:50Z</time>
      </trkpt>
      <trkpt lat="45.69469" lon="6.89689">
        <ele>2067.4523925781</ele>
        <time>2016-08-21T09:38:59Z</time>
      </trkpt>
      <trkpt lat="45.6945" lon="6.89655">
        <ele>2066.4912109375</ele>
        <time>2016-08-21T09:39:08Z</time>
      </trkpt>
      <trkpt lat="45.69443" lon="6.89643">
        <ele>2069.8557128906</ele>
        <time>2016-08-21T09:39:11Z</time>
      </trkpt>
      <trkpt lat="45.69433" lon="6.89613">
        <ele>2069.3752441406</ele>
        <time>2016-08-21T09:39:18Z</time>
      </trkpt>
      <trkpt lat="45.6943" lon="6.89604">
        <ele>2070.8171386719</ele>
        <time>2016-08-21T09:39:20Z</time>
      </trkpt>
      <trkpt lat="45.69416" lon="6.89565">
        <ele>2071.2976074219</ele>
        <time>2016-08-21T09:39:29Z</time>
      </trkpt>
      <trkpt lat="45.69401" lon="6.89528">
        <ele>2071.7783203125</ele>
        <time>2016-08-21T09:39:38Z</time>
      </trkpt>
      <trkpt lat="45.69397" lon="6.89495">
        <ele>2072.7397460938</ele>
        <time>2016-08-21T09:39:45Z</time>
      </trkpt>
      <trkpt lat="45.69396" lon="6.89439">
        <ele>2073.2204589844</ele>
        <time>2016-08-21T09:39:56Z</time>
      </trkpt>
      <trkpt lat="45.69395" lon="6.89434">
        <ele>2075.1428222656</ele>
        <time>2016-08-21T09:39:57Z</time>
      </trkpt>
      <trkpt lat="45.69378" lon="6.89387">
        <ele>2076.5852050781</ele>
        <time>2016-08-21T09:40:06Z</time>
      </trkpt>
      <trkpt lat="45.6936" lon="6.89343">
        <ele>2077.5463867188</ele>
        <time>2016-08-21T09:40:16Z</time>
      </trkpt>
      <trkpt lat="45.69349" lon="6.89307">
        <ele>2079.4689941406</ele>
        <time>2016-08-21T09:40:24Z</time>
      </trkpt>
      <trkpt lat="45.69349" lon="6.89284">
        <ele>2078.5078125</ele>
        <time>2016-08-21T09:40:29Z</time>
      </trkpt>
      <trkpt lat="45.6935" lon="6.89241">
        <ele>2081.3916015625</ele>
        <time>2016-08-21T09:40:39Z</time>
      </trkpt>
      <trkpt lat="45.69351" lon="6.89223">
        <ele>2082.3530273438</ele>
        <time>2016-08-21T09:40:43Z</time>
      </trkpt>
      <trkpt lat="45.69347" lon="6.89193">
        <ele>2082.8334960938</ele>
        <time>2016-08-21T09:40:51Z</time>
      </trkpt>
      <trkpt lat="45.69338" lon="6.8918">
        <ele>2085.7175292969</ele>
        <time>2016-08-21T09:40:56Z</time>
      </trkpt>
      <trkpt lat="45.69329" lon="6.89174">
        <ele>2086.6787109375</ele>
        <time>2016-08-21T09:41:00Z</time>
      </trkpt>
      <trkpt lat="45.69319" lon="6.89158">
        <ele>2086.6787109375</ele>
        <time>2016-08-21T09:41:06Z</time>
      </trkpt>
      <trkpt lat="45.6931" lon="6.89132">
        <ele>2086.1982421875</ele>
        <time>2016-08-21T09:41:14Z</time>
      </trkpt>
      <trkpt lat="45.69303" lon="6.89116">
        <ele>2088.6015625</ele>
        <time>2016-08-21T09:41:19Z</time>
      </trkpt>
      <trkpt lat="45.69297" lon="6.89104">
        <ele>2090.0434570312</ele>
        <time>2016-08-21T09:41:23Z</time>
      </trkpt>
      <trkpt lat="45.69284" lon="6.89083">
        <ele>2091.4853515625</ele>
        <time>2016-08-21T09:41:31Z</time>
      </trkpt>
      <trkpt lat="45.69271" lon="6.89067">
        <ele>2091.9660644531</ele>
        <time>2016-08-21T09:41:38Z</time>
      </trkpt>
      <trkpt lat="45.69253" lon="6.89051">
        <ele>2092.4470214844</ele>
        <time>2016-08-21T09:41:46Z</time>
      </trkpt>
      <trkpt lat="45.69239" lon="6.89039">
        <ele>2094.3693847656</ele>
        <time>2016-08-21T09:41:53Z</time>
      </trkpt>
      <trkpt lat="45.69225" lon="6.89032">
        <ele>2096.2922363281</ele>
        <time>2016-08-21T09:41:59Z</time>
      </trkpt>
      <trkpt lat="45.6921" lon="6.89022">
        <ele>2096.7727050781</ele>
        <time>2016-08-21T09:42:06Z</time>
      </trkpt>
      <trkpt lat="45.69194" lon="6.89012">
        <ele>2098.6953125</ele>
        <time>2016-08-21T09:42:14Z</time>
      </trkpt>
      <trkpt lat="45.6918" lon="6.89011">
        <ele>2098.6953125</ele>
        <time>2016-08-21T09:42:20Z</time>
      </trkpt>
      <trkpt lat="45.69165" lon="6.89017">
        <ele>2098.2145996094</ele>
        <time>2016-08-21T09:42:27Z</time>
      </trkpt>
      <trkpt lat="45.6916" lon="6.89031">
        <ele>2098.6953125</ele>
        <time>2016-08-21T09:42:31Z</time>
      </trkpt>
      <trkpt lat="45.69162" lon="6.89049">
        <ele>2100.1374511719</ele>
        <time>2016-08-21T09:42:35Z</time>
      </trkpt>
      <trkpt lat="45.69166" lon="6.8907">
        <ele>2101.0986328125</ele>
        <time>2016-08-21T09:42:40Z</time>
      </trkpt>
      <trkpt lat="45.69158" lon="6.89073">
        <ele>2103.0212402344</ele>
        <time>2016-08-21T09:42:44Z</time>
      </trkpt>
      <trkpt lat="45.69156" lon="6.89067">
        <ele>2103.9826660156</ele>
        <time>2016-08-21T09:42:46Z</time>
      </trkpt>
      <trkpt lat="45.69144" lon="6.8904">
        <ele>2106.3857421875</ele>
        <time>2016-08-21T09:42:55Z</time>
      </trkpt>
      <trkpt lat="45.69134" lon="6.89015">
        <ele>2106.3857421875</ele>
        <time>2016-08-21T09:43:03Z</time>
      </trkpt>
      <trkpt lat="45.69129" lon="6.88997">
        <ele>2107.3471679688</ele>
        <time>2016-08-21T09:43:09Z</time>
      </trkpt>
      <trkpt lat="45.69123" lon="6.88977">
        <ele>2110.2312011719</ele>
        <time>2016-08-21T09:43:15Z</time>
      </trkpt>
      <trkpt lat="45.69116" lon="6.88953">
        <ele>2110.7119140625</ele>
        <time>2016-08-21T09:43:23Z</time>
      </trkpt>
      <trkpt lat="45.69107" lon="6.88933">
        <ele>2111.1926269531</ele>
        <time>2016-08-21T09:43:30Z</time>
      </trkpt>
      <trkpt lat="45.69095" lon="6.88918">
        <ele>2113.595703125</ele>
        <time>2016-08-21T09:43:37Z</time>
      </trkpt>
      <trkpt lat="45.69093" lon="6.88917">
        <ele>2113.595703125</ele>
        <time>2016-08-21T09:43:38Z</time>
      </trkpt>
      <trkpt lat="45.69091" lon="6.88917">
        <ele>2113.595703125</ele>
        <time>2016-08-21T09:43:39Z</time>
      </trkpt>
      <trkpt lat="45.69087" lon="6.88919">
        <ele>2112.1538085938</ele>
        <time>2016-08-21T09:43:41Z</time>
      </trkpt>
      <trkpt lat="45.69083" lon="6.88933">
        <ele>2113.115234375</ele>
        <time>2016-08-21T09:43:46Z</time>
      </trkpt>
      <trkpt lat="45.69085" lon="6.88958">
        <ele>2114.5571289062</ele>
        <time>2016-08-21T09:43:53Z</time>
      </trkpt>
      <trkpt lat="45.69091" lon="6.8899">
        <ele>2116.9604492188</ele>
        <time>2016-08-21T09:44:01Z</time>
      </trkpt>
      <trkpt lat="45.69091" lon="6.89012">
        <ele>2117.9216308594</ele>
        <time>2016-08-21T09:44:07Z</time>
      </trkpt>
      <trkpt lat="45.69091" lon="6.89032">
        <ele>2118.8830566406</ele>
        <time>2016-08-21T09:44:13Z</time>
      </trkpt>
      <trkpt lat="45.69098" lon="6.89068">
        <ele>2122.2475585938</ele>
        <time>2016-08-21T09:44:22Z</time>
      </trkpt>
      <trkpt lat="45.69108" lon="6.891">
        <ele>2123.689453125</ele>
        <time>2016-08-21T09:44:31Z</time>
      </trkpt>
      <trkpt lat="45.69115" lon="6.89128">
        <ele>2124.6511230469</ele>
        <time>2016-08-21T09:44:39Z</time>
      </trkpt>
      <trkpt lat="45.69113" lon="6.89149">
        <ele>2125.6123046875</ele>
        <time>2016-08-21T09:44:45Z</time>
      </trkpt>
      <trkpt lat="45.69107" lon="6.89156">
        <ele>2128.015625</ele>
        <time>2016-08-21T09:44:48Z</time>
      </trkpt>
      <trkpt lat="45.69098" lon="6.89162">
        <ele>2129.9382324219</ele>
        <time>2016-08-21T09:44:52Z</time>
      </trkpt>
      <trkpt lat="45.69083" lon="6.89157">
        <ele>2129.9382324219</ele>
        <time>2016-08-21T09:44:58Z</time>
      </trkpt>
      <trkpt lat="45.69067" lon="6.89146">
        <ele>2132.3415527344</ele>
        <time>2016-08-21T09:45:05Z</time>
      </trkpt>
      <trkpt lat="45.69052" lon="6.89133">
        <ele>2132.3415527344</ele>
        <time>2016-08-21T09:45:12Z</time>
      </trkpt>
      <trkpt lat="45.69039" lon="6.89116">
        <ele>2131.8608398438</ele>
        <time>2016-08-21T09:45:19Z</time>
      </trkpt>
      <trkpt lat="45.69035" lon="6.8909">
        <ele>2133.302734375</ele>
        <time>2016-08-21T09:45:26Z</time>
      </trkpt>
      <trkpt lat="45.69033" lon="6.89063">
        <ele>2135.7060546875</ele>
        <time>2016-08-21T09:45:33Z</time>
      </trkpt>
      <trkpt lat="45.69032" lon="6.89044">
        <ele>2138.109375</ele>
        <time>2016-08-21T09:45:38Z</time>
      </trkpt>
      <trkpt lat="45.69029" lon="6.8901">
        <ele>2139.0705566406</ele>
        <time>2016-08-21T09:45:47Z</time>
      </trkpt>
      <trkpt lat="45.69019" lon="6.88979">
        <ele>2142.435546875</ele>
        <time>2016-08-21T09:45:56Z</time>
      </trkpt>
      <trkpt lat="45.69005" lon="6.88962">
        <ele>2142.435546875</ele>
        <time>2016-08-21T09:46:03Z</time>
      </trkpt>
      <trkpt lat="45.68986" lon="6.88949">
        <ele>2144.3579101562</ele>
        <time>2016-08-21T09:46:11Z</time>
      </trkpt>
      <trkpt lat="45.68972" lon="6.8894">
        <ele>2143.8774414062</ele>
        <time>2016-08-21T09:46:17Z</time>
      </trkpt>
      <trkpt lat="45.68965" lon="6.88936">
        <ele>2145.3193359375</ele>
        <time>2016-08-21T09:46:20Z</time>
      </trkpt>
      <trkpt lat="45.68941" lon="6.88922">
        <ele>2146.7612304688</ele>
        <time>2016-08-21T09:46:30Z</time>
      </trkpt>
      <trkpt lat="45.68916" lon="6.88906">
        <ele>2148.6838378906</ele>
        <time>2016-08-21T09:46:40Z</time>
      </trkpt>
      <trkpt lat="45.68898" lon="6.88896">
        <ele>2151.5678710938</ele>
        <time>2016-08-21T09:46:47Z</time>
      </trkpt>
      <trkpt lat="45.68879" lon="6.88884">
        <ele>2153.4904785156</ele>
        <time>2016-08-21T09:46:55Z</time>
      </trkpt>
      <trkpt lat="45.68858" lon="6.88874">
        <ele>2153.9711914062</ele>
        <time>2016-08-21T09:47:03Z</time>
      </trkpt>
      <trkpt lat="45.68853" lon="6.88871">
        <ele>2154.9323730469</ele>
        <time>2016-08-21T09:47:05Z</time>
      </trkpt>
      <trkpt lat="45.68825" lon="6.88865">
        <ele>2157.8166503906</ele>
        <time>2016-08-21T09:47:14Z</time>
      </trkpt>
      <trkpt lat="45.68807" lon="6.88863">
        <ele>2158.7778320312</ele>
        <time>2016-08-21T09:47:20Z</time>
      </trkpt>
      <trkpt lat="45.68787" lon="6.88866">
        <ele>2159.2585449219</ele>
        <time>2016-08-21T09:47:27Z</time>
      </trkpt>
      <trkpt lat="45.68768" lon="6.88874">
        <ele>2160.2197265625</ele>
        <time>2016-08-21T09:47:34Z</time>
      </trkpt>
      <trkpt lat="45.68748" lon="6.88877">
        <ele>2160.7004394531</ele>
        <time>2016-08-21T09:47:41Z</time>
      </trkpt>
      <trkpt lat="45.68724" lon="6.88868">
        <ele>2163.1037597656</ele>
        <time>2016-08-21T09:47:50Z</time>
      </trkpt>
      <trkpt lat="45.68704" lon="6.88864">
        <ele>2165.0263671875</ele>
        <time>2016-08-21T09:47:57Z</time>
      </trkpt>
      <trkpt lat="45.68676" lon="6.88863">
        <ele>2166.4682617188</ele>
        <time>2016-08-21T09:48:07Z</time>
      </trkpt>
      <trkpt lat="45.68657" lon="6.88852">
        <ele>2167.91015625</ele>
        <time>2016-08-21T09:48:14Z</time>
      </trkpt>
      <trkpt lat="45.68647" lon="6.88844">
        <ele>2169.3522949219</ele>
        <time>2016-08-21T09:48:18Z</time>
      </trkpt>
      <trkpt lat="45.68626" lon="6.8883">
        <ele>2170.7941894531</ele>
        <time>2016-08-21T09:48:26Z</time>
      </trkpt>
      <trkpt lat="45.68608" lon="6.8882">
        <ele>2171.7553710938</ele>
        <time>2016-08-21T09:48:33Z</time>
      </trkpt>
      <trkpt lat="45.68584" lon="6.88807">
        <ele>2175.1201171875</ele>
        <time>2016-08-21T09:48:42Z</time>
      </trkpt>
      <trkpt lat="45.68581" lon="6.88804">
        <ele>2175.6008300781</ele>
        <time>2016-08-21T09:48:43Z</time>
      </trkpt>
      <trkpt lat="45.68561" lon="6.88787">
        <ele>2177.04296875</ele>
        <time>2016-08-21T09:48:51Z</time>
      </trkpt>
      <trkpt lat="45.68538" lon="6.88774">
        <ele>2178.0041503906</ele>
        <time>2016-08-21T09:48:59Z</time>
      </trkpt>
      <trkpt lat="45.68508" lon="6.88766">
        <ele>2177.5234375</ele>
        <time>2016-08-21T09:49:07Z</time>
      </trkpt>
      <trkpt lat="45.68481" lon="6.88749">
        <ele>2178.4848632812</ele>
        <time>2016-08-21T09:49:15Z</time>
      </trkpt>
      <trkpt lat="45.68447" lon="6.88721">
        <ele>2181.3686523438</ele>
        <time>2016-08-21T09:49:26Z</time>
      </trkpt>
      <trkpt lat="45.68435" lon="6.8871">
        <ele>2181.3686523438</ele>
        <time>2016-08-21T09:49:30Z</time>
      </trkpt>
      <trkpt lat="45.68413" lon="6.88691">
        <ele>2181.8493652344</ele>
        <time>2016-08-21T09:49:38Z</time>
      </trkpt>
      <trkpt lat="45.68397" lon="6.88681">
        <ele>2180.8881835938</ele>
        <time>2016-08-21T09:49:44Z</time>
      </trkpt>
      <trkpt lat="45.68378" lon="6.88664">
        <ele>2180.8881835938</ele>
        <time>2016-08-21T09:49:50Z</time>
      </trkpt>
      <trkpt lat="45.68369" lon="6.88655">
        <ele>2181.8493652344</ele>
        <time>2016-08-21T09:49:56Z</time>
      </trkpt>
      <trkpt lat="45.68361" lon="6.88649">
        <ele>2182.810546875</ele>
        <time>2016-08-21T09:50:02Z</time>
      </trkpt>
      <trkpt lat="45.68354" lon="6.88645">
        <ele>2182.810546875</ele>
        <time>2016-08-21T09:50:07Z</time>
      </trkpt>
      <trkpt lat="45.68345" lon="6.88638">
        <ele>2184.7333984375</ele>
        <time>2016-08-21T09:50:13Z</time>
      </trkpt>
      <trkpt lat="45.68341" lon="6.88637">
        <ele>2184.7333984375</ele>
        <time>2016-08-21T09:50:14Z</time>
      </trkpt>
      <trkpt lat="45.68314" lon="6.88614">
        <ele>2184.7333984375</ele>
        <time>2016-08-21T09:50:21Z</time>
      </trkpt>
      <trkpt lat="45.68305" lon="6.88605">
        <ele>2184.2526855469</ele>
        <time>2016-08-21T09:50:25Z</time>
      </trkpt>
      <trkpt lat="45.68292" lon="6.88594">
        <ele>2184.7333984375</ele>
        <time>2016-08-21T09:50:30Z</time>
      </trkpt>
      <trkpt lat="45.68277" lon="6.88581">
        <ele>2186.1752929688</ele>
        <time>2016-08-21T09:50:36Z</time>
      </trkpt>
      <trkpt lat="45.68262" lon="6.88569">
        <ele>2186.6557617188</ele>
        <time>2016-08-21T09:50:42Z</time>
      </trkpt>
      <trkpt lat="45.68249" lon="6.88558">
        <ele>2186.6557617188</ele>
        <time>2016-08-21T09:50:48Z</time>
      </trkpt>
      <trkpt lat="45.68239" lon="6.88549">
        <ele>2187.1364746094</ele>
        <time>2016-08-21T09:50:53Z</time>
      </trkpt>
      <trkpt lat="45.68226" lon="6.88538">
        <ele>2188.0981445312</ele>
        <time>2016-08-21T09:50:59Z</time>
      </trkpt>
      <trkpt lat="45.68211" lon="6.88529">
        <ele>2189.0593261719</ele>
        <time>2016-08-21T09:51:05Z</time>
      </trkpt>
      <trkpt lat="45.68196" lon="6.88519">
        <ele>2189.5400390625</ele>
        <time>2016-08-21T09:51:11Z</time>
      </trkpt>
      <trkpt lat="45.68182" lon="6.8851">
        <ele>2191.943359375</ele>
        <time>2016-08-21T09:51:15Z</time>
      </trkpt>
      <trkpt lat="45.68169" lon="6.88502">
        <ele>2194.8271484375</ele>
        <time>2016-08-21T09:51:18Z</time>
      </trkpt>
      <trkpt lat="45.68159" lon="6.88495">
        <ele>2191.943359375</ele>
        <time>2016-08-21T09:51:20Z</time>
      </trkpt>
      <trkpt lat="45.68154" lon="6.88492">
        <ele>2192.9045410156</ele>
        <time>2016-08-21T09:51:21Z</time>
      </trkpt>
      <trkpt lat="45.68126" lon="6.88474">
        <ele>2192.9045410156</ele>
        <time>2016-08-21T09:51:27Z</time>
      </trkpt>
      <trkpt lat="45.68101" lon="6.88461">
        <ele>2191.4626464844</ele>
        <time>2016-08-21T09:51:34Z</time>
      </trkpt>
      <trkpt lat="45.68083" lon="6.88458">
        <ele>2191.4626464844</ele>
        <time>2016-08-21T09:51:39Z</time>
      </trkpt>
      <trkpt lat="45.68066" lon="6.88462">
        <ele>2191.943359375</ele>
        <time>2016-08-21T09:51:44Z</time>
      </trkpt>
      <trkpt lat="45.68051" lon="6.88467">
        <ele>2192.9045410156</ele>
        <time>2016-08-21T09:51:48Z</time>
      </trkpt>
      <trkpt lat="45.68027" lon="6.88464">
        <ele>2193.3852539062</ele>
        <time>2016-08-21T09:51:53Z</time>
      </trkpt>
      <trkpt lat="45.6801" lon="6.88451">
        <ele>2192.4240722656</ele>
        <time>2016-08-21T09:52:00Z</time>
      </trkpt>
      <trkpt lat="45.68" lon="6.88441">
        <ele>2192.4240722656</ele>
        <time>2016-08-21T09:52:04Z</time>
      </trkpt>
      <trkpt lat="45.67993" lon="6.88418">
        <ele>2192.4240722656</ele>
        <time>2016-08-21T09:52:09Z</time>
      </trkpt>
      <trkpt lat="45.67991" lon="6.88405">
        <ele>2190.5012207031</ele>
        <time>2016-08-21T09:52:13Z</time>
      </trkpt>
      <trkpt lat="45.6799" lon="6.884">
        <ele>2190.5012207031</ele>
        <time>2016-08-21T09:52:15Z</time>
      </trkpt>
      <trkpt lat="45.67985" lon="6.88372">
        <ele>2191.943359375</ele>
        <time>2016-08-21T09:52:19Z</time>
      </trkpt>
      <trkpt lat="45.67972" lon="6.88337">
        <ele>2190.9819335938</ele>
        <time>2016-08-21T09:52:24Z</time>
      </trkpt>
      <trkpt lat="45.67961" lon="6.88321">
        <ele>2190.5012207031</ele>
        <time>2016-08-21T09:52:29Z</time>
      </trkpt>
      <trkpt lat="45.67954" lon="6.88311">
        <ele>2190.5012207031</ele>
        <time>2016-08-21T09:52:33Z</time>
      </trkpt>
      <trkpt lat="45.67946" lon="6.88305">
        <ele>2190.0207519531</ele>
        <time>2016-08-21T09:52:37Z</time>
      </trkpt>
      <trkpt lat="45.6794" lon="6.88299">
        <ele>2190.0207519531</ele>
        <time>2016-08-21T09:52:40Z</time>
      </trkpt>
      <trkpt lat="45.67928" lon="6.88298">
        <ele>2191.4626464844</ele>
        <time>2016-08-21T09:52:44Z</time>
      </trkpt>
      <trkpt lat="45.6792" lon="6.88292">
        <ele>2192.9045410156</ele>
        <time>2016-08-21T09:52:46Z</time>
      </trkpt>
      <trkpt lat="45.67911" lon="6.88285">
        <ele>2190.5012207031</ele>
        <time>2016-08-21T09:52:48Z</time>
      </trkpt>
      <trkpt lat="45.67903" lon="6.88278">
        <ele>2190.9819335938</ele>
        <time>2016-08-21T09:52:50Z</time>
      </trkpt>
      <trkpt lat="45.67896" lon="6.8827">
        <ele>2190.0207519531</ele>
        <time>2016-08-21T09:52:52Z</time>
      </trkpt>
      <trkpt lat="45.67867" lon="6.88251">
        <ele>2188.5788574219</ele>
        <time>2016-08-21T09:52:58Z</time>
      </trkpt>
      <trkpt lat="45.67858" lon="6.88246">
        <ele>2187.6171875</ele>
        <time>2016-08-21T09:53:00Z</time>
      </trkpt>
      <trkpt lat="45.67835" lon="6.88235">
        <ele>2185.6945800781</ele>
        <time>2016-08-21T09:53:05Z</time>
      </trkpt>
      <trkpt lat="45.6783" lon="6.88232">
        <ele>2185.6945800781</ele>
        <time>2016-08-21T09:53:06Z</time>
      </trkpt>
      <trkpt lat="45.67799" lon="6.88216">
        <ele>2183.7719726562</ele>
        <time>2016-08-21T09:53:12Z</time>
      </trkpt>
      <trkpt lat="45.67763" lon="6.88197">
        <ele>2179.9267578125</ele>
        <time>2016-08-21T09:53:19Z</time>
      </trkpt>
      <trkpt lat="45.67755" lon="6.88191">
        <ele>2177.5234375</ele>
        <time>2016-08-21T09:53:22Z</time>
      </trkpt>
      <trkpt lat="45.67754" lon="6.8819">
        <ele>2177.5234375</ele>
        <time>2016-08-21T09:53:26Z</time>
      </trkpt>
      <trkpt lat="45.67757" lon="6.88191">
        <ele>2178.9653320312</ele>
        <time>2016-08-21T09:54:34Z</time>
      </trkpt>
      <trkpt lat="45.67757" lon="6.88191">
        <ele>2178.9653320312</ele>
        <time>2016-08-21T09:54:37Z</time>
      </trkpt>
      <trkpt lat="45.67756" lon="6.88191">
        <ele>2179.4460449219</ele>
        <time>2016-08-21T09:54:43Z</time>
      </trkpt>
      <trkpt lat="45.6775" lon="6.8819">
        <ele>2181.3686523438</ele>
        <time>2016-08-21T09:54:46Z</time>
      </trkpt>
      <trkpt lat="45.67747" lon="6.88189">
        <ele>2180.8881835938</ele>
        <time>2016-08-21T09:54:47Z</time>
      </trkpt>
      <trkpt lat="45.67732" lon="6.88181">
        <ele>2180.8881835938</ele>
        <time>2016-08-21T09:54:52Z</time>
      </trkpt>
      <trkpt lat="45.67707" lon="6.88169">
        <ele>2179.9267578125</ele>
        <time>2016-08-21T09:54:57Z</time>
      </trkpt>
      <trkpt lat="45.67683" lon="6.88157">
        <ele>2180.8881835938</ele>
        <time>2016-08-21T09:55:01Z</time>
      </trkpt>
      <trkpt lat="45.67665" lon="6.88145">
        <ele>2177.5234375</ele>
        <time>2016-08-21T09:55:04Z</time>
      </trkpt>
      <trkpt lat="45.67659" lon="6.8814">
        <ele>2177.04296875</ele>
        <time>2016-08-21T09:55:05Z</time>
      </trkpt>
      <trkpt lat="45.67612" lon="6.88087">
        <ele>2173.6782226562</ele>
        <time>2016-08-21T09:55:13Z</time>
      </trkpt>
      <trkpt lat="45.67594" lon="6.88068">
        <ele>2175.6008300781</ele>
        <time>2016-08-21T09:55:16Z</time>
      </trkpt>
      <trkpt lat="45.67543" lon="6.88011">
        <ele>2175.1201171875</ele>
        <time>2016-08-21T09:55:25Z</time>
      </trkpt>
      <trkpt lat="45.67494" lon="6.87955">
        <ele>2171.2746582031</ele>
        <time>2016-08-21T09:55:34Z</time>
      </trkpt>
      <trkpt lat="45.67453" lon="6.87911">
        <ele>2169.8327636719</ele>
        <time>2016-08-21T09:55:42Z</time>
      </trkpt>
      <trkpt lat="45.67421" lon="6.87875">
        <ele>2171.2746582031</ele>
        <time>2016-08-21T09:55:48Z</time>
      </trkpt>
      <trkpt lat="45.67388" lon="6.87839">
        <ele>2168.8715820312</ele>
        <time>2016-08-21T09:55:54Z</time>
      </trkpt>
      <trkpt lat="45.67347" lon="6.87794">
        <ele>2167.91015625</ele>
        <time>2016-08-21T09:56:01Z</time>
      </trkpt>
      <trkpt lat="45.67292" lon="6.87732">
        <ele>2166.9489746094</ele>
        <time>2016-08-21T09:56:10Z</time>
      </trkpt>
      <trkpt lat="45.6728" lon="6.87719">
        <ele>2165.5070800781</ele>
        <time>2016-08-21T09:56:12Z</time>
      </trkpt>
      <trkpt lat="45.67257" lon="6.87694">
        <ele>2162.623046875</ele>
        <time>2016-08-21T09:56:16Z</time>
      </trkpt>
      <trkpt lat="45.67213" lon="6.87645">
        <ele>2161.6618652344</ele>
        <time>2016-08-21T09:56:23Z</time>
      </trkpt>
      <trkpt lat="45.67142" lon="6.87566">
        <ele>2159.7390136719</ele>
        <time>2016-08-21T09:56:34Z</time>
      </trkpt>
      <trkpt lat="45.67117" lon="6.87539">
        <ele>2156.3745117188</ele>
        <time>2016-08-21T09:56:38Z</time>
      </trkpt>
      <trkpt lat="45.6711" lon="6.87531">
        <ele>2156.8552246094</ele>
        <time>2016-08-21T09:56:39Z</time>
      </trkpt>
      <trkpt lat="45.67075" lon="6.87492">
        <ele>2153.4904785156</ele>
        <time>2016-08-21T09:56:44Z</time>
      </trkpt>
      <trkpt lat="45.67068" lon="6.87483">
        <ele>2154.4516601562</ele>
        <time>2016-08-21T09:56:45Z</time>
      </trkpt>
      <trkpt lat="45.67054" lon="6.87467">
        <ele>2155.4130859375</ele>
        <time>2016-08-21T09:56:47Z</time>
      </trkpt>
      <trkpt lat="45.6704" lon="6.8745">
        <ele>2150.6064453125</ele>
        <time>2016-08-21T09:56:49Z</time>
      </trkpt>
      <trkpt lat="45.67003" lon="6.87407">
        <ele>2147.2419433594</ele>
        <time>2016-08-21T09:56:54Z</time>
      </trkpt>
      <trkpt lat="45.66995" lon="6.87398">
        <ele>2147.2419433594</ele>
        <time>2016-08-21T09:56:55Z</time>
      </trkpt>
      <trkpt lat="45.66956" lon="6.87357">
        <ele>2143.8774414062</ele>
        <time>2016-08-21T09:57:00Z</time>
      </trkpt>
      <trkpt lat="45.6695" lon="6.87349">
        <ele>2143.3967285156</ele>
        <time>2016-08-21T09:57:01Z</time>
      </trkpt>
      <trkpt lat="45.66942" lon="6.87323">
        <ele>2138.109375</ele>
        <time>2016-08-21T09:57:04Z</time>
      </trkpt>
      <trkpt lat="45.66954" lon="6.87317">
        <ele>2136.1867675781</ele>
        <time>2016-08-21T09:57:06Z</time>
      </trkpt>
      <trkpt lat="45.66961" lon="6.87319">
        <ele>2136.1867675781</ele>
        <time>2016-08-21T09:57:07Z</time>
      </trkpt>
      <trkpt lat="45.66986" lon="6.87334">
        <ele>2135.7060546875</ele>
        <time>2016-08-21T09:57:11Z</time>
      </trkpt>
      <trkpt lat="45.66999" lon="6.87346">
        <ele>2134.7448730469</ele>
        <time>2016-08-21T09:57:13Z</time>
      </trkpt>
      <trkpt lat="45.67029" lon="6.87371">
        <ele>2132.8220214844</ele>
        <time>2016-08-21T09:57:17Z</time>
      </trkpt>
      <trkpt lat="45.67047" lon="6.87379">
        <ele>2131.8608398438</ele>
        <time>2016-08-21T09:57:19Z</time>
      </trkpt>
      <trkpt lat="45.67063" lon="6.87373">
        <ele>2131.3801269531</ele>
        <time>2016-08-21T09:57:21Z</time>
      </trkpt>
      <trkpt lat="45.67068" lon="6.87352">
        <ele>2132.3415527344</ele>
        <time>2016-08-21T09:57:23Z</time>
      </trkpt>
      <trkpt lat="45.6706" lon="6.87334">
        <ele>2132.8220214844</ele>
        <time>2016-08-21T09:57:25Z</time>
      </trkpt>
      <trkpt lat="45.67053" lon="6.87327">
        <ele>2133.7834472656</ele>
        <time>2016-08-21T09:57:26Z</time>
      </trkpt>
      <trkpt lat="45.67034" lon="6.87309">
        <ele>2131.3801269531</ele>
        <time>2016-08-21T09:57:29Z</time>
      </trkpt>
      <trkpt lat="45.66997" lon="6.87284">
        <ele>2133.7834472656</ele>
        <time>2016-08-21T09:57:34Z</time>
      </trkpt>
      <trkpt lat="45.66973" lon="6.87274">
        <ele>2130.4189453125</ele>
        <time>2016-08-21T09:57:37Z</time>
      </trkpt>
      <trkpt lat="45.66935" lon="6.87246">
        <ele>2128.9768066406</ele>
        <time>2016-08-21T09:57:42Z</time>
      </trkpt>
      <trkpt lat="45.66918" lon="6.87252">
        <ele>2126.0930175781</ele>
        <time>2016-08-21T09:57:44Z</time>
      </trkpt>
      <trkpt lat="45.66909" lon="6.87257">
        <ele>2125.1315917969</ele>
        <time>2016-08-21T09:57:45Z</time>
      </trkpt>
      <trkpt lat="45.66884" lon="6.87272">
        <ele>2121.2861328125</ele>
        <time>2016-08-21T09:57:48Z</time>
      </trkpt>
      <trkpt lat="45.66867" lon="6.87263">
        <ele>2120.3249511719</ele>
        <time>2016-08-21T09:57:50Z</time>
      </trkpt>
      <trkpt lat="45.66855" lon="6.87246">
        <ele>2118.8830566406</ele>
        <time>2016-08-21T09:57:52Z</time>
      </trkpt>
      <trkpt lat="45.66835" lon="6.87223">
        <ele>2116.4797363281</ele>
        <time>2016-08-21T09:57:55Z</time>
      </trkpt>
      <trkpt lat="45.66809" lon="6.87223">
        <ele>2115.9990234375</ele>
        <time>2016-08-21T09:57:58Z</time>
      </trkpt>
      <trkpt lat="45.66782" lon="6.87231">
        <ele>2117.9216308594</ele>
        <time>2016-08-21T09:58:01Z</time>
      </trkpt>
      <trkpt lat="45.66763" lon="6.8723">
        <ele>2116.4797363281</ele>
        <time>2016-08-21T09:58:03Z</time>
      </trkpt>
      <trkpt lat="45.66745" lon="6.87225">
        <ele>2112.6345214844</ele>
        <time>2016-08-21T09:58:05Z</time>
      </trkpt>
      <trkpt lat="45.66736" lon="6.8722">
        <ele>2113.115234375</ele>
        <time>2016-08-21T09:58:06Z</time>
      </trkpt>
      <trkpt lat="45.66701" lon="6.87201">
        <ele>2111.1926269531</ele>
        <time>2016-08-21T09:58:10Z</time>
      </trkpt>
      <trkpt lat="45.66673" lon="6.87194">
        <ele>2107.8278808594</ele>
        <time>2016-08-21T09:58:13Z</time>
      </trkpt>
      <trkpt lat="45.66644" lon="6.87188">
        <ele>2103.9826660156</ele>
        <time>2016-08-21T09:58:16Z</time>
      </trkpt>
      <trkpt lat="45.66635" lon="6.87184">
        <ele>2103.9826660156</ele>
        <time>2016-08-21T09:58:17Z</time>
      </trkpt>
      <trkpt lat="45.66599" lon="6.87158">
        <ele>2101.0986328125</ele>
        <time>2016-08-21T09:58:21Z</time>
      </trkpt>
      <trkpt lat="45.6658" lon="6.87147">
        <ele>2100.1374511719</ele>
        <time>2016-08-21T09:58:23Z</time>
      </trkpt>
      <trkpt lat="45.66551" lon="6.87138">
        <ele>2097.7341308594</ele>
        <time>2016-08-21T09:58:26Z</time>
      </trkpt>
      <trkpt lat="45.6652" lon="6.87134">
        <ele>2094.8500976562</ele>
        <time>2016-08-21T09:58:29Z</time>
      </trkpt>
      <trkpt lat="45.66481" lon="6.87113">
        <ele>2092.4470214844</ele>
        <time>2016-08-21T09:58:33Z</time>
      </trkpt>
      <trkpt lat="45.66425" lon="6.87068">
        <ele>2090.5239257812</ele>
        <time>2016-08-21T09:58:39Z</time>
      </trkpt>
      <trkpt lat="45.66405" lon="6.87057">
        <ele>2089.5627441406</ele>
        <time>2016-08-21T09:58:41Z</time>
      </trkpt>
      <trkpt lat="45.66395" lon="6.87052">
        <ele>2086.6787109375</ele>
        <time>2016-08-21T09:58:42Z</time>
      </trkpt>
      <trkpt lat="45.66374" lon="6.87047">
        <ele>2085.7175292969</ele>
        <time>2016-08-21T09:58:44Z</time>
      </trkpt>
      <trkpt lat="45.66353" lon="6.87044">
        <ele>2082.3530273438</ele>
        <time>2016-08-21T09:58:46Z</time>
      </trkpt>
      <trkpt lat="45.66343" lon="6.8704">
        <ele>2082.3530273438</ele>
        <time>2016-08-21T09:58:47Z</time>
      </trkpt>
      <trkpt lat="45.66312" lon="6.8704">
        <ele>2078.0270996094</ele>
        <time>2016-08-21T09:58:50Z</time>
      </trkpt>
      <trkpt lat="45.66263" lon="6.87062">
        <ele>2074.181640625</ele>
        <time>2016-08-21T09:58:55Z</time>
      </trkpt>
      <trkpt lat="45.66254" lon="6.87067">
        <ele>2073.7009277344</ele>
        <time>2016-08-21T09:58:56Z</time>
      </trkpt>
      <trkpt lat="45.66234" lon="6.87067">
        <ele>2073.2204589844</ele>
        <time>2016-08-21T09:58:59Z</time>
      </trkpt>
      <trkpt lat="45.66229" lon="6.87049">
        <ele>2072.7397460938</ele>
        <time>2016-08-21T09:59:01Z</time>
      </trkpt>
      <trkpt lat="45.66235" lon="6.87031">
        <ele>2072.7397460938</ele>
        <time>2016-08-21T09:59:03Z</time>
      </trkpt>
      <trkpt lat="45.66243" lon="6.87">
        <ele>2071.2976074219</ele>
        <time>2016-08-21T09:59:06Z</time>
      </trkpt>
      <trkpt lat="45.66244" lon="6.86975">
        <ele>2073.2204589844</ele>
        <time>2016-08-21T09:59:08Z</time>
      </trkpt>
      <trkpt lat="45.66237" lon="6.86937">
        <ele>2071.7783203125</ele>
        <time>2016-08-21T09:59:11Z</time>
      </trkpt>
      <trkpt lat="45.66232" lon="6.86926">
        <ele>2071.2976074219</ele>
        <time>2016-08-21T09:59:12Z</time>
      </trkpt>
      <trkpt lat="45.66225" lon="6.86917">
        <ele>2071.2976074219</ele>
        <time>2016-08-21T09:59:13Z</time>
      </trkpt>
      <trkpt lat="45.66208" lon="6.86904">
        <ele>2069.8557128906</ele>
        <time>2016-08-21T09:59:15Z</time>
      </trkpt>
      <trkpt lat="45.66172" lon="6.86858">
        <ele>2067.4523925781</ele>
        <time>2016-08-21T09:59:20Z</time>
      </trkpt>
      <trkpt lat="45.66157" lon="6.86821">
        <ele>2066.9719238281</ele>
        <time>2016-08-21T09:59:23Z</time>
      </trkpt>
      <trkpt lat="45.66117" lon="6.86762">
        <ele>2065.5300292969</ele>
        <time>2016-08-21T09:59:29Z</time>
      </trkpt>
      <trkpt lat="45.66102" lon="6.86744">
        <ele>2062.6459960938</ele>
        <time>2016-08-21T09:59:31Z</time>
      </trkpt>
      <trkpt lat="45.6607" lon="6.8671">
        <ele>2058.8005371094</ele>
        <time>2016-08-21T09:59:35Z</time>
      </trkpt>
      <trkpt lat="45.66039" lon="6.86668">
        <ele>2055.9165039062</ele>
        <time>2016-08-21T09:59:39Z</time>
      </trkpt>
      <trkpt lat="45.66032" lon="6.86657">
        <ele>2056.8779296875</ele>
        <time>2016-08-21T09:59:40Z</time>
      </trkpt>
      <trkpt lat="45.66009" lon="6.86623">
        <ele>2054.474609375</ele>
        <time>2016-08-21T09:59:43Z</time>
      </trkpt>
      <trkpt lat="45.65983" lon="6.86595">
        <ele>2053.0327148438</ele>
        <time>2016-08-21T09:59:46Z</time>
      </trkpt>
      <trkpt lat="45.65954" lon="6.86546">
        <ele>2048.7067871094</ele>
        <time>2016-08-21T09:59:50Z</time>
      </trkpt>
      <trkpt lat="45.65948" lon="6.86532">
        <ele>2048.7067871094</ele>
        <time>2016-08-21T09:59:51Z</time>
      </trkpt>
      <trkpt lat="45.65931" lon="6.8649">
        <ele>2046.7841796875</ele>
        <time>2016-08-21T09:59:54Z</time>
      </trkpt>
      <trkpt lat="45.6592" lon="6.86463">
        <ele>2046.3037109375</ele>
        <time>2016-08-21T09:59:56Z</time>
      </trkpt>
      <trkpt lat="45.6589" lon="6.8642">
        <ele>2042.4582519531</ele>
        <time>2016-08-21T10:00:00Z</time>
      </trkpt>
      <trkpt lat="45.6587" lon="6.86408">
        <ele>2041.4968261719</ele>
        <time>2016-08-21T10:00:02Z</time>
      </trkpt>
      <trkpt lat="45.65842" lon="6.86396">
        <ele>2039.57421875</ele>
        <time>2016-08-21T10:00:05Z</time>
      </trkpt>
      <trkpt lat="45.65801" lon="6.8636">
        <ele>2038.1323242188</ele>
        <time>2016-08-21T10:00:10Z</time>
      </trkpt>
      <trkpt lat="45.65784" lon="6.86346">
        <ele>2038.6130371094</ele>
        <time>2016-08-21T10:00:12Z</time>
      </trkpt>
      <trkpt lat="45.65766" lon="6.86336">
        <ele>2037.1708984375</ele>
        <time>2016-08-21T10:00:14Z</time>
      </trkpt>
      <trkpt lat="45.65748" lon="6.86327">
        <ele>2037.1708984375</ele>
        <time>2016-08-21T10:00:16Z</time>
      </trkpt>
      <trkpt lat="45.65707" lon="6.86288">
        <ele>2034.7678222656</ele>
        <time>2016-08-21T10:00:21Z</time>
      </trkpt>
      <trkpt lat="45.65691" lon="6.8627">
        <ele>2032.8449707031</ele>
        <time>2016-08-21T10:00:23Z</time>
      </trkpt>
      <trkpt lat="45.65669" lon="6.86221">
        <ele>2033.3256835938</ele>
        <time>2016-08-21T10:00:27Z</time>
      </trkpt>
      <trkpt lat="45.65654" lon="6.86182">
        <ele>2031.8837890625</ele>
        <time>2016-08-21T10:00:30Z</time>
      </trkpt>
      <trkpt lat="45.65647" lon="6.86171">
        <ele>2029.9611816406</ele>
        <time>2016-08-21T10:00:31Z</time>
      </trkpt>
      <trkpt lat="45.65632" lon="6.8615">
        <ele>2028.9997558594</ele>
        <time>2016-08-21T10:00:33Z</time>
      </trkpt>
      <trkpt lat="45.65594" lon="6.86126">
        <ele>2025.6350097656</ele>
        <time>2016-08-21T10:00:37Z</time>
      </trkpt>
      <trkpt lat="45.65545" lon="6.86102">
        <ele>2023.2319335938</ele>
        <time>2016-08-21T10:00:42Z</time>
      </trkpt>
      <trkpt lat="45.65523" lon="6.8607">
        <ele>2021.7897949219</ele>
        <time>2016-08-21T10:00:45Z</time>
      </trkpt>
      <trkpt lat="45.65512" lon="6.86044">
        <ele>2020.8286132812</ele>
        <time>2016-08-21T10:00:47Z</time>
      </trkpt>
      <trkpt lat="45.65501" lon="6.86017">
        <ele>2020.3479003906</ele>
        <time>2016-08-21T10:00:49Z</time>
      </trkpt>
      <trkpt lat="45.6548" lon="6.85982">
        <ele>2015.5415039062</ele>
        <time>2016-08-21T10:00:52Z</time>
      </trkpt>
      <trkpt lat="45.65451" lon="6.85965">
        <ele>2014.0993652344</ele>
        <time>2016-08-21T10:00:55Z</time>
      </trkpt>
      <trkpt lat="45.6543" lon="6.85959">
        <ele>2013.1381835938</ele>
        <time>2016-08-21T10:00:57Z</time>
      </trkpt>
      <trkpt lat="45.65394" lon="6.85928">
        <ele>2011.2153320312</ele>
        <time>2016-08-21T10:01:01Z</time>
      </trkpt>
      <trkpt lat="45.65386" lon="6.85917">
        <ele>2010.7346191406</ele>
        <time>2016-08-21T10:01:02Z</time>
      </trkpt>
      <trkpt lat="45.65337" lon="6.85849">
        <ele>2007.8508300781</ele>
        <time>2016-08-21T10:01:08Z</time>
      </trkpt>
      <trkpt lat="45.65297" lon="6.85816">
        <ele>2008.3312988281</ele>
        <time>2016-08-21T10:01:12Z</time>
      </trkpt>
      <trkpt lat="45.65255" lon="6.85797">
        <ele>2004.966796875</ele>
        <time>2016-08-21T10:01:16Z</time>
      </trkpt>
      <trkpt lat="45.65218" lon="6.85769">
        <ele>2003.0441894531</ele>
        <time>2016-08-21T10:01:20Z</time>
      </trkpt>
      <trkpt lat="45.65209" lon="6.85759">
        <ele>2003.0441894531</ele>
        <time>2016-08-21T10:01:21Z</time>
      </trkpt>
      <trkpt lat="45.65165" lon="6.85711">
        <ele>2001.6022949219</ele>
        <time>2016-08-21T10:01:26Z</time>
      </trkpt>
      <trkpt lat="45.65136" lon="6.85691">
        <ele>1996.3151855469</ele>
        <time>2016-08-21T10:01:29Z</time>
      </trkpt>
      <trkpt lat="45.65126" lon="6.85685">
        <ele>1996.3151855469</ele>
        <time>2016-08-21T10:01:30Z</time>
      </trkpt>
      <trkpt lat="45.65087" lon="6.85659">
        <ele>1995.353515625</ele>
        <time>2016-08-21T10:01:34Z</time>
      </trkpt>
      <trkpt lat="45.65069" lon="6.85649">
        <ele>1995.353515625</ele>
        <time>2016-08-21T10:01:36Z</time>
      </trkpt>
      <trkpt lat="45.65039" lon="6.85616">
        <ele>1995.353515625</ele>
        <time>2016-08-21T10:01:40Z</time>
      </trkpt>
      <trkpt lat="45.65034" lon="6.85605">
        <ele>1994.8728027344</ele>
        <time>2016-08-21T10:01:41Z</time>
      </trkpt>
      <trkpt lat="45.65019" lon="6.85569">
        <ele>1993.9116210938</ele>
        <time>2016-08-21T10:01:44Z</time>
      </trkpt>
      <trkpt lat="45.64985" lon="6.85512">
        <ele>1991.5083007812</ele>
        <time>2016-08-21T10:01:49Z</time>
      </trkpt>
      <trkpt lat="45.64978" lon="6.85499">
        <ele>1991.9890136719</ele>
        <time>2016-08-21T10:01:50Z</time>
      </trkpt>
      <trkpt lat="45.64965" lon="6.85456">
        <ele>1988.6245117188</ele>
        <time>2016-08-21T10:01:53Z</time>
      </trkpt>
      <trkpt lat="45.64963" lon="6.8544">
        <ele>1988.1437988281</ele>
        <time>2016-08-21T10:01:54Z</time>
      </trkpt>
      <trkpt lat="45.64955" lon="6.8541">
        <ele>1987.6630859375</ele>
        <time>2016-08-21T10:01:56Z</time>
      </trkpt>
      <trkpt lat="45.64938" lon="6.85369">
        <ele>1982.8564453125</ele>
        <time>2016-08-21T10:01:59Z</time>
      </trkpt>
      <trkpt lat="45.64931" lon="6.85355">
        <ele>1983.8178710938</ele>
        <time>2016-08-21T10:02:00Z</time>
      </trkpt>
      <trkpt lat="45.64913" lon="6.85314">
        <ele>1982.8564453125</ele>
        <time>2016-08-21T10:02:03Z</time>
      </trkpt>
      <trkpt lat="45.64889" lon="6.85281">
        <ele>1979.9724121094</ele>
        <time>2016-08-21T10:02:06Z</time>
      </trkpt>
      <trkpt lat="45.64869" lon="6.85268">
        <ele>1979.4916992188</ele>
        <time>2016-08-21T10:02:08Z</time>
      </trkpt>
      <trkpt lat="45.64791" lon="6.85227">
        <ele>1977.5690917969</ele>
        <time>2016-08-21T10:02:16Z</time>
      </trkpt>
      <trkpt lat="45.64763" lon="6.85212">
        <ele>1974.6853027344</ele>
        <time>2016-08-21T10:02:19Z</time>
      </trkpt>
      <trkpt lat="45.64732" lon="6.85206">
        <ele>1973.7238769531</ele>
        <time>2016-08-21T10:02:22Z</time>
      </trkpt>
      <trkpt lat="45.64703" lon="6.85191">
        <ele>1972.2819824219</ele>
        <time>2016-08-21T10:02:25Z</time>
      </trkpt>
      <trkpt lat="45.64696" lon="6.85181">
        <ele>1972.2819824219</ele>
        <time>2016-08-21T10:02:26Z</time>
      </trkpt>
      <trkpt lat="45.64664" lon="6.85134">
        <ele>1968.4367675781</ele>
        <time>2016-08-21T10:02:30Z</time>
      </trkpt>
      <trkpt lat="45.64606" lon="6.85055">
        <ele>1966.0334472656</ele>
        <time>2016-08-21T10:02:37Z</time>
      </trkpt>
      <trkpt lat="45.64579" lon="6.85024">
        <ele>1965.072265625</ele>
        <time>2016-08-21T10:02:40Z</time>
      </trkpt>
      <trkpt lat="45.64546" lon="6.84961">
        <ele>1961.7075195312</ele>
        <time>2016-08-21T10:02:45Z</time>
      </trkpt>
      <trkpt lat="45.64513" lon="6.8492">
        <ele>1960.2653808594</ele>
        <time>2016-08-21T10:02:49Z</time>
      </trkpt>
      <trkpt lat="45.64481" lon="6.84872">
        <ele>1958.8234863281</ele>
        <time>2016-08-21T10:02:53Z</time>
      </trkpt>
      <trkpt lat="45.64454" lon="6.84819">
        <ele>1956.4201660156</ele>
        <time>2016-08-21T10:02:57Z</time>
      </trkpt>
      <trkpt lat="45.64422" lon="6.84781">
        <ele>1954.9782714844</ele>
        <time>2016-08-21T10:03:01Z</time>
      </trkpt>
      <trkpt lat="45.64402" lon="6.8477">
        <ele>1950.65234375</ele>
        <time>2016-08-21T10:03:03Z</time>
      </trkpt>
      <trkpt lat="45.64392" lon="6.84766">
        <ele>1951.1330566406</ele>
        <time>2016-08-21T10:03:04Z</time>
      </trkpt>
      <trkpt lat="45.64344" lon="6.84732">
        <ele>1949.2104492188</ele>
        <time>2016-08-21T10:03:09Z</time>
      </trkpt>
      <trkpt lat="45.64325" lon="6.84712">
        <ele>1947.7683105469</ele>
        <time>2016-08-21T10:03:11Z</time>
      </trkpt>
      <trkpt lat="45.64284" lon="6.8465">
        <ele>1946.3264160156</ele>
        <time>2016-08-21T10:03:16Z</time>
      </trkpt>
      <trkpt lat="45.64277" lon="6.84637">
        <ele>1942.9616699219</ele>
        <time>2016-08-21T10:03:17Z</time>
      </trkpt>
      <trkpt lat="45.64269" lon="6.84624">
        <ele>1942.9616699219</ele>
        <time>2016-08-21T10:03:18Z</time>
      </trkpt>
      <trkpt lat="45.64229" lon="6.84567">
        <ele>1940.5583496094</ele>
        <time>2016-08-21T10:03:23Z</time>
      </trkpt>
      <trkpt lat="45.64222" lon="6.84557">
        <ele>1940.5583496094</ele>
        <time>2016-08-21T10:03:24Z</time>
      </trkpt>
      <trkpt lat="45.64199" lon="6.84507">
        <ele>1940.5583496094</ele>
        <time>2016-08-21T10:03:28Z</time>
      </trkpt>
      <trkpt lat="45.64184" lon="6.84455">
        <ele>1938.1552734375</ele>
        <time>2016-08-21T10:03:32Z</time>
      </trkpt>
      <trkpt lat="45.6417" lon="6.84427">
        <ele>1935.2712402344</ele>
        <time>2016-08-21T10:03:35Z</time>
      </trkpt>
      <trkpt lat="45.64155" lon="6.84429">
        <ele>1935.751953125</ele>
        <time>2016-08-21T10:03:37Z</time>
      </trkpt>
      <trkpt lat="45.64148" lon="6.84433">
        <ele>1934.7907714844</ele>
        <time>2016-08-21T10:03:38Z</time>
      </trkpt>
      <trkpt lat="45.64118" lon="6.84457">
        <ele>1932.8679199219</ele>
        <time>2016-08-21T10:03:42Z</time>
      </trkpt>
      <trkpt lat="45.64097" lon="6.8448">
        <ele>1931.42578125</ele>
        <time>2016-08-21T10:03:45Z</time>
      </trkpt>
      <trkpt lat="45.64048" lon="6.84524">
        <ele>1928.5419921875</ele>
        <time>2016-08-21T10:03:51Z</time>
      </trkpt>
      <trkpt lat="45.64029" lon="6.84534">
        <ele>1928.5419921875</ele>
        <time>2016-08-21T10:03:53Z</time>
      </trkpt>
      <trkpt lat="45.64002" lon="6.84555">
        <ele>1926.138671875</ele>
        <time>2016-08-21T10:03:56Z</time>
      </trkpt>
      <trkpt lat="45.63966" lon="6.84588">
        <ele>1924.2160644531</ele>
        <time>2016-08-21T10:04:00Z</time>
      </trkpt>
      <trkpt lat="45.63942" lon="6.84619">
        <ele>1922.2934570312</ele>
        <time>2016-08-21T10:04:03Z</time>
      </trkpt>
      <trkpt lat="45.63907" lon="6.84649">
        <ele>1920.8515625</ele>
        <time>2016-08-21T10:04:07Z</time>
      </trkpt>
      <trkpt lat="45.63866" lon="6.84664">
        <ele>1917.9675292969</ele>
        <time>2016-08-21T10:04:11Z</time>
      </trkpt>
      <trkpt lat="45.63845" lon="6.84669">
        <ele>1917.4868164062</ele>
        <time>2016-08-21T10:04:13Z</time>
      </trkpt>
      <trkpt lat="45.63824" lon="6.84668">
        <ele>1916.5256347656</ele>
        <time>2016-08-21T10:04:15Z</time>
      </trkpt>
      <trkpt lat="45.63783" lon="6.84685">
        <ele>1916.044921875</ele>
        <time>2016-08-21T10:04:19Z</time>
      </trkpt>
      <trkpt lat="45.63765" lon="6.8472">
        <ele>1913.6413574219</ele>
        <time>2016-08-21T10:04:22Z</time>
      </trkpt>
      <trkpt lat="45.63761" lon="6.84748">
        <ele>1911.7189941406</ele>
        <time>2016-08-21T10:04:24Z</time>
      </trkpt>
      <trkpt lat="45.63758" lon="6.84806">
        <ele>1910.7575683594</ele>
        <time>2016-08-21T10:04:28Z</time>
      </trkpt>
      <trkpt lat="45.6374" lon="6.84862">
        <ele>1909.3156738281</ele>
        <time>2016-08-21T10:04:32Z</time>
      </trkpt>
      <trkpt lat="45.63712" lon="6.84915">
        <ele>1906.431640625</ele>
        <time>2016-08-21T10:04:36Z</time>
      </trkpt>
      <trkpt lat="45.63676" lon="6.84958">
        <ele>1904.0285644531</ele>
        <time>2016-08-21T10:04:40Z</time>
      </trkpt>
      <trkpt lat="45.63666" lon="6.84967">
        <ele>1904.0285644531</ele>
        <time>2016-08-21T10:04:41Z</time>
      </trkpt>
      <trkpt lat="45.6362" lon="6.85019">
        <ele>1901.6252441406</ele>
        <time>2016-08-21T10:04:46Z</time>
      </trkpt>
      <trkpt lat="45.63602" lon="6.85039">
        <ele>1900.6638183594</ele>
        <time>2016-08-21T10:04:48Z</time>
      </trkpt>
      <trkpt lat="45.63573" lon="6.85045">
        <ele>1898.2602539062</ele>
        <time>2016-08-21T10:04:51Z</time>
      </trkpt>
      <trkpt lat="45.63564" lon="6.85039">
        <ele>1898.7409667969</ele>
        <time>2016-08-21T10:04:52Z</time>
      </trkpt>
      <trkpt lat="45.63546" lon="6.85027">
        <ele>1898.7409667969</ele>
        <time>2016-08-21T10:04:54Z</time>
      </trkpt>
      <trkpt lat="45.63506" lon="6.85014">
        <ele>1895.8571777344</ele>
        <time>2016-08-21T10:04:58Z</time>
      </trkpt>
      <trkpt lat="45.63473" lon="6.84982">
        <ele>1894.4150390625</ele>
        <time>2016-08-21T10:05:02Z</time>
      </trkpt>
      <trkpt lat="45.63467" lon="6.84969">
        <ele>1893.9345703125</ele>
        <time>2016-08-21T10:05:03Z</time>
      </trkpt>
      <trkpt lat="45.63434" lon="6.84917">
        <ele>1891.0505371094</ele>
        <time>2016-08-21T10:05:08Z</time>
      </trkpt>
      <trkpt lat="45.63414" lon="6.84909">
        <ele>1889.6086425781</ele>
        <time>2016-08-21T10:05:10Z</time>
      </trkpt>
      <trkpt lat="45.63352" lon="6.84901">
        <ele>1887.2053222656</ele>
        <time>2016-08-21T10:05:16Z</time>
      </trkpt>
      <trkpt lat="45.63308" lon="6.84905">
        <ele>1884.3215332031</ele>
        <time>2016-08-21T10:05:20Z</time>
      </trkpt>
      <trkpt lat="45.63285" lon="6.84904">
        <ele>1883.8405761719</ele>
        <time>2016-08-21T10:05:22Z</time>
      </trkpt>
      <trkpt lat="45.63242" lon="6.84885">
        <ele>1880.4760742188</ele>
        <time>2016-08-21T10:05:26Z</time>
      </trkpt>
      <trkpt lat="45.63233" lon="6.84876">
        <ele>1879.9953613281</ele>
        <time>2016-08-21T10:05:27Z</time>
      </trkpt>
      <trkpt lat="45.63215" lon="6.84856">
        <ele>1879.5146484375</ele>
        <time>2016-08-21T10:05:29Z</time>
      </trkpt>
      <trkpt lat="45.63191" lon="6.8482">
        <ele>1877.1115722656</ele>
        <time>2016-08-21T10:05:32Z</time>
      </trkpt>
      <trkpt lat="45.63163" lon="6.84791">
        <ele>1875.6694335938</ele>
        <time>2016-08-21T10:05:35Z</time>
      </trkpt>
      <trkpt lat="45.63142" lon="6.84777">
        <ele>1873.7468261719</ele>
        <time>2016-08-21T10:05:37Z</time>
      </trkpt>
      <trkpt lat="45.63115" lon="6.84746">
        <ele>1871.82421875</ele>
        <time>2016-08-21T10:05:40Z</time>
      </trkpt>
      <trkpt lat="45.63087" lon="6.84721">
        <ele>1868.4597167969</ele>
        <time>2016-08-21T10:05:43Z</time>
      </trkpt>
      <trkpt lat="45.63076" lon="6.84715">
        <ele>1868.9404296875</ele>
        <time>2016-08-21T10:05:44Z</time>
      </trkpt>
      <trkpt lat="45.63066" lon="6.84709">
        <ele>1868.4597167969</ele>
        <time>2016-08-21T10:05:45Z</time>
      </trkpt>
      <trkpt lat="45.63048" lon="6.84693">
        <ele>1867.498046875</ele>
        <time>2016-08-21T10:05:47Z</time>
      </trkpt>
      <trkpt lat="45.63033" lon="6.84674">
        <ele>1866.0561523438</ele>
        <time>2016-08-21T10:05:49Z</time>
      </trkpt>
      <trkpt lat="45.63013" lon="6.84658">
        <ele>1864.6142578125</ele>
        <time>2016-08-21T10:05:52Z</time>
      </trkpt>
      <trkpt lat="45.63" lon="6.84668">
        <ele>1864.1335449219</ele>
        <time>2016-08-21T10:05:54Z</time>
      </trkpt>
      <trkpt lat="45.62994" lon="6.84677">
        <ele>1863.1723632812</ele>
        <time>2016-08-21T10:05:55Z</time>
      </trkpt>
      <trkpt lat="45.62954" lon="6.84727">
        <ele>1862.2109375</ele>
        <time>2016-08-21T10:06:01Z</time>
      </trkpt>
      <trkpt lat="45.6291" lon="6.84779">
        <ele>1860.2883300781</ele>
        <time>2016-08-21T10:06:07Z</time>
      </trkpt>
      <trkpt lat="45.62903" lon="6.84788">
        <ele>1860.2883300781</ele>
        <time>2016-08-21T10:06:08Z</time>
      </trkpt>
      <trkpt lat="45.62869" lon="6.84818">
        <ele>1858.8464355469</ele>
        <time>2016-08-21T10:06:12Z</time>
      </trkpt>
      <trkpt lat="45.62839" lon="6.84831">
        <ele>1856.923828125</ele>
        <time>2016-08-21T10:06:15Z</time>
      </trkpt>
      <trkpt lat="45.6279" lon="6.84858">
        <ele>1854.5205078125</ele>
        <time>2016-08-21T10:06:20Z</time>
      </trkpt>
      <trkpt lat="45.62758" lon="6.84899">
        <ele>1852.5979003906</ele>
        <time>2016-08-21T10:06:24Z</time>
      </trkpt>
      <trkpt lat="45.62751" lon="6.84911">
        <ele>1853.0786132812</ele>
        <time>2016-08-21T10:06:25Z</time>
      </trkpt>
      <trkpt lat="45.62734" lon="6.84943">
        <ele>1849.2331542969</ele>
        <time>2016-08-21T10:06:28Z</time>
      </trkpt>
      <trkpt lat="45.62709" lon="6.84967">
        <ele>1848.2717285156</ele>
        <time>2016-08-21T10:06:32Z</time>
      </trkpt>
      <trkpt lat="45.62697" lon="6.84977">
        <ele>1846.8298339844</ele>
        <time>2016-08-21T10:06:34Z</time>
      </trkpt>
      <trkpt lat="45.62681" lon="6.84997">
        <ele>1846.8298339844</ele>
        <time>2016-08-21T10:06:37Z</time>
      </trkpt>
      <trkpt lat="45.62667" lon="6.85041">
        <ele>1845.3879394531</ele>
        <time>2016-08-21T10:06:42Z</time>
      </trkpt>
      <trkpt lat="45.62647" lon="6.85074">
        <ele>1843.9460449219</ele>
        <time>2016-08-21T10:06:46Z</time>
      </trkpt>
      <trkpt lat="45.62616" lon="6.85113">
        <ele>1842.5041503906</ele>
        <time>2016-08-21T10:06:51Z</time>
      </trkpt>
      <trkpt lat="45.62597" lon="6.85157">
        <ele>1841.0620117188</ele>
        <time>2016-08-21T10:06:55Z</time>
      </trkpt>
      <trkpt lat="45.62593" lon="6.85169">
        <ele>1840.5812988281</ele>
        <time>2016-08-21T10:06:56Z</time>
      </trkpt>
      <trkpt lat="45.62583" lon="6.85209">
        <ele>1840.5812988281</ele>
        <time>2016-08-21T10:06:59Z</time>
      </trkpt>
      <trkpt lat="45.62579" lon="6.85237">
        <ele>1839.1394042969</ele>
        <time>2016-08-21T10:07:01Z</time>
      </trkpt>
      <trkpt lat="45.62571" lon="6.85313">
        <ele>1837.6975097656</ele>
        <time>2016-08-21T10:07:06Z</time>
      </trkpt>
      <trkpt lat="45.62567" lon="6.85391">
        <ele>1835.7746582031</ele>
        <time>2016-08-21T10:07:11Z</time>
      </trkpt>
      <trkpt lat="45.62563" lon="6.85417">
        <ele>1832.41015625</ele>
        <time>2016-08-21T10:07:13Z</time>
      </trkpt>
      <trkpt lat="45.62562" lon="6.8543">
        <ele>1832.41015625</ele>
        <time>2016-08-21T10:07:14Z</time>
      </trkpt>
      <trkpt lat="45.62561" lon="6.855">
        <ele>1830.9682617188</ele>
        <time>2016-08-21T10:07:19Z</time>
      </trkpt>
      <trkpt lat="45.62554" lon="6.85527">
        <ele>1830.0068359375</ele>
        <time>2016-08-21T10:07:21Z</time>
      </trkpt>
      <trkpt lat="45.62531" lon="6.85575">
        <ele>1826.1616210938</ele>
        <time>2016-08-21T10:07:25Z</time>
      </trkpt>
      <trkpt lat="45.62525" lon="6.85588">
        <ele>1826.6423339844</ele>
        <time>2016-08-21T10:07:26Z</time>
      </trkpt>
      <trkpt lat="45.62497" lon="6.85655">
        <ele>1823.2778320312</ele>
        <time>2016-08-21T10:07:31Z</time>
      </trkpt>
      <trkpt lat="45.62491" lon="6.85668">
        <ele>1822.7971191406</ele>
        <time>2016-08-21T10:07:32Z</time>
      </trkpt>
      <trkpt lat="45.62454" lon="6.85718">
        <ele>1818.4709472656</ele>
        <time>2016-08-21T10:07:37Z</time>
      </trkpt>
      <trkpt lat="45.62447" lon="6.85725">
        <ele>1816.0676269531</ele>
        <time>2016-08-21T10:07:38Z</time>
      </trkpt>
      <trkpt lat="45.62427" lon="6.85732">
        <ele>1814.6257324219</ele>
        <time>2016-08-21T10:07:41Z</time>
      </trkpt>
      <trkpt lat="45.62409" lon="6.85735">
        <ele>1813.6643066406</ele>
        <time>2016-08-21T10:07:44Z</time>
      </trkpt>
      <trkpt lat="45.62404" lon="6.85749">
        <ele>1811.2612304688</ele>
        <time>2016-08-21T10:07:47Z</time>
      </trkpt>
      <trkpt lat="45.62406" lon="6.85756">
        <ele>1811.7419433594</ele>
        <time>2016-08-21T10:07:50Z</time>
      </trkpt>
      <trkpt lat="45.62408" lon="6.85755">
        <ele>1812.2224121094</ele>
        <time>2016-08-21T10:07:55Z</time>
      </trkpt>
      <trkpt lat="45.62409" lon="6.85755">
        <ele>1811.2612304688</ele>
        <time>2016-08-21T10:08:02Z</time>
      </trkpt>
      <trkpt lat="45.62409" lon="6.85753">
        <ele>1811.7419433594</ele>
        <time>2016-08-21T10:08:17Z</time>
      </trkpt>
      <trkpt lat="45.62408" lon="6.85753">
        <ele>1811.2612304688</ele>
        <time>2016-08-21T10:08:23Z</time>
      </trkpt>
      <trkpt lat="45.62408" lon="6.85753">
        <ele>1811.2612304688</ele>
        <time>2016-08-21T10:08:24Z</time>
      </trkpt>
      <trkpt lat="45.62408" lon="6.85752">
        <ele>1812.2224121094</ele>
        <time>2016-08-21T10:08:31Z</time>
      </trkpt>
      <trkpt lat="45.62407" lon="6.8575">
        <ele>1814.1450195312</ele>
        <time>2016-08-21T10:09:13Z</time>
      </trkpt>
      <trkpt lat="45.62407" lon="6.8575">
        <ele>1813.6643066406</ele>
        <time>2016-08-21T10:09:44Z</time>
      </trkpt>
      <trkpt lat="45.62407" lon="6.85751">
        <ele>1815.5871582031</ele>
        <time>2016-08-21T10:10:09Z</time>
      </trkpt>
      <trkpt lat="45.62407" lon="6.85751">
        <ele>1815.1064453125</ele>
        <time>2016-08-21T10:10:19Z</time>
      </trkpt>
      <trkpt lat="45.62407" lon="6.85751">
        <ele>1816.5483398438</ele>
        <time>2016-08-21T10:10:39Z</time>
      </trkpt>
      <trkpt lat="45.62407" lon="6.85752">
        <ele>1813.1838378906</ele>
        <time>2016-08-21T10:11:24Z</time>
      </trkpt>
      <trkpt lat="45.62407" lon="6.85752">
        <ele>1815.1064453125</ele>
        <time>2016-08-21T10:11:43Z</time>
      </trkpt>
      <trkpt lat="45.62407" lon="6.85752">
        <ele>1815.1064453125</ele>
        <time>2016-08-21T10:11:47Z</time>
      </trkpt>
      <trkpt lat="45.62407" lon="6.85752">
        <ele>1816.5483398438</ele>
        <time>2016-08-21T10:11:50Z</time>
      </trkpt>
      <trkpt lat="45.62408" lon="6.85752">
        <ele>1816.5483398438</ele>
        <time>2016-08-21T10:11:52Z</time>
      </trkpt>
      <trkpt lat="45.62408" lon="6.85752">
        <ele>1816.0676269531</ele>
        <time>2016-08-21T10:12:01Z</time>
      </trkpt>
      <trkpt lat="45.62407" lon="6.85754">
        <ele>1816.0676269531</ele>
        <time>2016-08-21T10:12:22Z</time>
      </trkpt>
      <trkpt lat="45.62407" lon="6.85755">
        <ele>1816.5483398438</ele>
        <time>2016-08-21T10:12:26Z</time>
      </trkpt>
      <trkpt lat="45.62402" lon="6.85761">
        <ele>1816.5483398438</ele>
        <time>2016-08-21T10:12:31Z</time>
      </trkpt>
      <trkpt lat="45.62401" lon="6.85769">
        <ele>1817.0290527344</ele>
        <time>2016-08-21T10:12:33Z</time>
      </trkpt>
      <trkpt lat="45.62398" lon="6.85808">
        <ele>1816.0676269531</ele>
        <time>2016-08-21T10:12:40Z</time>
      </trkpt>
      <trkpt lat="45.62398" lon="6.85822">
        <ele>1815.1064453125</ele>
        <time>2016-08-21T10:12:42Z</time>
      </trkpt>
      <trkpt lat="45.62398" lon="6.85855">
        <ele>1814.6257324219</ele>
        <time>2016-08-21T10:12:46Z</time>
      </trkpt>
      <trkpt lat="45.62399" lon="6.85925">
        <ele>1813.6643066406</ele>
        <time>2016-08-21T10:12:53Z</time>
      </trkpt>
      <trkpt lat="45.62399" lon="6.85985">
        <ele>1811.7419433594</ele>
        <time>2016-08-21T10:12:58Z</time>
      </trkpt>
      <trkpt lat="45.624" lon="6.86064">
        <ele>1809.3386230469</ele>
        <time>2016-08-21T10:13:04Z</time>
      </trkpt>
      <trkpt lat="45.62402" lon="6.86092">
        <ele>1808.3771972656</ele>
        <time>2016-08-21T10:13:06Z</time>
      </trkpt>
      <trkpt lat="45.62406" lon="6.86121">
        <ele>1806.9353027344</ele>
        <time>2016-08-21T10:13:08Z</time>
      </trkpt>
      <trkpt lat="45.62408" lon="6.86167">
        <ele>1805.0126953125</ele>
        <time>2016-08-21T10:13:11Z</time>
      </trkpt>
      <trkpt lat="45.62413" lon="6.86231">
        <ele>1804.5319824219</ele>
        <time>2016-08-21T10:13:15Z</time>
      </trkpt>
      <trkpt lat="45.6241" lon="6.86315">
        <ele>1799.7253417969</ele>
        <time>2016-08-21T10:13:20Z</time>
      </trkpt>
      <trkpt lat="45.62403" lon="6.86382">
        <ele>1797.3220214844</ele>
        <time>2016-08-21T10:13:24Z</time>
      </trkpt>
      <trkpt lat="45.624" lon="6.8643">
        <ele>1795.8801269531</ele>
        <time>2016-08-21T10:13:27Z</time>
      </trkpt>
      <trkpt lat="45.62406" lon="6.86471">
        <ele>1792.515625</ele>
        <time>2016-08-21T10:13:30Z</time>
      </trkpt>
      <trkpt lat="45.62411" lon="6.86483">
        <ele>1791.5541992188</ele>
        <time>2016-08-21T10:13:31Z</time>
      </trkpt>
      <trkpt lat="45.6242" lon="6.86521">
        <ele>1786.7473144531</ele>
        <time>2016-08-21T10:13:35Z</time>
      </trkpt>
      <trkpt lat="45.62408" lon="6.86518">
        <ele>1786.7473144531</ele>
        <time>2016-08-21T10:13:37Z</time>
      </trkpt>
      <trkpt lat="45.62399" lon="6.86505">
        <ele>1785.7861328125</ele>
        <time>2016-08-21T10:13:39Z</time>
      </trkpt>
      <trkpt lat="45.62393" lon="6.86484">
        <ele>1786.2668457031</ele>
        <time>2016-08-21T10:13:41Z</time>
      </trkpt>
      <trkpt lat="45.62381" lon="6.8641">
        <ele>1784.3442382812</ele>
        <time>2016-08-21T10:13:47Z</time>
      </trkpt>
      <trkpt lat="45.62379" lon="6.86397">
        <ele>1784.8249511719</ele>
        <time>2016-08-21T10:13:48Z</time>
      </trkpt>
      <trkpt lat="45.62375" lon="6.86369">
        <ele>1784.3442382812</ele>
        <time>2016-08-21T10:13:50Z</time>
      </trkpt>
      <trkpt lat="45.62365" lon="6.86299">
        <ele>1781.9409179688</ele>
        <time>2016-08-21T10:13:55Z</time>
      </trkpt>
      <trkpt lat="45.62343" lon="6.86198">
        <ele>1780.4990234375</ele>
        <time>2016-08-21T10:14:02Z</time>
      </trkpt>
      <trkpt lat="45.62332" lon="6.86138">
        <ele>1777.1345214844</ele>
        <time>2016-08-21T10:14:06Z</time>
      </trkpt>
      <trkpt lat="45.62329" lon="6.86124">
        <ele>1777.1345214844</ele>
        <time>2016-08-21T10:14:07Z</time>
      </trkpt>
      <trkpt lat="45.62309" lon="6.86068">
        <ele>1774.2504882812</ele>
        <time>2016-08-21T10:14:11Z</time>
      </trkpt>
      <trkpt lat="45.62284" lon="6.86016">
        <ele>1772.3278808594</ele>
        <time>2016-08-21T10:14:15Z</time>
      </trkpt>
      <trkpt lat="45.62269" lon="6.85957">
        <ele>1768.9631347656</ele>
        <time>2016-08-21T10:14:19Z</time>
      </trkpt>
      <trkpt lat="45.62262" lon="6.85846">
        <ele>1765.5986328125</ele>
        <time>2016-08-21T10:14:26Z</time>
      </trkpt>
      <trkpt lat="45.62261" lon="6.85814">
        <ele>1763.67578125</ele>
        <time>2016-08-21T10:14:28Z</time>
      </trkpt>
      <trkpt lat="45.62274" lon="6.85755">
        <ele>1761.2727050781</ele>
        <time>2016-08-21T10:14:32Z</time>
      </trkpt>
      <trkpt lat="45.62294" lon="6.857">
        <ele>1758.388671875</ele>
        <time>2016-08-21T10:14:36Z</time>
      </trkpt>
      <trkpt lat="45.62296" lon="6.85684">
        <ele>1758.388671875</ele>
        <time>2016-08-21T10:14:37Z</time>
      </trkpt>
      <trkpt lat="45.62306" lon="6.85578">
        <ele>1754.5432128906</ele>
        <time>2016-08-21T10:14:44Z</time>
      </trkpt>
      <trkpt lat="45.62307" lon="6.85548">
        <ele>1753.58203125</ele>
        <time>2016-08-21T10:14:46Z</time>
      </trkpt>
      <trkpt lat="45.62306" lon="6.85502">
        <ele>1749.2561035156</ele>
        <time>2016-08-21T10:14:49Z</time>
      </trkpt>
      <trkpt lat="45.62296" lon="6.85423">
        <ele>1747.8142089844</ele>
        <time>2016-08-21T10:14:54Z</time>
      </trkpt>
      <trkpt lat="45.62287" lon="6.85361">
        <ele>1746.8527832031</ele>
        <time>2016-08-21T10:14:58Z</time>
      </trkpt>
      <trkpt lat="45.6229" lon="6.85302">
        <ele>1744.4494628906</ele>
        <time>2016-08-21T10:15:02Z</time>
      </trkpt>
      <trkpt lat="45.62299" lon="6.85248">
        <ele>1742.5270996094</ele>
        <time>2016-08-21T10:15:06Z</time>
      </trkpt>
      <trkpt lat="45.62315" lon="6.85189">
        <ele>1739.162109375</ele>
        <time>2016-08-21T10:15:11Z</time>
      </trkpt>
      <trkpt lat="45.62332" lon="6.85124">
        <ele>1739.162109375</ele>
        <time>2016-08-21T10:15:17Z</time>
      </trkpt>
      <trkpt lat="45.62337" lon="6.85103">
        <ele>1738.2009277344</ele>
        <time>2016-08-21T10:15:19Z</time>
      </trkpt>
      <trkpt lat="45.62337" lon="6.85083">
        <ele>1737.2395019531</ele>
        <time>2016-08-21T10:15:21Z</time>
      </trkpt>
      <trkpt lat="45.62327" lon="6.85074">
        <ele>1736.7587890625</ele>
        <time>2016-08-21T10:15:23Z</time>
      </trkpt>
      <trkpt lat="45.62317" lon="6.85087">
        <ele>1736.2783203125</ele>
        <time>2016-08-21T10:15:25Z</time>
      </trkpt>
      <trkpt lat="45.62312" lon="6.85109">
        <ele>1734.3557128906</ele>
        <time>2016-08-21T10:15:27Z</time>
      </trkpt>
      <trkpt lat="45.62311" lon="6.85121">
        <ele>1733.875</ele>
        <time>2016-08-21T10:15:28Z</time>
      </trkpt>
      <trkpt lat="45.62299" lon="6.85186">
        <ele>1732.9135742188</ele>
        <time>2016-08-21T10:15:33Z</time>
      </trkpt>
      <trkpt lat="45.6229" lon="6.85212">
        <ele>1730.5104980469</ele>
        <time>2016-08-21T10:15:35Z</time>
      </trkpt>
      <trkpt lat="45.62268" lon="6.85265">
        <ele>1729.5490722656</ele>
        <time>2016-08-21T10:15:39Z</time>
      </trkpt>
      <trkpt lat="45.62257" lon="6.85309">
        <ele>1727.6264648438</ele>
        <time>2016-08-21T10:15:42Z</time>
      </trkpt>
      <trkpt lat="45.6225" lon="6.85357">
        <ele>1727.6264648438</ele>
        <time>2016-08-21T10:15:45Z</time>
      </trkpt>
      <trkpt lat="45.62253" lon="6.85423">
        <ele>1727.1459960938</ele>
        <time>2016-08-21T10:15:49Z</time>
      </trkpt>
      <trkpt lat="45.62245" lon="6.85487">
        <ele>1724.2619628906</ele>
        <time>2016-08-21T10:15:53Z</time>
      </trkpt>
      <trkpt lat="45.6224" lon="6.85519">
        <ele>1720.8972167969</ele>
        <time>2016-08-21T10:15:55Z</time>
      </trkpt>
      <trkpt lat="45.6222" lon="6.85577">
        <ele>1719.9357910156</ele>
        <time>2016-08-21T10:15:59Z</time>
      </trkpt>
      <trkpt lat="45.62198" lon="6.85614">
        <ele>1716.0905761719</ele>
        <time>2016-08-21T10:16:02Z</time>
      </trkpt>
      <trkpt lat="45.62195" lon="6.85629">
        <ele>1716.0905761719</ele>
        <time>2016-08-21T10:16:03Z</time>
      </trkpt>
      <trkpt lat="45.62195" lon="6.85661">
        <ele>1714.16796875</ele>
        <time>2016-08-21T10:16:05Z</time>
      </trkpt>
      <trkpt lat="45.62193" lon="6.85708">
        <ele>1714.16796875</ele>
        <time>2016-08-21T10:16:08Z</time>
      </trkpt>
      <trkpt lat="45.62177" lon="6.8573">
        <ele>1712.2453613281</ele>
        <time>2016-08-21T10:16:10Z</time>
      </trkpt>
      <trkpt lat="45.6214" lon="6.85787">
        <ele>1709.8420410156</ele>
        <time>2016-08-21T10:16:15Z</time>
      </trkpt>
      <trkpt lat="45.62138" lon="6.85803">
        <ele>1709.8420410156</ele>
        <time>2016-08-21T10:16:16Z</time>
      </trkpt>
      <trkpt lat="45.62131" lon="6.85851">
        <ele>1705.9965820312</ele>
        <time>2016-08-21T10:16:19Z</time>
      </trkpt>
      <trkpt lat="45.62121" lon="6.85915">
        <ele>1703.1127929688</ele>
        <time>2016-08-21T10:16:23Z</time>
      </trkpt>
      <trkpt lat="45.62117" lon="6.8596">
        <ele>1700.2290039062</ele>
        <time>2016-08-21T10:16:26Z</time>
      </trkpt>
      <trkpt lat="45.62105" lon="6.85975">
        <ele>1697.3449707031</ele>
        <time>2016-08-21T10:16:29Z</time>
      </trkpt>
      <trkpt lat="45.62102" lon="6.85961">
        <ele>1700.7094726562</ele>
        <time>2016-08-21T10:16:31Z</time>
      </trkpt>
      <trkpt lat="45.62107" lon="6.85943">
        <ele>1698.7868652344</ele>
        <time>2016-08-21T10:16:33Z</time>
      </trkpt>
      <trkpt lat="45.62117" lon="6.85891">
        <ele>1697.8256835938</ele>
        <time>2016-08-21T10:16:38Z</time>
      </trkpt>
      <trkpt lat="45.6212" lon="6.85843">
        <ele>1696.8642578125</ele>
        <time>2016-08-21T10:16:42Z</time>
      </trkpt>
      <trkpt lat="45.62124" lon="6.8578">
        <ele>1698.3061523438</ele>
        <time>2016-08-21T10:16:47Z</time>
      </trkpt>
      <trkpt lat="45.62135" lon="6.85746">
        <ele>1693.98046875</ele>
        <time>2016-08-21T10:16:50Z</time>
      </trkpt>
      <trkpt lat="45.62141" lon="6.85735">
        <ele>1694.9416503906</ele>
        <time>2016-08-21T10:16:51Z</time>
      </trkpt>
      <trkpt lat="45.62149" lon="6.85699">
        <ele>1693.4997558594</ele>
        <time>2016-08-21T10:16:54Z</time>
      </trkpt>
      <trkpt lat="45.62147" lon="6.85685">
        <ele>1692.0578613281</ele>
        <time>2016-08-21T10:16:55Z</time>
      </trkpt>
      <trkpt lat="45.62149" lon="6.85617">
        <ele>1690.6154785156</ele>
        <time>2016-08-21T10:17:00Z</time>
      </trkpt>
      <trkpt lat="45.62172" lon="6.85521">
        <ele>1687.2509765625</ele>
        <time>2016-08-21T10:17:07Z</time>
      </trkpt>
      <trkpt lat="45.62174" lon="6.85507">
        <ele>1686.2897949219</ele>
        <time>2016-08-21T10:17:08Z</time>
      </trkpt>
      <trkpt lat="45.62171" lon="6.85465">
        <ele>1685.8090820312</ele>
        <time>2016-08-21T10:17:11Z</time>
      </trkpt>
      <trkpt lat="45.62167" lon="6.85452">
        <ele>1684.8479003906</ele>
        <time>2016-08-21T10:17:12Z</time>
      </trkpt>
      <trkpt lat="45.62152" lon="6.85381">
        <ele>1682.4445800781</ele>
        <time>2016-08-21T10:17:17Z</time>
      </trkpt>
      <trkpt lat="45.6215" lon="6.85337">
        <ele>1681.0026855469</ele>
        <time>2016-08-21T10:17:20Z</time>
      </trkpt>
      <trkpt lat="45.62146" lon="6.85266">
        <ele>1676.6767578125</ele>
        <time>2016-08-21T10:17:25Z</time>
      </trkpt>
      <trkpt lat="45.62146" lon="6.85252">
        <ele>1677.6379394531</ele>
        <time>2016-08-21T10:17:26Z</time>
      </trkpt>
      <trkpt lat="45.62146" lon="6.85238">
        <ele>1677.1574707031</ele>
        <time>2016-08-21T10:17:27Z</time>
      </trkpt>
      <trkpt lat="45.62154" lon="6.85153">
        <ele>1675.234375</ele>
        <time>2016-08-21T10:17:33Z</time>
      </trkpt>
      <trkpt lat="45.62156" lon="6.85139">
        <ele>1675.234375</ele>
        <time>2016-08-21T10:17:34Z</time>
      </trkpt>
      <trkpt lat="45.62163" lon="6.85111">
        <ele>1671.8698730469</ele>
        <time>2016-08-21T10:17:36Z</time>
      </trkpt>
      <trkpt lat="45.62177" lon="6.85071">
        <ele>1670.9086914062</ele>
        <time>2016-08-21T10:17:39Z</time>
      </trkpt>
      <trkpt lat="45.62183" lon="6.85012">
        <ele>1670.9086914062</ele>
        <time>2016-08-21T10:17:43Z</time>
      </trkpt>
      <trkpt lat="45.62176" lon="6.84904">
        <ele>1668.5053710938</ele>
        <time>2016-08-21T10:17:50Z</time>
      </trkpt>
      <trkpt lat="45.62177" lon="6.84857">
        <ele>1666.5827636719</ele>
        <time>2016-08-21T10:17:53Z</time>
      </trkpt>
      <trkpt lat="45.6218" lon="6.8481">
        <ele>1665.1408691406</ele>
        <time>2016-08-21T10:17:56Z</time>
      </trkpt>
      <trkpt lat="45.6218" lon="6.84779">
        <ele>1663.2182617188</ele>
        <time>2016-08-21T10:17:58Z</time>
      </trkpt>
      <trkpt lat="45.62173" lon="6.84667">
        <ele>1659.8532714844</ele>
        <time>2016-08-21T10:18:05Z</time>
      </trkpt>
      <trkpt lat="45.62192" lon="6.8461">
        <ele>1656.0080566406</ele>
        <time>2016-08-21T10:18:09Z</time>
      </trkpt>
      <trkpt lat="45.6221" lon="6.84571">
        <ele>1656.4887695312</ele>
        <time>2016-08-21T10:18:12Z</time>
      </trkpt>
      <trkpt lat="45.62238" lon="6.84526">
        <ele>1653.1242675781</ele>
        <time>2016-08-21T10:18:16Z</time>
      </trkpt>
      <trkpt lat="45.62254" lon="6.84505">
        <ele>1649.759765625</ele>
        <time>2016-08-21T10:18:18Z</time>
      </trkpt>
      <trkpt lat="45.62261" lon="6.84494">
        <ele>1649.759765625</ele>
        <time>2016-08-21T10:18:19Z</time>
      </trkpt>
      <trkpt lat="45.62266" lon="6.84481">
        <ele>1651.2016601562</ele>
        <time>2016-08-21T10:18:20Z</time>
      </trkpt>
      <trkpt lat="45.62281" lon="6.8444">
        <ele>1649.2790527344</ele>
        <time>2016-08-21T10:18:23Z</time>
      </trkpt>
      <trkpt lat="45.62308" lon="6.84377">
        <ele>1646.8757324219</ele>
        <time>2016-08-21T10:18:28Z</time>
      </trkpt>
      <trkpt lat="45.62319" lon="6.84339">
        <ele>1645.4338378906</ele>
        <time>2016-08-21T10:18:31Z</time>
      </trkpt>
      <trkpt lat="45.62319" lon="6.84312">
        <ele>1644.4724121094</ele>
        <time>2016-08-21T10:18:33Z</time>
      </trkpt>
      <trkpt lat="45.62326" lon="6.84271">
        <ele>1643.0302734375</ele>
        <time>2016-08-21T10:18:36Z</time>
      </trkpt>
      <trkpt lat="45.62335" lon="6.84244">
        <ele>1641.5883789062</ele>
        <time>2016-08-21T10:18:38Z</time>
      </trkpt>
      <trkpt lat="45.62368" lon="6.84187">
        <ele>1641.1076660156</ele>
        <time>2016-08-21T10:18:43Z</time>
      </trkpt>
      <trkpt lat="45.62377" lon="6.84178">
        <ele>1640.146484375</ele>
        <time>2016-08-21T10:18:44Z</time>
      </trkpt>
      <trkpt lat="45.62386" lon="6.8417">
        <ele>1639.6657714844</ele>
        <time>2016-08-21T10:18:45Z</time>
      </trkpt>
      <trkpt lat="45.62417" lon="6.84149">
        <ele>1636.3012695312</ele>
        <time>2016-08-21T10:18:48Z</time>
      </trkpt>
      <trkpt lat="45.62443" lon="6.84116">
        <ele>1634.3786621094</ele>
        <time>2016-08-21T10:18:51Z</time>
      </trkpt>
      <trkpt lat="45.62449" lon="6.84103">
        <ele>1634.3786621094</ele>
        <time>2016-08-21T10:18:52Z</time>
      </trkpt>
      <trkpt lat="45.62486" lon="6.8404">
        <ele>1631.9753417969</ele>
        <time>2016-08-21T10:18:57Z</time>
      </trkpt>
      <trkpt lat="45.62503" lon="6.84019">
        <ele>1630.5334472656</ele>
        <time>2016-08-21T10:18:59Z</time>
      </trkpt>
      <trkpt lat="45.62533" lon="6.83997">
        <ele>1628.6108398438</ele>
        <time>2016-08-21T10:19:02Z</time>
      </trkpt>
      <trkpt lat="45.62562" lon="6.83975">
        <ele>1628.1301269531</ele>
        <time>2016-08-21T10:19:05Z</time>
      </trkpt>
      <trkpt lat="45.62575" lon="6.83952">
        <ele>1627.1687011719</ele>
        <time>2016-08-21T10:19:07Z</time>
      </trkpt>
      <trkpt lat="45.626" lon="6.83899">
        <ele>1623.8039550781</ele>
        <time>2016-08-21T10:19:11Z</time>
      </trkpt>
      <trkpt lat="45.62611" lon="6.83872">
        <ele>1620.439453125</ele>
        <time>2016-08-21T10:19:13Z</time>
      </trkpt>
      <trkpt lat="45.62632" lon="6.83836">
        <ele>1618.9975585938</ele>
        <time>2016-08-21T10:19:16Z</time>
      </trkpt>
      <trkpt lat="45.6265" lon="6.83817">
        <ele>1616.5942382812</ele>
        <time>2016-08-21T10:19:18Z</time>
      </trkpt>
      <trkpt lat="45.62675" lon="6.83786">
        <ele>1614.1909179688</ele>
        <time>2016-08-21T10:19:21Z</time>
      </trkpt>
      <trkpt lat="45.627" lon="6.83734">
        <ele>1613.7102050781</ele>
        <time>2016-08-21T10:19:25Z</time>
      </trkpt>
      <trkpt lat="45.62722" lon="6.83677">
        <ele>1610.826171875</ele>
        <time>2016-08-21T10:19:29Z</time>
      </trkpt>
      <trkpt lat="45.62756" lon="6.83632">
        <ele>1606.9809570312</ele>
        <time>2016-08-21T10:19:33Z</time>
      </trkpt>
      <trkpt lat="45.62766" lon="6.83623">
        <ele>1606.9809570312</ele>
        <time>2016-08-21T10:19:34Z</time>
      </trkpt>
      <trkpt lat="45.62787" lon="6.83587">
        <ele>1605.5390625</ele>
        <time>2016-08-21T10:19:37Z</time>
      </trkpt>
      <trkpt lat="45.62799" lon="6.8356">
        <ele>1603.6164550781</ele>
        <time>2016-08-21T10:19:39Z</time>
      </trkpt>
      <trkpt lat="45.62824" lon="6.8352">
        <ele>1598.8098144531</ele>
        <time>2016-08-21T10:19:43Z</time>
      </trkpt>
      <trkpt lat="45.62825" lon="6.83504">
        <ele>1598.3291015625</ele>
        <time>2016-08-21T10:19:45Z</time>
      </trkpt>
      <trkpt lat="45.62813" lon="6.83497">
        <ele>1597.8486328125</ele>
        <time>2016-08-21T10:19:47Z</time>
      </trkpt>
      <trkpt lat="45.62795" lon="6.83515">
        <ele>1596.8872070312</ele>
        <time>2016-08-21T10:19:50Z</time>
      </trkpt>
      <trkpt lat="45.6279" lon="6.83524">
        <ele>1596.8872070312</ele>
        <time>2016-08-21T10:19:51Z</time>
      </trkpt>
      <trkpt lat="45.62756" lon="6.83588">
        <ele>1596.8872070312</ele>
        <time>2016-08-21T10:19:57Z</time>
      </trkpt>
      <trkpt lat="45.62729" lon="6.83616">
        <ele>1595.4450683594</ele>
        <time>2016-08-21T10:20:00Z</time>
      </trkpt>
      <trkpt lat="45.6272" lon="6.83624">
        <ele>1594.4836425781</ele>
        <time>2016-08-21T10:20:01Z</time>
      </trkpt>
      <trkpt lat="45.6269" lon="6.83647">
        <ele>1591.5998535156</ele>
        <time>2016-08-21T10:20:04Z</time>
      </trkpt>
      <trkpt lat="45.6268" lon="6.83653">
        <ele>1592.0805664062</ele>
        <time>2016-08-21T10:20:05Z</time>
      </trkpt>
      <trkpt lat="45.62659" lon="6.83667">
        <ele>1591.5998535156</ele>
        <time>2016-08-21T10:20:07Z</time>
      </trkpt>
      <trkpt lat="45.62608" lon="6.83733">
        <ele>1588.7160644531</ele>
        <time>2016-08-21T10:20:13Z</time>
      </trkpt>
      <trkpt lat="45.62596" lon="6.83761">
        <ele>1588.2353515625</ele>
        <time>2016-08-21T10:20:15Z</time>
      </trkpt>
      <trkpt lat="45.62573" lon="6.83795">
        <ele>1584.8708496094</ele>
        <time>2016-08-21T10:20:18Z</time>
      </trkpt>
      <trkpt lat="45.6255" lon="6.83831">
        <ele>1583.4287109375</ele>
        <time>2016-08-21T10:20:21Z</time>
      </trkpt>
      <trkpt lat="45.62514" lon="6.8387">
        <ele>1583.9094238281</ele>
        <time>2016-08-21T10:20:25Z</time>
      </trkpt>
      <trkpt lat="45.62493" lon="6.83874">
        <ele>1579.1025390625</ele>
        <time>2016-08-21T10:20:27Z</time>
      </trkpt>
      <trkpt lat="45.62451" lon="6.83876">
        <ele>1576.21875</ele>
        <time>2016-08-21T10:20:31Z</time>
      </trkpt>
      <trkpt lat="45.6241" lon="6.83899">
        <ele>1575.2573242188</ele>
        <time>2016-08-21T10:20:35Z</time>
      </trkpt>
      <trkpt lat="45.62371" lon="6.83943">
        <ele>1571.8928222656</ele>
        <time>2016-08-21T10:20:39Z</time>
      </trkpt>
      <trkpt lat="45.62323" lon="6.84019">
        <ele>1567.5668945312</ele>
        <time>2016-08-21T10:20:45Z</time>
      </trkpt>
      <trkpt lat="45.62284" lon="6.84049">
        <ele>1564.6831054688</ele>
        <time>2016-08-21T10:20:49Z</time>
      </trkpt>
      <trkpt lat="45.62274" lon="6.84053">
        <ele>1564.2023925781</ele>
        <time>2016-08-21T10:20:50Z</time>
      </trkpt>
      <trkpt lat="45.62243" lon="6.84062">
        <ele>1562.7602539062</ele>
        <time>2016-08-21T10:20:53Z</time>
      </trkpt>
      <trkpt lat="45.62214" lon="6.84075">
        <ele>1561.7990722656</ele>
        <time>2016-08-21T10:20:56Z</time>
      </trkpt>
      <trkpt lat="45.62182" lon="6.84108">
        <ele>1561.318359375</ele>
        <time>2016-08-21T10:21:00Z</time>
      </trkpt>
      <trkpt lat="45.62176" lon="6.84119">
        <ele>1560.8376464844</ele>
        <time>2016-08-21T10:21:01Z</time>
      </trkpt>
      <trkpt lat="45.62139" lon="6.84172">
        <ele>1560.3569335938</ele>
        <time>2016-08-21T10:21:06Z</time>
      </trkpt>
      <trkpt lat="45.62113" lon="6.842">
        <ele>1556.9924316406</ele>
        <time>2016-08-21T10:21:09Z</time>
      </trkpt>
      <trkpt lat="45.62105" lon="6.8421">
        <ele>1556.9924316406</ele>
        <time>2016-08-21T10:21:10Z</time>
      </trkpt>
      <trkpt lat="45.62091" lon="6.84233">
        <ele>1555.5505371094</ele>
        <time>2016-08-21T10:21:12Z</time>
      </trkpt>
      <trkpt lat="45.62053" lon="6.84311">
        <ele>1553.1472167969</ele>
        <time>2016-08-21T10:21:18Z</time>
      </trkpt>
      <trkpt lat="45.62034" lon="6.84367">
        <ele>1552.1857910156</ele>
        <time>2016-08-21T10:21:22Z</time>
      </trkpt>
      <trkpt lat="45.6203" lon="6.84381">
        <ele>1552.1857910156</ele>
        <time>2016-08-21T10:21:23Z</time>
      </trkpt>
      <trkpt lat="45.62006" lon="6.8443">
        <ele>1548.3405761719</ele>
        <time>2016-08-21T10:21:27Z</time>
      </trkpt>
      <trkpt lat="45.61999" lon="6.84441">
        <ele>1548.3405761719</ele>
        <time>2016-08-21T10:21:28Z</time>
      </trkpt>
      <trkpt lat="45.61976" lon="6.84501">
        <ele>1546.41796875</ele>
        <time>2016-08-21T10:21:33Z</time>
      </trkpt>
      <trkpt lat="45.61965" lon="6.84504">
        <ele>1544.0146484375</ele>
        <time>2016-08-21T10:21:36Z</time>
      </trkpt>
      <trkpt lat="45.61966" lon="6.84487">
        <ele>1543.5339355469</ele>
        <time>2016-08-21T10:21:38Z</time>
      </trkpt>
      <trkpt lat="45.61975" lon="6.84469">
        <ele>1543.0532226562</ele>
        <time>2016-08-21T10:21:40Z</time>
      </trkpt>
      <trkpt lat="45.62007" lon="6.84412">
        <ele>1543.0532226562</ele>
        <time>2016-08-21T10:21:46Z</time>
      </trkpt>
      <trkpt lat="45.62027" lon="6.84366">
        <ele>1541.611328125</ele>
        <time>2016-08-21T10:21:50Z</time>
      </trkpt>
      <trkpt lat="45.62031" lon="6.84354">
        <ele>1542.5727539062</ele>
        <time>2016-08-21T10:21:51Z</time>
      </trkpt>
      <trkpt lat="45.62035" lon="6.84342">
        <ele>1542.5727539062</ele>
        <time>2016-08-21T10:21:52Z</time>
      </trkpt>
      <trkpt lat="45.62043" lon="6.84315">
        <ele>1543.5339355469</ele>
        <time>2016-08-21T10:21:54Z</time>
      </trkpt>
      <trkpt lat="45.62064" lon="6.84247">
        <ele>1541.1306152344</ele>
        <time>2016-08-21T10:21:59Z</time>
      </trkpt>
      <trkpt lat="45.62087" lon="6.84177">
        <ele>1538.7275390625</ele>
        <time>2016-08-21T10:22:04Z</time>
      </trkpt>
      <trkpt lat="45.62115" lon="6.8413">
        <ele>1535.8435058594</ele>
        <time>2016-08-21T10:22:08Z</time>
      </trkpt>
      <trkpt lat="45.62162" lon="6.84067">
        <ele>1531.998046875</ele>
        <time>2016-08-21T10:22:14Z</time>
      </trkpt>
      <trkpt lat="45.62185" lon="6.84035">
        <ele>1530.0754394531</ele>
        <time>2016-08-21T10:22:17Z</time>
      </trkpt>
      <trkpt lat="45.6221" lon="6.84003">
        <ele>1527.1916503906</ele>
        <time>2016-08-21T10:22:20Z</time>
      </trkpt>
      <trkpt lat="45.62234" lon="6.83969">
        <ele>1525.2687988281</ele>
        <time>2016-08-21T10:22:23Z</time>
      </trkpt>
      <trkpt lat="45.62266" lon="6.83918">
        <ele>1521.4235839844</ele>
        <time>2016-08-21T10:22:27Z</time>
      </trkpt>
      <trkpt lat="45.62277" lon="6.83889">
        <ele>1520.4624023438</ele>
        <time>2016-08-21T10:22:29Z</time>
      </trkpt>
      <trkpt lat="45.62296" lon="6.83831">
        <ele>1519.9816894531</ele>
        <time>2016-08-21T10:22:33Z</time>
      </trkpt>
      <trkpt lat="45.6233" lon="6.83793">
        <ele>1517.0979003906</ele>
        <time>2016-08-21T10:22:37Z</time>
      </trkpt>
      <trkpt lat="45.6235" lon="6.83781">
        <ele>1516.1364746094</ele>
        <time>2016-08-21T10:22:39Z</time>
      </trkpt>
      <trkpt lat="45.6238" lon="6.8374">
        <ele>1513.7329101562</ele>
        <time>2016-08-21T10:22:43Z</time>
      </trkpt>
      <trkpt lat="45.6241" lon="6.83699">
        <ele>1511.810546875</ele>
        <time>2016-08-21T10:22:47Z</time>
      </trkpt>
      <trkpt lat="45.62424" lon="6.83677">
        <ele>1510.3684082031</ele>
        <time>2016-08-21T10:22:49Z</time>
      </trkpt>
      <trkpt lat="45.62434" lon="6.83632">
        <ele>1510.3684082031</ele>
        <time>2016-08-21T10:22:52Z</time>
      </trkpt>
      <trkpt lat="45.6245" lon="6.83582">
        <ele>1507.9653320312</ele>
        <time>2016-08-21T10:22:56Z</time>
      </trkpt>
      <trkpt lat="45.62484" lon="6.83553">
        <ele>1505.0812988281</ele>
        <time>2016-08-21T10:23:00Z</time>
      </trkpt>
      <trkpt lat="45.62545" lon="6.83499">
        <ele>1500.7553710938</ele>
        <time>2016-08-21T10:23:07Z</time>
      </trkpt>
      <trkpt lat="45.62553" lon="6.8349">
        <ele>1500.7553710938</ele>
        <time>2016-08-21T10:23:08Z</time>
      </trkpt>
      <trkpt lat="45.62572" lon="6.83457">
        <ele>1500.7553710938</ele>
        <time>2016-08-21T10:23:11Z</time>
      </trkpt>
      <trkpt lat="45.62576" lon="6.83429">
        <ele>1499.7939453125</ele>
        <time>2016-08-21T10:23:13Z</time>
      </trkpt>
      <trkpt lat="45.62582" lon="6.83387">
        <ele>1498.8325195312</ele>
        <time>2016-08-21T10:23:16Z</time>
      </trkpt>
      <trkpt lat="45.62596" lon="6.83349">
        <ele>1496.9099121094</ele>
        <time>2016-08-21T10:23:19Z</time>
      </trkpt>
      <trkpt lat="45.62624" lon="6.83324">
        <ele>1495.4680175781</ele>
        <time>2016-08-21T10:23:22Z</time>
      </trkpt>
      <trkpt lat="45.62642" lon="6.83303">
        <ele>1494.9873046875</ele>
        <time>2016-08-21T10:23:24Z</time>
      </trkpt>
      <trkpt lat="45.62655" lon="6.83276">
        <ele>1493.0646972656</ele>
        <time>2016-08-21T10:23:26Z</time>
      </trkpt>
      <trkpt lat="45.62665" lon="6.83248">
        <ele>1492.103515625</ele>
        <time>2016-08-21T10:23:28Z</time>
      </trkpt>
      <trkpt lat="45.62687" lon="6.83191">
        <ele>1491.6228027344</ele>
        <time>2016-08-21T10:23:32Z</time>
      </trkpt>
      <trkpt lat="45.62694" lon="6.83141">
        <ele>1488.2583007812</ele>
        <time>2016-08-21T10:23:35Z</time>
      </trkpt>
      <trkpt lat="45.62698" lon="6.8311">
        <ele>1486.8161621094</ele>
        <time>2016-08-21T10:23:37Z</time>
      </trkpt>
      <trkpt lat="45.62708" lon="6.83064">
        <ele>1484.4130859375</ele>
        <time>2016-08-21T10:23:40Z</time>
      </trkpt>
      <trkpt lat="45.62711" lon="6.83018">
        <ele>1482.970703125</ele>
        <time>2016-08-21T10:23:43Z</time>
      </trkpt>
      <trkpt lat="45.62702" lon="6.82988">
        <ele>1482.490234375</ele>
        <time>2016-08-21T10:23:45Z</time>
      </trkpt>
      <trkpt lat="45.62675" lon="6.82921">
        <ele>1478.6450195312</ele>
        <time>2016-08-21T10:23:50Z</time>
      </trkpt>
      <trkpt lat="45.62655" lon="6.82867">
        <ele>1475.2802734375</ele>
        <time>2016-08-21T10:23:54Z</time>
      </trkpt>
      <trkpt lat="45.6264" lon="6.82828">
        <ele>1472.8771972656</ele>
        <time>2016-08-21T10:23:57Z</time>
      </trkpt>
      <trkpt lat="45.62639" lon="6.82792">
        <ele>1470.4738769531</ele>
        <time>2016-08-21T10:24:00Z</time>
      </trkpt>
      <trkpt lat="45.62658" lon="6.82771">
        <ele>1468.5512695312</ele>
        <time>2016-08-21T10:24:03Z</time>
      </trkpt>
      <trkpt lat="45.62667" lon="6.82768">
        <ele>1467.5895996094</ele>
        <time>2016-08-21T10:24:04Z</time>
      </trkpt>
      <trkpt lat="45.62693" lon="6.8276">
        <ele>1467.5895996094</ele>
        <time>2016-08-21T10:24:07Z</time>
      </trkpt>
      <trkpt lat="45.62718" lon="6.82744">
        <ele>1466.6284179688</ele>
        <time>2016-08-21T10:24:10Z</time>
      </trkpt>
      <trkpt lat="45.62747" lon="6.82708">
        <ele>1465.6672363281</ele>
        <time>2016-08-21T10:24:14Z</time>
      </trkpt>
      <trkpt lat="45.62773" lon="6.82698">
        <ele>1463.7443847656</ele>
        <time>2016-08-21T10:24:17Z</time>
      </trkpt>
      <trkpt lat="45.6279" lon="6.82703">
        <ele>1461.3413085938</ele>
        <time>2016-08-21T10:24:19Z</time>
      </trkpt>
      <trkpt lat="45.62822" lon="6.82694">
        <ele>1460.8605957031</ele>
        <time>2016-08-21T10:24:24Z</time>
      </trkpt>
      <trkpt lat="45.62813" lon="6.82677">
        <ele>1460.3798828125</ele>
        <time>2016-08-21T10:24:26Z</time>
      </trkpt>
      <trkpt lat="45.62797" lon="6.82672">
        <ele>1459.4187011719</ele>
        <time>2016-08-21T10:24:28Z</time>
      </trkpt>
      <trkpt lat="45.6275" lon="6.82665">
        <ele>1459.4187011719</ele>
        <time>2016-08-21T10:24:33Z</time>
      </trkpt>
      <trkpt lat="45.62708" lon="6.82675">
        <ele>1457.0153808594</ele>
        <time>2016-08-21T10:24:37Z</time>
      </trkpt>
      <trkpt lat="45.62698" lon="6.8268">
        <ele>1456.5346679688</ele>
        <time>2016-08-21T10:24:38Z</time>
      </trkpt>
      <trkpt lat="45.62647" lon="6.82692">
        <ele>1453.1701660156</ele>
        <time>2016-08-21T10:24:43Z</time>
      </trkpt>
      <trkpt lat="45.62602" lon="6.82711">
        <ele>1451.2473144531</ele>
        <time>2016-08-21T10:24:47Z</time>
      </trkpt>
      <trkpt lat="45.62582" lon="6.8273">
        <ele>1449.8054199219</ele>
        <time>2016-08-21T10:24:49Z</time>
      </trkpt>
      <trkpt lat="45.62559" lon="6.8277">
        <ele>1448.8439941406</ele>
        <time>2016-08-21T10:24:52Z</time>
      </trkpt>
      <trkpt lat="45.62557" lon="6.82806">
        <ele>1447.4020996094</ele>
        <time>2016-08-21T10:24:54Z</time>
      </trkpt>
      <trkpt lat="45.62562" lon="6.82843">
        <ele>1445.9602050781</ele>
        <time>2016-08-21T10:24:56Z</time>
      </trkpt>
      <trkpt lat="45.62572" lon="6.82895">
        <ele>1445.4794921875</ele>
        <time>2016-08-21T10:24:59Z</time>
      </trkpt>
      <trkpt lat="45.62567" lon="6.82928">
        <ele>1443.5568847656</ele>
        <time>2016-08-21T10:25:01Z</time>
      </trkpt>
      <trkpt lat="45.62563" lon="6.83027">
        <ele>1441.1535644531</ele>
        <time>2016-08-21T10:25:07Z</time>
      </trkpt>
      <trkpt lat="45.62569" lon="6.83076">
        <ele>1437.7890625</ele>
        <time>2016-08-21T10:25:10Z</time>
      </trkpt>
      <trkpt lat="45.62572" lon="6.83108">
        <ele>1436.8276367188</ele>
        <time>2016-08-21T10:25:12Z</time>
      </trkpt>
      <trkpt lat="45.62565" lon="6.83151">
        <ele>1433.462890625</ele>
        <time>2016-08-21T10:25:15Z</time>
      </trkpt>
      <trkpt lat="45.6254" lon="6.83177">
        <ele>1432.0209960938</ele>
        <time>2016-08-21T10:25:18Z</time>
      </trkpt>
      <trkpt lat="45.62524" lon="6.8319">
        <ele>1429.6176757812</ele>
        <time>2016-08-21T10:25:20Z</time>
      </trkpt>
      <trkpt lat="45.62506" lon="6.83189">
        <ele>1428.6564941406</ele>
        <time>2016-08-21T10:25:23Z</time>
      </trkpt>
      <trkpt lat="45.62504" lon="6.83172">
        <ele>1427.2145996094</ele>
        <time>2016-08-21T10:25:25Z</time>
      </trkpt>
      <trkpt lat="45.6251" lon="6.83167">
        <ele>1427.2145996094</ele>
        <time>2016-08-21T10:25:26Z</time>
      </trkpt>
      <trkpt lat="45.62524" lon="6.83161">
        <ele>1427.2145996094</ele>
        <time>2016-08-21T10:25:28Z</time>
      </trkpt>
      <trkpt lat="45.62539" lon="6.83152">
        <ele>1426.7338867188</ele>
        <time>2016-08-21T10:25:30Z</time>
      </trkpt>
      <trkpt lat="45.62555" lon="6.83124">
        <ele>1426.7338867188</ele>
        <time>2016-08-21T10:25:33Z</time>
      </trkpt>
      <trkpt lat="45.62555" lon="6.83098">
        <ele>1425.7724609375</ele>
        <time>2016-08-21T10:25:35Z</time>
      </trkpt>
      <trkpt lat="45.62549" lon="6.83072">
        <ele>1425.2917480469</ele>
        <time>2016-08-21T10:25:37Z</time>
      </trkpt>
      <trkpt lat="45.62526" lon="6.83023">
        <ele>1425.7724609375</ele>
        <time>2016-08-21T10:25:41Z</time>
      </trkpt>
      <trkpt lat="45.62512" lon="6.82985">
        <ele>1421.4465332031</ele>
        <time>2016-08-21T10:25:44Z</time>
      </trkpt>
      <trkpt lat="45.62511" lon="6.8297">
        <ele>1421.4465332031</ele>
        <time>2016-08-21T10:25:45Z</time>
      </trkpt>
      <trkpt lat="45.62511" lon="6.82954">
        <ele>1421.4465332031</ele>
        <time>2016-08-21T10:25:46Z</time>
      </trkpt>
      <trkpt lat="45.62512" lon="6.82907">
        <ele>1420.4853515625</ele>
        <time>2016-08-21T10:25:49Z</time>
      </trkpt>
      <trkpt lat="45.62517" lon="6.82875">
        <ele>1419.5239257812</ele>
        <time>2016-08-21T10:25:51Z</time>
      </trkpt>
      <trkpt lat="45.6252" lon="6.82808">
        <ele>1416.6398925781</ele>
        <time>2016-08-21T10:25:55Z</time>
      </trkpt>
      <trkpt lat="45.62509" lon="6.82759">
        <ele>1416.6398925781</ele>
        <time>2016-08-21T10:25:58Z</time>
      </trkpt>
      <trkpt lat="45.62502" lon="6.82746">
        <ele>1415.6787109375</ele>
        <time>2016-08-21T10:25:59Z</time>
      </trkpt>
      <trkpt lat="45.62484" lon="6.82682">
        <ele>1410.3913574219</ele>
        <time>2016-08-21T10:26:04Z</time>
      </trkpt>
      <trkpt lat="45.62487" lon="6.82669">
        <ele>1410.3913574219</ele>
        <time>2016-08-21T10:26:05Z</time>
      </trkpt>
      <trkpt lat="45.625" lon="6.82646">
        <ele>1409.4301757812</ele>
        <time>2016-08-21T10:26:07Z</time>
      </trkpt>
      <trkpt lat="45.62525" lon="6.82594">
        <ele>1407.0268554688</ele>
        <time>2016-08-21T10:26:11Z</time>
      </trkpt>
      <trkpt lat="45.62547" lon="6.82558">
        <ele>1406.0654296875</ele>
        <time>2016-08-21T10:26:14Z</time>
      </trkpt>
      <trkpt lat="45.62583" lon="6.82518">
        <ele>1402.7006835938</ele>
        <time>2016-08-21T10:26:18Z</time>
      </trkpt>
      <trkpt lat="45.62603" lon="6.825">
        <ele>1399.8168945312</ele>
        <time>2016-08-21T10:26:20Z</time>
      </trkpt>
      <trkpt lat="45.62614" lon="6.82492">
        <ele>1399.8168945312</ele>
        <time>2016-08-21T10:26:21Z</time>
      </trkpt>
      <trkpt lat="45.6269" lon="6.8244">
        <ele>1396.9328613281</ele>
        <time>2016-08-21T10:26:28Z</time>
      </trkpt>
      <trkpt lat="45.62725" lon="6.82432">
        <ele>1393.568359375</ele>
        <time>2016-08-21T10:26:31Z</time>
      </trkpt>
      <trkpt lat="45.62772" lon="6.82415">
        <ele>1389.7231445312</ele>
        <time>2016-08-21T10:26:35Z</time>
      </trkpt>
      <trkpt lat="45.62795" lon="6.82401">
        <ele>1388.7619628906</ele>
        <time>2016-08-21T10:26:37Z</time>
      </trkpt>
      <trkpt lat="45.62806" lon="6.82395">
        <ele>1388.28125</ele>
        <time>2016-08-21T10:26:38Z</time>
      </trkpt>
      <trkpt lat="45.62843" lon="6.82385">
        <ele>1385.3969726562</ele>
        <time>2016-08-21T10:26:41Z</time>
      </trkpt>
      <trkpt lat="45.6289" lon="6.82369">
        <ele>1382.0324707031</ele>
        <time>2016-08-21T10:26:45Z</time>
      </trkpt>
      <trkpt lat="45.62912" lon="6.82333">
        <ele>1379.6291503906</ele>
        <time>2016-08-21T10:26:48Z</time>
      </trkpt>
      <trkpt lat="45.62924" lon="6.82306">
        <ele>1378.1872558594</ele>
        <time>2016-08-21T10:26:50Z</time>
      </trkpt>
      <trkpt lat="45.62932" lon="6.82294">
        <ele>1374.8227539062</ele>
        <time>2016-08-21T10:26:51Z</time>
      </trkpt>
      <trkpt lat="45.62941" lon="6.82286">
        <ele>1375.3032226562</ele>
        <time>2016-08-21T10:26:52Z</time>
      </trkpt>
      <trkpt lat="45.62968" lon="6.82273">
        <ele>1372.9001464844</ele>
        <time>2016-08-21T10:26:55Z</time>
      </trkpt>
      <trkpt lat="45.62977" lon="6.82266">
        <ele>1370.9772949219</ele>
        <time>2016-08-21T10:26:57Z</time>
      </trkpt>
      <trkpt lat="45.6297" lon="6.8225">
        <ele>1370.9772949219</ele>
        <time>2016-08-21T10:26:59Z</time>
      </trkpt>
      <trkpt lat="45.62956" lon="6.82248">
        <ele>1370.0158691406</ele>
        <time>2016-08-21T10:27:01Z</time>
      </trkpt>
      <trkpt lat="45.62925" lon="6.82265">
        <ele>1369.5354003906</ele>
        <time>2016-08-21T10:27:05Z</time>
      </trkpt>
      <trkpt lat="45.62903" lon="6.82291">
        <ele>1369.0546875</ele>
        <time>2016-08-21T10:27:08Z</time>
      </trkpt>
      <trkpt lat="45.62876" lon="6.82332">
        <ele>1368.5739746094</ele>
        <time>2016-08-21T10:27:12Z</time>
      </trkpt>
      <trkpt lat="45.62868" lon="6.82341">
        <ele>1368.0932617188</ele>
        <time>2016-08-21T10:27:13Z</time>
      </trkpt>
      <trkpt lat="45.62815" lon="6.82347">
        <ele>1365.2094726562</ele>
        <time>2016-08-21T10:27:18Z</time>
      </trkpt>
      <trkpt lat="45.62761" lon="6.82348">
        <ele>1362.8061523438</ele>
        <time>2016-08-21T10:27:23Z</time>
      </trkpt>
      <trkpt lat="45.62719" lon="6.82344">
        <ele>1360.4028320312</ele>
        <time>2016-08-21T10:27:27Z</time>
      </trkpt>
      <trkpt lat="45.62697" lon="6.82348">
        <ele>1358.9609375</ele>
        <time>2016-08-21T10:27:29Z</time>
      </trkpt>
      <trkpt lat="45.62675" lon="6.82353">
        <ele>1357.0383300781</ele>
        <time>2016-08-21T10:27:31Z</time>
      </trkpt>
      <trkpt lat="45.62643" lon="6.82344">
        <ele>1355.5961914062</ele>
        <time>2016-08-21T10:27:34Z</time>
      </trkpt>
      <trkpt lat="45.62611" lon="6.8234">
        <ele>1353.1928710938</ele>
        <time>2016-08-21T10:27:37Z</time>
      </trkpt>
      <trkpt lat="45.6258" lon="6.8236">
        <ele>1351.7509765625</ele>
        <time>2016-08-21T10:27:40Z</time>
      </trkpt>
      <trkpt lat="45.62547" lon="6.82371">
        <ele>1350.7895507812</ele>
        <time>2016-08-21T10:27:43Z</time>
      </trkpt>
      <trkpt lat="45.62503" lon="6.82388">
        <ele>1348.3862304688</ele>
        <time>2016-08-21T10:27:47Z</time>
      </trkpt>
      <trkpt lat="45.62458" lon="6.82383">
        <ele>1344.060546875</ele>
        <time>2016-08-21T10:27:51Z</time>
      </trkpt>
      <trkpt lat="45.6244" lon="6.82382">
        <ele>1343.0991210938</ele>
        <time>2016-08-21T10:27:53Z</time>
      </trkpt>
      <trkpt lat="45.62426" lon="6.82399">
        <ele>1340.2153320312</ele>
        <time>2016-08-21T10:27:55Z</time>
      </trkpt>
      <trkpt lat="45.62403" lon="6.82431">
        <ele>1339.2536621094</ele>
        <time>2016-08-21T10:27:58Z</time>
      </trkpt>
      <trkpt lat="45.62356" lon="6.82478">
        <ele>1337.3310546875</ele>
        <time>2016-08-21T10:28:03Z</time>
      </trkpt>
      <trkpt lat="45.62333" lon="6.82515">
        <ele>1334.447265625</ele>
        <time>2016-08-21T10:28:06Z</time>
      </trkpt>
      <trkpt lat="45.62315" lon="6.82559">
        <ele>1332.5246582031</ele>
        <time>2016-08-21T10:28:09Z</time>
      </trkpt>
      <trkpt lat="45.62308" lon="6.82625">
        <ele>1331.5632324219</ele>
        <time>2016-08-21T10:28:13Z</time>
      </trkpt>
      <trkpt lat="45.62313" lon="6.82676">
        <ele>1326.7568359375</ele>
        <time>2016-08-21T10:28:16Z</time>
      </trkpt>
      <trkpt lat="45.62313" lon="6.82693">
        <ele>1326.7568359375</ele>
        <time>2016-08-21T10:28:17Z</time>
      </trkpt>
      <trkpt lat="45.62313" lon="6.82711">
        <ele>1326.7568359375</ele>
        <time>2016-08-21T10:28:18Z</time>
      </trkpt>
      <trkpt lat="45.62307" lon="6.82761">
        <ele>1324.8342285156</ele>
        <time>2016-08-21T10:28:21Z</time>
      </trkpt>
      <trkpt lat="45.62299" lon="6.82792">
        <ele>1321.4692382812</ele>
        <time>2016-08-21T10:28:23Z</time>
      </trkpt>
      <trkpt lat="45.62293" lon="6.82818">
        <ele>1320.02734375</ele>
        <time>2016-08-21T10:28:25Z</time>
      </trkpt>
      <trkpt lat="45.62282" lon="6.8283">
        <ele>1317.6240234375</ele>
        <time>2016-08-21T10:28:28Z</time>
      </trkpt>
      <trkpt lat="45.62278" lon="6.82815">
        <ele>1317.1435546875</ele>
        <time>2016-08-21T10:28:30Z</time>
      </trkpt>
      <trkpt lat="45.62281" lon="6.82807">
        <ele>1317.6240234375</ele>
        <time>2016-08-21T10:28:31Z</time>
      </trkpt>
      <trkpt lat="45.62296" lon="6.82769">
        <ele>1317.1435546875</ele>
        <time>2016-08-21T10:28:35Z</time>
      </trkpt>
      <trkpt lat="45.62305" lon="6.82738">
        <ele>1317.1435546875</ele>
        <time>2016-08-21T10:28:38Z</time>
      </trkpt>
      <trkpt lat="45.62306" lon="6.82702">
        <ele>1316.6628417969</ele>
        <time>2016-08-21T10:28:41Z</time>
      </trkpt>
      <trkpt lat="45.62294" lon="6.82655">
        <ele>1315.2209472656</ele>
        <time>2016-08-21T10:28:45Z</time>
      </trkpt>
      <trkpt lat="45.62282" lon="6.82618">
        <ele>1315.2209472656</ele>
        <time>2016-08-21T10:28:48Z</time>
      </trkpt>
      <trkpt lat="45.62283" lon="6.82563">
        <ele>1313.7788085938</ele>
        <time>2016-08-21T10:28:52Z</time>
      </trkpt>
      <trkpt lat="45.62306" lon="6.82484">
        <ele>1310.8950195312</ele>
        <time>2016-08-21T10:28:58Z</time>
      </trkpt>
      <trkpt lat="45.62316" lon="6.82458">
        <ele>1309.93359375</ele>
        <time>2016-08-21T10:29:00Z</time>
      </trkpt>
      <trkpt lat="45.62321" lon="6.82445">
        <ele>1309.453125</ele>
        <time>2016-08-21T10:29:01Z</time>
      </trkpt>
      <trkpt lat="45.62331" lon="6.82419">
        <ele>1308.0112304688</ele>
        <time>2016-08-21T10:29:03Z</time>
      </trkpt>
      <trkpt lat="45.6235" lon="6.82381">
        <ele>1304.1657714844</ele>
        <time>2016-08-21T10:29:06Z</time>
      </trkpt>
      <trkpt lat="45.62373" lon="6.82327">
        <ele>1302.2429199219</ele>
        <time>2016-08-21T10:29:10Z</time>
      </trkpt>
      <trkpt lat="45.62405" lon="6.82276">
        <ele>1300.8010253906</ele>
        <time>2016-08-21T10:29:14Z</time>
      </trkpt>
      <trkpt lat="45.62432" lon="6.82246">
        <ele>1297.4365234375</ele>
        <time>2016-08-21T10:29:17Z</time>
      </trkpt>
      <trkpt lat="45.62442" lon="6.82237">
        <ele>1297.9172363281</ele>
        <time>2016-08-21T10:29:18Z</time>
      </trkpt>
      <trkpt lat="45.62452" lon="6.82228">
        <ele>1296.9558105469</ele>
        <time>2016-08-21T10:29:19Z</time>
      </trkpt>
      <trkpt lat="45.62486" lon="6.82218">
        <ele>1293.5913085938</ele>
        <time>2016-08-21T10:29:22Z</time>
      </trkpt>
      <trkpt lat="45.62498" lon="6.82214">
        <ele>1292.1494140625</ele>
        <time>2016-08-21T10:29:23Z</time>
      </trkpt>
      <trkpt lat="45.62541" lon="6.82186">
        <ele>1290.70703125</ele>
        <time>2016-08-21T10:29:27Z</time>
      </trkpt>
      <trkpt lat="45.62587" lon="6.82178">
        <ele>1287.8232421875</ele>
        <time>2016-08-21T10:29:31Z</time>
      </trkpt>
      <trkpt lat="45.62622" lon="6.82173">
        <ele>1286.3813476562</ele>
        <time>2016-08-21T10:29:34Z</time>
      </trkpt>
      <trkpt lat="45.62666" lon="6.82148">
        <ele>1283.0166015625</ele>
        <time>2016-08-21T10:29:38Z</time>
      </trkpt>
      <trkpt lat="45.62713" lon="6.821">
        <ele>1278.2102050781</ele>
        <time>2016-08-21T10:29:43Z</time>
      </trkpt>
      <trkpt lat="45.62721" lon="6.82089">
        <ele>1279.1713867188</ele>
        <time>2016-08-21T10:29:44Z</time>
      </trkpt>
      <trkpt lat="45.62729" lon="6.8208">
        <ele>1277.7294921875</ele>
        <time>2016-08-21T10:29:45Z</time>
      </trkpt>
      <trkpt lat="45.62767" lon="6.82053">
        <ele>1273.8840332031</ele>
        <time>2016-08-21T10:29:49Z</time>
      </trkpt>
      <trkpt lat="45.62777" lon="6.82047">
        <ele>1273.8840332031</ele>
        <time>2016-08-21T10:29:50Z</time>
      </trkpt>
      <trkpt lat="45.62811" lon="6.82035">
        <ele>1272.4421386719</ele>
        <time>2016-08-21T10:29:53Z</time>
      </trkpt>
      <trkpt lat="45.62822" lon="6.82032">
        <ele>1271.9614257812</ele>
        <time>2016-08-21T10:29:54Z</time>
      </trkpt>
      <trkpt lat="45.62863" lon="6.82019">
        <ele>1269.0776367188</ele>
        <time>2016-08-21T10:29:58Z</time>
      </trkpt>
      <trkpt lat="45.62877" lon="6.81999">
        <ele>1264.7517089844</ele>
        <time>2016-08-21T10:30:01Z</time>
      </trkpt>
      <trkpt lat="45.62869" lon="6.81991">
        <ele>1264.2709960938</ele>
        <time>2016-08-21T10:30:03Z</time>
      </trkpt>
      <trkpt lat="45.62855" lon="6.82">
        <ele>1263.7902832031</ele>
        <time>2016-08-21T10:30:05Z</time>
      </trkpt>
      <trkpt lat="45.62839" lon="6.8201">
        <ele>1262.3483886719</ele>
        <time>2016-08-21T10:30:07Z</time>
      </trkpt>
      <trkpt lat="45.62803" lon="6.82024">
        <ele>1261.8679199219</ele>
        <time>2016-08-21T10:30:11Z</time>
      </trkpt>
      <trkpt lat="45.62764" lon="6.82028">
        <ele>1261.3872070312</ele>
        <time>2016-08-21T10:30:15Z</time>
      </trkpt>
      <trkpt lat="45.62755" lon="6.82028">
        <ele>1260.9064941406</ele>
        <time>2016-08-21T10:30:16Z</time>
      </trkpt>
      <trkpt lat="45.62734" lon="6.82023">
        <ele>1259.4643554688</ele>
        <time>2016-08-21T10:30:18Z</time>
      </trkpt>
      <trkpt lat="45.62724" lon="6.82019">
        <ele>1258.9836425781</ele>
        <time>2016-08-21T10:30:19Z</time>
      </trkpt>
      <trkpt lat="45.62692" lon="6.82019">
        <ele>1258.5029296875</ele>
        <time>2016-08-21T10:30:22Z</time>
      </trkpt>
      <trkpt lat="45.6266" lon="6.82045">
        <ele>1256.099609375</ele>
        <time>2016-08-21T10:30:25Z</time>
      </trkpt>
      <trkpt lat="45.62643" lon="6.82067">
        <ele>1254.6577148438</ele>
        <time>2016-08-21T10:30:27Z</time>
      </trkpt>
      <trkpt lat="45.626" lon="6.82087">
        <ele>1252.2543945312</ele>
        <time>2016-08-21T10:30:31Z</time>
      </trkpt>
      <trkpt lat="45.62542" lon="6.82091">
        <ele>1249.3706054688</ele>
        <time>2016-08-21T10:30:36Z</time>
      </trkpt>
      <trkpt lat="45.62485" lon="6.82101">
        <ele>1246.4868164062</ele>
        <time>2016-08-21T10:30:41Z</time>
      </trkpt>
      <trkpt lat="45.62473" lon="6.82102">
        <ele>1246.4868164062</ele>
        <time>2016-08-21T10:30:42Z</time>
      </trkpt>
      <trkpt lat="45.62437" lon="6.82107">
        <ele>1242.6413574219</ele>
        <time>2016-08-21T10:30:45Z</time>
      </trkpt>
      <trkpt lat="45.62425" lon="6.82112">
        <ele>1242.6413574219</ele>
        <time>2016-08-21T10:30:46Z</time>
      </trkpt>
      <trkpt lat="45.62402" lon="6.82123">
        <ele>1241.19921875</ele>
        <time>2016-08-21T10:30:48Z</time>
      </trkpt>
      <trkpt lat="45.62357" lon="6.8215">
        <ele>1237.8347167969</ele>
        <time>2016-08-21T10:30:52Z</time>
      </trkpt>
      <trkpt lat="45.62314" lon="6.82187">
        <ele>1237.3540039062</ele>
        <time>2016-08-21T10:30:56Z</time>
      </trkpt>
      <trkpt lat="45.62282" lon="6.82216">
        <ele>1233.0280761719</ele>
        <time>2016-08-21T10:30:59Z</time>
      </trkpt>
      <trkpt lat="45.62272" lon="6.82226">
        <ele>1232.5476074219</ele>
        <time>2016-08-21T10:31:00Z</time>
      </trkpt>
      <trkpt lat="45.62209" lon="6.82275">
        <ele>1229.1828613281</ele>
        <time>2016-08-21T10:31:06Z</time>
      </trkpt>
      <trkpt lat="45.62162" lon="6.82332">
        <ele>1225.8181152344</ele>
        <time>2016-08-21T10:31:11Z</time>
      </trkpt>
      <trkpt lat="45.62114" lon="6.82385">
        <ele>1221.9729003906</ele>
        <time>2016-08-21T10:31:16Z</time>
      </trkpt>
      <trkpt lat="45.62091" lon="6.82423">
        <ele>1220.5310058594</ele>
        <time>2016-08-21T10:31:19Z</time>
      </trkpt>
      <trkpt lat="45.62087" lon="6.82438">
        <ele>1219.5698242188</ele>
        <time>2016-08-21T10:31:20Z</time>
      </trkpt>
      <trkpt lat="45.6206" lon="6.82508">
        <ele>1217.1665039062</ele>
        <time>2016-08-21T10:31:25Z</time>
      </trkpt>
      <trkpt lat="45.6205" lon="6.82531">
        <ele>1214.7631835938</ele>
        <time>2016-08-21T10:31:27Z</time>
      </trkpt>
      <trkpt lat="45.62036" lon="6.82548">
        <ele>1215.2438964844</ele>
        <time>2016-08-21T10:31:30Z</time>
      </trkpt>
      <trkpt lat="45.62032" lon="6.82534">
        <ele>1215.2438964844</ele>
        <time>2016-08-21T10:31:32Z</time>
      </trkpt>
      <trkpt lat="45.6204" lon="6.82521">
        <ele>1214.2824707031</ele>
        <time>2016-08-21T10:31:34Z</time>
      </trkpt>
      <trkpt lat="45.62067" lon="6.82475">
        <ele>1212.8405761719</ele>
        <time>2016-08-21T10:31:40Z</time>
      </trkpt>
      <trkpt lat="45.62079" lon="6.82443">
        <ele>1212.3598632812</ele>
        <time>2016-08-21T10:31:43Z</time>
      </trkpt>
      <trkpt lat="45.62094" lon="6.82394">
        <ele>1212.3598632812</ele>
        <time>2016-08-21T10:31:47Z</time>
      </trkpt>
      <trkpt lat="45.62112" lon="6.82344">
        <ele>1208.5144042969</ele>
        <time>2016-08-21T10:31:51Z</time>
      </trkpt>
      <trkpt lat="45.62117" lon="6.82332">
        <ele>1207.0725097656</ele>
        <time>2016-08-21T10:31:52Z</time>
      </trkpt>
      <trkpt lat="45.62147" lon="6.82289">
        <ele>1205.1499023438</ele>
        <time>2016-08-21T10:31:56Z</time>
      </trkpt>
      <trkpt lat="45.62165" lon="6.82273">
        <ele>1204.1887207031</ele>
        <time>2016-08-21T10:31:58Z</time>
      </trkpt>
      <trkpt lat="45.62174" lon="6.82263">
        <ele>1203.7080078125</ele>
        <time>2016-08-21T10:31:59Z</time>
      </trkpt>
      <trkpt lat="45.62189" lon="6.82239">
        <ele>1202.7465820312</ele>
        <time>2016-08-21T10:32:01Z</time>
      </trkpt>
      <trkpt lat="45.62198" lon="6.8221">
        <ele>1199.8627929688</ele>
        <time>2016-08-21T10:32:03Z</time>
      </trkpt>
      <trkpt lat="45.6221" lon="6.82167">
        <ele>1198.4206542969</ele>
        <time>2016-08-21T10:32:06Z</time>
      </trkpt>
      <trkpt lat="45.62238" lon="6.82117">
        <ele>1196.9787597656</ele>
        <time>2016-08-21T10:32:10Z</time>
      </trkpt>
      <trkpt lat="45.62266" lon="6.82093">
        <ele>1194.0947265625</ele>
        <time>2016-08-21T10:32:13Z</time>
      </trkpt>
      <trkpt lat="45.62296" lon="6.82074">
        <ele>1192.6528320312</ele>
        <time>2016-08-21T10:32:16Z</time>
      </trkpt>
      <trkpt lat="45.62322" lon="6.82028">
        <ele>1189.2880859375</ele>
        <time>2016-08-21T10:32:20Z</time>
      </trkpt>
      <trkpt lat="45.62341" lon="6.81991">
        <ele>1187.8461914062</ele>
        <time>2016-08-21T10:32:23Z</time>
      </trkpt>
      <trkpt lat="45.62384" lon="6.81944">
        <ele>1184.9624023438</ele>
        <time>2016-08-21T10:32:28Z</time>
      </trkpt>
      <trkpt lat="45.62403" lon="6.81928">
        <ele>1184.4816894531</ele>
        <time>2016-08-21T10:32:30Z</time>
      </trkpt>
      <trkpt lat="45.62433" lon="6.81907">
        <ele>1182.5590820312</ele>
        <time>2016-08-21T10:32:33Z</time>
      </trkpt>
      <trkpt lat="45.62481" lon="6.81869">
        <ele>1179.1940917969</ele>
        <time>2016-08-21T10:32:38Z</time>
      </trkpt>
      <trkpt lat="45.62519" lon="6.81836">
        <ele>1177.2717285156</ele>
        <time>2016-08-21T10:32:42Z</time>
      </trkpt>
      <trkpt lat="45.62529" lon="6.81828">
        <ele>1177.2717285156</ele>
        <time>2016-08-21T10:32:43Z</time>
      </trkpt>
      <trkpt lat="45.62571" lon="6.81815">
        <ele>1173.9069824219</ele>
        <time>2016-08-21T10:32:47Z</time>
      </trkpt>
      <trkpt lat="45.62601" lon="6.818">
        <ele>1170.5424804688</ele>
        <time>2016-08-21T10:32:50Z</time>
      </trkpt>
      <trkpt lat="45.62609" lon="6.8179">
        <ele>1170.5424804688</ele>
        <time>2016-08-21T10:32:51Z</time>
      </trkpt>
      <trkpt lat="45.62616" lon="6.81778">
        <ele>1169.5812988281</ele>
        <time>2016-08-21T10:32:52Z</time>
      </trkpt>
      <trkpt lat="45.62667" lon="6.81695">
        <ele>1167.6584472656</ele>
        <time>2016-08-21T10:32:59Z</time>
      </trkpt>
      <trkpt lat="45.62692" lon="6.81643">
        <ele>1163.3325195312</ele>
        <time>2016-08-21T10:33:03Z</time>
      </trkpt>
      <trkpt lat="45.62703" lon="6.81619">
        <ele>1159.9677734375</ele>
        <time>2016-08-21T10:33:05Z</time>
      </trkpt>
      <trkpt lat="45.62707" lon="6.81609">
        <ele>1159.4873046875</ele>
        <time>2016-08-21T10:33:06Z</time>
      </trkpt>
      <trkpt lat="45.62706" lon="6.81585">
        <ele>1158.0454101562</ele>
        <time>2016-08-21T10:33:09Z</time>
      </trkpt>
      <trkpt lat="45.62694" lon="6.81587">
        <ele>1157.083984375</ele>
        <time>2016-08-21T10:33:11Z</time>
      </trkpt>
      <trkpt lat="45.62682" lon="6.81599">
        <ele>1156.6032714844</ele>
        <time>2016-08-21T10:33:13Z</time>
      </trkpt>
      <trkpt lat="45.62651" lon="6.81642">
        <ele>1155.6420898438</ele>
        <time>2016-08-21T10:33:18Z</time>
      </trkpt>
      <trkpt lat="45.62621" lon="6.81679">
        <ele>1154.2001953125</ele>
        <time>2016-08-21T10:33:22Z</time>
      </trkpt>
      <trkpt lat="45.62612" lon="6.81687">
        <ele>1153.7194824219</ele>
        <time>2016-08-21T10:33:23Z</time>
      </trkpt>
      <trkpt lat="45.62603" lon="6.81696">
        <ele>1153.7194824219</ele>
        <time>2016-08-21T10:33:24Z</time>
      </trkpt>
      <trkpt lat="45.62585" lon="6.81712">
        <ele>1152.7580566406</ele>
        <time>2016-08-21T10:33:26Z</time>
      </trkpt>
      <trkpt lat="45.62576" lon="6.8172">
        <ele>1151.3161621094</ele>
        <time>2016-08-21T10:33:27Z</time>
      </trkpt>
      <trkpt lat="45.62532" lon="6.81735">
        <ele>1150.8354492188</ele>
        <time>2016-08-21T10:33:31Z</time>
      </trkpt>
      <trkpt lat="45.62462" lon="6.81737">
        <ele>1147.470703125</ele>
        <time>2016-08-21T10:33:37Z</time>
      </trkpt>
      <trkpt lat="45.62439" lon="6.81742">
        <ele>1146.9899902344</ele>
        <time>2016-08-21T10:33:39Z</time>
      </trkpt>
      <trkpt lat="45.62394" lon="6.81757">
        <ele>1143.6254882812</ele>
        <time>2016-08-21T10:33:43Z</time>
      </trkpt>
      <trkpt lat="45.6236" lon="6.8177">
        <ele>1140.2609863281</ele>
        <time>2016-08-21T10:33:46Z</time>
      </trkpt>
      <trkpt lat="45.62319" lon="6.81803">
        <ele>1138.3383789062</ele>
        <time>2016-08-21T10:33:50Z</time>
      </trkpt>
      <trkpt lat="45.62311" lon="6.81815">
        <ele>1137.376953125</ele>
        <time>2016-08-21T10:33:51Z</time>
      </trkpt>
      <trkpt lat="45.62278" lon="6.81865">
        <ele>1136.4157714844</ele>
        <time>2016-08-21T10:33:55Z</time>
      </trkpt>
      <trkpt lat="45.62236" lon="6.8189">
        <ele>1131.6088867188</ele>
        <time>2016-08-21T10:33:59Z</time>
      </trkpt>
      <trkpt lat="45.62185" lon="6.81922">
        <ele>1128.7250976562</ele>
        <time>2016-08-21T10:34:04Z</time>
      </trkpt>
      <trkpt lat="45.62143" lon="6.81976">
        <ele>1126.3217773438</ele>
        <time>2016-08-21T10:34:09Z</time>
      </trkpt>
      <trkpt lat="45.62126" lon="6.81998">
        <ele>1124.8798828125</ele>
        <time>2016-08-21T10:34:11Z</time>
      </trkpt>
      <trkpt lat="45.62064" lon="6.82078">
        <ele>1120.5539550781</ele>
        <time>2016-08-21T10:34:18Z</time>
      </trkpt>
      <trkpt lat="45.62044" lon="6.82097">
        <ele>1119.5927734375</ele>
        <time>2016-08-21T10:34:20Z</time>
      </trkpt>
      <trkpt lat="45.62025" lon="6.82118">
        <ele>1119.1120605469</ele>
        <time>2016-08-21T10:34:22Z</time>
      </trkpt>
      <trkpt lat="45.62001" lon="6.82158">
        <ele>1117.189453125</ele>
        <time>2016-08-21T10:34:25Z</time>
      </trkpt>
      <trkpt lat="45.61976" lon="6.82194">
        <ele>1115.2666015625</ele>
        <time>2016-08-21T10:34:28Z</time>
      </trkpt>
      <trkpt lat="45.61956" lon="6.82213">
        <ele>1111.9020996094</ele>
        <time>2016-08-21T10:34:30Z</time>
      </trkpt>
      <trkpt lat="45.61921" lon="6.82257">
        <ele>1110.4599609375</ele>
        <time>2016-08-21T10:34:34Z</time>
      </trkpt>
      <trkpt lat="45.61907" lon="6.82295">
        <ele>1107.0954589844</ele>
        <time>2016-08-21T10:34:37Z</time>
      </trkpt>
      <trkpt lat="45.61896" lon="6.82317">
        <ele>1105.1728515625</ele>
        <time>2016-08-21T10:34:40Z</time>
      </trkpt>
      <trkpt lat="45.61891" lon="6.82307">
        <ele>1104.6921386719</ele>
        <time>2016-08-21T10:34:42Z</time>
      </trkpt>
      <trkpt lat="45.61899" lon="6.82282">
        <ele>1103.7309570312</ele>
        <time>2016-08-21T10:34:45Z</time>
      </trkpt>
      <trkpt lat="45.61904" lon="6.82273">
        <ele>1103.2502441406</ele>
        <time>2016-08-21T10:34:46Z</time>
      </trkpt>
      <trkpt lat="45.6193" lon="6.82208">
        <ele>1100.8469238281</ele>
        <time>2016-08-21T10:34:52Z</time>
      </trkpt>
      <trkpt lat="45.61946" lon="6.82174">
        <ele>1100.3664550781</ele>
        <time>2016-08-21T10:34:55Z</time>
      </trkpt>
      <trkpt lat="45.61953" lon="6.82162">
        <ele>1100.3664550781</ele>
        <time>2016-08-21T10:34:56Z</time>
      </trkpt>
      <trkpt lat="45.61965" lon="6.8214">
        <ele>1097.962890625</ele>
        <time>2016-08-21T10:34:58Z</time>
      </trkpt>
      <trkpt lat="45.61977" lon="6.82117">
        <ele>1096.5209960938</ele>
        <time>2016-08-21T10:35:00Z</time>
      </trkpt>
      <trkpt lat="45.62014" lon="6.82047">
        <ele>1093.6369628906</ele>
        <time>2016-08-21T10:35:06Z</time>
      </trkpt>
      <trkpt lat="45.62021" lon="6.82035">
        <ele>1093.6369628906</ele>
        <time>2016-08-21T10:35:07Z</time>
      </trkpt>
      <trkpt lat="45.62054" lon="6.81977">
        <ele>1090.2724609375</ele>
        <time>2016-08-21T10:35:12Z</time>
      </trkpt>
      <trkpt lat="45.62066" lon="6.81954">
        <ele>1088.3498535156</ele>
        <time>2016-08-21T10:35:14Z</time>
      </trkpt>
      <trkpt lat="45.6208" lon="6.81899">
        <ele>1086.9077148438</ele>
        <time>2016-08-21T10:35:18Z</time>
      </trkpt>
      <trkpt lat="45.62084" lon="6.81871">
        <ele>1085.4658203125</ele>
        <time>2016-08-21T10:35:20Z</time>
      </trkpt>
      <trkpt lat="45.62097" lon="6.81814">
        <ele>1083.0622558594</ele>
        <time>2016-08-21T10:35:24Z</time>
      </trkpt>
      <trkpt lat="45.62105" lon="6.81786">
        <ele>1082.1010742188</ele>
        <time>2016-08-21T10:35:26Z</time>
      </trkpt>
      <trkpt lat="45.62136" lon="6.81722">
        <ele>1081.1398925781</ele>
        <time>2016-08-21T10:35:31Z</time>
      </trkpt>
      <trkpt lat="45.62168" lon="6.81681">
        <ele>1078.7365722656</ele>
        <time>2016-08-21T10:35:35Z</time>
      </trkpt>
      <trkpt lat="45.62206" lon="6.81648">
        <ele>1076.3332519531</ele>
        <time>2016-08-21T10:35:39Z</time>
      </trkpt>
      <trkpt lat="45.62216" lon="6.81639">
        <ele>1077.7751464844</ele>
        <time>2016-08-21T10:35:40Z</time>
      </trkpt>
      <trkpt lat="45.62236" lon="6.81601">
        <ele>1075.3718261719</ele>
        <time>2016-08-21T10:35:43Z</time>
      </trkpt>
      <trkpt lat="45.6224" lon="6.81586">
        <ele>1074.4106445312</ele>
        <time>2016-08-21T10:35:44Z</time>
      </trkpt>
      <trkpt lat="45.62251" lon="6.81543">
        <ele>1072.96875</ele>
        <time>2016-08-21T10:35:47Z</time>
      </trkpt>
      <trkpt lat="45.62282" lon="6.81501">
        <ele>1070.0847167969</ele>
        <time>2016-08-21T10:35:51Z</time>
      </trkpt>
      <trkpt lat="45.62329" lon="6.81463">
        <ele>1066.7199707031</ele>
        <time>2016-08-21T10:35:56Z</time>
      </trkpt>
      <trkpt lat="45.6235" lon="6.81451">
        <ele>1064.7973632812</ele>
        <time>2016-08-21T10:35:58Z</time>
      </trkpt>
      <trkpt lat="45.6236" lon="6.81446">
        <ele>1064.7973632812</ele>
        <time>2016-08-21T10:35:59Z</time>
      </trkpt>
      <trkpt lat="45.62382" lon="6.81437">
        <ele>1062.8747558594</ele>
        <time>2016-08-21T10:36:01Z</time>
      </trkpt>
      <trkpt lat="45.62403" lon="6.81423">
        <ele>1062.3940429688</ele>
        <time>2016-08-21T10:36:03Z</time>
      </trkpt>
      <trkpt lat="45.62431" lon="6.81368">
        <ele>1060.9521484375</ele>
        <time>2016-08-21T10:36:07Z</time>
      </trkpt>
      <trkpt lat="45.62438" lon="6.81355">
        <ele>1059.9907226562</ele>
        <time>2016-08-21T10:36:08Z</time>
      </trkpt>
      <trkpt lat="45.62454" lon="6.81335">
        <ele>1058.068359375</ele>
        <time>2016-08-21T10:36:10Z</time>
      </trkpt>
      <trkpt lat="45.62482" lon="6.81314">
        <ele>1056.1455078125</ele>
        <time>2016-08-21T10:36:13Z</time>
      </trkpt>
      <trkpt lat="45.62501" lon="6.813">
        <ele>1055.1843261719</ele>
        <time>2016-08-21T10:36:15Z</time>
      </trkpt>
      <trkpt lat="45.62518" lon="6.81283">
        <ele>1053.26171875</ele>
        <time>2016-08-21T10:36:17Z</time>
      </trkpt>
      <trkpt lat="45.62544" lon="6.81273">
        <ele>1050.3776855469</ele>
        <time>2016-08-21T10:36:20Z</time>
      </trkpt>
      <trkpt lat="45.62562" lon="6.81282">
        <ele>1048.935546875</ele>
        <time>2016-08-21T10:36:22Z</time>
      </trkpt>
      <trkpt lat="45.6258" lon="6.81297">
        <ele>1048.935546875</ele>
        <time>2016-08-21T10:36:24Z</time>
      </trkpt>
      <trkpt lat="45.62611" lon="6.81302">
        <ele>1047.4936523438</ele>
        <time>2016-08-21T10:36:27Z</time>
      </trkpt>
      <trkpt lat="45.62639" lon="6.81283">
        <ele>1043.6484375</ele>
        <time>2016-08-21T10:36:30Z</time>
      </trkpt>
      <trkpt lat="45.62656" lon="6.81266">
        <ele>1043.1677246094</ele>
        <time>2016-08-21T10:36:32Z</time>
      </trkpt>
      <trkpt lat="45.62674" lon="6.81248">
        <ele>1040.7644042969</ele>
        <time>2016-08-21T10:36:34Z</time>
      </trkpt>
      <trkpt lat="45.62691" lon="6.81213">
        <ele>1039.3225097656</ele>
        <time>2016-08-21T10:36:37Z</time>
      </trkpt>
      <trkpt lat="45.62696" lon="6.81168">
        <ele>1036.9191894531</ele>
        <time>2016-08-21T10:36:40Z</time>
      </trkpt>
      <trkpt lat="45.62692" lon="6.81136">
        <ele>1038.8420410156</ele>
        <time>2016-08-21T10:36:42Z</time>
      </trkpt>
      <trkpt lat="45.62683" lon="6.8109">
        <ele>1034.5158691406</ele>
        <time>2016-08-21T10:36:45Z</time>
      </trkpt>
      <trkpt lat="45.62681" lon="6.81075">
        <ele>1033.5544433594</ele>
        <time>2016-08-21T10:36:46Z</time>
      </trkpt>
      <trkpt lat="45.62679" lon="6.81031">
        <ele>1031.1513671875</ele>
        <time>2016-08-21T10:36:49Z</time>
      </trkpt>
      <trkpt lat="45.62682" lon="6.80929">
        <ele>1026.8254394531</ele>
        <time>2016-08-21T10:36:56Z</time>
      </trkpt>
      <trkpt lat="45.62667" lon="6.80901">
        <ele>1022.0187988281</ele>
        <time>2016-08-21T10:36:59Z</time>
      </trkpt>
      <trkpt lat="45.62659" lon="6.80902">
        <ele>1022.4995117188</ele>
        <time>2016-08-21T10:37:00Z</time>
      </trkpt>
      <trkpt lat="45.62644" lon="6.80914">
        <ele>1020.5769042969</ele>
        <time>2016-08-21T10:37:02Z</time>
      </trkpt>
      <trkpt lat="45.62638" lon="6.80922">
        <ele>1021.0576171875</ele>
        <time>2016-08-21T10:37:03Z</time>
      </trkpt>
      <trkpt lat="45.626" lon="6.80985">
        <ele>1019.134765625</ele>
        <time>2016-08-21T10:37:09Z</time>
      </trkpt>
      <trkpt lat="45.62593" lon="6.80997">
        <ele>1019.134765625</ele>
        <time>2016-08-21T10:37:10Z</time>
      </trkpt>
      <trkpt lat="45.62573" lon="6.81052">
        <ele>1018.1733398438</ele>
        <time>2016-08-21T10:37:14Z</time>
      </trkpt>
      <trkpt lat="45.62568" lon="6.81066">
        <ele>1018.1733398438</ele>
        <time>2016-08-21T10:37:15Z</time>
      </trkpt>
      <trkpt lat="45.62549" lon="6.81123">
        <ele>1014.8088378906</ele>
        <time>2016-08-21T10:37:19Z</time>
      </trkpt>
      <trkpt lat="45.62542" lon="6.81147">
        <ele>1012.4055175781</ele>
        <time>2016-08-21T10:37:21Z</time>
      </trkpt>
      <trkpt lat="45.62526" lon="6.8116">
        <ele>1010.4829101562</ele>
        <time>2016-08-21T10:37:24Z</time>
      </trkpt>
      <trkpt lat="45.62517" lon="6.81148">
        <ele>1008.5603027344</ele>
        <time>2016-08-21T10:37:26Z</time>
      </trkpt>
      <trkpt lat="45.62513" lon="6.81126">
        <ele>1007.5991210938</ele>
        <time>2016-08-21T10:37:28Z</time>
      </trkpt>
      <trkpt lat="45.62502" lon="6.81046">
        <ele>1005.6765136719</ele>
        <time>2016-08-21T10:37:34Z</time>
      </trkpt>
      <trkpt lat="45.62498" lon="6.81017">
        <ele>1004.7150878906</ele>
        <time>2016-08-21T10:37:36Z</time>
      </trkpt>
      <trkpt lat="45.62491" lon="6.80974">
        <ele>1003.2729492188</ele>
        <time>2016-08-21T10:37:39Z</time>
      </trkpt>
      <trkpt lat="45.62487" lon="6.80946">
        <ele>1001.8310546875</ele>
        <time>2016-08-21T10:37:41Z</time>
      </trkpt>
      <trkpt lat="45.62476" lon="6.80874">
        <ele>998.46630859375</ele>
        <time>2016-08-21T10:37:46Z</time>
      </trkpt>
      <trkpt lat="45.62469" lon="6.80824">
        <ele>994.62109375</ele>
        <time>2016-08-21T10:37:50Z</time>
      </trkpt>
      <trkpt lat="45.62465" lon="6.80807">
        <ele>991.25659179688</ele>
        <time>2016-08-21T10:37:52Z</time>
      </trkpt>
      <trkpt lat="45.6246" lon="6.80792">
        <ele>989.333984375</ele>
        <time>2016-08-21T10:37:55Z</time>
      </trkpt>
      <trkpt lat="45.62458" lon="6.80789">
        <ele>989.333984375</ele>
        <time>2016-08-21T10:37:58Z</time>
      </trkpt>
      <trkpt lat="45.62458" lon="6.8079">
        <ele>989.333984375</ele>
        <time>2016-08-21T10:38:07Z</time>
      </trkpt>
      <trkpt lat="45.62459" lon="6.80791">
        <ele>988.37280273438</ele>
        <time>2016-08-21T10:38:16Z</time>
      </trkpt>
      <trkpt lat="45.62459" lon="6.80792">
        <ele>989.333984375</ele>
        <time>2016-08-21T10:38:20Z</time>
      </trkpt>
      <trkpt lat="45.62459" lon="6.80793">
        <ele>989.333984375</ele>
        <time>2016-08-21T10:38:29Z</time>
      </trkpt>
      <trkpt lat="45.62458" lon="6.80795">
        <ele>990.29541015625</ele>
        <time>2016-08-21T10:38:54Z</time>
      </trkpt>
      <trkpt lat="45.62456" lon="6.80795">
        <ele>989.333984375</ele>
        <time>2016-08-21T10:39:06Z</time>
      </trkpt>
      <trkpt lat="45.62456" lon="6.80795">
        <ele>989.333984375</ele>
        <time>2016-08-21T10:39:11Z</time>
      </trkpt>
      <trkpt lat="45.62456" lon="6.80795">
        <ele>990.29541015625</ele>
        <time>2016-08-21T10:39:26Z</time>
      </trkpt>
      <trkpt lat="45.62456" lon="6.80794">
        <ele>990.29541015625</ele>
        <time>2016-08-21T10:39:30Z</time>
      </trkpt>
      <trkpt lat="45.62456" lon="6.80794">
        <ele>990.29541015625</ele>
        <time>2016-08-21T10:39:31Z</time>
      </trkpt>
      <trkpt lat="45.62445" lon="6.80796">
        <ele>989.81469726562</ele>
        <time>2016-08-21T10:39:36Z</time>
      </trkpt>
      <trkpt lat="45.62431" lon="6.80813">
        <ele>989.333984375</ele>
        <time>2016-08-21T10:39:40Z</time>
      </trkpt>
      <trkpt lat="45.62428" lon="6.8082">
        <ele>988.853515625</ele>
        <time>2016-08-21T10:39:41Z</time>
      </trkpt>
      <trkpt lat="45.62421" lon="6.80836">
        <ele>987.4111328125</ele>
        <time>2016-08-21T10:39:43Z</time>
      </trkpt>
      <trkpt lat="45.62397" lon="6.80894">
        <ele>986.44995117188</ele>
        <time>2016-08-21T10:39:49Z</time>
      </trkpt>
      <trkpt lat="45.62373" lon="6.8095">
        <ele>985.00805664062</ele>
        <time>2016-08-21T10:39:54Z</time>
      </trkpt>
      <trkpt lat="45.62357" lon="6.80987">
        <ele>983.08520507812</ele>
        <time>2016-08-21T10:39:57Z</time>
      </trkpt>
      <trkpt lat="45.6233" lon="6.8105">
        <ele>979.720703125</ele>
        <time>2016-08-21T10:40:02Z</time>
      </trkpt>
      <trkpt lat="45.62317" lon="6.81083">
        <ele>977.31762695312</ele>
        <time>2016-08-21T10:40:05Z</time>
      </trkpt>
      <trkpt lat="45.62302" lon="6.81094">
        <ele>975.87548828125</ele>
        <time>2016-08-21T10:40:08Z</time>
      </trkpt>
      <trkpt lat="45.62293" lon="6.81083">
        <ele>973.47241210938</ele>
        <time>2016-08-21T10:40:10Z</time>
      </trkpt>
      <trkpt lat="45.62289" lon="6.81063">
        <ele>973.47241210938</ele>
        <time>2016-08-21T10:40:12Z</time>
      </trkpt>
      <trkpt lat="45.62285" lon="6.81028">
        <ele>971.54931640625</ele>
        <time>2016-08-21T10:40:15Z</time>
      </trkpt>
      <trkpt lat="45.62278" lon="6.80973">
        <ele>970.107421875</ele>
        <time>2016-08-21T10:40:19Z</time>
      </trkpt>
      <trkpt lat="45.62274" lon="6.80945">
        <ele>970.107421875</ele>
        <time>2016-08-21T10:40:21Z</time>
      </trkpt>
      <trkpt lat="45.62266" lon="6.80886">
        <ele>968.18481445312</ele>
        <time>2016-08-21T10:40:25Z</time>
      </trkpt>
      <trkpt lat="45.62261" lon="6.80844">
        <ele>964.33959960938</ele>
        <time>2016-08-21T10:40:28Z</time>
      </trkpt>
      <trkpt lat="45.62258" lon="6.8082">
        <ele>963.37841796875</ele>
        <time>2016-08-21T10:40:30Z</time>
      </trkpt>
      <trkpt lat="45.62244" lon="6.80802">
        <ele>960.49438476562</ele>
        <time>2016-08-21T10:40:33Z</time>
      </trkpt>
      <trkpt lat="45.62237" lon="6.80805">
        <ele>960.49438476562</ele>
        <time>2016-08-21T10:40:34Z</time>
      </trkpt>
      <trkpt lat="45.62228" lon="6.8082">
        <ele>960.013671875</ele>
        <time>2016-08-21T10:40:36Z</time>
      </trkpt>
      <trkpt lat="45.62225" lon="6.80829">
        <ele>958.57177734375</ele>
        <time>2016-08-21T10:40:37Z</time>
      </trkpt>
      <trkpt lat="45.6221" lon="6.809">
        <ele>956.16845703125</ele>
        <time>2016-08-21T10:40:43Z</time>
      </trkpt>
      <trkpt lat="45.62201" lon="6.80939">
        <ele>958.09130859375</ele>
        <time>2016-08-21T10:40:46Z</time>
      </trkpt>
      <trkpt lat="45.62193" lon="6.8098">
        <ele>955.68774414062</ele>
        <time>2016-08-21T10:40:49Z</time>
      </trkpt>
      <trkpt lat="45.62185" lon="6.81021">
        <ele>954.24584960938</ele>
        <time>2016-08-21T10:40:52Z</time>
      </trkpt>
      <trkpt lat="45.62164" lon="6.81061">
        <ele>953.28442382812</ele>
        <time>2016-08-21T10:40:56Z</time>
      </trkpt>
      <trkpt lat="45.62145" lon="6.8106">
        <ele>951.84252929688</ele>
        <time>2016-08-21T10:40:58Z</time>
      </trkpt>
      <trkpt lat="45.6213" lon="6.81046">
        <ele>950.40063476562</ele>
        <time>2016-08-21T10:41:00Z</time>
      </trkpt>
      <trkpt lat="45.62125" lon="6.81018">
        <ele>949.43920898438</ele>
        <time>2016-08-21T10:41:02Z</time>
      </trkpt>
      <trkpt lat="45.62124" lon="6.81004">
        <ele>949.43920898438</ele>
        <time>2016-08-21T10:41:03Z</time>
      </trkpt>
      <trkpt lat="45.62122" lon="6.80977">
        <ele>947.5166015625</ele>
        <time>2016-08-21T10:41:05Z</time>
      </trkpt>
      <trkpt lat="45.62122" lon="6.80964">
        <ele>947.99731445312</ele>
        <time>2016-08-21T10:41:06Z</time>
      </trkpt>
      <trkpt lat="45.62116" lon="6.80873">
        <ele>944.15209960938</ele>
        <time>2016-08-21T10:41:13Z</time>
      </trkpt>
      <trkpt lat="45.62115" lon="6.8086">
        <ele>944.15209960938</ele>
        <time>2016-08-21T10:41:14Z</time>
      </trkpt>
      <trkpt lat="45.62111" lon="6.80794">
        <ele>940.30688476562</ele>
        <time>2016-08-21T10:41:19Z</time>
      </trkpt>
      <trkpt lat="45.6211" lon="6.80781">
        <ele>940.78735351562</ele>
        <time>2016-08-21T10:41:20Z</time>
      </trkpt>
      <trkpt lat="45.62104" lon="6.80697">
        <ele>938.38403320312</ele>
        <time>2016-08-21T10:41:26Z</time>
      </trkpt>
      <trkpt lat="45.621" lon="6.80628">
        <ele>936.46142578125</ele>
        <time>2016-08-21T10:41:31Z</time>
      </trkpt>
      <trkpt lat="45.62098" lon="6.806">
        <ele>935.01953125</ele>
        <time>2016-08-21T10:41:33Z</time>
      </trkpt>
      <trkpt lat="45.62092" lon="6.80499">
        <ele>933.0966796875</ele>
        <time>2016-08-21T10:41:40Z</time>
      </trkpt>
      <trkpt lat="45.62097" lon="6.80441">
        <ele>930.69360351562</ele>
        <time>2016-08-21T10:41:44Z</time>
      </trkpt>
      <trkpt lat="45.62103" lon="6.80414">
        <ele>929.25146484375</ele>
        <time>2016-08-21T10:41:46Z</time>
      </trkpt>
      <trkpt lat="45.62122" lon="6.80352">
        <ele>926.84838867188</ele>
        <time>2016-08-21T10:41:51Z</time>
      </trkpt>
      <trkpt lat="45.62131" lon="6.80329">
        <ele>924.92578125</ele>
        <time>2016-08-21T10:41:53Z</time>
      </trkpt>
      <trkpt lat="45.62157" lon="6.80247">
        <ele>922.04150390625</ele>
        <time>2016-08-21T10:42:00Z</time>
      </trkpt>
      <trkpt lat="45.62181" lon="6.80177">
        <ele>919.15771484375</ele>
        <time>2016-08-21T10:42:06Z</time>
      </trkpt>
      <trkpt lat="45.62186" lon="6.80152">
        <ele>920.11889648438</ele>
        <time>2016-08-21T10:42:08Z</time>
      </trkpt>
      <trkpt lat="45.62196" lon="6.80116">
        <ele>917.23510742188</ele>
        <time>2016-08-21T10:42:11Z</time>
      </trkpt>
      <trkpt lat="45.622" lon="6.80105">
        <ele>915.79321289062</ele>
        <time>2016-08-21T10:42:12Z</time>
      </trkpt>
      <trkpt lat="45.62233" lon="6.80038">
        <ele>914.35107421875</ele>
        <time>2016-08-21T10:42:18Z</time>
      </trkpt>
      <trkpt lat="45.62252" lon="6.8001">
        <ele>912.9091796875</ele>
        <time>2016-08-21T10:42:21Z</time>
      </trkpt>
      <trkpt lat="45.62287" lon="6.79963">
        <ele>911.46728515625</ele>
        <time>2016-08-21T10:42:27Z</time>
      </trkpt>
      <trkpt lat="45.62293" lon="6.79955">
        <ele>910.02514648438</ele>
        <time>2016-08-21T10:42:28Z</time>
      </trkpt>
      <trkpt lat="45.62314" lon="6.79916">
        <ele>908.58325195312</ele>
        <time>2016-08-21T10:42:32Z</time>
      </trkpt>
      <trkpt lat="45.62348" lon="6.79844">
        <ele>907.62182617188</ele>
        <time>2016-08-21T10:42:39Z</time>
      </trkpt>
      <trkpt lat="45.62353" lon="6.79834">
        <ele>907.14111328125</ele>
        <time>2016-08-21T10:42:40Z</time>
      </trkpt>
      <trkpt lat="45.62383" lon="6.79762">
        <ele>903.77661132812</ele>
        <time>2016-08-21T10:42:47Z</time>
      </trkpt>
      <trkpt lat="45.62411" lon="6.79701">
        <ele>901.37329101562</ele>
        <time>2016-08-21T10:42:53Z</time>
      </trkpt>
      <trkpt lat="45.62415" lon="6.7969">
        <ele>900.892578125</ele>
        <time>2016-08-21T10:42:54Z</time>
      </trkpt>
      <trkpt lat="45.6245" lon="6.79617">
        <ele>898.0087890625</ele>
        <time>2016-08-21T10:43:01Z</time>
      </trkpt>
      <trkpt lat="45.62491" lon="6.79535">
        <ele>894.16357421875</ele>
        <time>2016-08-21T10:43:09Z</time>
      </trkpt>
      <trkpt lat="45.62496" lon="6.79524">
        <ele>894.64404296875</ele>
        <time>2016-08-21T10:43:10Z</time>
      </trkpt>
      <trkpt lat="45.62513" lon="6.79494">
        <ele>892.24096679688</ele>
        <time>2016-08-21T10:43:13Z</time>
      </trkpt>
      <trkpt lat="45.62541" lon="6.79457">
        <ele>891.76000976562</ele>
        <time>2016-08-21T10:43:17Z</time>
      </trkpt>
      <trkpt lat="45.62585" lon="6.79403">
        <ele>890.31811523438</ele>
        <time>2016-08-21T10:43:23Z</time>
      </trkpt>
      <trkpt lat="45.626" lon="6.79384">
        <ele>889.35668945312</ele>
        <time>2016-08-21T10:43:25Z</time>
      </trkpt>
      <trkpt lat="45.62613" lon="6.79362">
        <ele>888.3955078125</ele>
        <time>2016-08-21T10:43:27Z</time>
      </trkpt>
      <trkpt lat="45.62633" lon="6.79311">
        <ele>886.47290039062</ele>
        <time>2016-08-21T10:43:31Z</time>
      </trkpt>
      <trkpt lat="45.62637" lon="6.79297">
        <ele>885.9921875</ele>
        <time>2016-08-21T10:43:32Z</time>
      </trkpt>
      <trkpt lat="45.62652" lon="6.79223">
        <ele>881.66625976562</ele>
        <time>2016-08-21T10:43:37Z</time>
      </trkpt>
      <trkpt lat="45.62658" lon="6.79193">
        <ele>881.18579101562</ele>
        <time>2016-08-21T10:43:39Z</time>
      </trkpt>
      <trkpt lat="45.62679" lon="6.79119">
        <ele>879.74365234375</ele>
        <time>2016-08-21T10:43:44Z</time>
      </trkpt>
      <trkpt lat="45.62688" lon="6.79073">
        <ele>876.37915039062</ele>
        <time>2016-08-21T10:43:47Z</time>
      </trkpt>
      <trkpt lat="45.62695" lon="6.79026">
        <ele>874.93701171875</ele>
        <time>2016-08-21T10:43:50Z</time>
      </trkpt>
      <trkpt lat="45.62701" lon="6.78946">
        <ele>871.091796875</ele>
        <time>2016-08-21T10:43:55Z</time>
      </trkpt>
      <trkpt lat="45.62705" lon="6.78898">
        <ele>868.20776367188</ele>
        <time>2016-08-21T10:43:58Z</time>
      </trkpt>
      <trkpt lat="45.62711" lon="6.78801">
        <ele>866.28515625</ele>
        <time>2016-08-21T10:44:04Z</time>
      </trkpt>
      <trkpt lat="45.62717" lon="6.78721">
        <ele>864.36254882812</ele>
        <time>2016-08-21T10:44:09Z</time>
      </trkpt>
      <trkpt lat="45.62717" lon="6.78705">
        <ele>860.998046875</ele>
        <time>2016-08-21T10:44:10Z</time>
      </trkpt>
      <trkpt lat="45.62717" lon="6.78689">
        <ele>858.59448242188</ele>
        <time>2016-08-21T10:44:11Z</time>
      </trkpt>
      <trkpt lat="45.62705" lon="6.78629">
        <ele>857.63330078125</ele>
        <time>2016-08-21T10:44:15Z</time>
      </trkpt>
      <trkpt lat="45.62684" lon="6.78595">
        <ele>858.11401367188</ele>
        <time>2016-08-21T10:44:18Z</time>
      </trkpt>
      <trkpt lat="45.62643" lon="6.7855">
        <ele>856.19116210938</ele>
        <time>2016-08-21T10:44:23Z</time>
      </trkpt>
      <trkpt lat="45.62619" lon="6.78501">
        <ele>854.74926757812</ele>
        <time>2016-08-21T10:44:27Z</time>
      </trkpt>
      <trkpt lat="45.62603" lon="6.78446">
        <ele>851.86547851562</ele>
        <time>2016-08-21T10:44:31Z</time>
      </trkpt>
      <trkpt lat="45.62579" lon="6.78367">
        <ele>850.90405273438</ele>
        <time>2016-08-21T10:44:37Z</time>
      </trkpt>
      <trkpt lat="45.62569" lon="6.78319">
        <ele>846.57836914062</ele>
        <time>2016-08-21T10:44:41Z</time>
      </trkpt>
      <trkpt lat="45.62566" lon="6.78295">
        <ele>846.09765625</ele>
        <time>2016-08-21T10:44:43Z</time>
      </trkpt>
      <trkpt lat="45.62566" lon="6.7827">
        <ele>844.65551757812</ele>
        <time>2016-08-21T10:44:45Z</time>
      </trkpt>
      <trkpt lat="45.62567" lon="6.782">
        <ele>842.73291015625</ele>
        <time>2016-08-21T10:44:51Z</time>
      </trkpt>
      <trkpt lat="45.62558" lon="6.78143">
        <ele>841.29077148438</ele>
        <time>2016-08-21T10:44:56Z</time>
      </trkpt>
      <trkpt lat="45.62544" lon="6.78098">
        <ele>840.81005859375</ele>
        <time>2016-08-21T10:45:00Z</time>
      </trkpt>
      <trkpt lat="45.62508" lon="6.78018">
        <ele>839.3681640625</ele>
        <time>2016-08-21T10:45:07Z</time>
      </trkpt>
      <trkpt lat="45.62477" lon="6.77971">
        <ele>838.40698242188</ele>
        <time>2016-08-21T10:45:12Z</time>
      </trkpt>
      <trkpt lat="45.62428" lon="6.77912">
        <ele>836.00366210938</ele>
        <time>2016-08-21T10:45:19Z</time>
      </trkpt>
      <trkpt lat="45.6238" lon="6.77857">
        <ele>833.11962890625</ele>
        <time>2016-08-21T10:45:26Z</time>
      </trkpt>
      <trkpt lat="45.62367" lon="6.77844">
        <ele>833.11962890625</ele>
        <time>2016-08-21T10:45:28Z</time>
      </trkpt>
      <trkpt lat="45.62337" lon="6.77809">
        <ele>831.197265625</ele>
        <time>2016-08-21T10:45:33Z</time>
      </trkpt>
      <trkpt lat="45.62328" lon="6.77793">
        <ele>831.197265625</ele>
        <time>2016-08-21T10:45:35Z</time>
      </trkpt>
      <trkpt lat="45.62313" lon="6.77757">
        <ele>833.60034179688</ele>
        <time>2016-08-21T10:45:39Z</time>
      </trkpt>
      <trkpt lat="45.62294" lon="6.77713">
        <ele>830.23583984375</ele>
        <time>2016-08-21T10:45:44Z</time>
      </trkpt>
      <trkpt lat="45.62266" lon="6.77653">
        <ele>829.2744140625</ele>
        <time>2016-08-21T10:45:51Z</time>
      </trkpt>
      <trkpt lat="45.62237" lon="6.7759">
        <ele>828.7939453125</ele>
        <time>2016-08-21T10:45:58Z</time>
      </trkpt>
      <trkpt lat="45.62203" lon="6.77517">
        <ele>829.75512695312</ele>
        <time>2016-08-21T10:46:06Z</time>
      </trkpt>
      <trkpt lat="45.62177" lon="6.77457">
        <ele>829.2744140625</ele>
        <time>2016-08-21T10:46:13Z</time>
      </trkpt>
      <trkpt lat="45.62153" lon="6.77393">
        <ele>828.31323242188</ele>
        <time>2016-08-21T10:46:21Z</time>
      </trkpt>
      <trkpt lat="45.62135" lon="6.77344">
        <ele>828.31323242188</ele>
        <time>2016-08-21T10:46:28Z</time>
      </trkpt>
      <trkpt lat="45.62118" lon="6.77298">
        <ele>830.23583984375</ele>
        <time>2016-08-21T10:46:35Z</time>
      </trkpt>
      <trkpt lat="45.62102" lon="6.77261">
        <ele>831.197265625</ele>
        <time>2016-08-21T10:46:41Z</time>
      </trkpt>
      <trkpt lat="45.62083" lon="6.77217">
        <ele>832.63916015625</ele>
        <time>2016-08-21T10:46:48Z</time>
      </trkpt>
      <trkpt lat="45.6208" lon="6.7721">
        <ele>832.15844726562</ele>
        <time>2016-08-21T10:46:49Z</time>
      </trkpt>
      <trkpt lat="45.62061" lon="6.77163">
        <ele>832.63916015625</ele>
        <time>2016-08-21T10:46:56Z</time>
      </trkpt>
      <trkpt lat="45.62049" lon="6.77135">
        <ele>832.63916015625</ele>
        <time>2016-08-21T10:47:00Z</time>
      </trkpt>
      <trkpt lat="45.62046" lon="6.77114">
        <ele>833.60034179688</ele>
        <time>2016-08-21T10:47:03Z</time>
      </trkpt>
      <trkpt lat="45.62035" lon="6.77096">
        <ele>834.0810546875</ele>
        <time>2016-08-21T10:47:07Z</time>
      </trkpt>
      <trkpt lat="45.6203" lon="6.77095">
        <ele>834.56176757812</ele>
        <time>2016-08-21T10:47:08Z</time>
      </trkpt>
      <trkpt lat="45.6201" lon="6.77091">
        <ele>834.0810546875</ele>
        <time>2016-08-21T10:47:12Z</time>
      </trkpt>
      <trkpt lat="45.61995" lon="6.77088">
        <ele>833.11962890625</ele>
        <time>2016-08-21T10:47:15Z</time>
      </trkpt>
      <trkpt lat="45.61949" lon="6.7709">
        <ele>832.63916015625</ele>
        <time>2016-08-21T10:47:23Z</time>
      </trkpt>
      <trkpt lat="45.61902" lon="6.7709">
        <ele>832.63916015625</ele>
        <time>2016-08-21T10:47:31Z</time>
      </trkpt>
      <trkpt lat="45.61876" lon="6.77089">
        <ele>832.15844726562</ele>
        <time>2016-08-21T10:47:36Z</time>
      </trkpt>
      <trkpt lat="45.61867" lon="6.77087">
        <ele>833.11962890625</ele>
        <time>2016-08-21T10:47:38Z</time>
      </trkpt>
      <trkpt lat="45.61851" lon="6.77082">
        <ele>834.0810546875</ele>
        <time>2016-08-21T10:47:42Z</time>
      </trkpt>
      <trkpt lat="45.61829" lon="6.77083">
        <ele>834.56176757812</ele>
        <time>2016-08-21T10:47:48Z</time>
      </trkpt>
      <trkpt lat="45.61826" lon="6.77082">
        <ele>833.60034179688</ele>
        <time>2016-08-21T10:47:49Z</time>
      </trkpt>
      <trkpt lat="45.61797" lon="6.77071">
        <ele>833.60034179688</ele>
        <time>2016-08-21T10:47:56Z</time>
      </trkpt>
      <trkpt lat="45.6177" lon="6.77059">
        <ele>834.0810546875</ele>
        <time>2016-08-21T10:48:03Z</time>
      </trkpt>
      <trkpt lat="45.61738" lon="6.77046">
        <ele>836.484375</ele>
        <time>2016-08-21T10:48:11Z</time>
      </trkpt>
      <trkpt lat="45.61716" lon="6.77035">
        <ele>837.44555664062</ele>
        <time>2016-08-21T10:48:17Z</time>
      </trkpt>
      <trkpt lat="45.61687" lon="6.77022">
        <ele>838.8876953125</ele>
        <time>2016-08-21T10:48:24Z</time>
      </trkpt>
      <trkpt lat="45.6166" lon="6.7701">
        <ele>840.81005859375</ele>
        <time>2016-08-21T10:48:31Z</time>
      </trkpt>
      <trkpt lat="45.61643" lon="6.77002">
        <ele>842.25219726562</ele>
        <time>2016-08-21T10:48:35Z</time>
      </trkpt>
      <trkpt lat="45.61613" lon="6.76983">
        <ele>844.17504882812</ele>
        <time>2016-08-21T10:48:43Z</time>
      </trkpt>
      <trkpt lat="45.61587" lon="6.7696">
        <ele>846.57836914062</ele>
        <time>2016-08-21T10:48:51Z</time>
      </trkpt>
      <trkpt lat="45.61564" lon="6.76932">
        <ele>847.05883789062</ele>
        <time>2016-08-21T10:48:59Z</time>
      </trkpt>
      <trkpt lat="45.61543" lon="6.76897">
        <ele>848.9814453125</ele>
        <time>2016-08-21T10:49:08Z</time>
      </trkpt>
      <trkpt lat="45.61518" lon="6.76849">
        <ele>850.90405273438</ele>
        <time>2016-08-21T10:49:20Z</time>
      </trkpt>
      <trkpt lat="45.61498" lon="6.76812">
        <ele>853.30737304688</ele>
        <time>2016-08-21T10:49:30Z</time>
      </trkpt>
      <trkpt lat="45.61482" lon="6.76782">
        <ele>853.7880859375</ele>
        <time>2016-08-21T10:49:38Z</time>
      </trkpt>
      <trkpt lat="45.61461" lon="6.7674">
        <ele>855.71069335938</ele>
        <time>2016-08-21T10:49:49Z</time>
      </trkpt>
      <trkpt lat="45.61441" lon="6.76702">
        <ele>858.59448242188</ele>
        <time>2016-08-21T10:49:59Z</time>
      </trkpt>
      <trkpt lat="45.61419" lon="6.76665">
        <ele>860.51733398438</ele>
        <time>2016-08-21T10:50:09Z</time>
      </trkpt>
      <trkpt lat="45.61405" lon="6.76644">
        <ele>861.47875976562</ele>
        <time>2016-08-21T10:50:15Z</time>
      </trkpt>
      <trkpt lat="45.61396" lon="6.7662">
        <ele>863.8818359375</ele>
        <time>2016-08-21T10:50:21Z</time>
      </trkpt>
      <trkpt lat="45.61382" lon="6.76611">
        <ele>864.36254882812</ele>
        <time>2016-08-21T10:50:25Z</time>
      </trkpt>
      <trkpt lat="45.61336" lon="6.76589">
        <ele>865.32397460938</ele>
        <time>2016-08-21T10:50:36Z</time>
      </trkpt>
      <trkpt lat="45.61302" lon="6.76573">
        <ele>866.76586914062</ele>
        <time>2016-08-21T10:50:44Z</time>
      </trkpt>
      <trkpt lat="45.6127" lon="6.76561">
        <ele>867.24658203125</ele>
        <time>2016-08-21T10:50:51Z</time>
      </trkpt>
      <trkpt lat="45.61237" lon="6.7655">
        <ele>868.6884765625</ele>
        <time>2016-08-21T10:50:58Z</time>
      </trkpt>
      <trkpt lat="45.61209" lon="6.7654">
        <ele>869.16918945312</ele>
        <time>2016-08-21T10:51:04Z</time>
      </trkpt>
      <trkpt lat="45.61196" lon="6.7653">
        <ele>869.64990234375</ele>
        <time>2016-08-21T10:51:07Z</time>
      </trkpt>
      <trkpt lat="45.61177" lon="6.76524">
        <ele>869.64990234375</ele>
        <time>2016-08-21T10:51:11Z</time>
      </trkpt>
      <trkpt lat="45.6115" lon="6.76511">
        <ele>870.61108398438</ele>
        <time>2016-08-21T10:51:16Z</time>
      </trkpt>
      <trkpt lat="45.61106" lon="6.76467">
        <ele>871.091796875</ele>
        <time>2016-08-21T10:51:26Z</time>
      </trkpt>
      <trkpt lat="45.61079" lon="6.7643">
        <ele>871.091796875</ele>
        <time>2016-08-21T10:51:33Z</time>
      </trkpt>
      <trkpt lat="45.61052" lon="6.76381">
        <ele>871.091796875</ele>
        <time>2016-08-21T10:51:40Z</time>
      </trkpt>
      <trkpt lat="45.61016" lon="6.76312">
        <ele>870.13037109375</ele>
        <time>2016-08-21T10:51:48Z</time>
      </trkpt>
      <trkpt lat="45.60979" lon="6.76235">
        <ele>868.6884765625</ele>
        <time>2016-08-21T10:51:56Z</time>
      </trkpt>
      <trkpt lat="45.60949" lon="6.76161">
        <ele>866.28515625</ele>
        <time>2016-08-21T10:52:03Z</time>
      </trkpt>
      <trkpt lat="45.60927" lon="6.76082">
        <ele>865.8046875</ele>
        <time>2016-08-21T10:52:10Z</time>
      </trkpt>
      <trkpt lat="45.60921" lon="6.76059">
        <ele>865.32397460938</ele>
        <time>2016-08-21T10:52:12Z</time>
      </trkpt>
      <trkpt lat="45.60895" lon="6.75984">
        <ele>862.92065429688</ele>
        <time>2016-08-21T10:52:19Z</time>
      </trkpt>
      <trkpt lat="45.6089" lon="6.75974">
        <ele>862.92065429688</ele>
        <time>2016-08-21T10:52:20Z</time>
      </trkpt>
      <trkpt lat="45.60851" lon="6.75927">
        <ele>862.92065429688</ele>
        <time>2016-08-21T10:52:26Z</time>
      </trkpt>
      <trkpt lat="45.60812" lon="6.75904">
        <ele>862.43994140625</ele>
        <time>2016-08-21T10:52:31Z</time>
      </trkpt>
      <trkpt lat="45.60789" lon="6.75893">
        <ele>861.47875976562</ele>
        <time>2016-08-21T10:52:34Z</time>
      </trkpt>
      <trkpt lat="45.6076" lon="6.75878">
        <ele>861.47875976562</ele>
        <time>2016-08-21T10:52:38Z</time>
      </trkpt>
      <trkpt lat="45.60719" lon="6.75854">
        <ele>860.03662109375</ele>
        <time>2016-08-21T10:52:43Z</time>
      </trkpt>
      <trkpt lat="45.60683" lon="6.75823">
        <ele>860.03662109375</ele>
        <time>2016-08-21T10:52:48Z</time>
      </trkpt>
      <trkpt lat="45.60613" lon="6.75746">
        <ele>858.59448242188</ele>
        <time>2016-08-21T10:52:58Z</time>
      </trkpt>
      <trkpt lat="45.60548" lon="6.75681">
        <ele>856.671875</ele>
        <time>2016-08-21T10:53:07Z</time>
      </trkpt>
      <trkpt lat="45.60517" lon="6.7566">
        <ele>855.22998046875</ele>
        <time>2016-08-21T10:53:11Z</time>
      </trkpt>
      <trkpt lat="45.60456" lon="6.75631">
        <ele>855.22998046875</ele>
        <time>2016-08-21T10:53:18Z</time>
      </trkpt>
      <trkpt lat="45.60431" lon="6.75617">
        <ele>853.7880859375</ele>
        <time>2016-08-21T10:53:21Z</time>
      </trkpt>
      <trkpt lat="45.60384" lon="6.75582">
        <ele>852.82666015625</ele>
        <time>2016-08-21T10:53:27Z</time>
      </trkpt>
      <trkpt lat="45.6034" lon="6.75537">
        <ele>852.82666015625</ele>
        <time>2016-08-21T10:53:33Z</time>
      </trkpt>
      <trkpt lat="45.60315" lon="6.75498">
        <ele>850.90405273438</ele>
        <time>2016-08-21T10:53:37Z</time>
      </trkpt>
      <trkpt lat="45.6027" lon="6.75415">
        <ele>848.50073242188</ele>
        <time>2016-08-21T10:53:45Z</time>
      </trkpt>
      <trkpt lat="45.60235" lon="6.75372">
        <ele>848.50073242188</ele>
        <time>2016-08-21T10:53:50Z</time>
      </trkpt>
      <trkpt lat="45.60202" lon="6.75349">
        <ele>848.9814453125</ele>
        <time>2016-08-21T10:53:54Z</time>
      </trkpt>
      <trkpt lat="45.60152" lon="6.75328">
        <ele>849.46215820312</ele>
        <time>2016-08-21T10:54:00Z</time>
      </trkpt>
      <trkpt lat="45.60095" lon="6.75303">
        <ele>848.02026367188</ele>
        <time>2016-08-21T10:54:07Z</time>
      </trkpt>
      <trkpt lat="45.6006" lon="6.75273">
        <ele>847.53955078125</ele>
        <time>2016-08-21T10:54:12Z</time>
      </trkpt>
      <trkpt lat="45.60005" lon="6.75211">
        <ele>847.05883789062</ele>
        <time>2016-08-21T10:54:21Z</time>
      </trkpt>
      <trkpt lat="45.59979" lon="6.75186">
        <ele>846.09765625</ele>
        <time>2016-08-21T10:54:25Z</time>
      </trkpt>
      <trkpt lat="45.59933" lon="6.75164">
        <ele>847.05883789062</ele>
        <time>2016-08-21T10:54:31Z</time>
      </trkpt>
      <trkpt lat="45.59876" lon="6.75156">
        <ele>847.05883789062</ele>
        <time>2016-08-21T10:54:38Z</time>
      </trkpt>
      <trkpt lat="45.59817" lon="6.75145">
        <ele>845.61694335938</ele>
        <time>2016-08-21T10:54:45Z</time>
      </trkpt>
      <trkpt lat="45.59771" lon="6.75118">
        <ele>846.09765625</ele>
        <time>2016-08-21T10:54:51Z</time>
      </trkpt>
      <trkpt lat="45.59701" lon="6.75078">
        <ele>845.61694335938</ele>
        <time>2016-08-21T10:55:00Z</time>
      </trkpt>
      <trkpt lat="45.59662" lon="6.75059">
        <ele>848.50073242188</ele>
        <time>2016-08-21T10:55:05Z</time>
      </trkpt>
      <trkpt lat="45.59655" lon="6.75054">
        <ele>847.53955078125</ele>
        <time>2016-08-21T10:55:06Z</time>
      </trkpt>
      <trkpt lat="45.59632" lon="6.75043">
        <ele>845.61694335938</ele>
        <time>2016-08-21T10:55:09Z</time>
      </trkpt>
      <trkpt lat="45.5958" lon="6.75014">
        <ele>844.65551757812</ele>
        <time>2016-08-21T10:55:16Z</time>
      </trkpt>
      <trkpt lat="45.59514" lon="6.74975">
        <ele>845.61694335938</ele>
        <time>2016-08-21T10:55:25Z</time>
      </trkpt>
      <trkpt lat="45.59457" lon="6.74942">
        <ele>845.13623046875</ele>
        <time>2016-08-21T10:55:33Z</time>
      </trkpt>
      <trkpt lat="45.5943" lon="6.74926">
        <ele>844.17504882812</ele>
        <time>2016-08-21T10:55:37Z</time>
      </trkpt>
      <trkpt lat="45.59399" lon="6.74903">
        <ele>843.69409179688</ele>
        <time>2016-08-21T10:55:42Z</time>
      </trkpt>
      <trkpt lat="45.59379" lon="6.74889">
        <ele>842.25219726562</ele>
        <time>2016-08-21T10:55:45Z</time>
      </trkpt>
      <trkpt lat="45.59312" lon="6.74845">
        <ele>843.21337890625</ele>
        <time>2016-08-21T10:55:55Z</time>
      </trkpt>
      <trkpt lat="45.59255" lon="6.7482">
        <ele>842.25219726562</ele>
        <time>2016-08-21T10:56:03Z</time>
      </trkpt>
      <trkpt lat="45.59207" lon="6.74794">
        <ele>843.21337890625</ele>
        <time>2016-08-21T10:56:10Z</time>
      </trkpt>
      <trkpt lat="45.59163" lon="6.74762">
        <ele>842.25219726562</ele>
        <time>2016-08-21T10:56:17Z</time>
      </trkpt>
      <trkpt lat="45.59103" lon="6.74728">
        <ele>840.81005859375</ele>
        <time>2016-08-21T10:56:26Z</time>
      </trkpt>
      <trkpt lat="45.59035" lon="6.74696">
        <ele>841.771484375</ele>
        <time>2016-08-21T10:56:36Z</time>
      </trkpt>
      <trkpt lat="45.58973" lon="6.74671">
        <ele>839.3681640625</ele>
        <time>2016-08-21T10:56:45Z</time>
      </trkpt>
      <trkpt lat="45.58916" lon="6.74664">
        <ele>840.81005859375</ele>
        <time>2016-08-21T10:56:53Z</time>
      </trkpt>
      <trkpt lat="45.58867" lon="6.74665">
        <ele>839.84887695312</ele>
        <time>2016-08-21T10:57:00Z</time>
      </trkpt>
      <trkpt lat="45.58818" lon="6.74655">
        <ele>838.8876953125</ele>
        <time>2016-08-21T10:57:07Z</time>
      </trkpt>
      <trkpt lat="45.58772" lon="6.74632">
        <ele>838.40698242188</ele>
        <time>2016-08-21T10:57:14Z</time>
      </trkpt>
      <trkpt lat="45.5873" lon="6.74599">
        <ele>839.3681640625</ele>
        <time>2016-08-21T10:57:21Z</time>
      </trkpt>
      <trkpt lat="45.58678" lon="6.7455">
        <ele>838.8876953125</ele>
        <time>2016-08-21T10:57:31Z</time>
      </trkpt>
      <trkpt lat="45.58644" lon="6.74515">
        <ele>838.8876953125</ele>
        <time>2016-08-21T10:57:37Z</time>
      </trkpt>
      <trkpt lat="45.58588" lon="6.74437">
        <ele>838.40698242188</ele>
        <time>2016-08-21T10:57:48Z</time>
      </trkpt>
      <trkpt lat="45.58538" lon="6.74361">
        <ele>838.40698242188</ele>
        <time>2016-08-21T10:57:58Z</time>
      </trkpt>
      <trkpt lat="45.58478" lon="6.74272">
        <ele>838.8876953125</ele>
        <time>2016-08-21T10:58:10Z</time>
      </trkpt>
      <trkpt lat="45.58446" lon="6.74227">
        <ele>838.40698242188</ele>
        <time>2016-08-21T10:58:17Z</time>
      </trkpt>
      <trkpt lat="45.58412" lon="6.74181">
        <ele>838.8876953125</ele>
        <time>2016-08-21T10:58:25Z</time>
      </trkpt>
      <trkpt lat="45.58385" lon="6.74136">
        <ele>839.84887695312</ele>
        <time>2016-08-21T10:58:32Z</time>
      </trkpt>
      <trkpt lat="45.58364" lon="6.74086">
        <ele>840.32958984375</ele>
        <time>2016-08-21T10:58:39Z</time>
      </trkpt>
      <trkpt lat="45.58332" lon="6.74013">
        <ele>839.84887695312</ele>
        <time>2016-08-21T10:58:49Z</time>
      </trkpt>
      <trkpt lat="45.58299" lon="6.73963">
        <ele>838.8876953125</ele>
        <time>2016-08-21T10:58:57Z</time>
      </trkpt>
      <trkpt lat="45.58263" lon="6.73916">
        <ele>836.484375</ele>
        <time>2016-08-21T10:59:05Z</time>
      </trkpt>
      <trkpt lat="45.58234" lon="6.73878">
        <ele>836.00366210938</ele>
        <time>2016-08-21T10:59:11Z</time>
      </trkpt>
      <trkpt lat="45.58223" lon="6.73864">
        <ele>835.52294921875</ele>
        <time>2016-08-21T10:59:13Z</time>
      </trkpt>
      <trkpt lat="45.58187" lon="6.73815">
        <ele>833.60034179688</ele>
        <time>2016-08-21T10:59:19Z</time>
      </trkpt>
      <trkpt lat="45.58161" lon="6.73781">
        <ele>830.23583984375</ele>
        <time>2016-08-21T10:59:23Z</time>
      </trkpt>
      <trkpt lat="45.58132" lon="6.73749">
        <ele>829.75512695312</ele>
        <time>2016-08-21T10:59:27Z</time>
      </trkpt>
      <trkpt lat="45.58084" lon="6.73711">
        <ele>828.7939453125</ele>
        <time>2016-08-21T10:59:33Z</time>
      </trkpt>
      <trkpt lat="45.58052" lon="6.73687">
        <ele>825.42895507812</ele>
        <time>2016-08-21T10:59:37Z</time>
      </trkpt>
      <trkpt lat="45.58044" lon="6.7368">
        <ele>825.42895507812</ele>
        <time>2016-08-21T10:59:38Z</time>
      </trkpt>
      <trkpt lat="45.58007" lon="6.73644">
        <ele>823.98706054688</ele>
        <time>2016-08-21T10:59:43Z</time>
      </trkpt>
      <trkpt lat="45.57985" lon="6.73619">
        <ele>822.064453125</ele>
        <time>2016-08-21T10:59:46Z</time>
      </trkpt>
      <trkpt lat="45.5797" lon="6.73603">
        <ele>820.14184570312</ele>
        <time>2016-08-21T10:59:48Z</time>
      </trkpt>
      <trkpt lat="45.57906" lon="6.73523">
        <ele>818.69995117188</ele>
        <time>2016-08-21T10:59:57Z</time>
      </trkpt>
      <trkpt lat="45.57863" lon="6.73449">
        <ele>815.33544921875</ele>
        <time>2016-08-21T11:00:04Z</time>
      </trkpt>
      <trkpt lat="45.57834" lon="6.73394">
        <ele>813.41284179688</ele>
        <time>2016-08-21T11:00:09Z</time>
      </trkpt>
      <trkpt lat="45.57822" lon="6.73374">
        <ele>814.3740234375</ele>
        <time>2016-08-21T11:00:11Z</time>
      </trkpt>
      <trkpt lat="45.57777" lon="6.73312">
        <ele>811.00927734375</ele>
        <time>2016-08-21T11:00:18Z</time>
      </trkpt>
      <trkpt lat="45.57771" lon="6.73304">
        <ele>810.52856445312</ele>
        <time>2016-08-21T11:00:19Z</time>
      </trkpt>
      <trkpt lat="45.57734" lon="6.73248">
        <ele>809.5673828125</ele>
        <time>2016-08-21T11:00:25Z</time>
      </trkpt>
      <trkpt lat="45.57714" lon="6.73204">
        <ele>808.60595703125</ele>
        <time>2016-08-21T11:00:29Z</time>
      </trkpt>
      <trkpt lat="45.577" lon="6.73169">
        <ele>806.20263671875</ele>
        <time>2016-08-21T11:00:32Z</time>
      </trkpt>
      <trkpt lat="45.57695" lon="6.73157">
        <ele>806.20263671875</ele>
        <time>2016-08-21T11:00:33Z</time>
      </trkpt>
      <trkpt lat="45.57649" lon="6.7305">
        <ele>803.79956054688</ele>
        <time>2016-08-21T11:00:42Z</time>
      </trkpt>
      <trkpt lat="45.57604" lon="6.72969">
        <ele>800.91552734375</ele>
        <time>2016-08-21T11:00:49Z</time>
      </trkpt>
      <trkpt lat="45.57575" lon="6.72921">
        <ele>799.4736328125</ele>
        <time>2016-08-21T11:00:53Z</time>
      </trkpt>
      <trkpt lat="45.57531" lon="6.72847">
        <ele>797.0703125</ele>
        <time>2016-08-21T11:01:00Z</time>
      </trkpt>
      <trkpt lat="45.5751" lon="6.72807">
        <ele>794.18627929688</ele>
        <time>2016-08-21T11:01:04Z</time>
      </trkpt>
      <trkpt lat="45.57486" lon="6.7276">
        <ele>792.263671875</ele>
        <time>2016-08-21T11:01:09Z</time>
      </trkpt>
      <trkpt lat="45.57475" lon="6.72756">
        <ele>790.34106445312</ele>
        <time>2016-08-21T11:01:12Z</time>
      </trkpt>
      <trkpt lat="45.57471" lon="6.72769">
        <ele>789.37963867188</ele>
        <time>2016-08-21T11:01:14Z</time>
      </trkpt>
      <trkpt lat="45.57475" lon="6.72794">
        <ele>787.93774414062</ele>
        <time>2016-08-21T11:01:17Z</time>
      </trkpt>
      <trkpt lat="45.57483" lon="6.72812">
        <ele>786.49584960938</ele>
        <time>2016-08-21T11:01:19Z</time>
      </trkpt>
      <trkpt lat="45.57514" lon="6.72861">
        <ele>785.53442382812</ele>
        <time>2016-08-21T11:01:24Z</time>
      </trkpt>
      <trkpt lat="45.5754" lon="6.72909">
        <ele>782.169921875</ele>
        <time>2016-08-21T11:01:28Z</time>
      </trkpt>
      <trkpt lat="45.57558" lon="6.72953">
        <ele>779.28564453125</ele>
        <time>2016-08-21T11:01:31Z</time>
      </trkpt>
      <trkpt lat="45.57563" lon="6.72968">
        <ele>778.80517578125</ele>
        <time>2016-08-21T11:01:32Z</time>
      </trkpt>
      <trkpt lat="45.57577" lon="6.73015">
        <ele>775.92114257812</ele>
        <time>2016-08-21T11:01:35Z</time>
      </trkpt>
      <trkpt lat="45.57593" lon="6.7308">
        <ele>772.556640625</ele>
        <time>2016-08-21T11:01:39Z</time>
      </trkpt>
      <trkpt lat="45.57604" lon="6.73129">
        <ele>769.19213867188</ele>
        <time>2016-08-21T11:01:42Z</time>
      </trkpt>
      <trkpt lat="45.57617" lon="6.73177">
        <ele>765.82763671875</ele>
        <time>2016-08-21T11:01:45Z</time>
      </trkpt>
      <trkpt lat="45.57635" lon="6.73222">
        <ele>762.46264648438</ele>
        <time>2016-08-21T11:01:48Z</time>
      </trkpt>
      <trkpt lat="45.57647" lon="6.73253">
        <ele>761.50146484375</ele>
        <time>2016-08-21T11:01:50Z</time>
      </trkpt>
      <trkpt lat="45.57673" lon="6.73309">
        <ele>757.65625</ele>
        <time>2016-08-21T11:01:54Z</time>
      </trkpt>
      <trkpt lat="45.57679" lon="6.7332">
        <ele>755.73364257812</ele>
        <time>2016-08-21T11:01:55Z</time>
      </trkpt>
      <trkpt lat="45.57678" lon="6.73354">
        <ele>753.81103515625</ele>
        <time>2016-08-21T11:01:58Z</time>
      </trkpt>
      <trkpt lat="45.57673" lon="6.73364">
        <ele>752.36889648438</ele>
        <time>2016-08-21T11:01:59Z</time>
      </trkpt>
      <trkpt lat="45.57638" lon="6.73424">
        <ele>752.36889648438</ele>
        <time>2016-08-21T11:02:06Z</time>
      </trkpt>
      <trkpt lat="45.57629" lon="6.73448">
        <ele>751.88842773438</ele>
        <time>2016-08-21T11:02:10Z</time>
      </trkpt>
      <trkpt lat="45.57638" lon="6.7346">
        <ele>752.36889648438</ele>
        <time>2016-08-21T11:02:14Z</time>
      </trkpt>
      <trkpt lat="45.57643" lon="6.73458">
        <ele>751.88842773438</ele>
        <time>2016-08-21T11:02:15Z</time>
      </trkpt>
      <trkpt lat="45.57656" lon="6.73451">
        <ele>748.04321289062</ele>
        <time>2016-08-21T11:02:19Z</time>
      </trkpt>
      <trkpt lat="45.5766" lon="6.7345">
        <ele>748.04321289062</ele>
        <time>2016-08-21T11:02:21Z</time>
      </trkpt>
      <trkpt lat="45.57665" lon="6.73434">
        <ele>748.52368164062</ele>
        <time>2016-08-21T11:02:25Z</time>
      </trkpt>
      <trkpt lat="45.57667" lon="6.73419">
        <ele>747.56225585938</ele>
        <time>2016-08-21T11:02:27Z</time>
      </trkpt>
      <trkpt lat="45.57663" lon="6.73388">
        <ele>747.56225585938</ele>
        <time>2016-08-21T11:02:31Z</time>
      </trkpt>
      <trkpt lat="45.57639" lon="6.73347">
        <ele>747.56225585938</ele>
        <time>2016-08-21T11:02:36Z</time>
      </trkpt>
      <trkpt lat="45.57626" lon="6.73325">
        <ele>746.60107421875</ele>
        <time>2016-08-21T11:02:40Z</time>
      </trkpt>
      <trkpt lat="45.57606" lon="6.73301">
        <ele>746.60107421875</ele>
        <time>2016-08-21T11:02:46Z</time>
      </trkpt>
      <trkpt lat="45.57578" lon="6.73267">
        <ele>747.08154296875</ele>
        <time>2016-08-21T11:02:52Z</time>
      </trkpt>
      <trkpt lat="45.57572" lon="6.73261">
        <ele>747.08154296875</ele>
        <time>2016-08-21T11:02:53Z</time>
      </trkpt>
      <trkpt lat="45.57529" lon="6.73226">
        <ele>746.60107421875</ele>
        <time>2016-08-21T11:03:00Z</time>
      </trkpt>
      <trkpt lat="45.57517" lon="6.73216">
        <ele>746.60107421875</ele>
        <time>2016-08-21T11:03:02Z</time>
      </trkpt>
      <trkpt lat="45.57505" lon="6.73206">
        <ele>746.60107421875</ele>
        <time>2016-08-21T11:03:04Z</time>
      </trkpt>
      <trkpt lat="45.57476" lon="6.73182">
        <ele>747.08154296875</ele>
        <time>2016-08-21T11:03:09Z</time>
      </trkpt>
      <trkpt lat="45.57452" lon="6.73147">
        <ele>746.12036132812</ele>
        <time>2016-08-21T11:03:14Z</time>
      </trkpt>
      <trkpt lat="45.57428" lon="6.73076">
        <ele>745.15893554688</ele>
        <time>2016-08-21T11:03:22Z</time>
      </trkpt>
      <trkpt lat="45.5742" lon="6.73049">
        <ele>745.15893554688</ele>
        <time>2016-08-21T11:03:25Z</time>
      </trkpt>
      <trkpt lat="45.57412" lon="6.72994">
        <ele>745.15893554688</ele>
        <time>2016-08-21T11:03:31Z</time>
      </trkpt>
      <trkpt lat="45.57416" lon="6.72948">
        <ele>744.67822265625</ele>
        <time>2016-08-21T11:03:36Z</time>
      </trkpt>
      <trkpt lat="45.57417" lon="6.72907">
        <ele>743.71704101562</ele>
        <time>2016-08-21T11:03:40Z</time>
      </trkpt>
      <trkpt lat="45.57408" lon="6.72867">
        <ele>744.67822265625</ele>
        <time>2016-08-21T11:03:44Z</time>
      </trkpt>
      <trkpt lat="45.57391" lon="6.72847">
        <ele>742.755859375</ele>
        <time>2016-08-21T11:03:47Z</time>
      </trkpt>
      <trkpt lat="45.57384" lon="6.72843">
        <ele>742.755859375</ele>
        <time>2016-08-21T11:03:48Z</time>
      </trkpt>
      <trkpt lat="45.57332" lon="6.72818">
        <ele>741.79443359375</ele>
        <time>2016-08-21T11:03:56Z</time>
      </trkpt>
      <trkpt lat="45.57306" lon="6.72806">
        <ele>743.236328125</ele>
        <time>2016-08-21T11:04:00Z</time>
      </trkpt>
      <trkpt lat="45.5727" lon="6.72785">
        <ele>741.79443359375</ele>
        <time>2016-08-21T11:04:06Z</time>
      </trkpt>
      <trkpt lat="45.57254" lon="6.72768">
        <ele>741.79443359375</ele>
        <time>2016-08-21T11:04:09Z</time>
      </trkpt>
      <trkpt lat="45.57224" lon="6.72719">
        <ele>741.31372070312</ele>
        <time>2016-08-21T11:04:16Z</time>
      </trkpt>
      <trkpt lat="45.57198" lon="6.72678">
        <ele>740.8330078125</ele>
        <time>2016-08-21T11:04:22Z</time>
      </trkpt>
      <trkpt lat="45.57185" lon="6.72659">
        <ele>741.79443359375</ele>
        <time>2016-08-21T11:04:25Z</time>
      </trkpt>
      <trkpt lat="45.57168" lon="6.72619">
        <ele>741.31372070312</ele>
        <time>2016-08-21T11:04:30Z</time>
      </trkpt>
      <trkpt lat="45.57162" lon="6.72601">
        <ele>740.8330078125</ele>
        <time>2016-08-21T11:04:32Z</time>
      </trkpt>
      <trkpt lat="45.57143" lon="6.72575">
        <ele>741.31372070312</ele>
        <time>2016-08-21T11:04:36Z</time>
      </trkpt>
      <trkpt lat="45.57118" lon="6.72562">
        <ele>740.8330078125</ele>
        <time>2016-08-21T11:04:40Z</time>
      </trkpt>
      <trkpt lat="45.57107" lon="6.72552">
        <ele>740.3525390625</ele>
        <time>2016-08-21T11:04:42Z</time>
      </trkpt>
      <trkpt lat="45.57082" lon="6.7252">
        <ele>739.87182617188</ele>
        <time>2016-08-21T11:04:47Z</time>
      </trkpt>
      <trkpt lat="45.57071" lon="6.72494">
        <ele>740.3525390625</ele>
        <time>2016-08-21T11:04:50Z</time>
      </trkpt>
      <trkpt lat="45.57051" lon="6.72468">
        <ele>739.39111328125</ele>
        <time>2016-08-21T11:04:54Z</time>
      </trkpt>
      <trkpt lat="45.57014" lon="6.72437">
        <ele>738.42993164062</ele>
        <time>2016-08-21T11:05:00Z</time>
      </trkpt>
      <trkpt lat="45.56981" lon="6.72405">
        <ele>737.94921875</ele>
        <time>2016-08-21T11:05:06Z</time>
      </trkpt>
      <trkpt lat="45.56969" lon="6.72394">
        <ele>738.42993164062</ele>
        <time>2016-08-21T11:05:08Z</time>
      </trkpt>
      <trkpt lat="45.56925" lon="6.72363">
        <ele>737.94921875</ele>
        <time>2016-08-21T11:05:15Z</time>
      </trkpt>
      <trkpt lat="45.56878" lon="6.72339">
        <ele>737.46850585938</ele>
        <time>2016-08-21T11:05:22Z</time>
      </trkpt>
      <trkpt lat="45.56858" lon="6.72327">
        <ele>736.98779296875</ele>
        <time>2016-08-21T11:05:25Z</time>
      </trkpt>
      <trkpt lat="45.5684" lon="6.72296">
        <ele>736.02661132812</ele>
        <time>2016-08-21T11:05:29Z</time>
      </trkpt>
      <trkpt lat="45.5682" lon="6.72222">
        <ele>735.5458984375</ele>
        <time>2016-08-21T11:05:37Z</time>
      </trkpt>
      <trkpt lat="45.5681" lon="6.72154">
        <ele>735.5458984375</ele>
        <time>2016-08-21T11:05:44Z</time>
      </trkpt>
      <trkpt lat="45.56807" lon="6.72114">
        <ele>735.0654296875</ele>
        <time>2016-08-21T11:05:48Z</time>
      </trkpt>
      <trkpt lat="45.56809" lon="6.72066">
        <ele>735.0654296875</ele>
        <time>2016-08-21T11:05:53Z</time>
      </trkpt>
      <trkpt lat="45.56813" lon="6.72017">
        <ele>735.5458984375</ele>
        <time>2016-08-21T11:05:58Z</time>
      </trkpt>
      <trkpt lat="45.56813" lon="6.71962">
        <ele>735.5458984375</ele>
        <time>2016-08-21T11:06:04Z</time>
      </trkpt>
      <trkpt lat="45.56813" lon="6.71923">
        <ele>736.02661132812</ele>
        <time>2016-08-21T11:06:08Z</time>
      </trkpt>
      <trkpt lat="45.56809" lon="6.71882">
        <ele>736.02661132812</ele>
        <time>2016-08-21T11:06:12Z</time>
      </trkpt>
      <trkpt lat="45.56804" lon="6.71862">
        <ele>735.5458984375</ele>
        <time>2016-08-21T11:06:14Z</time>
      </trkpt>
      <trkpt lat="45.56801" lon="6.71833">
        <ele>735.5458984375</ele>
        <time>2016-08-21T11:06:17Z</time>
      </trkpt>
      <trkpt lat="45.56788" lon="6.71789">
        <ele>735.0654296875</ele>
        <time>2016-08-21T11:06:22Z</time>
      </trkpt>
      <trkpt lat="45.56756" lon="6.71737">
        <ele>734.58471679688</ele>
        <time>2016-08-21T11:06:29Z</time>
      </trkpt>
      <trkpt lat="45.56729" lon="6.71695">
        <ele>734.10400390625</ele>
        <time>2016-08-21T11:06:35Z</time>
      </trkpt>
      <trkpt lat="45.567" lon="6.71651">
        <ele>735.0654296875</ele>
        <time>2016-08-21T11:06:41Z</time>
      </trkpt>
      <trkpt lat="45.56695" lon="6.71645">
        <ele>734.58471679688</ele>
        <time>2016-08-21T11:06:42Z</time>
      </trkpt>
      <trkpt lat="45.56683" lon="6.71618">
        <ele>733.62329101562</ele>
        <time>2016-08-21T11:06:46Z</time>
      </trkpt>
      <trkpt lat="45.56681" lon="6.71584">
        <ele>736.02661132812</ele>
        <time>2016-08-21T11:06:51Z</time>
      </trkpt>
      <trkpt lat="45.56675" lon="6.71565">
        <ele>736.50732421875</ele>
        <time>2016-08-21T11:06:55Z</time>
      </trkpt>
      <trkpt lat="45.5667" lon="6.71546">
        <ele>736.50732421875</ele>
        <time>2016-08-21T11:06:58Z</time>
      </trkpt>
      <trkpt lat="45.56658" lon="6.715">
        <ele>736.02661132812</ele>
        <time>2016-08-21T11:07:06Z</time>
      </trkpt>
      <trkpt lat="45.56647" lon="6.71463">
        <ele>735.0654296875</ele>
        <time>2016-08-21T11:07:12Z</time>
      </trkpt>
      <trkpt lat="45.56643" lon="6.71438">
        <ele>733.142578125</ele>
        <time>2016-08-21T11:07:15Z</time>
      </trkpt>
      <trkpt lat="45.56642" lon="6.71428">
        <ele>733.142578125</ele>
        <time>2016-08-21T11:07:16Z</time>
      </trkpt>
      <trkpt lat="45.56649" lon="6.71392">
        <ele>732.18139648438</ele>
        <time>2016-08-21T11:07:20Z</time>
      </trkpt>
      <trkpt lat="45.56649" lon="6.71354">
        <ele>732.662109375</ele>
        <time>2016-08-21T11:07:24Z</time>
      </trkpt>
      <trkpt lat="45.5665" lon="6.71344">
        <ele>732.18139648438</ele>
        <time>2016-08-21T11:07:25Z</time>
      </trkpt>
      <trkpt lat="45.56657" lon="6.71292">
        <ele>730.7392578125</ele>
        <time>2016-08-21T11:07:30Z</time>
      </trkpt>
      <trkpt lat="45.56646" lon="6.71271">
        <ele>731.21997070312</ele>
        <time>2016-08-21T11:07:32Z</time>
      </trkpt>
      <trkpt lat="45.56635" lon="6.71262">
        <ele>730.7392578125</ele>
        <time>2016-08-21T11:07:34Z</time>
      </trkpt>
      <trkpt lat="45.56611" lon="6.71232">
        <ele>729.77783203125</ele>
        <time>2016-08-21T11:07:39Z</time>
      </trkpt>
      <trkpt lat="45.56603" lon="6.71217">
        <ele>730.7392578125</ele>
        <time>2016-08-21T11:07:41Z</time>
      </trkpt>
      <trkpt lat="45.56583" lon="6.71169">
        <ele>730.25854492188</ele>
        <time>2016-08-21T11:07:47Z</time>
      </trkpt>
      <trkpt lat="45.56566" lon="6.71105">
        <ele>730.25854492188</ele>
        <time>2016-08-21T11:07:54Z</time>
      </trkpt>
      <trkpt lat="45.56557" lon="6.71039">
        <ele>729.29711914062</ele>
        <time>2016-08-21T11:08:01Z</time>
      </trkpt>
      <trkpt lat="45.56547" lon="6.70983">
        <ele>728.81665039062</ele>
        <time>2016-08-21T11:08:07Z</time>
      </trkpt>
      <trkpt lat="45.56545" lon="6.70963">
        <ele>727.85522460938</ele>
        <time>2016-08-21T11:08:09Z</time>
      </trkpt>
      <trkpt lat="45.56545" lon="6.70914">
        <ele>728.81665039062</ele>
        <time>2016-08-21T11:08:14Z</time>
      </trkpt>
      <trkpt lat="45.56551" lon="6.70863">
        <ele>728.3359375</ele>
        <time>2016-08-21T11:08:19Z</time>
      </trkpt>
      <trkpt lat="45.56564" lon="6.70826">
        <ele>727.85522460938</ele>
        <time>2016-08-21T11:08:23Z</time>
      </trkpt>
      <trkpt lat="45.56589" lon="6.70787">
        <ele>727.85522460938</ele>
        <time>2016-08-21T11:08:28Z</time>
      </trkpt>
      <trkpt lat="45.56623" lon="6.70759">
        <ele>728.3359375</ele>
        <time>2016-08-21T11:08:34Z</time>
      </trkpt>
      <trkpt lat="45.56662" lon="6.70727">
        <ele>727.85522460938</ele>
        <time>2016-08-21T11:08:40Z</time>
      </trkpt>
      <trkpt lat="45.56681" lon="6.70695">
        <ele>726.41333007812</ele>
        <time>2016-08-21T11:08:44Z</time>
      </trkpt>
      <trkpt lat="45.56684" lon="6.70676">
        <ele>726.41333007812</ele>
        <time>2016-08-21T11:08:46Z</time>
      </trkpt>
      <trkpt lat="45.56688" lon="6.70629">
        <ele>725.9326171875</ele>
        <time>2016-08-21T11:08:51Z</time>
      </trkpt>
      <trkpt lat="45.56684" lon="6.70589">
        <ele>726.41333007812</ele>
        <time>2016-08-21T11:08:55Z</time>
      </trkpt>
      <trkpt lat="45.56673" lon="6.70562">
        <ele>726.41333007812</ele>
        <time>2016-08-21T11:08:58Z</time>
      </trkpt>
      <trkpt lat="45.56638" lon="6.70518">
        <ele>725.9326171875</ele>
        <time>2016-08-21T11:09:05Z</time>
      </trkpt>
      <trkpt lat="45.56633" lon="6.70513">
        <ele>725.9326171875</ele>
        <time>2016-08-21T11:09:06Z</time>
      </trkpt>
      <trkpt lat="45.56605" lon="6.70493">
        <ele>726.41333007812</ele>
        <time>2016-08-21T11:09:11Z</time>
      </trkpt>
      <trkpt lat="45.56567" lon="6.70472">
        <ele>726.41333007812</ele>
        <time>2016-08-21T11:09:17Z</time>
      </trkpt>
      <trkpt lat="45.56536" lon="6.70449">
        <ele>725.45190429688</ele>
        <time>2016-08-21T11:09:22Z</time>
      </trkpt>
      <trkpt lat="45.56515" lon="6.70424">
        <ele>724.49072265625</ele>
        <time>2016-08-21T11:09:26Z</time>
      </trkpt>
      <trkpt lat="45.56474" lon="6.70366">
        <ele>724.01000976562</ele>
        <time>2016-08-21T11:09:34Z</time>
      </trkpt>
      <trkpt lat="45.56436" lon="6.70316">
        <ele>724.01000976562</ele>
        <time>2016-08-21T11:09:41Z</time>
      </trkpt>
      <trkpt lat="45.564" lon="6.70263">
        <ele>722.56811523438</ele>
        <time>2016-08-21T11:09:48Z</time>
      </trkpt>
      <trkpt lat="45.56391" lon="6.7022">
        <ele>721.12622070312</ele>
        <time>2016-08-21T11:09:52Z</time>
      </trkpt>
      <trkpt lat="45.56388" lon="6.70196">
        <ele>720.6455078125</ele>
        <time>2016-08-21T11:09:54Z</time>
      </trkpt>
      <trkpt lat="45.56383" lon="6.7015">
        <ele>719.20361328125</ele>
        <time>2016-08-21T11:09:58Z</time>
      </trkpt>
      <trkpt lat="45.56369" lon="6.70101">
        <ele>719.68432617188</ele>
        <time>2016-08-21T11:10:03Z</time>
      </trkpt>
      <trkpt lat="45.56358" lon="6.70057">
        <ele>719.68432617188</ele>
        <time>2016-08-21T11:10:08Z</time>
      </trkpt>
      <trkpt lat="45.56346" lon="6.69979">
        <ele>718.2421875</ele>
        <time>2016-08-21T11:10:16Z</time>
      </trkpt>
      <trkpt lat="45.56336" lon="6.6991">
        <ele>717.28100585938</ele>
        <time>2016-08-21T11:10:23Z</time>
      </trkpt>
      <trkpt lat="45.56332" lon="6.6986">
        <ele>717.28100585938</ele>
        <time>2016-08-21T11:10:28Z</time>
      </trkpt>
      <trkpt lat="45.56329" lon="6.69811">
        <ele>717.28100585938</ele>
        <time>2016-08-21T11:10:33Z</time>
      </trkpt>
      <trkpt lat="45.56327" lon="6.69747">
        <ele>718.2421875</ele>
        <time>2016-08-21T11:10:39Z</time>
      </trkpt>
      <trkpt lat="45.56327" lon="6.69737">
        <ele>718.2421875</ele>
        <time>2016-08-21T11:10:40Z</time>
      </trkpt>
      <trkpt lat="45.56338" lon="6.6966">
        <ele>717.28100585938</ele>
        <time>2016-08-21T11:10:48Z</time>
      </trkpt>
      <trkpt lat="45.5635" lon="6.69613">
        <ele>718.72290039062</ele>
        <time>2016-08-21T11:10:53Z</time>
      </trkpt>
      <trkpt lat="45.56353" lon="6.69594">
        <ele>720.16479492188</ele>
        <time>2016-08-21T11:10:55Z</time>
      </trkpt>
      <trkpt lat="45.56349" lon="6.69558">
        <ele>718.72290039062</ele>
        <time>2016-08-21T11:10:59Z</time>
      </trkpt>
      <trkpt lat="45.56333" lon="6.69477">
        <ele>717.28100585938</ele>
        <time>2016-08-21T11:11:08Z</time>
      </trkpt>
      <trkpt lat="45.5633" lon="6.69458">
        <ele>717.76147460938</ele>
        <time>2016-08-21T11:11:10Z</time>
      </trkpt>
      <trkpt lat="45.56315" lon="6.69418">
        <ele>716.31958007812</ele>
        <time>2016-08-21T11:11:15Z</time>
      </trkpt>
      <trkpt lat="45.56309" lon="6.69382">
        <ele>715.35815429688</ele>
        <time>2016-08-21T11:11:19Z</time>
      </trkpt>
      <trkpt lat="45.56308" lon="6.69314">
        <ele>714.39672851562</ele>
        <time>2016-08-21T11:11:26Z</time>
      </trkpt>
      <trkpt lat="45.56308" lon="6.69304">
        <ele>712.95483398438</ele>
        <time>2016-08-21T11:11:27Z</time>
      </trkpt>
      <trkpt lat="45.56303" lon="6.69268">
        <ele>713.916015625</ele>
        <time>2016-08-21T11:11:31Z</time>
      </trkpt>
      <trkpt lat="45.56291" lon="6.69221">
        <ele>713.435546875</ele>
        <time>2016-08-21T11:11:36Z</time>
      </trkpt>
      <trkpt lat="45.56278" lon="6.69178">
        <ele>713.916015625</ele>
        <time>2016-08-21T11:11:41Z</time>
      </trkpt>
      <trkpt lat="45.56253" lon="6.69135">
        <ele>714.39672851562</ele>
        <time>2016-08-21T11:11:47Z</time>
      </trkpt>
      <trkpt lat="45.56225" lon="6.69083">
        <ele>714.39672851562</ele>
        <time>2016-08-21T11:11:54Z</time>
      </trkpt>
      <trkpt lat="45.56221" lon="6.69074">
        <ele>714.39672851562</ele>
        <time>2016-08-21T11:11:55Z</time>
      </trkpt>
      <trkpt lat="45.56213" lon="6.69048">
        <ele>713.435546875</ele>
        <time>2016-08-21T11:11:58Z</time>
      </trkpt>
      <trkpt lat="45.56209" lon="6.6903">
        <ele>713.435546875</ele>
        <time>2016-08-21T11:12:00Z</time>
      </trkpt>
      <trkpt lat="45.56204" lon="6.69012">
        <ele>712.47412109375</ele>
        <time>2016-08-21T11:12:02Z</time>
      </trkpt>
      <trkpt lat="45.56192" lon="6.68971">
        <ele>713.435546875</ele>
        <time>2016-08-21T11:12:06Z</time>
      </trkpt>
      <trkpt lat="45.56182" lon="6.68894">
        <ele>712.95483398438</ele>
        <time>2016-08-21T11:12:14Z</time>
      </trkpt>
      <trkpt lat="45.56181" lon="6.68853">
        <ele>712.95483398438</ele>
        <time>2016-08-21T11:12:18Z</time>
      </trkpt>
      <trkpt lat="45.56191" lon="6.68811">
        <ele>710.55151367188</ele>
        <time>2016-08-21T11:12:22Z</time>
      </trkpt>
      <trkpt lat="45.56195" lon="6.68801">
        <ele>710.55151367188</ele>
        <time>2016-08-21T11:12:23Z</time>
      </trkpt>
      <trkpt lat="45.56201" lon="6.68746">
        <ele>709.59033203125</ele>
        <time>2016-08-21T11:12:28Z</time>
      </trkpt>
      <trkpt lat="45.56226" lon="6.68669">
        <ele>710.07080078125</ele>
        <time>2016-08-21T11:12:36Z</time>
      </trkpt>
      <trkpt lat="45.56254" lon="6.68608">
        <ele>709.59033203125</ele>
        <time>2016-08-21T11:12:43Z</time>
      </trkpt>
      <trkpt lat="45.56281" lon="6.68536">
        <ele>708.62890625</ele>
        <time>2016-08-21T11:12:51Z</time>
      </trkpt>
      <trkpt lat="45.56285" lon="6.68527">
        <ele>708.62890625</ele>
        <time>2016-08-21T11:12:52Z</time>
      </trkpt>
      <trkpt lat="45.56304" lon="6.68497">
        <ele>708.62890625</ele>
        <time>2016-08-21T11:12:56Z</time>
      </trkpt>
      <trkpt lat="45.56332" lon="6.68469">
        <ele>708.1484375</ele>
        <time>2016-08-21T11:13:01Z</time>
      </trkpt>
      <trkpt lat="45.56349" lon="6.68436">
        <ele>708.1484375</ele>
        <time>2016-08-21T11:13:05Z</time>
      </trkpt>
      <trkpt lat="45.5635" lon="6.68417">
        <ele>708.62890625</ele>
        <time>2016-08-21T11:13:07Z</time>
      </trkpt>
      <trkpt lat="45.56348" lon="6.68359">
        <ele>708.62890625</ele>
        <time>2016-08-21T11:13:14Z</time>
      </trkpt>
      <trkpt lat="45.56354" lon="6.68318">
        <ele>709.10961914062</ele>
        <time>2016-08-21T11:13:19Z</time>
      </trkpt>
      <trkpt lat="45.5637" lon="6.68269">
        <ele>709.10961914062</ele>
        <time>2016-08-21T11:13:25Z</time>
      </trkpt>
      <trkpt lat="45.56375" lon="6.68248">
        <ele>708.1484375</ele>
        <time>2016-08-21T11:13:27Z</time>
      </trkpt>
      <trkpt lat="45.56374" lon="6.68203">
        <ele>707.66772460938</ele>
        <time>2016-08-21T11:13:31Z</time>
      </trkpt>
      <trkpt lat="45.56364" lon="6.6816">
        <ele>705.7451171875</ele>
        <time>2016-08-21T11:13:35Z</time>
      </trkpt>
      <trkpt lat="45.56348" lon="6.68093">
        <ele>704.30322265625</ele>
        <time>2016-08-21T11:13:41Z</time>
      </trkpt>
      <trkpt lat="45.5634" lon="6.68061">
        <ele>702.38037109375</ele>
        <time>2016-08-21T11:13:44Z</time>
      </trkpt>
      <trkpt lat="45.56334" lon="6.68042">
        <ele>702.86108398438</ele>
        <time>2016-08-21T11:13:46Z</time>
      </trkpt>
      <trkpt lat="45.56328" lon="6.68015">
        <ele>702.86108398438</ele>
        <time>2016-08-21T11:13:49Z</time>
      </trkpt>
      <trkpt lat="45.56321" lon="6.67986">
        <ele>701.41918945312</ele>
        <time>2016-08-21T11:13:53Z</time>
      </trkpt>
      <trkpt lat="45.56305" lon="6.67943">
        <ele>702.38037109375</ele>
        <time>2016-08-21T11:13:59Z</time>
      </trkpt>
      <trkpt lat="45.56296" lon="6.67918">
        <ele>702.86108398438</ele>
        <time>2016-08-21T11:14:02Z</time>
      </trkpt>
      <trkpt lat="45.56286" lon="6.67868">
        <ele>700.9384765625</ele>
        <time>2016-08-21T11:14:07Z</time>
      </trkpt>
      <trkpt lat="45.56285" lon="6.67845">
        <ele>699.49633789062</ele>
        <time>2016-08-21T11:14:09Z</time>
      </trkpt>
      <trkpt lat="45.56269" lon="6.67784">
        <ele>698.05444335938</ele>
        <time>2016-08-21T11:14:14Z</time>
      </trkpt>
      <trkpt lat="45.56241" lon="6.67714">
        <ele>696.61254882812</ele>
        <time>2016-08-21T11:14:20Z</time>
      </trkpt>
      <trkpt lat="45.56237" lon="6.67704">
        <ele>697.09301757812</ele>
        <time>2016-08-21T11:14:21Z</time>
      </trkpt>
      <trkpt lat="45.56214" lon="6.67668">
        <ele>696.1318359375</ele>
        <time>2016-08-21T11:14:25Z</time>
      </trkpt>
      <trkpt lat="45.56172" lon="6.67624">
        <ele>694.68969726562</ele>
        <time>2016-08-21T11:14:31Z</time>
      </trkpt>
      <trkpt lat="45.56144" lon="6.67594">
        <ele>693.728515625</ele>
        <time>2016-08-21T11:14:35Z</time>
      </trkpt>
      <trkpt lat="45.56123" lon="6.6756">
        <ele>694.68969726562</ele>
        <time>2016-08-21T11:14:39Z</time>
      </trkpt>
      <trkpt lat="45.56107" lon="6.6753">
        <ele>692.28662109375</ele>
        <time>2016-08-21T11:14:42Z</time>
      </trkpt>
      <trkpt lat="45.56099" lon="6.6751">
        <ele>691.80590820312</ele>
        <time>2016-08-21T11:14:44Z</time>
      </trkpt>
      <trkpt lat="45.56067" lon="6.67423">
        <ele>691.80590820312</ele>
        <time>2016-08-21T11:14:52Z</time>
      </trkpt>
      <trkpt lat="45.56042" lon="6.67343">
        <ele>691.3251953125</ele>
        <time>2016-08-21T11:14:59Z</time>
      </trkpt>
      <trkpt lat="45.56028" lon="6.67259">
        <ele>690.36401367188</ele>
        <time>2016-08-21T11:15:06Z</time>
      </trkpt>
      <trkpt lat="45.56025" lon="6.67226">
        <ele>688.44140625</ele>
        <time>2016-08-21T11:15:09Z</time>
      </trkpt>
      <trkpt lat="45.56037" lon="6.67167">
        <ele>686.99926757812</ele>
        <time>2016-08-21T11:15:14Z</time>
      </trkpt>
      <trkpt lat="45.5604" lon="6.67113">
        <ele>686.0380859375</ele>
        <time>2016-08-21T11:15:19Z</time>
      </trkpt>
      <trkpt lat="45.56029" lon="6.67082">
        <ele>686.0380859375</ele>
        <time>2016-08-21T11:15:22Z</time>
      </trkpt>
      <trkpt lat="45.56005" lon="6.67031">
        <ele>686.51879882812</ele>
        <time>2016-08-21T11:15:28Z</time>
      </trkpt>
      <trkpt lat="45.55994" lon="6.66995">
        <ele>685.55737304688</ele>
        <time>2016-08-21T11:15:32Z</time>
      </trkpt>
      <trkpt lat="45.55972" lon="6.66937">
        <ele>686.51879882812</ele>
        <time>2016-08-21T11:15:38Z</time>
      </trkpt>
      <trkpt lat="45.55936" lon="6.66858">
        <ele>686.0380859375</ele>
        <time>2016-08-21T11:15:46Z</time>
      </trkpt>
      <trkpt lat="45.55921" lon="6.66805">
        <ele>685.07690429688</ele>
        <time>2016-08-21T11:15:51Z</time>
      </trkpt>
      <trkpt lat="45.55911" lon="6.66749">
        <ele>683.63452148438</ele>
        <time>2016-08-21T11:15:56Z</time>
      </trkpt>
      <trkpt lat="45.55899" lon="6.66684">
        <ele>683.63452148438</ele>
        <time>2016-08-21T11:16:02Z</time>
      </trkpt>
      <trkpt lat="45.55872" lon="6.6664">
        <ele>683.15380859375</ele>
        <time>2016-08-21T11:16:07Z</time>
      </trkpt>
      <trkpt lat="45.55859" lon="6.66628">
        <ele>683.15380859375</ele>
        <time>2016-08-21T11:16:09Z</time>
      </trkpt>
      <trkpt lat="45.55846" lon="6.66613">
        <ele>683.15380859375</ele>
        <time>2016-08-21T11:16:11Z</time>
      </trkpt>
      <trkpt lat="45.55815" lon="6.66579">
        <ele>681.7119140625</ele>
        <time>2016-08-21T11:16:16Z</time>
      </trkpt>
      <trkpt lat="45.55777" lon="6.66522">
        <ele>680.75073242188</ele>
        <time>2016-08-21T11:16:23Z</time>
      </trkpt>
      <trkpt lat="45.55739" lon="6.66459">
        <ele>679.30859375</ele>
        <time>2016-08-21T11:16:30Z</time>
      </trkpt>
      <trkpt lat="45.55723" lon="6.66434">
        <ele>678.34741210938</ele>
        <time>2016-08-21T11:16:33Z</time>
      </trkpt>
      <trkpt lat="45.55715" lon="6.66417">
        <ele>677.86669921875</ele>
        <time>2016-08-21T11:16:35Z</time>
      </trkpt>
      <trkpt lat="45.55701" lon="6.66394">
        <ele>675.94409179688</ele>
        <time>2016-08-21T11:16:39Z</time>
      </trkpt>
      <trkpt lat="45.55699" lon="6.66389">
        <ele>675.94409179688</ele>
        <time>2016-08-21T11:16:40Z</time>
      </trkpt>
      <trkpt lat="45.55698" lon="6.66384">
        <ele>675.94409179688</ele>
        <time>2016-08-21T11:16:41Z</time>
      </trkpt>
      <trkpt lat="45.5569" lon="6.66338">
        <ele>675.46337890625</ele>
        <time>2016-08-21T11:16:47Z</time>
      </trkpt>
      <trkpt lat="45.55682" lon="6.6629">
        <ele>677.38623046875</ele>
        <time>2016-08-21T11:16:52Z</time>
      </trkpt>
      <trkpt lat="45.55675" lon="6.66261">
        <ele>675.94409179688</ele>
        <time>2016-08-21T11:16:55Z</time>
      </trkpt>
      <trkpt lat="45.55662" lon="6.66212">
        <ele>674.021484375</ele>
        <time>2016-08-21T11:17:01Z</time>
      </trkpt>
      <trkpt lat="45.5565" lon="6.66187">
        <ele>674.50219726562</ele>
        <time>2016-08-21T11:17:05Z</time>
      </trkpt>
      <trkpt lat="45.55629" lon="6.6615">
        <ele>674.98291015625</ele>
        <time>2016-08-21T11:17:11Z</time>
      </trkpt>
      <trkpt lat="45.55612" lon="6.66135">
        <ele>674.98291015625</ele>
        <time>2016-08-21T11:17:15Z</time>
      </trkpt>
      <trkpt lat="45.55602" lon="6.66137">
        <ele>675.46337890625</ele>
        <time>2016-08-21T11:17:17Z</time>
      </trkpt>
      <trkpt lat="45.55594" lon="6.66139">
        <ele>674.021484375</ele>
        <time>2016-08-21T11:17:19Z</time>
      </trkpt>
      <trkpt lat="45.55589" lon="6.66135">
        <ele>673.06030273438</ele>
        <time>2016-08-21T11:17:23Z</time>
      </trkpt>
    </trkseg>
  </trk>
</gpx>